<?xml version="1.0" encoding="UTF-8" standalone="no" ?>
<gpx xmlns="http://www.topografix.com/GPX/1/1" xmlns:xsi="http://www.w3.org/2001/XMLSchema-instance" xsi:schemaLocation="http://www.topografix.com/GPX/1/1 http://www.topografix.com/GPX/1/1/gpx.xsd" version="1.1" creator="VisuGPX - https://www.visugpx.com">
  <metadata>
    <name>Marche nordique</name>
    <desc><![CDATA[Un très beau parcours au dessus de Fixey]]></desc>
  </metadata>
  <trk>
    <name><![CDATA[06/04/2013 7:57]]></name>
    <desc><![CDATA[]]></desc>
    <trkseg>
      <trkpt lat="47.24984" lon="4.96932">
        <ele>365.7</ele>
        <time>2013-04-06T05:59:38.000Z</time>
      </trkpt>
      <trkpt lat="47.24986" lon="4.96926">
        <ele>366.7</ele>
        <time>2013-04-06T05:59:39.000Z</time>
      </trkpt>
      <trkpt lat="47.24984" lon="4.96925">
        <ele>369.4</ele>
        <time>2013-04-06T05:59:52.000Z</time>
      </trkpt>
      <trkpt lat="47.2498" lon="4.96911">
        <ele>377.5</ele>
        <time>2013-04-06T05:59:59.000Z</time>
      </trkpt>
      <trkpt lat="47.24981" lon="4.96917">
        <ele>381</ele>
        <time>2013-04-06T06:00:34.000Z</time>
      </trkpt>
      <trkpt lat="47.24983" lon="4.96917">
        <ele>380.3</ele>
        <time>2013-04-06T06:00:35.000Z</time>
      </trkpt>
      <trkpt lat="47.24983" lon="4.96917">
        <ele>380.3</ele>
        <time>2013-04-06T06:00:52.000Z</time>
      </trkpt>
      <trkpt lat="47.24989" lon="4.96895">
        <ele>390.1</ele>
        <time>2013-04-06T06:01:01.000Z</time>
      </trkpt>
      <trkpt lat="47.2499" lon="4.96894">
        <ele>389.7</ele>
        <time>2013-04-06T06:01:10.000Z</time>
      </trkpt>
      <trkpt lat="47.24992" lon="4.96904">
        <ele>382.9</ele>
        <time>2013-04-06T06:01:11.000Z</time>
      </trkpt>
      <trkpt lat="47.24992" lon="4.96908">
        <ele>380.9</ele>
        <time>2013-04-06T06:02:26.000Z</time>
      </trkpt>
      <trkpt lat="47.24996" lon="4.96908">
        <ele>378.1</ele>
        <time>2013-04-06T06:02:27.000Z</time>
      </trkpt>
      <trkpt lat="47.24992" lon="4.9691">
        <ele>378.9</ele>
        <time>2013-04-06T06:02:32.000Z</time>
      </trkpt>
      <trkpt lat="47.2499" lon="4.96909">
        <ele>379.5</ele>
        <time>2013-04-06T06:02:33.000Z</time>
      </trkpt>
      <trkpt lat="47.24986" lon="4.96907">
        <ele>380.6</ele>
        <time>2013-04-06T06:02:36.000Z</time>
      </trkpt>
      <trkpt lat="47.24985" lon="4.96906">
        <ele>381</ele>
        <time>2013-04-06T06:02:37.000Z</time>
      </trkpt>
      <trkpt lat="47.24981" lon="4.96905">
        <ele>383</ele>
        <time>2013-04-06T06:02:39.000Z</time>
      </trkpt>
      <trkpt lat="47.24979" lon="4.96905">
        <ele>383.6</ele>
        <time>2013-04-06T06:02:40.000Z</time>
      </trkpt>
      <trkpt lat="47.24976" lon="4.96904">
        <ele>384.6</ele>
        <time>2013-04-06T06:02:42.000Z</time>
      </trkpt>
      <trkpt lat="47.24974" lon="4.96904">
        <ele>385</ele>
        <time>2013-04-06T06:02:43.000Z</time>
      </trkpt>
      <trkpt lat="47.24971" lon="4.96903">
        <ele>385.7</ele>
        <time>2013-04-06T06:02:45.000Z</time>
      </trkpt>
      <trkpt lat="47.24969" lon="4.96902">
        <ele>386.2</ele>
        <time>2013-04-06T06:02:46.000Z</time>
      </trkpt>
      <trkpt lat="47.24966" lon="4.96901">
        <ele>386.8</ele>
        <time>2013-04-06T06:02:48.000Z</time>
      </trkpt>
      <trkpt lat="47.24964" lon="4.96901">
        <ele>387.1</ele>
        <time>2013-04-06T06:02:49.000Z</time>
      </trkpt>
      <trkpt lat="47.2496" lon="4.969">
        <ele>387.4</ele>
        <time>2013-04-06T06:02:51.000Z</time>
      </trkpt>
      <trkpt lat="47.24958" lon="4.96899">
        <ele>387.5</ele>
        <time>2013-04-06T06:02:52.000Z</time>
      </trkpt>
      <trkpt lat="47.24957" lon="4.96898">
        <ele>387.7</ele>
        <time>2013-04-06T06:02:53.000Z</time>
      </trkpt>
      <trkpt lat="47.24943" lon="4.96897">
        <ele>393</ele>
        <time>2013-04-06T06:03:00.000Z</time>
      </trkpt>
      <trkpt lat="47.2494" lon="4.96895">
        <ele>391.4</ele>
        <time>2013-04-06T06:03:02.000Z</time>
      </trkpt>
      <trkpt lat="47.24938" lon="4.96894">
        <ele>391.5</ele>
        <time>2013-04-06T06:03:03.000Z</time>
      </trkpt>
      <trkpt lat="47.24934" lon="4.96892">
        <ele>391.4</ele>
        <time>2013-04-06T06:03:05.000Z</time>
      </trkpt>
      <trkpt lat="47.24933" lon="4.96892">
        <ele>391.7</ele>
        <time>2013-04-06T06:03:06.000Z</time>
      </trkpt>
      <trkpt lat="47.2493" lon="4.9689">
        <ele>391.8</ele>
        <time>2013-04-06T06:03:08.000Z</time>
      </trkpt>
      <trkpt lat="47.24928" lon="4.9689">
        <ele>392.3</ele>
        <time>2013-04-06T06:03:09.000Z</time>
      </trkpt>
      <trkpt lat="47.24926" lon="4.96889">
        <ele>392.3</ele>
        <time>2013-04-06T06:03:11.000Z</time>
      </trkpt>
      <trkpt lat="47.24924" lon="4.96888">
        <ele>392.4</ele>
        <time>2013-04-06T06:03:12.000Z</time>
      </trkpt>
      <trkpt lat="47.24921" lon="4.96888">
        <ele>392.6</ele>
        <time>2013-04-06T06:03:14.000Z</time>
      </trkpt>
      <trkpt lat="47.24919" lon="4.96888">
        <ele>393.3</ele>
        <time>2013-04-06T06:03:15.000Z</time>
      </trkpt>
      <trkpt lat="47.24914" lon="4.96887">
        <ele>394</ele>
        <time>2013-04-06T06:03:18.000Z</time>
      </trkpt>
      <trkpt lat="47.24913" lon="4.96888">
        <ele>394.5</ele>
        <time>2013-04-06T06:03:19.000Z</time>
      </trkpt>
      <trkpt lat="47.24909" lon="4.96887">
        <ele>394.5</ele>
        <time>2013-04-06T06:03:21.000Z</time>
      </trkpt>
      <trkpt lat="47.24908" lon="4.96887">
        <ele>394.7</ele>
        <time>2013-04-06T06:03:22.000Z</time>
      </trkpt>
      <trkpt lat="47.24905" lon="4.96886">
        <ele>394.6</ele>
        <time>2013-04-06T06:03:24.000Z</time>
      </trkpt>
      <trkpt lat="47.24903" lon="4.96886">
        <ele>394.5</ele>
        <time>2013-04-06T06:03:25.000Z</time>
      </trkpt>
      <trkpt lat="47.24899" lon="4.96884">
        <ele>394.2</ele>
        <time>2013-04-06T06:03:28.000Z</time>
      </trkpt>
      <trkpt lat="47.24897" lon="4.96883">
        <ele>394.1</ele>
        <time>2013-04-06T06:03:29.000Z</time>
      </trkpt>
      <trkpt lat="47.24894" lon="4.96882">
        <ele>393.7</ele>
        <time>2013-04-06T06:03:31.000Z</time>
      </trkpt>
      <trkpt lat="47.24892" lon="4.96881">
        <ele>393.6</ele>
        <time>2013-04-06T06:03:32.000Z</time>
      </trkpt>
      <trkpt lat="47.24889" lon="4.9688">
        <ele>393.4</ele>
        <time>2013-04-06T06:03:34.000Z</time>
      </trkpt>
      <trkpt lat="47.24887" lon="4.9688">
        <ele>393.3</ele>
        <time>2013-04-06T06:03:35.000Z</time>
      </trkpt>
      <trkpt lat="47.24884" lon="4.96878">
        <ele>393</ele>
        <time>2013-04-06T06:03:37.000Z</time>
      </trkpt>
      <trkpt lat="47.24882" lon="4.96878">
        <ele>392.9</ele>
        <time>2013-04-06T06:03:38.000Z</time>
      </trkpt>
      <trkpt lat="47.24879" lon="4.96876">
        <ele>392.9</ele>
        <time>2013-04-06T06:03:40.000Z</time>
      </trkpt>
      <trkpt lat="47.24878" lon="4.96876">
        <ele>392.7</ele>
        <time>2013-04-06T06:03:41.000Z</time>
      </trkpt>
      <trkpt lat="47.24874" lon="4.96873">
        <ele>392.6</ele>
        <time>2013-04-06T06:03:44.000Z</time>
      </trkpt>
      <trkpt lat="47.24872" lon="4.96872">
        <ele>392.6</ele>
        <time>2013-04-06T06:03:45.000Z</time>
      </trkpt>
      <trkpt lat="47.24869" lon="4.96871">
        <ele>392.6</ele>
        <time>2013-04-06T06:03:47.000Z</time>
      </trkpt>
      <trkpt lat="47.24867" lon="4.9687">
        <ele>392.6</ele>
        <time>2013-04-06T06:03:48.000Z</time>
      </trkpt>
      <trkpt lat="47.24864" lon="4.96867">
        <ele>392.6</ele>
        <time>2013-04-06T06:03:50.000Z</time>
      </trkpt>
      <trkpt lat="47.24863" lon="4.96866">
        <ele>392.7</ele>
        <time>2013-04-06T06:03:51.000Z</time>
      </trkpt>
      <trkpt lat="47.24862" lon="4.96864">
        <ele>392.4</ele>
        <time>2013-04-06T06:03:52.000Z</time>
      </trkpt>
      <trkpt lat="47.24854" lon="4.96842">
        <ele>387.3</ele>
        <time>2013-04-06T06:04:00.000Z</time>
      </trkpt>
      <trkpt lat="47.2485" lon="4.96842">
        <ele>389.2</ele>
        <time>2013-04-06T06:04:02.000Z</time>
      </trkpt>
      <trkpt lat="47.24849" lon="4.96842">
        <ele>390.1</ele>
        <time>2013-04-06T06:04:03.000Z</time>
      </trkpt>
      <trkpt lat="47.24844" lon="4.96842">
        <ele>391.7</ele>
        <time>2013-04-06T06:04:06.000Z</time>
      </trkpt>
      <trkpt lat="47.24843" lon="4.96841">
        <ele>392</ele>
        <time>2013-04-06T06:04:07.000Z</time>
      </trkpt>
      <trkpt lat="47.24839" lon="4.9684">
        <ele>392.8</ele>
        <time>2013-04-06T06:04:10.000Z</time>
      </trkpt>
      <trkpt lat="47.24837" lon="4.9684">
        <ele>392.9</ele>
        <time>2013-04-06T06:04:11.000Z</time>
      </trkpt>
      <trkpt lat="47.24833" lon="4.96839">
        <ele>393.2</ele>
        <time>2013-04-06T06:04:14.000Z</time>
      </trkpt>
      <trkpt lat="47.24832" lon="4.96839">
        <ele>393.1</ele>
        <time>2013-04-06T06:04:15.000Z</time>
      </trkpt>
      <trkpt lat="47.24829" lon="4.96838">
        <ele>393.2</ele>
        <time>2013-04-06T06:04:17.000Z</time>
      </trkpt>
      <trkpt lat="47.24827" lon="4.96838">
        <ele>392.9</ele>
        <time>2013-04-06T06:04:18.000Z</time>
      </trkpt>
      <trkpt lat="47.24824" lon="4.9684">
        <ele>393.2</ele>
        <time>2013-04-06T06:04:20.000Z</time>
      </trkpt>
      <trkpt lat="47.24821" lon="4.9684">
        <ele>392.7</ele>
        <time>2013-04-06T06:04:21.000Z</time>
      </trkpt>
      <trkpt lat="47.24818" lon="4.96841">
        <ele>393.7</ele>
        <time>2013-04-06T06:04:23.000Z</time>
      </trkpt>
      <trkpt lat="47.24817" lon="4.96841">
        <ele>393.8</ele>
        <time>2013-04-06T06:04:24.000Z</time>
      </trkpt>
      <trkpt lat="47.24813" lon="4.96838">
        <ele>392.2</ele>
        <time>2013-04-06T06:04:27.000Z</time>
      </trkpt>
      <trkpt lat="47.24812" lon="4.96836">
        <ele>391.1</ele>
        <time>2013-04-06T06:04:28.000Z</time>
      </trkpt>
      <trkpt lat="47.24809" lon="4.96833">
        <ele>389</ele>
        <time>2013-04-06T06:04:31.000Z</time>
      </trkpt>
      <trkpt lat="47.24807" lon="4.96832">
        <ele>388.5</ele>
        <time>2013-04-06T06:04:32.000Z</time>
      </trkpt>
      <trkpt lat="47.24804" lon="4.96829">
        <ele>387.6</ele>
        <time>2013-04-06T06:04:35.000Z</time>
      </trkpt>
      <trkpt lat="47.24802" lon="4.96828">
        <ele>387.3</ele>
        <time>2013-04-06T06:04:36.000Z</time>
      </trkpt>
      <trkpt lat="47.24799" lon="4.96827">
        <ele>386.8</ele>
        <time>2013-04-06T06:04:38.000Z</time>
      </trkpt>
      <trkpt lat="47.24798" lon="4.96826">
        <ele>386.4</ele>
        <time>2013-04-06T06:04:39.000Z</time>
      </trkpt>
      <trkpt lat="47.24795" lon="4.96824">
        <ele>386</ele>
        <time>2013-04-06T06:04:41.000Z</time>
      </trkpt>
      <trkpt lat="47.24793" lon="4.96823">
        <ele>385.7</ele>
        <time>2013-04-06T06:04:42.000Z</time>
      </trkpt>
      <trkpt lat="47.2479" lon="4.96821">
        <ele>385.2</ele>
        <time>2013-04-06T06:04:44.000Z</time>
      </trkpt>
      <trkpt lat="47.24789" lon="4.9682">
        <ele>384.8</ele>
        <time>2013-04-06T06:04:45.000Z</time>
      </trkpt>
      <trkpt lat="47.24785" lon="4.96818">
        <ele>384.1</ele>
        <time>2013-04-06T06:04:47.000Z</time>
      </trkpt>
      <trkpt lat="47.24783" lon="4.96817">
        <ele>383.8</ele>
        <time>2013-04-06T06:04:48.000Z</time>
      </trkpt>
      <trkpt lat="47.2478" lon="4.96814">
        <ele>383</ele>
        <time>2013-04-06T06:04:50.000Z</time>
      </trkpt>
      <trkpt lat="47.24779" lon="4.96813">
        <ele>382.7</ele>
        <time>2013-04-06T06:04:51.000Z</time>
      </trkpt>
      <trkpt lat="47.24776" lon="4.96811">
        <ele>382.4</ele>
        <time>2013-04-06T06:04:53.000Z</time>
      </trkpt>
      <trkpt lat="47.24763" lon="4.96802">
        <ele>380.1</ele>
        <time>2013-04-06T06:05:00.000Z</time>
      </trkpt>
      <trkpt lat="47.24759" lon="4.968">
        <ele>380.5</ele>
        <time>2013-04-06T06:05:03.000Z</time>
      </trkpt>
      <trkpt lat="47.24758" lon="4.96799">
        <ele>380.1</ele>
        <time>2013-04-06T06:05:04.000Z</time>
      </trkpt>
      <trkpt lat="47.24754" lon="4.96797">
        <ele>379.7</ele>
        <time>2013-04-06T06:05:07.000Z</time>
      </trkpt>
      <trkpt lat="47.24752" lon="4.96796">
        <ele>379.5</ele>
        <time>2013-04-06T06:05:08.000Z</time>
      </trkpt>
      <trkpt lat="47.24748" lon="4.96794">
        <ele>379.1</ele>
        <time>2013-04-06T06:05:11.000Z</time>
      </trkpt>
      <trkpt lat="47.24746" lon="4.96793">
        <ele>378.7</ele>
        <time>2013-04-06T06:05:12.000Z</time>
      </trkpt>
      <trkpt lat="47.24743" lon="4.96789">
        <ele>378.4</ele>
        <time>2013-04-06T06:05:14.000Z</time>
      </trkpt>
      <trkpt lat="47.24742" lon="4.96787">
        <ele>377.9</ele>
        <time>2013-04-06T06:05:15.000Z</time>
      </trkpt>
      <trkpt lat="47.24742" lon="4.96782">
        <ele>377.5</ele>
        <time>2013-04-06T06:05:17.000Z</time>
      </trkpt>
      <trkpt lat="47.24742" lon="4.96779">
        <ele>377.4</ele>
        <time>2013-04-06T06:05:18.000Z</time>
      </trkpt>
      <trkpt lat="47.24742" lon="4.96775">
        <ele>377.4</ele>
        <time>2013-04-06T06:05:20.000Z</time>
      </trkpt>
      <trkpt lat="47.24742" lon="4.96773">
        <ele>377.3</ele>
        <time>2013-04-06T06:05:21.000Z</time>
      </trkpt>
      <trkpt lat="47.24742" lon="4.96766">
        <ele>377.2</ele>
        <time>2013-04-06T06:05:24.000Z</time>
      </trkpt>
      <trkpt lat="47.24742" lon="4.96764">
        <ele>377.1</ele>
        <time>2013-04-06T06:05:25.000Z</time>
      </trkpt>
      <trkpt lat="47.24742" lon="4.96759">
        <ele>377</ele>
        <time>2013-04-06T06:05:27.000Z</time>
      </trkpt>
      <trkpt lat="47.24742" lon="4.96757">
        <ele>376.9</ele>
        <time>2013-04-06T06:05:28.000Z</time>
      </trkpt>
      <trkpt lat="47.24741" lon="4.96752">
        <ele>377</ele>
        <time>2013-04-06T06:05:30.000Z</time>
      </trkpt>
      <trkpt lat="47.24741" lon="4.9675">
        <ele>377</ele>
        <time>2013-04-06T06:05:31.000Z</time>
      </trkpt>
      <trkpt lat="47.24741" lon="4.96745">
        <ele>377.1</ele>
        <time>2013-04-06T06:05:33.000Z</time>
      </trkpt>
      <trkpt lat="47.24741" lon="4.96743">
        <ele>377.2</ele>
        <time>2013-04-06T06:05:34.000Z</time>
      </trkpt>
      <trkpt lat="47.2474" lon="4.96736">
        <ele>377.6</ele>
        <time>2013-04-06T06:05:37.000Z</time>
      </trkpt>
      <trkpt lat="47.2474" lon="4.96734">
        <ele>377.7</ele>
        <time>2013-04-06T06:05:38.000Z</time>
      </trkpt>
      <trkpt lat="47.2474" lon="4.9673">
        <ele>377.8</ele>
        <time>2013-04-06T06:05:40.000Z</time>
      </trkpt>
      <trkpt lat="47.2474" lon="4.96727">
        <ele>377.9</ele>
        <time>2013-04-06T06:05:41.000Z</time>
      </trkpt>
      <trkpt lat="47.2474" lon="4.96721">
        <ele>378.1</ele>
        <time>2013-04-06T06:05:44.000Z</time>
      </trkpt>
      <trkpt lat="47.24739" lon="4.96719">
        <ele>378.1</ele>
        <time>2013-04-06T06:05:45.000Z</time>
      </trkpt>
      <trkpt lat="47.24739" lon="4.96714">
        <ele>378.4</ele>
        <time>2013-04-06T06:05:47.000Z</time>
      </trkpt>
      <trkpt lat="47.24739" lon="4.96711">
        <ele>378.6</ele>
        <time>2013-04-06T06:05:48.000Z</time>
      </trkpt>
      <trkpt lat="47.24739" lon="4.96707">
        <ele>378.9</ele>
        <time>2013-04-06T06:05:50.000Z</time>
      </trkpt>
      <trkpt lat="47.24739" lon="4.96704">
        <ele>379</ele>
        <time>2013-04-06T06:05:51.000Z</time>
      </trkpt>
      <trkpt lat="47.24739" lon="4.96702">
        <ele>379.2</ele>
        <time>2013-04-06T06:05:52.000Z</time>
      </trkpt>
      <trkpt lat="47.24737" lon="4.96684">
        <ele>379.6</ele>
        <time>2013-04-06T06:06:00.000Z</time>
      </trkpt>
      <trkpt lat="47.24737" lon="4.96678">
        <ele>379.3</ele>
        <time>2013-04-06T06:06:03.000Z</time>
      </trkpt>
      <trkpt lat="47.24737" lon="4.96675">
        <ele>379.3</ele>
        <time>2013-04-06T06:06:04.000Z</time>
      </trkpt>
      <trkpt lat="47.24736" lon="4.96669">
        <ele>380</ele>
        <time>2013-04-06T06:06:07.000Z</time>
      </trkpt>
      <trkpt lat="47.24736" lon="4.96667">
        <ele>380.4</ele>
        <time>2013-04-06T06:06:08.000Z</time>
      </trkpt>
      <trkpt lat="47.24735" lon="4.96663">
        <ele>380.9</ele>
        <time>2013-04-06T06:06:10.000Z</time>
      </trkpt>
      <trkpt lat="47.24735" lon="4.96661">
        <ele>381.4</ele>
        <time>2013-04-06T06:06:11.000Z</time>
      </trkpt>
      <trkpt lat="47.24735" lon="4.96656">
        <ele>381.7</ele>
        <time>2013-04-06T06:06:13.000Z</time>
      </trkpt>
      <trkpt lat="47.24735" lon="4.96654">
        <ele>381.9</ele>
        <time>2013-04-06T06:06:14.000Z</time>
      </trkpt>
      <trkpt lat="47.24735" lon="4.96649">
        <ele>382.7</ele>
        <time>2013-04-06T06:06:16.000Z</time>
      </trkpt>
      <trkpt lat="47.24735" lon="4.96647">
        <ele>383</ele>
        <time>2013-04-06T06:06:17.000Z</time>
      </trkpt>
      <trkpt lat="47.24736" lon="4.96642">
        <ele>384</ele>
        <time>2013-04-06T06:06:19.000Z</time>
      </trkpt>
      <trkpt lat="47.24735" lon="4.9664">
        <ele>384.2</ele>
        <time>2013-04-06T06:06:20.000Z</time>
      </trkpt>
      <trkpt lat="47.24735" lon="4.96635">
        <ele>384.8</ele>
        <time>2013-04-06T06:06:22.000Z</time>
      </trkpt>
      <trkpt lat="47.24735" lon="4.96633">
        <ele>385.3</ele>
        <time>2013-04-06T06:06:23.000Z</time>
      </trkpt>
      <trkpt lat="47.24735" lon="4.96628">
        <ele>385.8</ele>
        <time>2013-04-06T06:06:25.000Z</time>
      </trkpt>
      <trkpt lat="47.24735" lon="4.96626">
        <ele>386</ele>
        <time>2013-04-06T06:06:26.000Z</time>
      </trkpt>
      <trkpt lat="47.24735" lon="4.96619">
        <ele>386.3</ele>
        <time>2013-04-06T06:06:29.000Z</time>
      </trkpt>
      <trkpt lat="47.24734" lon="4.96617">
        <ele>386.6</ele>
        <time>2013-04-06T06:06:30.000Z</time>
      </trkpt>
      <trkpt lat="47.24734" lon="4.96611">
        <ele>387.1</ele>
        <time>2013-04-06T06:06:33.000Z</time>
      </trkpt>
      <trkpt lat="47.24733" lon="4.96609">
        <ele>387.3</ele>
        <time>2013-04-06T06:06:34.000Z</time>
      </trkpt>
      <trkpt lat="47.24733" lon="4.96602">
        <ele>388</ele>
        <time>2013-04-06T06:06:37.000Z</time>
      </trkpt>
      <trkpt lat="47.24733" lon="4.966">
        <ele>388.3</ele>
        <time>2013-04-06T06:06:38.000Z</time>
      </trkpt>
      <trkpt lat="47.24732" lon="4.96593">
        <ele>389.1</ele>
        <time>2013-04-06T06:06:41.000Z</time>
      </trkpt>
      <trkpt lat="47.24732" lon="4.96591">
        <ele>389.3</ele>
        <time>2013-04-06T06:06:42.000Z</time>
      </trkpt>
      <trkpt lat="47.24732" lon="4.96587">
        <ele>389.8</ele>
        <time>2013-04-06T06:06:44.000Z</time>
      </trkpt>
      <trkpt lat="47.24732" lon="4.96584">
        <ele>390.1</ele>
        <time>2013-04-06T06:06:45.000Z</time>
      </trkpt>
      <trkpt lat="47.24732" lon="4.9658">
        <ele>390.6</ele>
        <time>2013-04-06T06:06:47.000Z</time>
      </trkpt>
      <trkpt lat="47.24731" lon="4.96578">
        <ele>390.9</ele>
        <time>2013-04-06T06:06:48.000Z</time>
      </trkpt>
      <trkpt lat="47.24731" lon="4.96571">
        <ele>391.6</ele>
        <time>2013-04-06T06:06:51.000Z</time>
      </trkpt>
      <trkpt lat="47.24731" lon="4.96569">
        <ele>392</ele>
        <time>2013-04-06T06:06:52.000Z</time>
      </trkpt>
      <trkpt lat="47.24731" lon="4.96566">
        <ele>392.2</ele>
        <time>2013-04-06T06:06:53.000Z</time>
      </trkpt>
      <trkpt lat="47.24726" lon="4.96552">
        <ele>400</ele>
        <time>2013-04-06T06:07:00.000Z</time>
      </trkpt>
      <trkpt lat="47.24726" lon="4.96546">
        <ele>402.8</ele>
        <time>2013-04-06T06:07:03.000Z</time>
      </trkpt>
      <trkpt lat="47.24725" lon="4.96544">
        <ele>402.8</ele>
        <time>2013-04-06T06:07:04.000Z</time>
      </trkpt>
      <trkpt lat="47.24725" lon="4.96538">
        <ele>403.1</ele>
        <time>2013-04-06T06:07:07.000Z</time>
      </trkpt>
      <trkpt lat="47.24725" lon="4.96537">
        <ele>403.2</ele>
        <time>2013-04-06T06:07:08.000Z</time>
      </trkpt>
      <trkpt lat="47.24724" lon="4.9653">
        <ele>402.9</ele>
        <time>2013-04-06T06:07:11.000Z</time>
      </trkpt>
      <trkpt lat="47.24724" lon="4.96529">
        <ele>403.4</ele>
        <time>2013-04-06T06:07:12.000Z</time>
      </trkpt>
      <trkpt lat="47.24723" lon="4.96524">
        <ele>403.1</ele>
        <time>2013-04-06T06:07:14.000Z</time>
      </trkpt>
      <trkpt lat="47.24724" lon="4.96522">
        <ele>402.6</ele>
        <time>2013-04-06T06:07:15.000Z</time>
      </trkpt>
      <trkpt lat="47.24724" lon="4.96515">
        <ele>402.2</ele>
        <time>2013-04-06T06:07:18.000Z</time>
      </trkpt>
      <trkpt lat="47.24723" lon="4.96513">
        <ele>401.8</ele>
        <time>2013-04-06T06:07:19.000Z</time>
      </trkpt>
      <trkpt lat="47.24724" lon="4.96508">
        <ele>402.4</ele>
        <time>2013-04-06T06:07:21.000Z</time>
      </trkpt>
      <trkpt lat="47.24724" lon="4.96506">
        <ele>402.7</ele>
        <time>2013-04-06T06:07:22.000Z</time>
      </trkpt>
      <trkpt lat="47.24723" lon="4.965">
        <ele>403.4</ele>
        <time>2013-04-06T06:07:25.000Z</time>
      </trkpt>
      <trkpt lat="47.24723" lon="4.96498">
        <ele>403.7</ele>
        <time>2013-04-06T06:07:26.000Z</time>
      </trkpt>
      <trkpt lat="47.24723" lon="4.96493">
        <ele>403.9</ele>
        <time>2013-04-06T06:07:29.000Z</time>
      </trkpt>
      <trkpt lat="47.24723" lon="4.96492">
        <ele>404</ele>
        <time>2013-04-06T06:07:30.000Z</time>
      </trkpt>
      <trkpt lat="47.24723" lon="4.96486">
        <ele>404.8</ele>
        <time>2013-04-06T06:07:33.000Z</time>
      </trkpt>
      <trkpt lat="47.24723" lon="4.96484">
        <ele>405</ele>
        <time>2013-04-06T06:07:34.000Z</time>
      </trkpt>
      <trkpt lat="47.24723" lon="4.96479">
        <ele>405.1</ele>
        <time>2013-04-06T06:07:37.000Z</time>
      </trkpt>
      <trkpt lat="47.24723" lon="4.96477">
        <ele>405.1</ele>
        <time>2013-04-06T06:07:38.000Z</time>
      </trkpt>
      <trkpt lat="47.24723" lon="4.9647">
        <ele>405.2</ele>
        <time>2013-04-06T06:07:41.000Z</time>
      </trkpt>
      <trkpt lat="47.24722" lon="4.96468">
        <ele>405.5</ele>
        <time>2013-04-06T06:07:42.000Z</time>
      </trkpt>
      <trkpt lat="47.24723" lon="4.96463">
        <ele>405.7</ele>
        <time>2013-04-06T06:07:44.000Z</time>
      </trkpt>
      <trkpt lat="47.24723" lon="4.9646">
        <ele>406</ele>
        <time>2013-04-06T06:07:45.000Z</time>
      </trkpt>
      <trkpt lat="47.24724" lon="4.96456">
        <ele>406.6</ele>
        <time>2013-04-06T06:07:47.000Z</time>
      </trkpt>
      <trkpt lat="47.24724" lon="4.96454">
        <ele>406.9</ele>
        <time>2013-04-06T06:07:48.000Z</time>
      </trkpt>
      <trkpt lat="47.24724" lon="4.96447">
        <ele>407.5</ele>
        <time>2013-04-06T06:07:51.000Z</time>
      </trkpt>
      <trkpt lat="47.24725" lon="4.96445">
        <ele>407.7</ele>
        <time>2013-04-06T06:07:52.000Z</time>
      </trkpt>
      <trkpt lat="47.24725" lon="4.96443">
        <ele>408</ele>
        <time>2013-04-06T06:07:53.000Z</time>
      </trkpt>
      <trkpt lat="47.24723" lon="4.9642">
        <ele>414.4</ele>
        <time>2013-04-06T06:08:00.000Z</time>
      </trkpt>
      <trkpt lat="47.24723" lon="4.96415">
        <ele>413.5</ele>
        <time>2013-04-06T06:08:03.000Z</time>
      </trkpt>
      <trkpt lat="47.24724" lon="4.96412">
        <ele>414.1</ele>
        <time>2013-04-06T06:08:04.000Z</time>
      </trkpt>
      <trkpt lat="47.24725" lon="4.96408">
        <ele>414.2</ele>
        <time>2013-04-06T06:08:06.000Z</time>
      </trkpt>
      <trkpt lat="47.24724" lon="4.96405">
        <ele>414.3</ele>
        <time>2013-04-06T06:08:07.000Z</time>
      </trkpt>
      <trkpt lat="47.24726" lon="4.964">
        <ele>412.3</ele>
        <time>2013-04-06T06:08:10.000Z</time>
      </trkpt>
      <trkpt lat="47.24726" lon="4.96399">
        <ele>412.8</ele>
        <time>2013-04-06T06:08:11.000Z</time>
      </trkpt>
      <trkpt lat="47.24727" lon="4.96392">
        <ele>414.5</ele>
        <time>2013-04-06T06:08:15.000Z</time>
      </trkpt>
      <trkpt lat="47.24727" lon="4.96391">
        <ele>414.7</ele>
        <time>2013-04-06T06:08:16.000Z</time>
      </trkpt>
      <trkpt lat="47.24728" lon="4.96384">
        <ele>416.7</ele>
        <time>2013-04-06T06:08:20.000Z</time>
      </trkpt>
      <trkpt lat="47.24728" lon="4.96383">
        <ele>417.1</ele>
        <time>2013-04-06T06:08:21.000Z</time>
      </trkpt>
      <trkpt lat="47.24728" lon="4.96378">
        <ele>418.9</ele>
        <time>2013-04-06T06:08:24.000Z</time>
      </trkpt>
      <trkpt lat="47.24728" lon="4.96376">
        <ele>419.4</ele>
        <time>2013-04-06T06:08:25.000Z</time>
      </trkpt>
      <trkpt lat="47.24729" lon="4.9637">
        <ele>419.9</ele>
        <time>2013-04-06T06:08:28.000Z</time>
      </trkpt>
      <trkpt lat="47.2473" lon="4.96367">
        <ele>420.3</ele>
        <time>2013-04-06T06:08:29.000Z</time>
      </trkpt>
      <trkpt lat="47.2473" lon="4.96363">
        <ele>420.7</ele>
        <time>2013-04-06T06:08:32.000Z</time>
      </trkpt>
      <trkpt lat="47.2473" lon="4.96361">
        <ele>420.6</ele>
        <time>2013-04-06T06:08:33.000Z</time>
      </trkpt>
      <trkpt lat="47.2473" lon="4.96356">
        <ele>420.8</ele>
        <time>2013-04-06T06:08:35.000Z</time>
      </trkpt>
      <trkpt lat="47.24731" lon="4.96353">
        <ele>420.5</ele>
        <time>2013-04-06T06:08:36.000Z</time>
      </trkpt>
      <trkpt lat="47.24731" lon="4.96347">
        <ele>420.7</ele>
        <time>2013-04-06T06:08:39.000Z</time>
      </trkpt>
      <trkpt lat="47.24731" lon="4.96346">
        <ele>420.9</ele>
        <time>2013-04-06T06:08:40.000Z</time>
      </trkpt>
      <trkpt lat="47.24732" lon="4.9634">
        <ele>421.5</ele>
        <time>2013-04-06T06:08:43.000Z</time>
      </trkpt>
      <trkpt lat="47.24732" lon="4.96337">
        <ele>421.5</ele>
        <time>2013-04-06T06:08:44.000Z</time>
      </trkpt>
      <trkpt lat="47.24733" lon="4.96333">
        <ele>421.8</ele>
        <time>2013-04-06T06:08:46.000Z</time>
      </trkpt>
      <trkpt lat="47.24734" lon="4.9633">
        <ele>422</ele>
        <time>2013-04-06T06:08:47.000Z</time>
      </trkpt>
      <trkpt lat="47.24734" lon="4.96325">
        <ele>421.9</ele>
        <time>2013-04-06T06:08:49.000Z</time>
      </trkpt>
      <trkpt lat="47.24735" lon="4.96323">
        <ele>421.8</ele>
        <time>2013-04-06T06:08:50.000Z</time>
      </trkpt>
      <trkpt lat="47.24736" lon="4.96318">
        <ele>421.9</ele>
        <time>2013-04-06T06:08:52.000Z</time>
      </trkpt>
      <trkpt lat="47.24736" lon="4.96316">
        <ele>422</ele>
        <time>2013-04-06T06:08:53.000Z</time>
      </trkpt>
      <trkpt lat="47.24738" lon="4.96312">
        <ele>422.1</ele>
        <time>2013-04-06T06:08:55.000Z</time>
      </trkpt>
      <trkpt lat="47.24738" lon="4.9631">
        <ele>421.8</ele>
        <time>2013-04-06T06:08:56.000Z</time>
      </trkpt>
      <trkpt lat="47.24737" lon="4.96304">
        <ele>422.4</ele>
        <time>2013-04-06T06:09:01.000Z</time>
      </trkpt>
      <trkpt lat="47.24737" lon="4.96302">
        <ele>422.7</ele>
        <time>2013-04-06T06:09:02.000Z</time>
      </trkpt>
      <trkpt lat="47.24735" lon="4.96296">
        <ele>423.2</ele>
        <time>2013-04-06T06:09:06.000Z</time>
      </trkpt>
      <trkpt lat="47.24735" lon="4.96296">
        <ele>423.2</ele>
        <time>2013-04-06T06:09:07.000Z</time>
      </trkpt>
      <trkpt lat="47.24731" lon="4.96292">
        <ele>424.2</ele>
        <time>2013-04-06T06:09:12.000Z</time>
      </trkpt>
      <trkpt lat="47.24731" lon="4.96291">
        <ele>424.3</ele>
        <time>2013-04-06T06:09:13.000Z</time>
      </trkpt>
      <trkpt lat="47.24728" lon="4.96285">
        <ele>425</ele>
        <time>2013-04-06T06:09:18.000Z</time>
      </trkpt>
      <trkpt lat="47.24728" lon="4.96285">
        <ele>425.2</ele>
        <time>2013-04-06T06:09:19.000Z</time>
      </trkpt>
      <trkpt lat="47.24724" lon="4.96283">
        <ele>425.2</ele>
        <time>2013-04-06T06:09:23.000Z</time>
      </trkpt>
      <trkpt lat="47.24722" lon="4.96283">
        <ele>425.1</ele>
        <time>2013-04-06T06:09:24.000Z</time>
      </trkpt>
      <trkpt lat="47.24718" lon="4.9628">
        <ele>424.7</ele>
        <time>2013-04-06T06:09:27.000Z</time>
      </trkpt>
      <trkpt lat="47.24717" lon="4.96279">
        <ele>424.6</ele>
        <time>2013-04-06T06:09:28.000Z</time>
      </trkpt>
      <trkpt lat="47.24713" lon="4.96276">
        <ele>424.2</ele>
        <time>2013-04-06T06:09:31.000Z</time>
      </trkpt>
      <trkpt lat="47.24712" lon="4.96275">
        <ele>424.1</ele>
        <time>2013-04-06T06:09:32.000Z</time>
      </trkpt>
      <trkpt lat="47.24709" lon="4.96271">
        <ele>423.5</ele>
        <time>2013-04-06T06:09:34.000Z</time>
      </trkpt>
      <trkpt lat="47.24708" lon="4.9627">
        <ele>423.5</ele>
        <time>2013-04-06T06:09:35.000Z</time>
      </trkpt>
      <trkpt lat="47.24705" lon="4.96267">
        <ele>423</ele>
        <time>2013-04-06T06:09:38.000Z</time>
      </trkpt>
      <trkpt lat="47.24704" lon="4.96265">
        <ele>422.8</ele>
        <time>2013-04-06T06:09:39.000Z</time>
      </trkpt>
      <trkpt lat="47.24701" lon="4.96263">
        <ele>423</ele>
        <time>2013-04-06T06:09:46.000Z</time>
      </trkpt>
      <trkpt lat="47.247" lon="4.96263">
        <ele>423.1</ele>
        <time>2013-04-06T06:09:47.000Z</time>
      </trkpt>
      <trkpt lat="47.24696" lon="4.96262">
        <ele>422.9</ele>
        <time>2013-04-06T06:09:50.000Z</time>
      </trkpt>
      <trkpt lat="47.24695" lon="4.96261">
        <ele>422.9</ele>
        <time>2013-04-06T06:09:51.000Z</time>
      </trkpt>
      <trkpt lat="47.24693" lon="4.96259">
        <ele>422.8</ele>
        <time>2013-04-06T06:09:53.000Z</time>
      </trkpt>
      <trkpt lat="47.24683" lon="4.96252">
        <ele>425.2</ele>
        <time>2013-04-06T06:10:00.000Z</time>
      </trkpt>
      <trkpt lat="47.2468" lon="4.96251">
        <ele>425.4</ele>
        <time>2013-04-06T06:10:01.000Z</time>
      </trkpt>
      <trkpt lat="47.24678" lon="4.96249">
        <ele>426.4</ele>
        <time>2013-04-06T06:10:02.000Z</time>
      </trkpt>
      <trkpt lat="47.24676" lon="4.96245">
        <ele>428.5</ele>
        <time>2013-04-06T06:10:04.000Z</time>
      </trkpt>
      <trkpt lat="47.24675" lon="4.96242">
        <ele>428.6</ele>
        <time>2013-04-06T06:10:05.000Z</time>
      </trkpt>
      <trkpt lat="47.24673" lon="4.9624">
        <ele>431.3</ele>
        <time>2013-04-06T06:10:07.000Z</time>
      </trkpt>
      <trkpt lat="47.24672" lon="4.96233">
        <ele>428</ele>
        <time>2013-04-06T06:10:08.000Z</time>
      </trkpt>
      <trkpt lat="47.24669" lon="4.96228">
        <ele>427.7</ele>
        <time>2013-04-06T06:10:10.000Z</time>
      </trkpt>
      <trkpt lat="47.24668" lon="4.96226">
        <ele>427.4</ele>
        <time>2013-04-06T06:10:11.000Z</time>
      </trkpt>
      <trkpt lat="47.24666" lon="4.96221">
        <ele>426.8</ele>
        <time>2013-04-06T06:10:13.000Z</time>
      </trkpt>
      <trkpt lat="47.24665" lon="4.96219">
        <ele>427.8</ele>
        <time>2013-04-06T06:10:14.000Z</time>
      </trkpt>
      <trkpt lat="47.24664" lon="4.96212">
        <ele>423.9</ele>
        <time>2013-04-06T06:10:18.000Z</time>
      </trkpt>
      <trkpt lat="47.24664" lon="4.96209">
        <ele>423</ele>
        <time>2013-04-06T06:10:19.000Z</time>
      </trkpt>
      <trkpt lat="47.24664" lon="4.96205">
        <ele>422.2</ele>
        <time>2013-04-06T06:10:20.000Z</time>
      </trkpt>
      <trkpt lat="47.24664" lon="4.96201">
        <ele>422.2</ele>
        <time>2013-04-06T06:10:21.000Z</time>
      </trkpt>
      <trkpt lat="47.24664" lon="4.96195">
        <ele>419.6</ele>
        <time>2013-04-06T06:10:23.000Z</time>
      </trkpt>
      <trkpt lat="47.24664" lon="4.96191">
        <ele>417.9</ele>
        <time>2013-04-06T06:10:24.000Z</time>
      </trkpt>
      <trkpt lat="47.24662" lon="4.96186">
        <ele>419.6</ele>
        <time>2013-04-06T06:10:26.000Z</time>
      </trkpt>
      <trkpt lat="47.24662" lon="4.96184">
        <ele>419.6</ele>
        <time>2013-04-06T06:10:27.000Z</time>
      </trkpt>
      <trkpt lat="47.24658" lon="4.96181">
        <ele>419.8</ele>
        <time>2013-04-06T06:10:33.000Z</time>
      </trkpt>
      <trkpt lat="47.24657" lon="4.96181">
        <ele>420.2</ele>
        <time>2013-04-06T06:10:34.000Z</time>
      </trkpt>
      <trkpt lat="47.24654" lon="4.9618">
        <ele>417.7</ele>
        <time>2013-04-06T06:10:45.000Z</time>
      </trkpt>
      <trkpt lat="47.24653" lon="4.9618">
        <ele>417.4</ele>
        <time>2013-04-06T06:10:46.000Z</time>
      </trkpt>
      <trkpt lat="47.24649" lon="4.96178">
        <ele>416.6</ele>
        <time>2013-04-06T06:10:49.000Z</time>
      </trkpt>
      <trkpt lat="47.24649" lon="4.96177">
        <ele>416.5</ele>
        <time>2013-04-06T06:10:50.000Z</time>
      </trkpt>
      <trkpt lat="47.24645" lon="4.96176">
        <ele>416.2</ele>
        <time>2013-04-06T06:10:53.000Z</time>
      </trkpt>
      <trkpt lat="47.24634" lon="4.96163">
        <ele>414.2</ele>
        <time>2013-04-06T06:10:59.000Z</time>
      </trkpt>
      <trkpt lat="47.2463" lon="4.96165">
        <ele>414.6</ele>
        <time>2013-04-06T06:11:04.000Z</time>
      </trkpt>
      <trkpt lat="47.24629" lon="4.96166">
        <ele>415.8</ele>
        <time>2013-04-06T06:11:05.000Z</time>
      </trkpt>
      <trkpt lat="47.24626" lon="4.96168">
        <ele>418.3</ele>
        <time>2013-04-06T06:11:08.000Z</time>
      </trkpt>
      <trkpt lat="47.24625" lon="4.96169">
        <ele>420</ele>
        <time>2013-04-06T06:11:09.000Z</time>
      </trkpt>
      <trkpt lat="47.24623" lon="4.96174">
        <ele>423.2</ele>
        <time>2013-04-06T06:11:11.000Z</time>
      </trkpt>
      <trkpt lat="47.24623" lon="4.96176">
        <ele>424.1</ele>
        <time>2013-04-06T06:11:12.000Z</time>
      </trkpt>
      <trkpt lat="47.24622" lon="4.9618">
        <ele>424.9</ele>
        <time>2013-04-06T06:11:14.000Z</time>
      </trkpt>
      <trkpt lat="47.24621" lon="4.96183">
        <ele>425.6</ele>
        <time>2013-04-06T06:11:15.000Z</time>
      </trkpt>
      <trkpt lat="47.24616" lon="4.96183">
        <ele>426.9</ele>
        <time>2013-04-06T06:11:20.000Z</time>
      </trkpt>
      <trkpt lat="47.24616" lon="4.96182">
        <ele>426.9</ele>
        <time>2013-04-06T06:11:21.000Z</time>
      </trkpt>
      <trkpt lat="47.24615" lon="4.96177">
        <ele>423.9</ele>
        <time>2013-04-06T06:11:23.000Z</time>
      </trkpt>
      <trkpt lat="47.24615" lon="4.96175">
        <ele>421.6</ele>
        <time>2013-04-06T06:11:24.000Z</time>
      </trkpt>
      <trkpt lat="47.24614" lon="4.96169">
        <ele>420.8</ele>
        <time>2013-04-06T06:11:26.000Z</time>
      </trkpt>
      <trkpt lat="47.24613" lon="4.96167">
        <ele>419.6</ele>
        <time>2013-04-06T06:11:27.000Z</time>
      </trkpt>
      <trkpt lat="47.24614" lon="4.96161">
        <ele>415.4</ele>
        <time>2013-04-06T06:11:30.000Z</time>
      </trkpt>
      <trkpt lat="47.24614" lon="4.96159">
        <ele>414.1</ele>
        <time>2013-04-06T06:11:31.000Z</time>
      </trkpt>
      <trkpt lat="47.24614" lon="4.96154">
        <ele>413.3</ele>
        <time>2013-04-06T06:11:34.000Z</time>
      </trkpt>
      <trkpt lat="47.24615" lon="4.96151">
        <ele>413.2</ele>
        <time>2013-04-06T06:11:35.000Z</time>
      </trkpt>
      <trkpt lat="47.24616" lon="4.96146">
        <ele>412.7</ele>
        <time>2013-04-06T06:11:39.000Z</time>
      </trkpt>
      <trkpt lat="47.24616" lon="4.96144">
        <ele>412.8</ele>
        <time>2013-04-06T06:11:40.000Z</time>
      </trkpt>
      <trkpt lat="47.24617" lon="4.96138">
        <ele>412.5</ele>
        <time>2013-04-06T06:11:44.000Z</time>
      </trkpt>
      <trkpt lat="47.24617" lon="4.96136">
        <ele>412.5</ele>
        <time>2013-04-06T06:11:45.000Z</time>
      </trkpt>
      <trkpt lat="47.24616" lon="4.9613">
        <ele>411.1</ele>
        <time>2013-04-06T06:11:48.000Z</time>
      </trkpt>
      <trkpt lat="47.24617" lon="4.96128">
        <ele>410.5</ele>
        <time>2013-04-06T06:11:49.000Z</time>
      </trkpt>
      <trkpt lat="47.24618" lon="4.96123">
        <ele>411.2</ele>
        <time>2013-04-06T06:11:51.000Z</time>
      </trkpt>
      <trkpt lat="47.24618" lon="4.96121">
        <ele>411.2</ele>
        <time>2013-04-06T06:11:52.000Z</time>
      </trkpt>
      <trkpt lat="47.24618" lon="4.96119">
        <ele>411.1</ele>
        <time>2013-04-06T06:11:53.000Z</time>
      </trkpt>
      <trkpt lat="47.24624" lon="4.96097">
        <ele>414.2</ele>
        <time>2013-04-06T06:12:00.000Z</time>
      </trkpt>
      <trkpt lat="47.24624" lon="4.96092">
        <ele>414.4</ele>
        <time>2013-04-06T06:12:04.000Z</time>
      </trkpt>
      <trkpt lat="47.24624" lon="4.9609">
        <ele>413.7</ele>
        <time>2013-04-06T06:12:05.000Z</time>
      </trkpt>
      <trkpt lat="47.24626" lon="4.96086">
        <ele>412.9</ele>
        <time>2013-04-06T06:12:07.000Z</time>
      </trkpt>
      <trkpt lat="47.24627" lon="4.96084">
        <ele>412.1</ele>
        <time>2013-04-06T06:12:08.000Z</time>
      </trkpt>
      <trkpt lat="47.24627" lon="4.96078">
        <ele>412.2</ele>
        <time>2013-04-06T06:12:11.000Z</time>
      </trkpt>
      <trkpt lat="47.24627" lon="4.96075">
        <ele>411.9</ele>
        <time>2013-04-06T06:12:12.000Z</time>
      </trkpt>
      <trkpt lat="47.24628" lon="4.9607">
        <ele>412.8</ele>
        <time>2013-04-06T06:12:15.000Z</time>
      </trkpt>
      <trkpt lat="47.24629" lon="4.96068">
        <ele>413.2</ele>
        <time>2013-04-06T06:12:16.000Z</time>
      </trkpt>
      <trkpt lat="47.2463" lon="4.96064">
        <ele>412.1</ele>
        <time>2013-04-06T06:12:18.000Z</time>
      </trkpt>
      <trkpt lat="47.2463" lon="4.96061">
        <ele>411.9</ele>
        <time>2013-04-06T06:12:19.000Z</time>
      </trkpt>
      <trkpt lat="47.24632" lon="4.96055">
        <ele>410</ele>
        <time>2013-04-06T06:12:21.000Z</time>
      </trkpt>
      <trkpt lat="47.24632" lon="4.96053">
        <ele>410.3</ele>
        <time>2013-04-06T06:12:22.000Z</time>
      </trkpt>
      <trkpt lat="47.24633" lon="4.96047">
        <ele>408.7</ele>
        <time>2013-04-06T06:12:24.000Z</time>
      </trkpt>
      <trkpt lat="47.24634" lon="4.96044">
        <ele>408.2</ele>
        <time>2013-04-06T06:12:25.000Z</time>
      </trkpt>
      <trkpt lat="47.24635" lon="4.96039">
        <ele>409.5</ele>
        <time>2013-04-06T06:12:28.000Z</time>
      </trkpt>
      <trkpt lat="47.24636" lon="4.96036">
        <ele>409</ele>
        <time>2013-04-06T06:12:29.000Z</time>
      </trkpt>
      <trkpt lat="47.24637" lon="4.96031">
        <ele>407.7</ele>
        <time>2013-04-06T06:12:31.000Z</time>
      </trkpt>
      <trkpt lat="47.24636" lon="4.96029">
        <ele>407.1</ele>
        <time>2013-04-06T06:12:32.000Z</time>
      </trkpt>
      <trkpt lat="47.24637" lon="4.96024">
        <ele>406.9</ele>
        <time>2013-04-06T06:12:35.000Z</time>
      </trkpt>
      <trkpt lat="47.24638" lon="4.96023">
        <ele>407.3</ele>
        <time>2013-04-06T06:12:36.000Z</time>
      </trkpt>
      <trkpt lat="47.24639" lon="4.96019">
        <ele>407.6</ele>
        <time>2013-04-06T06:12:38.000Z</time>
      </trkpt>
      <trkpt lat="47.2464" lon="4.96015">
        <ele>407.7</ele>
        <time>2013-04-06T06:12:39.000Z</time>
      </trkpt>
      <trkpt lat="47.24642" lon="4.96011">
        <ele>407.8</ele>
        <time>2013-04-06T06:12:41.000Z</time>
      </trkpt>
      <trkpt lat="47.24643" lon="4.96008">
        <ele>408</ele>
        <time>2013-04-06T06:12:42.000Z</time>
      </trkpt>
      <trkpt lat="47.24645" lon="4.96004">
        <ele>407.9</ele>
        <time>2013-04-06T06:12:44.000Z</time>
      </trkpt>
      <trkpt lat="47.24645" lon="4.96002">
        <ele>407.8</ele>
        <time>2013-04-06T06:12:45.000Z</time>
      </trkpt>
      <trkpt lat="47.24646" lon="4.95996">
        <ele>407</ele>
        <time>2013-04-06T06:12:48.000Z</time>
      </trkpt>
      <trkpt lat="47.24646" lon="4.95994">
        <ele>406.8</ele>
        <time>2013-04-06T06:12:49.000Z</time>
      </trkpt>
      <trkpt lat="47.24647" lon="4.9599">
        <ele>406.5</ele>
        <time>2013-04-06T06:12:52.000Z</time>
      </trkpt>
      <trkpt lat="47.24647" lon="4.95988">
        <ele>406.6</ele>
        <time>2013-04-06T06:12:53.000Z</time>
      </trkpt>
      <trkpt lat="47.24653" lon="4.95962">
        <ele>422.1</ele>
        <time>2013-04-06T06:13:00.000Z</time>
      </trkpt>
      <trkpt lat="47.24652" lon="4.95957">
        <ele>421.6</ele>
        <time>2013-04-06T06:13:02.000Z</time>
      </trkpt>
      <trkpt lat="47.24652" lon="4.95955">
        <ele>422.1</ele>
        <time>2013-04-06T06:13:03.000Z</time>
      </trkpt>
      <trkpt lat="47.24653" lon="4.95949">
        <ele>419.4</ele>
        <time>2013-04-06T06:13:06.000Z</time>
      </trkpt>
      <trkpt lat="47.24653" lon="4.95948">
        <ele>419.1</ele>
        <time>2013-04-06T06:13:07.000Z</time>
      </trkpt>
      <trkpt lat="47.24655" lon="4.95943">
        <ele>419.9</ele>
        <time>2013-04-06T06:13:10.000Z</time>
      </trkpt>
      <trkpt lat="47.24656" lon="4.95941">
        <ele>418.4</ele>
        <time>2013-04-06T06:13:11.000Z</time>
      </trkpt>
      <trkpt lat="47.24658" lon="4.95936">
        <ele>416.2</ele>
        <time>2013-04-06T06:13:13.000Z</time>
      </trkpt>
      <trkpt lat="47.24658" lon="4.95934">
        <ele>416.3</ele>
        <time>2013-04-06T06:13:14.000Z</time>
      </trkpt>
      <trkpt lat="47.24659" lon="4.95929">
        <ele>414.3</ele>
        <time>2013-04-06T06:13:16.000Z</time>
      </trkpt>
      <trkpt lat="47.2466" lon="4.95926">
        <ele>414.4</ele>
        <time>2013-04-06T06:13:17.000Z</time>
      </trkpt>
      <trkpt lat="47.24661" lon="4.9592">
        <ele>411.6</ele>
        <time>2013-04-06T06:13:20.000Z</time>
      </trkpt>
      <trkpt lat="47.24662" lon="4.95917">
        <ele>410.4</ele>
        <time>2013-04-06T06:13:21.000Z</time>
      </trkpt>
      <trkpt lat="47.24664" lon="4.95912">
        <ele>409.8</ele>
        <time>2013-04-06T06:13:23.000Z</time>
      </trkpt>
      <trkpt lat="47.24664" lon="4.9591">
        <ele>409.4</ele>
        <time>2013-04-06T06:13:24.000Z</time>
      </trkpt>
      <trkpt lat="47.24666" lon="4.95907">
        <ele>408.9</ele>
        <time>2013-04-06T06:13:26.000Z</time>
      </trkpt>
      <trkpt lat="47.24667" lon="4.95905">
        <ele>409.3</ele>
        <time>2013-04-06T06:13:27.000Z</time>
      </trkpt>
      <trkpt lat="47.24669" lon="4.95901">
        <ele>409.9</ele>
        <time>2013-04-06T06:13:29.000Z</time>
      </trkpt>
      <trkpt lat="47.2467" lon="4.95898">
        <ele>410.4</ele>
        <time>2013-04-06T06:13:30.000Z</time>
      </trkpt>
      <trkpt lat="47.24672" lon="4.95894">
        <ele>410.9</ele>
        <time>2013-04-06T06:13:32.000Z</time>
      </trkpt>
      <trkpt lat="47.24672" lon="4.95892">
        <ele>411.1</ele>
        <time>2013-04-06T06:13:33.000Z</time>
      </trkpt>
      <trkpt lat="47.24674" lon="4.95887">
        <ele>411.7</ele>
        <time>2013-04-06T06:13:35.000Z</time>
      </trkpt>
      <trkpt lat="47.24675" lon="4.95884">
        <ele>412.3</ele>
        <time>2013-04-06T06:13:36.000Z</time>
      </trkpt>
      <trkpt lat="47.24676" lon="4.95879">
        <ele>413.3</ele>
        <time>2013-04-06T06:13:39.000Z</time>
      </trkpt>
      <trkpt lat="47.24677" lon="4.95877">
        <ele>413.4</ele>
        <time>2013-04-06T06:13:40.000Z</time>
      </trkpt>
      <trkpt lat="47.24679" lon="4.95872">
        <ele>414.2</ele>
        <time>2013-04-06T06:13:42.000Z</time>
      </trkpt>
      <trkpt lat="47.2468" lon="4.95869">
        <ele>414.5</ele>
        <time>2013-04-06T06:13:43.000Z</time>
      </trkpt>
      <trkpt lat="47.24683" lon="4.95864">
        <ele>414.8</ele>
        <time>2013-04-06T06:13:45.000Z</time>
      </trkpt>
      <trkpt lat="47.24683" lon="4.95863">
        <ele>415</ele>
        <time>2013-04-06T06:13:46.000Z</time>
      </trkpt>
      <trkpt lat="47.24686" lon="4.95859">
        <ele>415.7</ele>
        <time>2013-04-06T06:13:50.000Z</time>
      </trkpt>
      <trkpt lat="47.24687" lon="4.95857">
        <ele>416</ele>
        <time>2013-04-06T06:13:51.000Z</time>
      </trkpt>
      <trkpt lat="47.24688" lon="4.95852">
        <ele>416.9</ele>
        <time>2013-04-06T06:13:53.000Z</time>
      </trkpt>
      <trkpt lat="47.24687" lon="4.95831">
        <ele>445.5</ele>
        <time>2013-04-06T06:14:02.000Z</time>
      </trkpt>
      <trkpt lat="47.2469" lon="4.95825">
        <ele>441.1</ele>
        <time>2013-04-06T06:14:04.000Z</time>
      </trkpt>
      <trkpt lat="47.24691" lon="4.95824">
        <ele>439.4</ele>
        <time>2013-04-06T06:14:05.000Z</time>
      </trkpt>
      <trkpt lat="47.24694" lon="4.95822">
        <ele>437.5</ele>
        <time>2013-04-06T06:14:07.000Z</time>
      </trkpt>
      <trkpt lat="47.24696" lon="4.95822">
        <ele>437.7</ele>
        <time>2013-04-06T06:14:08.000Z</time>
      </trkpt>
      <trkpt lat="47.24699" lon="4.95817">
        <ele>434.3</ele>
        <time>2013-04-06T06:14:10.000Z</time>
      </trkpt>
      <trkpt lat="47.247" lon="4.95815">
        <ele>434.2</ele>
        <time>2013-04-06T06:14:11.000Z</time>
      </trkpt>
      <trkpt lat="47.24702" lon="4.95811">
        <ele>434.3</ele>
        <time>2013-04-06T06:14:13.000Z</time>
      </trkpt>
      <trkpt lat="47.24702" lon="4.95809">
        <ele>434.5</ele>
        <time>2013-04-06T06:14:14.000Z</time>
      </trkpt>
      <trkpt lat="47.24704" lon="4.95805">
        <ele>434.8</ele>
        <time>2013-04-06T06:14:17.000Z</time>
      </trkpt>
      <trkpt lat="47.24706" lon="4.95803">
        <ele>433.6</ele>
        <time>2013-04-06T06:14:18.000Z</time>
      </trkpt>
      <trkpt lat="47.24708" lon="4.958">
        <ele>432.8</ele>
        <time>2013-04-06T06:14:20.000Z</time>
      </trkpt>
      <trkpt lat="47.24709" lon="4.95798">
        <ele>432.7</ele>
        <time>2013-04-06T06:14:21.000Z</time>
      </trkpt>
      <trkpt lat="47.24711" lon="4.95793">
        <ele>432.6</ele>
        <time>2013-04-06T06:14:23.000Z</time>
      </trkpt>
      <trkpt lat="47.24712" lon="4.95791">
        <ele>433</ele>
        <time>2013-04-06T06:14:24.000Z</time>
      </trkpt>
      <trkpt lat="47.24714" lon="4.95786">
        <ele>432.9</ele>
        <time>2013-04-06T06:14:27.000Z</time>
      </trkpt>
      <trkpt lat="47.24714" lon="4.95784">
        <ele>432.8</ele>
        <time>2013-04-06T06:14:28.000Z</time>
      </trkpt>
      <trkpt lat="47.24716" lon="4.95778">
        <ele>432</ele>
        <time>2013-04-06T06:14:31.000Z</time>
      </trkpt>
      <trkpt lat="47.24717" lon="4.95776">
        <ele>431.9</ele>
        <time>2013-04-06T06:14:32.000Z</time>
      </trkpt>
      <trkpt lat="47.2472" lon="4.95771">
        <ele>432.2</ele>
        <time>2013-04-06T06:14:35.000Z</time>
      </trkpt>
      <trkpt lat="47.24721" lon="4.95768">
        <ele>432.5</ele>
        <time>2013-04-06T06:14:36.000Z</time>
      </trkpt>
      <trkpt lat="47.24723" lon="4.95764">
        <ele>432.4</ele>
        <time>2013-04-06T06:14:38.000Z</time>
      </trkpt>
      <trkpt lat="47.24724" lon="4.95763">
        <ele>432.3</ele>
        <time>2013-04-06T06:14:39.000Z</time>
      </trkpt>
      <trkpt lat="47.24727" lon="4.95759">
        <ele>431.8</ele>
        <time>2013-04-06T06:14:42.000Z</time>
      </trkpt>
      <trkpt lat="47.24728" lon="4.95758">
        <ele>431.5</ele>
        <time>2013-04-06T06:14:43.000Z</time>
      </trkpt>
      <trkpt lat="47.24731" lon="4.95753">
        <ele>431.4</ele>
        <time>2013-04-06T06:14:45.000Z</time>
      </trkpt>
      <trkpt lat="47.24733" lon="4.95751">
        <ele>431.4</ele>
        <time>2013-04-06T06:14:46.000Z</time>
      </trkpt>
      <trkpt lat="47.24736" lon="4.95746">
        <ele>431.5</ele>
        <time>2013-04-06T06:14:48.000Z</time>
      </trkpt>
      <trkpt lat="47.24738" lon="4.95745">
        <ele>431.2</ele>
        <time>2013-04-06T06:14:49.000Z</time>
      </trkpt>
      <trkpt lat="47.2474" lon="4.9574">
        <ele>430.8</ele>
        <time>2013-04-06T06:14:51.000Z</time>
      </trkpt>
      <trkpt lat="47.24741" lon="4.95738">
        <ele>430.7</ele>
        <time>2013-04-06T06:14:52.000Z</time>
      </trkpt>
      <trkpt lat="47.24742" lon="4.95736">
        <ele>430.6</ele>
        <time>2013-04-06T06:14:53.000Z</time>
      </trkpt>
      <trkpt lat="47.24744" lon="4.95714">
        <ele>442.3</ele>
        <time>2013-04-06T06:15:00.000Z</time>
      </trkpt>
      <trkpt lat="47.24747" lon="4.95711">
        <ele>439.3</ele>
        <time>2013-04-06T06:15:01.000Z</time>
      </trkpt>
      <trkpt lat="47.24748" lon="4.95708">
        <ele>441.7</ele>
        <time>2013-04-06T06:15:02.000Z</time>
      </trkpt>
      <trkpt lat="47.24752" lon="4.95705">
        <ele>439.8</ele>
        <time>2013-04-06T06:15:04.000Z</time>
      </trkpt>
      <trkpt lat="47.24753" lon="4.95702">
        <ele>439.3</ele>
        <time>2013-04-06T06:15:05.000Z</time>
      </trkpt>
      <trkpt lat="47.24755" lon="4.957">
        <ele>438.8</ele>
        <time>2013-04-06T06:15:06.000Z</time>
      </trkpt>
      <trkpt lat="47.24757" lon="4.95697">
        <ele>436.8</ele>
        <time>2013-04-06T06:15:07.000Z</time>
      </trkpt>
      <trkpt lat="47.2476" lon="4.95692">
        <ele>436.2</ele>
        <time>2013-04-06T06:15:10.000Z</time>
      </trkpt>
      <trkpt lat="47.24761" lon="4.9569">
        <ele>435.6</ele>
        <time>2013-04-06T06:15:11.000Z</time>
      </trkpt>
      <trkpt lat="47.24763" lon="4.95686">
        <ele>435.6</ele>
        <time>2013-04-06T06:15:14.000Z</time>
      </trkpt>
      <trkpt lat="47.24764" lon="4.95684">
        <ele>434.6</ele>
        <time>2013-04-06T06:15:15.000Z</time>
      </trkpt>
      <trkpt lat="47.24766" lon="4.95678">
        <ele>435.8</ele>
        <time>2013-04-06T06:15:19.000Z</time>
      </trkpt>
      <trkpt lat="47.24767" lon="4.95677">
        <ele>435.9</ele>
        <time>2013-04-06T06:15:20.000Z</time>
      </trkpt>
      <trkpt lat="47.2477" lon="4.95673">
        <ele>435.9</ele>
        <time>2013-04-06T06:15:22.000Z</time>
      </trkpt>
      <trkpt lat="47.24771" lon="4.95672">
        <ele>436</ele>
        <time>2013-04-06T06:15:23.000Z</time>
      </trkpt>
      <trkpt lat="47.24773" lon="4.9567">
        <ele>437.9</ele>
        <time>2013-04-06T06:15:25.000Z</time>
      </trkpt>
      <trkpt lat="47.24775" lon="4.95668">
        <ele>438.1</ele>
        <time>2013-04-06T06:15:26.000Z</time>
      </trkpt>
      <trkpt lat="47.24778" lon="4.95665">
        <ele>438.3</ele>
        <time>2013-04-06T06:15:28.000Z</time>
      </trkpt>
      <trkpt lat="47.24779" lon="4.95664">
        <ele>438.5</ele>
        <time>2013-04-06T06:15:29.000Z</time>
      </trkpt>
      <trkpt lat="47.24782" lon="4.9566">
        <ele>437.9</ele>
        <time>2013-04-06T06:15:32.000Z</time>
      </trkpt>
      <trkpt lat="47.24783" lon="4.95658">
        <ele>437.6</ele>
        <time>2013-04-06T06:15:33.000Z</time>
      </trkpt>
      <trkpt lat="47.24785" lon="4.95654">
        <ele>437.2</ele>
        <time>2013-04-06T06:15:35.000Z</time>
      </trkpt>
      <trkpt lat="47.24785" lon="4.95652">
        <ele>437</ele>
        <time>2013-04-06T06:15:36.000Z</time>
      </trkpt>
      <trkpt lat="47.24787" lon="4.95646">
        <ele>436.8</ele>
        <time>2013-04-06T06:15:39.000Z</time>
      </trkpt>
      <trkpt lat="47.24788" lon="4.95645">
        <ele>437.1</ele>
        <time>2013-04-06T06:15:40.000Z</time>
      </trkpt>
      <trkpt lat="47.24791" lon="4.95641">
        <ele>437</ele>
        <time>2013-04-06T06:15:43.000Z</time>
      </trkpt>
      <trkpt lat="47.24792" lon="4.9564">
        <ele>437.5</ele>
        <time>2013-04-06T06:15:44.000Z</time>
      </trkpt>
      <trkpt lat="47.24795" lon="4.95635">
        <ele>437.6</ele>
        <time>2013-04-06T06:15:47.000Z</time>
      </trkpt>
      <trkpt lat="47.24796" lon="4.95633">
        <ele>437.9</ele>
        <time>2013-04-06T06:15:48.000Z</time>
      </trkpt>
      <trkpt lat="47.24798" lon="4.95628">
        <ele>437.5</ele>
        <time>2013-04-06T06:15:50.000Z</time>
      </trkpt>
      <trkpt lat="47.24799" lon="4.95625">
        <ele>436.9</ele>
        <time>2013-04-06T06:15:51.000Z</time>
      </trkpt>
      <trkpt lat="47.24802" lon="4.95621">
        <ele>436.7</ele>
        <time>2013-04-06T06:15:53.000Z</time>
      </trkpt>
      <trkpt lat="47.24827" lon="4.95592">
        <ele>443.2</ele>
        <time>2013-04-06T06:16:10.000Z</time>
      </trkpt>
      <trkpt lat="47.24831" lon="4.95589">
        <ele>451.9</ele>
        <time>2013-04-06T06:16:18.000Z</time>
      </trkpt>
      <trkpt lat="47.24832" lon="4.95588">
        <ele>451.4</ele>
        <time>2013-04-06T06:16:19.000Z</time>
      </trkpt>
      <trkpt lat="47.24835" lon="4.95586">
        <ele>453.1</ele>
        <time>2013-04-06T06:16:22.000Z</time>
      </trkpt>
      <trkpt lat="47.24836" lon="4.95586">
        <ele>453.1</ele>
        <time>2013-04-06T06:16:23.000Z</time>
      </trkpt>
      <trkpt lat="47.24839" lon="4.95582">
        <ele>452.3</ele>
        <time>2013-04-06T06:16:25.000Z</time>
      </trkpt>
      <trkpt lat="47.24839" lon="4.95581">
        <ele>452.3</ele>
        <time>2013-04-06T06:16:26.000Z</time>
      </trkpt>
      <trkpt lat="47.24842" lon="4.95576">
        <ele>452.6</ele>
        <time>2013-04-06T06:16:29.000Z</time>
      </trkpt>
      <trkpt lat="47.24844" lon="4.95575">
        <ele>452.6</ele>
        <time>2013-04-06T06:16:30.000Z</time>
      </trkpt>
      <trkpt lat="47.24846" lon="4.9557">
        <ele>452.1</ele>
        <time>2013-04-06T06:16:32.000Z</time>
      </trkpt>
      <trkpt lat="47.24847" lon="4.95569">
        <ele>452.2</ele>
        <time>2013-04-06T06:16:33.000Z</time>
      </trkpt>
      <trkpt lat="47.2485" lon="4.95565">
        <ele>453.2</ele>
        <time>2013-04-06T06:16:36.000Z</time>
      </trkpt>
      <trkpt lat="47.24851" lon="4.95564">
        <ele>453.4</ele>
        <time>2013-04-06T06:16:37.000Z</time>
      </trkpt>
      <trkpt lat="47.24854" lon="4.9556">
        <ele>453.7</ele>
        <time>2013-04-06T06:16:40.000Z</time>
      </trkpt>
      <trkpt lat="47.24855" lon="4.95558">
        <ele>454.4</ele>
        <time>2013-04-06T06:16:41.000Z</time>
      </trkpt>
      <trkpt lat="47.24856" lon="4.95553">
        <ele>454.8</ele>
        <time>2013-04-06T06:16:44.000Z</time>
      </trkpt>
      <trkpt lat="47.24857" lon="4.95552">
        <ele>455.2</ele>
        <time>2013-04-06T06:16:45.000Z</time>
      </trkpt>
      <trkpt lat="47.2486" lon="4.95547">
        <ele>456</ele>
        <time>2013-04-06T06:16:48.000Z</time>
      </trkpt>
      <trkpt lat="47.24861" lon="4.95546">
        <ele>456.2</ele>
        <time>2013-04-06T06:16:49.000Z</time>
      </trkpt>
      <trkpt lat="47.24864" lon="4.95542">
        <ele>455.9</ele>
        <time>2013-04-06T06:16:52.000Z</time>
      </trkpt>
      <trkpt lat="47.24865" lon="4.95541">
        <ele>456</ele>
        <time>2013-04-06T06:16:53.000Z</time>
      </trkpt>
      <trkpt lat="47.24875" lon="4.95507">
        <ele>466.2</ele>
        <time>2013-04-06T06:17:06.000Z</time>
      </trkpt>
      <trkpt lat="47.24876" lon="4.95503">
        <ele>464.2</ele>
        <time>2013-04-06T06:17:08.000Z</time>
      </trkpt>
      <trkpt lat="47.24877" lon="4.955">
        <ele>463.2</ele>
        <time>2013-04-06T06:17:09.000Z</time>
      </trkpt>
      <trkpt lat="47.24879" lon="4.95495">
        <ele>461.9</ele>
        <time>2013-04-06T06:17:12.000Z</time>
      </trkpt>
      <trkpt lat="47.24881" lon="4.95493">
        <ele>461.7</ele>
        <time>2013-04-06T06:17:13.000Z</time>
      </trkpt>
      <trkpt lat="47.24884" lon="4.9549">
        <ele>463.3</ele>
        <time>2013-04-06T06:17:16.000Z</time>
      </trkpt>
      <trkpt lat="47.24886" lon="4.95487">
        <ele>463.4</ele>
        <time>2013-04-06T06:17:17.000Z</time>
      </trkpt>
      <trkpt lat="47.24888" lon="4.95481">
        <ele>462.8</ele>
        <time>2013-04-06T06:17:20.000Z</time>
      </trkpt>
      <trkpt lat="47.24888" lon="4.9548">
        <ele>462.6</ele>
        <time>2013-04-06T06:17:21.000Z</time>
      </trkpt>
      <trkpt lat="47.24889" lon="4.95474">
        <ele>463.1</ele>
        <time>2013-04-06T06:17:25.000Z</time>
      </trkpt>
      <trkpt lat="47.2489" lon="4.95471">
        <ele>463.3</ele>
        <time>2013-04-06T06:17:26.000Z</time>
      </trkpt>
      <trkpt lat="47.24892" lon="4.95468">
        <ele>462.9</ele>
        <time>2013-04-06T06:17:28.000Z</time>
      </trkpt>
      <trkpt lat="47.24892" lon="4.95466">
        <ele>462.8</ele>
        <time>2013-04-06T06:17:29.000Z</time>
      </trkpt>
      <trkpt lat="47.24894" lon="4.95461">
        <ele>463.9</ele>
        <time>2013-04-06T06:17:32.000Z</time>
      </trkpt>
      <trkpt lat="47.24894" lon="4.95459">
        <ele>463.6</ele>
        <time>2013-04-06T06:17:33.000Z</time>
      </trkpt>
      <trkpt lat="47.24895" lon="4.95453">
        <ele>463.3</ele>
        <time>2013-04-06T06:17:36.000Z</time>
      </trkpt>
      <trkpt lat="47.24895" lon="4.95451">
        <ele>463.1</ele>
        <time>2013-04-06T06:17:37.000Z</time>
      </trkpt>
      <trkpt lat="47.24897" lon="4.95447">
        <ele>463.4</ele>
        <time>2013-04-06T06:17:38.000Z</time>
      </trkpt>
      <trkpt lat="47.24897" lon="4.95445">
        <ele>463.8</ele>
        <time>2013-04-06T06:17:39.000Z</time>
      </trkpt>
      <trkpt lat="47.249" lon="4.9544">
        <ele>464.5</ele>
        <time>2013-04-06T06:17:42.000Z</time>
      </trkpt>
      <trkpt lat="47.24901" lon="4.95438">
        <ele>464.1</ele>
        <time>2013-04-06T06:17:43.000Z</time>
      </trkpt>
      <trkpt lat="47.24903" lon="4.95435">
        <ele>463.4</ele>
        <time>2013-04-06T06:17:45.000Z</time>
      </trkpt>
      <trkpt lat="47.24904" lon="4.95433">
        <ele>463.4</ele>
        <time>2013-04-06T06:17:46.000Z</time>
      </trkpt>
      <trkpt lat="47.24906" lon="4.95428">
        <ele>463.7</ele>
        <time>2013-04-06T06:17:49.000Z</time>
      </trkpt>
      <trkpt lat="47.24907" lon="4.95427">
        <ele>463.9</ele>
        <time>2013-04-06T06:17:50.000Z</time>
      </trkpt>
      <trkpt lat="47.24909" lon="4.95423">
        <ele>464.3</ele>
        <time>2013-04-06T06:17:52.000Z</time>
      </trkpt>
      <trkpt lat="47.2491" lon="4.95421">
        <ele>463.9</ele>
        <time>2013-04-06T06:17:53.000Z</time>
      </trkpt>
      <trkpt lat="47.24932" lon="4.95385">
        <ele>479.1</ele>
        <time>2013-04-06T06:18:13.000Z</time>
      </trkpt>
      <trkpt lat="47.24936" lon="4.95381">
        <ele>483.6</ele>
        <time>2013-04-06T06:18:17.000Z</time>
      </trkpt>
      <trkpt lat="47.24937" lon="4.95381">
        <ele>485.1</ele>
        <time>2013-04-06T06:18:18.000Z</time>
      </trkpt>
      <trkpt lat="47.24939" lon="4.95375">
        <ele>482.7</ele>
        <time>2013-04-06T06:18:22.000Z</time>
      </trkpt>
      <trkpt lat="47.2494" lon="4.95373">
        <ele>482.3</ele>
        <time>2013-04-06T06:18:23.000Z</time>
      </trkpt>
      <trkpt lat="47.24943" lon="4.95369">
        <ele>480.5</ele>
        <time>2013-04-06T06:18:25.000Z</time>
      </trkpt>
      <trkpt lat="47.24944" lon="4.95367">
        <ele>479.3</ele>
        <time>2013-04-06T06:18:26.000Z</time>
      </trkpt>
      <trkpt lat="47.24947" lon="4.95362">
        <ele>478</ele>
        <time>2013-04-06T06:18:28.000Z</time>
      </trkpt>
      <trkpt lat="47.24948" lon="4.9536">
        <ele>477.7</ele>
        <time>2013-04-06T06:18:29.000Z</time>
      </trkpt>
      <trkpt lat="47.2495" lon="4.95355">
        <ele>478.3</ele>
        <time>2013-04-06T06:18:32.000Z</time>
      </trkpt>
      <trkpt lat="47.24951" lon="4.95353">
        <ele>478.4</ele>
        <time>2013-04-06T06:18:33.000Z</time>
      </trkpt>
      <trkpt lat="47.24954" lon="4.95348">
        <ele>478.7</ele>
        <time>2013-04-06T06:18:35.000Z</time>
      </trkpt>
      <trkpt lat="47.24955" lon="4.95346">
        <ele>479.1</ele>
        <time>2013-04-06T06:18:36.000Z</time>
      </trkpt>
      <trkpt lat="47.24957" lon="4.95341">
        <ele>479.6</ele>
        <time>2013-04-06T06:18:40.000Z</time>
      </trkpt>
      <trkpt lat="47.24957" lon="4.9534">
        <ele>479.2</ele>
        <time>2013-04-06T06:18:41.000Z</time>
      </trkpt>
      <trkpt lat="47.24961" lon="4.95343">
        <ele>478.4</ele>
        <time>2013-04-06T06:18:50.000Z</time>
      </trkpt>
      <trkpt lat="47.24961" lon="4.95345">
        <ele>478.4</ele>
        <time>2013-04-06T06:18:51.000Z</time>
      </trkpt>
      <trkpt lat="47.24961" lon="4.95348">
        <ele>478.2</ele>
        <time>2013-04-06T06:18:53.000Z</time>
      </trkpt>
      <trkpt lat="47.24963" lon="4.95358">
        <ele>479</ele>
        <time>2013-04-06T06:19:01.000Z</time>
      </trkpt>
      <trkpt lat="47.24962" lon="4.95364">
        <ele>480.6</ele>
        <time>2013-04-06T06:19:04.000Z</time>
      </trkpt>
      <trkpt lat="47.24961" lon="4.95366">
        <ele>480.4</ele>
        <time>2013-04-06T06:19:05.000Z</time>
      </trkpt>
      <trkpt lat="47.24959" lon="4.95367">
        <ele>482</ele>
        <time>2013-04-06T06:19:13.000Z</time>
      </trkpt>
      <trkpt lat="47.24957" lon="4.95369">
        <ele>483.6</ele>
        <time>2013-04-06T06:19:14.000Z</time>
      </trkpt>
      <trkpt lat="47.24954" lon="4.95364">
        <ele>485.2</ele>
        <time>2013-04-06T06:19:20.000Z</time>
      </trkpt>
      <trkpt lat="47.24953" lon="4.95364">
        <ele>485.3</ele>
        <time>2013-04-06T06:19:21.000Z</time>
      </trkpt>
      <trkpt lat="47.2495" lon="4.95361">
        <ele>487.7</ele>
        <time>2013-04-06T06:19:25.000Z</time>
      </trkpt>
      <trkpt lat="47.24949" lon="4.95359">
        <ele>486.3</ele>
        <time>2013-04-06T06:19:26.000Z</time>
      </trkpt>
      <trkpt lat="47.24947" lon="4.95354">
        <ele>483.5</ele>
        <time>2013-04-06T06:19:29.000Z</time>
      </trkpt>
      <trkpt lat="47.24946" lon="4.95354">
        <ele>483.5</ele>
        <time>2013-04-06T06:19:30.000Z</time>
      </trkpt>
      <trkpt lat="47.24943" lon="4.9535">
        <ele>481.9</ele>
        <time>2013-04-06T06:19:33.000Z</time>
      </trkpt>
      <trkpt lat="47.24942" lon="4.95349">
        <ele>481.9</ele>
        <time>2013-04-06T06:19:34.000Z</time>
      </trkpt>
      <trkpt lat="47.24939" lon="4.95344">
        <ele>480.4</ele>
        <time>2013-04-06T06:19:39.000Z</time>
      </trkpt>
      <trkpt lat="47.24939" lon="4.95343">
        <ele>480.1</ele>
        <time>2013-04-06T06:19:40.000Z</time>
      </trkpt>
      <trkpt lat="47.24936" lon="4.95338">
        <ele>478.4</ele>
        <time>2013-04-06T06:19:44.000Z</time>
      </trkpt>
      <trkpt lat="47.24936" lon="4.95336">
        <ele>478.1</ele>
        <time>2013-04-06T06:19:45.000Z</time>
      </trkpt>
      <trkpt lat="47.24936" lon="4.95336">
        <ele>478.1</ele>
        <time>2013-04-06T06:19:49.000Z</time>
      </trkpt>
      <trkpt lat="47.24934" lon="4.9533">
        <ele>477.2</ele>
        <time>2013-04-06T06:19:50.000Z</time>
      </trkpt>
      <trkpt lat="47.24933" lon="4.95327">
        <ele>477.6</ele>
        <time>2013-04-06T06:19:53.000Z</time>
      </trkpt>
      <trkpt lat="47.24919" lon="4.95324">
        <ele>488.6</ele>
        <time>2013-04-06T06:20:00.000Z</time>
      </trkpt>
      <trkpt lat="47.24915" lon="4.95321">
        <ele>490</ele>
        <time>2013-04-06T06:20:05.000Z</time>
      </trkpt>
      <trkpt lat="47.24913" lon="4.9532">
        <ele>490</ele>
        <time>2013-04-06T06:20:06.000Z</time>
      </trkpt>
      <trkpt lat="47.24909" lon="4.95319">
        <ele>497.7</ele>
        <time>2013-04-06T06:20:19.000Z</time>
      </trkpt>
      <trkpt lat="47.24908" lon="4.95319">
        <ele>497.9</ele>
        <time>2013-04-06T06:20:20.000Z</time>
      </trkpt>
      <trkpt lat="47.24905" lon="4.95315">
        <ele>497.2</ele>
        <time>2013-04-06T06:20:33.000Z</time>
      </trkpt>
      <trkpt lat="47.24903" lon="4.95309">
        <ele>496.6</ele>
        <time>2013-04-06T06:20:34.000Z</time>
      </trkpt>
      <trkpt lat="47.249" lon="4.95306">
        <ele>497.2</ele>
        <time>2013-04-06T06:20:40.000Z</time>
      </trkpt>
      <trkpt lat="47.24899" lon="4.95305">
        <ele>497.1</ele>
        <time>2013-04-06T06:20:41.000Z</time>
      </trkpt>
      <trkpt lat="47.24896" lon="4.95306">
        <ele>497.3</ele>
        <time>2013-04-06T06:20:47.000Z</time>
      </trkpt>
      <trkpt lat="47.24894" lon="4.95306">
        <ele>497.4</ele>
        <time>2013-04-06T06:20:48.000Z</time>
      </trkpt>
      <trkpt lat="47.24889" lon="4.95305">
        <ele>497.5</ele>
        <time>2013-04-06T06:20:53.000Z</time>
      </trkpt>
      <trkpt lat="47.24878" lon="4.95296">
        <ele>498.6</ele>
        <time>2013-04-06T06:21:01.000Z</time>
      </trkpt>
      <trkpt lat="47.24875" lon="4.95297">
        <ele>497.7</ele>
        <time>2013-04-06T06:21:07.000Z</time>
      </trkpt>
      <trkpt lat="47.24874" lon="4.95299">
        <ele>499</ele>
        <time>2013-04-06T06:21:08.000Z</time>
      </trkpt>
      <trkpt lat="47.2487" lon="4.95302">
        <ele>500.5</ele>
        <time>2013-04-06T06:21:13.000Z</time>
      </trkpt>
      <trkpt lat="47.24869" lon="4.95302">
        <ele>501.3</ele>
        <time>2013-04-06T06:21:14.000Z</time>
      </trkpt>
      <trkpt lat="47.24867" lon="4.95305">
        <ele>505.3</ele>
        <time>2013-04-06T06:21:19.000Z</time>
      </trkpt>
      <trkpt lat="47.24865" lon="4.95305">
        <ele>505.8</ele>
        <time>2013-04-06T06:21:20.000Z</time>
      </trkpt>
      <trkpt lat="47.24861" lon="4.95303">
        <ele>506.8</ele>
        <time>2013-04-06T06:21:24.000Z</time>
      </trkpt>
      <trkpt lat="47.24861" lon="4.95302">
        <ele>506.7</ele>
        <time>2013-04-06T06:21:25.000Z</time>
      </trkpt>
      <trkpt lat="47.24857" lon="4.953">
        <ele>505</ele>
        <time>2013-04-06T06:21:29.000Z</time>
      </trkpt>
      <trkpt lat="47.24856" lon="4.95301">
        <ele>505.1</ele>
        <time>2013-04-06T06:21:30.000Z</time>
      </trkpt>
      <trkpt lat="47.24852" lon="4.95303">
        <ele>506.3</ele>
        <time>2013-04-06T06:21:33.000Z</time>
      </trkpt>
      <trkpt lat="47.2485" lon="4.95302">
        <ele>506.1</ele>
        <time>2013-04-06T06:21:34.000Z</time>
      </trkpt>
      <trkpt lat="47.24847" lon="4.95298">
        <ele>506.3</ele>
        <time>2013-04-06T06:21:38.000Z</time>
      </trkpt>
      <trkpt lat="47.24846" lon="4.95297">
        <ele>506.4</ele>
        <time>2013-04-06T06:21:39.000Z</time>
      </trkpt>
      <trkpt lat="47.24845" lon="4.95297">
        <ele>506.5</ele>
        <time>2013-04-06T06:21:47.000Z</time>
      </trkpt>
      <trkpt lat="47.24842" lon="4.95294">
        <ele>505.9</ele>
        <time>2013-04-06T06:21:48.000Z</time>
      </trkpt>
      <trkpt lat="47.2484" lon="4.95289">
        <ele>506.1</ele>
        <time>2013-04-06T06:21:52.000Z</time>
      </trkpt>
      <trkpt lat="47.2484" lon="4.95287">
        <ele>506.4</ele>
        <time>2013-04-06T06:21:53.000Z</time>
      </trkpt>
      <trkpt lat="47.24833" lon="4.9528">
        <ele>514.8</ele>
        <time>2013-04-06T06:22:00.000Z</time>
      </trkpt>
      <trkpt lat="47.24829" lon="4.95282">
        <ele>520.3</ele>
        <time>2013-04-06T06:22:11.000Z</time>
      </trkpt>
      <trkpt lat="47.24828" lon="4.95283">
        <ele>520.9</ele>
        <time>2013-04-06T06:22:12.000Z</time>
      </trkpt>
      <trkpt lat="47.24824" lon="4.9528">
        <ele>524.7</ele>
        <time>2013-04-06T06:22:22.000Z</time>
      </trkpt>
      <trkpt lat="47.24824" lon="4.95279">
        <ele>524.6</ele>
        <time>2013-04-06T06:22:23.000Z</time>
      </trkpt>
      <trkpt lat="47.24821" lon="4.95274">
        <ele>522.6</ele>
        <time>2013-04-06T06:22:29.000Z</time>
      </trkpt>
      <trkpt lat="47.2482" lon="4.95274">
        <ele>522.9</ele>
        <time>2013-04-06T06:22:30.000Z</time>
      </trkpt>
      <trkpt lat="47.24817" lon="4.9527">
        <ele>522.9</ele>
        <time>2013-04-06T06:22:35.000Z</time>
      </trkpt>
      <trkpt lat="47.24816" lon="4.9527">
        <ele>523</ele>
        <time>2013-04-06T06:22:36.000Z</time>
      </trkpt>
      <trkpt lat="47.24812" lon="4.95268">
        <ele>523.2</ele>
        <time>2013-04-06T06:22:40.000Z</time>
      </trkpt>
      <trkpt lat="47.24811" lon="4.95267">
        <ele>523.4</ele>
        <time>2013-04-06T06:22:41.000Z</time>
      </trkpt>
      <trkpt lat="47.24808" lon="4.95265">
        <ele>523.2</ele>
        <time>2013-04-06T06:22:44.000Z</time>
      </trkpt>
      <trkpt lat="47.24807" lon="4.95265">
        <ele>523.1</ele>
        <time>2013-04-06T06:22:45.000Z</time>
      </trkpt>
      <trkpt lat="47.24803" lon="4.95261">
        <ele>521.1</ele>
        <time>2013-04-06T06:22:54.000Z</time>
      </trkpt>
      <trkpt lat="47.24788" lon="4.95254">
        <ele>518.3</ele>
        <time>2013-04-06T06:23:01.000Z</time>
      </trkpt>
      <trkpt lat="47.24784" lon="4.95254">
        <ele>523.1</ele>
        <time>2013-04-06T06:23:04.000Z</time>
      </trkpt>
      <trkpt lat="47.24783" lon="4.95252">
        <ele>523.3</ele>
        <time>2013-04-06T06:23:05.000Z</time>
      </trkpt>
      <trkpt lat="47.2478" lon="4.95255">
        <ele>528.6</ele>
        <time>2013-04-06T06:23:08.000Z</time>
      </trkpt>
      <trkpt lat="47.24778" lon="4.95255">
        <ele>529.9</ele>
        <time>2013-04-06T06:23:09.000Z</time>
      </trkpt>
      <trkpt lat="47.24774" lon="4.95252">
        <ele>531.3</ele>
        <time>2013-04-06T06:23:14.000Z</time>
      </trkpt>
      <trkpt lat="47.24773" lon="4.95251">
        <ele>532.2</ele>
        <time>2013-04-06T06:23:15.000Z</time>
      </trkpt>
      <trkpt lat="47.24769" lon="4.95251">
        <ele>536.1</ele>
        <time>2013-04-06T06:23:18.000Z</time>
      </trkpt>
      <trkpt lat="47.24768" lon="4.95251">
        <ele>537</ele>
        <time>2013-04-06T06:23:19.000Z</time>
      </trkpt>
      <trkpt lat="47.24764" lon="4.95249">
        <ele>538</ele>
        <time>2013-04-06T06:23:22.000Z</time>
      </trkpt>
      <trkpt lat="47.24764" lon="4.95248">
        <ele>537.7</ele>
        <time>2013-04-06T06:23:23.000Z</time>
      </trkpt>
      <trkpt lat="47.2476" lon="4.95247">
        <ele>538</ele>
        <time>2013-04-06T06:23:26.000Z</time>
      </trkpt>
      <trkpt lat="47.24759" lon="4.95246">
        <ele>537.5</ele>
        <time>2013-04-06T06:23:27.000Z</time>
      </trkpt>
      <trkpt lat="47.24755" lon="4.95245">
        <ele>536.6</ele>
        <time>2013-04-06T06:23:30.000Z</time>
      </trkpt>
      <trkpt lat="47.24753" lon="4.95244">
        <ele>536.2</ele>
        <time>2013-04-06T06:23:31.000Z</time>
      </trkpt>
      <trkpt lat="47.2475" lon="4.95241">
        <ele>535</ele>
        <time>2013-04-06T06:23:34.000Z</time>
      </trkpt>
      <trkpt lat="47.24749" lon="4.9524">
        <ele>534.6</ele>
        <time>2013-04-06T06:23:35.000Z</time>
      </trkpt>
      <trkpt lat="47.24746" lon="4.95237">
        <ele>533.6</ele>
        <time>2013-04-06T06:23:37.000Z</time>
      </trkpt>
      <trkpt lat="47.24744" lon="4.95236">
        <ele>533.5</ele>
        <time>2013-04-06T06:23:38.000Z</time>
      </trkpt>
      <trkpt lat="47.24741" lon="4.95232">
        <ele>532.5</ele>
        <time>2013-04-06T06:23:42.000Z</time>
      </trkpt>
      <trkpt lat="47.2474" lon="4.95232">
        <ele>532.3</ele>
        <time>2013-04-06T06:23:43.000Z</time>
      </trkpt>
      <trkpt lat="47.24736" lon="4.95229">
        <ele>531.8</ele>
        <time>2013-04-06T06:23:46.000Z</time>
      </trkpt>
      <trkpt lat="47.24735" lon="4.95228">
        <ele>531.8</ele>
        <time>2013-04-06T06:23:47.000Z</time>
      </trkpt>
      <trkpt lat="47.24731" lon="4.95227">
        <ele>531.6</ele>
        <time>2013-04-06T06:23:50.000Z</time>
      </trkpt>
      <trkpt lat="47.2473" lon="4.95227">
        <ele>531.4</ele>
        <time>2013-04-06T06:23:51.000Z</time>
      </trkpt>
      <trkpt lat="47.24727" lon="4.95224">
        <ele>530.6</ele>
        <time>2013-04-06T06:23:53.000Z</time>
      </trkpt>
      <trkpt lat="47.24725" lon="4.95224">
        <ele>530.5</ele>
        <time>2013-04-06T06:23:54.000Z</time>
      </trkpt>
      <trkpt lat="47.24712" lon="4.95218">
        <ele>530.4</ele>
        <time>2013-04-06T06:24:00.000Z</time>
      </trkpt>
      <trkpt lat="47.2471" lon="4.95215">
        <ele>530.7</ele>
        <time>2013-04-06T06:24:02.000Z</time>
      </trkpt>
      <trkpt lat="47.2471" lon="4.95211">
        <ele>529</ele>
        <time>2013-04-06T06:24:03.000Z</time>
      </trkpt>
      <trkpt lat="47.24707" lon="4.95206">
        <ele>526</ele>
        <time>2013-04-06T06:24:06.000Z</time>
      </trkpt>
      <trkpt lat="47.24707" lon="4.95206">
        <ele>526.3</ele>
        <time>2013-04-06T06:24:07.000Z</time>
      </trkpt>
      <trkpt lat="47.24703" lon="4.95204">
        <ele>526.6</ele>
        <time>2013-04-06T06:24:11.000Z</time>
      </trkpt>
      <trkpt lat="47.24703" lon="4.95203">
        <ele>525.3</ele>
        <time>2013-04-06T06:24:12.000Z</time>
      </trkpt>
      <trkpt lat="47.24703" lon="4.95198">
        <ele>520.8</ele>
        <time>2013-04-06T06:24:21.000Z</time>
      </trkpt>
      <trkpt lat="47.24704" lon="4.95185">
        <ele>512.9</ele>
        <time>2013-04-06T06:24:22.000Z</time>
      </trkpt>
      <trkpt lat="47.24705" lon="4.95182">
        <ele>503.7</ele>
        <time>2013-04-06T06:25:54.000Z</time>
      </trkpt>
      <trkpt lat="47.24696" lon="4.95181">
        <ele>510.5</ele>
        <time>2013-04-06T06:26:01.000Z</time>
      </trkpt>
      <trkpt lat="47.24696" lon="4.95181">
        <ele>510.5</ele>
        <time>2013-04-06T06:26:54.000Z</time>
      </trkpt>
      <trkpt lat="47.24701" lon="4.95177">
        <ele>492.8</ele>
        <time>2013-04-06T06:27:01.000Z</time>
      </trkpt>
      <trkpt lat="47.24699" lon="4.95182">
        <ele>514.5</ele>
        <time>2013-04-06T06:28:36.000Z</time>
      </trkpt>
      <trkpt lat="47.24699" lon="4.95183">
        <ele>514.1</ele>
        <time>2013-04-06T06:28:37.000Z</time>
      </trkpt>
      <trkpt lat="47.24697" lon="4.95187">
        <ele>514.2</ele>
        <time>2013-04-06T06:28:39.000Z</time>
      </trkpt>
      <trkpt lat="47.24696" lon="4.95189">
        <ele>514.3</ele>
        <time>2013-04-06T06:28:40.000Z</time>
      </trkpt>
      <trkpt lat="47.24694" lon="4.95193">
        <ele>514.4</ele>
        <time>2013-04-06T06:28:42.000Z</time>
      </trkpt>
      <trkpt lat="47.24693" lon="4.95195">
        <ele>514.7</ele>
        <time>2013-04-06T06:28:43.000Z</time>
      </trkpt>
      <trkpt lat="47.24691" lon="4.952">
        <ele>515.1</ele>
        <time>2013-04-06T06:28:45.000Z</time>
      </trkpt>
      <trkpt lat="47.24689" lon="4.95202">
        <ele>515.1</ele>
        <time>2013-04-06T06:28:46.000Z</time>
      </trkpt>
      <trkpt lat="47.24688" lon="4.95208">
        <ele>516</ele>
        <time>2013-04-06T06:28:49.000Z</time>
      </trkpt>
      <trkpt lat="47.24688" lon="4.9521">
        <ele>516.1</ele>
        <time>2013-04-06T06:28:50.000Z</time>
      </trkpt>
      <trkpt lat="47.24688" lon="4.95215">
        <ele>516.4</ele>
        <time>2013-04-06T06:28:53.000Z</time>
      </trkpt>
      <trkpt lat="47.24688" lon="4.95217">
        <ele>516.3</ele>
        <time>2013-04-06T06:28:54.000Z</time>
      </trkpt>
      <trkpt lat="47.24693" lon="4.95249">
        <ele>516</ele>
        <time>2013-04-06T06:29:02.000Z</time>
      </trkpt>
      <trkpt lat="47.24693" lon="4.95253">
        <ele>517.4</ele>
        <time>2013-04-06T06:29:03.000Z</time>
      </trkpt>
      <trkpt lat="47.24691" lon="4.95256">
        <ele>518.7</ele>
        <time>2013-04-06T06:29:04.000Z</time>
      </trkpt>
      <trkpt lat="47.24691" lon="4.9526">
        <ele>517.8</ele>
        <time>2013-04-06T06:29:05.000Z</time>
      </trkpt>
      <trkpt lat="47.24691" lon="4.95264">
        <ele>518.4</ele>
        <time>2013-04-06T06:29:06.000Z</time>
      </trkpt>
      <trkpt lat="47.2469" lon="4.95266">
        <ele>519.4</ele>
        <time>2013-04-06T06:29:07.000Z</time>
      </trkpt>
      <trkpt lat="47.24688" lon="4.9527">
        <ele>519.5</ele>
        <time>2013-04-06T06:29:08.000Z</time>
      </trkpt>
      <trkpt lat="47.24685" lon="4.95272">
        <ele>521.9</ele>
        <time>2013-04-06T06:29:10.000Z</time>
      </trkpt>
      <trkpt lat="47.24683" lon="4.95274">
        <ele>521.2</ele>
        <time>2013-04-06T06:29:11.000Z</time>
      </trkpt>
      <trkpt lat="47.24679" lon="4.95277">
        <ele>521.1</ele>
        <time>2013-04-06T06:29:13.000Z</time>
      </trkpt>
      <trkpt lat="47.24677" lon="4.95278">
        <ele>520.6</ele>
        <time>2013-04-06T06:29:14.000Z</time>
      </trkpt>
      <trkpt lat="47.24673" lon="4.9528">
        <ele>520.8</ele>
        <time>2013-04-06T06:29:16.000Z</time>
      </trkpt>
      <trkpt lat="47.24671" lon="4.9528">
        <ele>520.7</ele>
        <time>2013-04-06T06:29:17.000Z</time>
      </trkpt>
      <trkpt lat="47.24667" lon="4.9528">
        <ele>520.2</ele>
        <time>2013-04-06T06:29:19.000Z</time>
      </trkpt>
      <trkpt lat="47.24665" lon="4.95281">
        <ele>520.5</ele>
        <time>2013-04-06T06:29:20.000Z</time>
      </trkpt>
      <trkpt lat="47.24661" lon="4.95281">
        <ele>520.2</ele>
        <time>2013-04-06T06:29:22.000Z</time>
      </trkpt>
      <trkpt lat="47.24659" lon="4.95281">
        <ele>520.1</ele>
        <time>2013-04-06T06:29:23.000Z</time>
      </trkpt>
      <trkpt lat="47.24656" lon="4.95281">
        <ele>520.3</ele>
        <time>2013-04-06T06:29:25.000Z</time>
      </trkpt>
      <trkpt lat="47.24654" lon="4.95281">
        <ele>519.9</ele>
        <time>2013-04-06T06:29:26.000Z</time>
      </trkpt>
      <trkpt lat="47.24651" lon="4.95281">
        <ele>519.1</ele>
        <time>2013-04-06T06:29:28.000Z</time>
      </trkpt>
      <trkpt lat="47.24649" lon="4.95281">
        <ele>518.7</ele>
        <time>2013-04-06T06:29:29.000Z</time>
      </trkpt>
      <trkpt lat="47.24645" lon="4.95281">
        <ele>517.9</ele>
        <time>2013-04-06T06:29:32.000Z</time>
      </trkpt>
      <trkpt lat="47.24644" lon="4.95281">
        <ele>517.7</ele>
        <time>2013-04-06T06:29:33.000Z</time>
      </trkpt>
      <trkpt lat="47.24641" lon="4.9528">
        <ele>517.3</ele>
        <time>2013-04-06T06:29:35.000Z</time>
      </trkpt>
      <trkpt lat="47.24639" lon="4.9528">
        <ele>517.1</ele>
        <time>2013-04-06T06:29:36.000Z</time>
      </trkpt>
      <trkpt lat="47.24635" lon="4.9528">
        <ele>516.9</ele>
        <time>2013-04-06T06:29:38.000Z</time>
      </trkpt>
      <trkpt lat="47.24633" lon="4.9528">
        <ele>516.8</ele>
        <time>2013-04-06T06:29:39.000Z</time>
      </trkpt>
      <trkpt lat="47.24629" lon="4.9528">
        <ele>516.4</ele>
        <time>2013-04-06T06:29:42.000Z</time>
      </trkpt>
      <trkpt lat="47.24627" lon="4.9528">
        <ele>516.3</ele>
        <time>2013-04-06T06:29:43.000Z</time>
      </trkpt>
      <trkpt lat="47.24625" lon="4.95281">
        <ele>516.4</ele>
        <time>2013-04-06T06:29:45.000Z</time>
      </trkpt>
      <trkpt lat="47.24622" lon="4.95281">
        <ele>516.5</ele>
        <time>2013-04-06T06:29:46.000Z</time>
      </trkpt>
      <trkpt lat="47.2462" lon="4.95281">
        <ele>516.7</ele>
        <time>2013-04-06T06:29:47.000Z</time>
      </trkpt>
      <trkpt lat="47.24618" lon="4.95282">
        <ele>516.8</ele>
        <time>2013-04-06T06:29:48.000Z</time>
      </trkpt>
      <trkpt lat="47.24614" lon="4.95281">
        <ele>516.9</ele>
        <time>2013-04-06T06:29:50.000Z</time>
      </trkpt>
      <trkpt lat="47.24611" lon="4.95281">
        <ele>516.9</ele>
        <time>2013-04-06T06:29:51.000Z</time>
      </trkpt>
      <trkpt lat="47.24607" lon="4.95281">
        <ele>517.1</ele>
        <time>2013-04-06T06:29:53.000Z</time>
      </trkpt>
      <trkpt lat="47.24605" lon="4.95281">
        <ele>517.1</ele>
        <time>2013-04-06T06:29:54.000Z</time>
      </trkpt>
      <trkpt lat="47.24592" lon="4.95278">
        <ele>518.1</ele>
        <time>2013-04-06T06:30:01.000Z</time>
      </trkpt>
      <trkpt lat="47.24588" lon="4.9528">
        <ele>519</ele>
        <time>2013-04-06T06:30:03.000Z</time>
      </trkpt>
      <trkpt lat="47.24587" lon="4.9528">
        <ele>519.3</ele>
        <time>2013-04-06T06:30:04.000Z</time>
      </trkpt>
      <trkpt lat="47.24583" lon="4.9528">
        <ele>520.2</ele>
        <time>2013-04-06T06:30:06.000Z</time>
      </trkpt>
      <trkpt lat="47.24581" lon="4.9528">
        <ele>521</ele>
        <time>2013-04-06T06:30:07.000Z</time>
      </trkpt>
      <trkpt lat="47.24577" lon="4.9528">
        <ele>522.2</ele>
        <time>2013-04-06T06:30:09.000Z</time>
      </trkpt>
      <trkpt lat="47.24575" lon="4.9528">
        <ele>522.6</ele>
        <time>2013-04-06T06:30:10.000Z</time>
      </trkpt>
      <trkpt lat="47.24572" lon="4.95279">
        <ele>522.8</ele>
        <time>2013-04-06T06:30:12.000Z</time>
      </trkpt>
      <trkpt lat="47.24569" lon="4.95279">
        <ele>523.4</ele>
        <time>2013-04-06T06:30:13.000Z</time>
      </trkpt>
      <trkpt lat="47.24566" lon="4.95278">
        <ele>524.5</ele>
        <time>2013-04-06T06:30:15.000Z</time>
      </trkpt>
      <trkpt lat="47.24564" lon="4.95279">
        <ele>525.3</ele>
        <time>2013-04-06T06:30:16.000Z</time>
      </trkpt>
      <trkpt lat="47.2456" lon="4.95278">
        <ele>526.7</ele>
        <time>2013-04-06T06:30:18.000Z</time>
      </trkpt>
      <trkpt lat="47.24559" lon="4.95278">
        <ele>527.2</ele>
        <time>2013-04-06T06:30:19.000Z</time>
      </trkpt>
      <trkpt lat="47.24556" lon="4.95276">
        <ele>527.5</ele>
        <time>2013-04-06T06:30:21.000Z</time>
      </trkpt>
      <trkpt lat="47.24554" lon="4.95276">
        <ele>527.9</ele>
        <time>2013-04-06T06:30:22.000Z</time>
      </trkpt>
      <trkpt lat="47.24551" lon="4.95272">
        <ele>528</ele>
        <time>2013-04-06T06:30:24.000Z</time>
      </trkpt>
      <trkpt lat="47.24549" lon="4.95271">
        <ele>528.2</ele>
        <time>2013-04-06T06:30:25.000Z</time>
      </trkpt>
      <trkpt lat="47.24545" lon="4.95269">
        <ele>527</ele>
        <time>2013-04-06T06:30:27.000Z</time>
      </trkpt>
      <trkpt lat="47.24543" lon="4.95267">
        <ele>526.9</ele>
        <time>2013-04-06T06:30:28.000Z</time>
      </trkpt>
      <trkpt lat="47.2454" lon="4.95263">
        <ele>526.9</ele>
        <time>2013-04-06T06:30:30.000Z</time>
      </trkpt>
      <trkpt lat="47.24539" lon="4.95263">
        <ele>526.9</ele>
        <time>2013-04-06T06:30:31.000Z</time>
      </trkpt>
      <trkpt lat="47.24535" lon="4.95261">
        <ele>527.2</ele>
        <time>2013-04-06T06:30:33.000Z</time>
      </trkpt>
      <trkpt lat="47.24534" lon="4.9526">
        <ele>527.2</ele>
        <time>2013-04-06T06:30:34.000Z</time>
      </trkpt>
      <trkpt lat="47.2453" lon="4.95257">
        <ele>527.3</ele>
        <time>2013-04-06T06:30:37.000Z</time>
      </trkpt>
      <trkpt lat="47.24528" lon="4.95257">
        <ele>527.3</ele>
        <time>2013-04-06T06:30:38.000Z</time>
      </trkpt>
      <trkpt lat="47.24524" lon="4.95259">
        <ele>527.1</ele>
        <time>2013-04-06T06:30:46.000Z</time>
      </trkpt>
      <trkpt lat="47.24524" lon="4.9526">
        <ele>527</ele>
        <time>2013-04-06T06:30:47.000Z</time>
      </trkpt>
      <trkpt lat="47.24523" lon="4.95264">
        <ele>527.1</ele>
        <time>2013-04-06T06:30:49.000Z</time>
      </trkpt>
      <trkpt lat="47.24522" lon="4.95266">
        <ele>527.3</ele>
        <time>2013-04-06T06:30:50.000Z</time>
      </trkpt>
      <trkpt lat="47.24522" lon="4.9527">
        <ele>527.2</ele>
        <time>2013-04-06T06:30:51.000Z</time>
      </trkpt>
      <trkpt lat="47.24521" lon="4.95273">
        <ele>527.2</ele>
        <time>2013-04-06T06:30:52.000Z</time>
      </trkpt>
      <trkpt lat="47.24518" lon="4.95278">
        <ele>527.4</ele>
        <time>2013-04-06T06:30:54.000Z</time>
      </trkpt>
      <trkpt lat="47.24502" lon="4.9529">
        <ele>514.7</ele>
        <time>2013-04-06T06:31:01.000Z</time>
      </trkpt>
      <trkpt lat="47.24501" lon="4.95293">
        <ele>516.8</ele>
        <time>2013-04-06T06:31:02.000Z</time>
      </trkpt>
      <trkpt lat="47.24498" lon="4.95294">
        <ele>518.1</ele>
        <time>2013-04-06T06:31:03.000Z</time>
      </trkpt>
      <trkpt lat="47.24496" lon="4.95295">
        <ele>518.2</ele>
        <time>2013-04-06T06:31:04.000Z</time>
      </trkpt>
      <trkpt lat="47.24494" lon="4.95297">
        <ele>520.1</ele>
        <time>2013-04-06T06:31:05.000Z</time>
      </trkpt>
      <trkpt lat="47.2449" lon="4.95299">
        <ele>521.7</ele>
        <time>2013-04-06T06:31:08.000Z</time>
      </trkpt>
      <trkpt lat="47.24489" lon="4.953">
        <ele>521.8</ele>
        <time>2013-04-06T06:31:09.000Z</time>
      </trkpt>
      <trkpt lat="47.24487" lon="4.95302">
        <ele>522.2</ele>
        <time>2013-04-06T06:31:10.000Z</time>
      </trkpt>
      <trkpt lat="47.24484" lon="4.95304">
        <ele>523</ele>
        <time>2013-04-06T06:31:11.000Z</time>
      </trkpt>
      <trkpt lat="47.24481" lon="4.95305">
        <ele>522.3</ele>
        <time>2013-04-06T06:31:13.000Z</time>
      </trkpt>
      <trkpt lat="47.24479" lon="4.95306">
        <ele>522.9</ele>
        <time>2013-04-06T06:31:14.000Z</time>
      </trkpt>
      <trkpt lat="47.24476" lon="4.95309">
        <ele>522.2</ele>
        <time>2013-04-06T06:31:16.000Z</time>
      </trkpt>
      <trkpt lat="47.24475" lon="4.95309">
        <ele>521.9</ele>
        <time>2013-04-06T06:31:17.000Z</time>
      </trkpt>
      <trkpt lat="47.24471" lon="4.9531">
        <ele>518</ele>
        <time>2013-04-06T06:31:22.000Z</time>
      </trkpt>
      <trkpt lat="47.24471" lon="4.95312">
        <ele>518.3</ele>
        <time>2013-04-06T06:31:23.000Z</time>
      </trkpt>
      <trkpt lat="47.24467" lon="4.95315">
        <ele>517.7</ele>
        <time>2013-04-06T06:31:26.000Z</time>
      </trkpt>
      <trkpt lat="47.24466" lon="4.95316">
        <ele>517.6</ele>
        <time>2013-04-06T06:31:27.000Z</time>
      </trkpt>
      <trkpt lat="47.24462" lon="4.9532">
        <ele>517.2</ele>
        <time>2013-04-06T06:31:29.000Z</time>
      </trkpt>
      <trkpt lat="47.24461" lon="4.95322">
        <ele>517</ele>
        <time>2013-04-06T06:31:30.000Z</time>
      </trkpt>
      <trkpt lat="47.24457" lon="4.95325">
        <ele>516.6</ele>
        <time>2013-04-06T06:31:32.000Z</time>
      </trkpt>
      <trkpt lat="47.24455" lon="4.95326">
        <ele>516.6</ele>
        <time>2013-04-06T06:31:33.000Z</time>
      </trkpt>
      <trkpt lat="47.24451" lon="4.9533">
        <ele>516.3</ele>
        <time>2013-04-06T06:31:36.000Z</time>
      </trkpt>
      <trkpt lat="47.2445" lon="4.95331">
        <ele>516</ele>
        <time>2013-04-06T06:31:37.000Z</time>
      </trkpt>
      <trkpt lat="47.24446" lon="4.95334">
        <ele>515.7</ele>
        <time>2013-04-06T06:31:39.000Z</time>
      </trkpt>
      <trkpt lat="47.24444" lon="4.95335">
        <ele>515.6</ele>
        <time>2013-04-06T06:31:40.000Z</time>
      </trkpt>
      <trkpt lat="47.2444" lon="4.95338">
        <ele>516.4</ele>
        <time>2013-04-06T06:31:42.000Z</time>
      </trkpt>
      <trkpt lat="47.24439" lon="4.95339">
        <ele>516.6</ele>
        <time>2013-04-06T06:31:43.000Z</time>
      </trkpt>
      <trkpt lat="47.24435" lon="4.95343">
        <ele>516.7</ele>
        <time>2013-04-06T06:31:45.000Z</time>
      </trkpt>
      <trkpt lat="47.24434" lon="4.95344">
        <ele>516.8</ele>
        <time>2013-04-06T06:31:46.000Z</time>
      </trkpt>
      <trkpt lat="47.24432" lon="4.95347">
        <ele>517.6</ele>
        <time>2013-04-06T06:31:48.000Z</time>
      </trkpt>
      <trkpt lat="47.24431" lon="4.95349">
        <ele>517.9</ele>
        <time>2013-04-06T06:31:49.000Z</time>
      </trkpt>
      <trkpt lat="47.24429" lon="4.95354">
        <ele>518.3</ele>
        <time>2013-04-06T06:31:51.000Z</time>
      </trkpt>
      <trkpt lat="47.24428" lon="4.95356">
        <ele>518.4</ele>
        <time>2013-04-06T06:31:52.000Z</time>
      </trkpt>
      <trkpt lat="47.24426" lon="4.9536">
        <ele>519.1</ele>
        <time>2013-04-06T06:31:54.000Z</time>
      </trkpt>
      <trkpt lat="47.24417" lon="4.95378">
        <ele>522.1</ele>
        <time>2013-04-06T06:32:01.000Z</time>
      </trkpt>
      <trkpt lat="47.24414" lon="4.95381">
        <ele>518</ele>
        <time>2013-04-06T06:32:03.000Z</time>
      </trkpt>
      <trkpt lat="47.24413" lon="4.95383">
        <ele>517.5</ele>
        <time>2013-04-06T06:32:04.000Z</time>
      </trkpt>
      <trkpt lat="47.2441" lon="4.95386">
        <ele>517.6</ele>
        <time>2013-04-06T06:32:06.000Z</time>
      </trkpt>
      <trkpt lat="47.24408" lon="4.95387">
        <ele>518.8</ele>
        <time>2013-04-06T06:32:07.000Z</time>
      </trkpt>
      <trkpt lat="47.24404" lon="4.9539">
        <ele>519.2</ele>
        <time>2013-04-06T06:32:09.000Z</time>
      </trkpt>
      <trkpt lat="47.24403" lon="4.95391">
        <ele>518.8</ele>
        <time>2013-04-06T06:32:10.000Z</time>
      </trkpt>
      <trkpt lat="47.24399" lon="4.95395">
        <ele>516.7</ele>
        <time>2013-04-06T06:32:13.000Z</time>
      </trkpt>
      <trkpt lat="47.24398" lon="4.95396">
        <ele>516</ele>
        <time>2013-04-06T06:32:14.000Z</time>
      </trkpt>
      <trkpt lat="47.24394" lon="4.95397">
        <ele>515.3</ele>
        <time>2013-04-06T06:32:16.000Z</time>
      </trkpt>
      <trkpt lat="47.24392" lon="4.95398">
        <ele>515.4</ele>
        <time>2013-04-06T06:32:17.000Z</time>
      </trkpt>
      <trkpt lat="47.24388" lon="4.95399">
        <ele>513.9</ele>
        <time>2013-04-06T06:32:19.000Z</time>
      </trkpt>
      <trkpt lat="47.24386" lon="4.954">
        <ele>513.4</ele>
        <time>2013-04-06T06:32:20.000Z</time>
      </trkpt>
      <trkpt lat="47.24382" lon="4.95402">
        <ele>512.5</ele>
        <time>2013-04-06T06:32:22.000Z</time>
      </trkpt>
      <trkpt lat="47.2438" lon="4.95403">
        <ele>512.1</ele>
        <time>2013-04-06T06:32:23.000Z</time>
      </trkpt>
      <trkpt lat="47.24379" lon="4.95397">
        <ele>506.7</ele>
        <time>2013-04-06T06:32:30.000Z</time>
      </trkpt>
      <trkpt lat="47.2438" lon="4.95395">
        <ele>506.2</ele>
        <time>2013-04-06T06:32:31.000Z</time>
      </trkpt>
      <trkpt lat="47.2438" lon="4.9539">
        <ele>505.8</ele>
        <time>2013-04-06T06:32:34.000Z</time>
      </trkpt>
      <trkpt lat="47.2438" lon="4.95388">
        <ele>506</ele>
        <time>2013-04-06T06:32:35.000Z</time>
      </trkpt>
      <trkpt lat="47.2438" lon="4.95382">
        <ele>505.8</ele>
        <time>2013-04-06T06:32:37.000Z</time>
      </trkpt>
      <trkpt lat="47.2438" lon="4.9538">
        <ele>506.1</ele>
        <time>2013-04-06T06:32:38.000Z</time>
      </trkpt>
      <trkpt lat="47.24381" lon="4.95375">
        <ele>506.1</ele>
        <time>2013-04-06T06:32:40.000Z</time>
      </trkpt>
      <trkpt lat="47.24382" lon="4.95373">
        <ele>506.2</ele>
        <time>2013-04-06T06:32:41.000Z</time>
      </trkpt>
      <trkpt lat="47.24383" lon="4.95368">
        <ele>506.2</ele>
        <time>2013-04-06T06:32:43.000Z</time>
      </trkpt>
      <trkpt lat="47.24384" lon="4.95366">
        <ele>506.1</ele>
        <time>2013-04-06T06:32:44.000Z</time>
      </trkpt>
      <trkpt lat="47.24386" lon="4.95361">
        <ele>505.9</ele>
        <time>2013-04-06T06:32:46.000Z</time>
      </trkpt>
      <trkpt lat="47.24387" lon="4.95359">
        <ele>505.8</ele>
        <time>2013-04-06T06:32:47.000Z</time>
      </trkpt>
      <trkpt lat="47.24387" lon="4.95354">
        <ele>505.9</ele>
        <time>2013-04-06T06:32:49.000Z</time>
      </trkpt>
      <trkpt lat="47.24387" lon="4.95352">
        <ele>505.8</ele>
        <time>2013-04-06T06:32:50.000Z</time>
      </trkpt>
      <trkpt lat="47.24388" lon="4.95346">
        <ele>505.8</ele>
        <time>2013-04-06T06:32:52.000Z</time>
      </trkpt>
      <trkpt lat="47.24388" lon="4.95344">
        <ele>505.8</ele>
        <time>2013-04-06T06:32:53.000Z</time>
      </trkpt>
      <trkpt lat="47.24388" lon="4.95342">
        <ele>506</ele>
        <time>2013-04-06T06:32:54.000Z</time>
      </trkpt>
      <trkpt lat="47.24388" lon="4.95323">
        <ele>508.4</ele>
        <time>2013-04-06T06:33:01.000Z</time>
      </trkpt>
      <trkpt lat="47.24389" lon="4.95317">
        <ele>506.9</ele>
        <time>2013-04-06T06:33:03.000Z</time>
      </trkpt>
      <trkpt lat="47.2439" lon="4.95315">
        <ele>507.7</ele>
        <time>2013-04-06T06:33:04.000Z</time>
      </trkpt>
      <trkpt lat="47.2439" lon="4.95309">
        <ele>508.9</ele>
        <time>2013-04-06T06:33:07.000Z</time>
      </trkpt>
      <trkpt lat="47.2439" lon="4.95306">
        <ele>509.7</ele>
        <time>2013-04-06T06:33:08.000Z</time>
      </trkpt>
      <trkpt lat="47.24391" lon="4.95302">
        <ele>511.1</ele>
        <time>2013-04-06T06:33:10.000Z</time>
      </trkpt>
      <trkpt lat="47.24391" lon="4.95299">
        <ele>511.1</ele>
        <time>2013-04-06T06:33:11.000Z</time>
      </trkpt>
      <trkpt lat="47.24391" lon="4.95293">
        <ele>512</ele>
        <time>2013-04-06T06:33:14.000Z</time>
      </trkpt>
      <trkpt lat="47.24391" lon="4.95291">
        <ele>512.3</ele>
        <time>2013-04-06T06:33:15.000Z</time>
      </trkpt>
      <trkpt lat="47.24391" lon="4.95285">
        <ele>513.2</ele>
        <time>2013-04-06T06:33:18.000Z</time>
      </trkpt>
      <trkpt lat="47.24391" lon="4.95282">
        <ele>513.7</ele>
        <time>2013-04-06T06:33:19.000Z</time>
      </trkpt>
      <trkpt lat="47.24391" lon="4.95276">
        <ele>514</ele>
        <time>2013-04-06T06:33:21.000Z</time>
      </trkpt>
      <trkpt lat="47.24391" lon="4.95273">
        <ele>514.5</ele>
        <time>2013-04-06T06:33:22.000Z</time>
      </trkpt>
      <trkpt lat="47.24391" lon="4.95268">
        <ele>514.3</ele>
        <time>2013-04-06T06:33:24.000Z</time>
      </trkpt>
      <trkpt lat="47.24392" lon="4.95266">
        <ele>515.1</ele>
        <time>2013-04-06T06:33:25.000Z</time>
      </trkpt>
      <trkpt lat="47.24392" lon="4.95261">
        <ele>513.8</ele>
        <time>2013-04-06T06:33:27.000Z</time>
      </trkpt>
      <trkpt lat="47.24392" lon="4.95258">
        <ele>513.5</ele>
        <time>2013-04-06T06:33:28.000Z</time>
      </trkpt>
      <trkpt lat="47.24393" lon="4.95252">
        <ele>513.6</ele>
        <time>2013-04-06T06:33:30.000Z</time>
      </trkpt>
      <trkpt lat="47.24393" lon="4.9525">
        <ele>513.4</ele>
        <time>2013-04-06T06:33:31.000Z</time>
      </trkpt>
      <trkpt lat="47.24393" lon="4.95245">
        <ele>513.4</ele>
        <time>2013-04-06T06:33:33.000Z</time>
      </trkpt>
      <trkpt lat="47.24393" lon="4.95242">
        <ele>513.5</ele>
        <time>2013-04-06T06:33:34.000Z</time>
      </trkpt>
      <trkpt lat="47.24394" lon="4.95237">
        <ele>513.5</ele>
        <time>2013-04-06T06:33:36.000Z</time>
      </trkpt>
      <trkpt lat="47.24393" lon="4.95234">
        <ele>513.7</ele>
        <time>2013-04-06T06:33:37.000Z</time>
      </trkpt>
      <trkpt lat="47.24394" lon="4.95229">
        <ele>513.8</ele>
        <time>2013-04-06T06:33:39.000Z</time>
      </trkpt>
      <trkpt lat="47.24394" lon="4.95226">
        <ele>513.9</ele>
        <time>2013-04-06T06:33:40.000Z</time>
      </trkpt>
      <trkpt lat="47.24395" lon="4.95221">
        <ele>514.6</ele>
        <time>2013-04-06T06:33:42.000Z</time>
      </trkpt>
      <trkpt lat="47.24395" lon="4.95218">
        <ele>514.6</ele>
        <time>2013-04-06T06:33:43.000Z</time>
      </trkpt>
      <trkpt lat="47.24396" lon="4.95212">
        <ele>514.6</ele>
        <time>2013-04-06T06:33:45.000Z</time>
      </trkpt>
      <trkpt lat="47.24396" lon="4.9521">
        <ele>514.8</ele>
        <time>2013-04-06T06:33:46.000Z</time>
      </trkpt>
      <trkpt lat="47.24397" lon="4.95205">
        <ele>515.2</ele>
        <time>2013-04-06T06:33:48.000Z</time>
      </trkpt>
      <trkpt lat="47.24397" lon="4.95203">
        <ele>515.5</ele>
        <time>2013-04-06T06:33:49.000Z</time>
      </trkpt>
      <trkpt lat="47.24398" lon="4.95198">
        <ele>515.5</ele>
        <time>2013-04-06T06:33:51.000Z</time>
      </trkpt>
      <trkpt lat="47.24398" lon="4.95196">
        <ele>515.7</ele>
        <time>2013-04-06T06:33:52.000Z</time>
      </trkpt>
      <trkpt lat="47.24399" lon="4.9519">
        <ele>516</ele>
        <time>2013-04-06T06:33:54.000Z</time>
      </trkpt>
      <trkpt lat="47.24401" lon="4.95174">
        <ele>525.2</ele>
        <time>2013-04-06T06:34:01.000Z</time>
      </trkpt>
      <trkpt lat="47.24399" lon="4.95169">
        <ele>521.8</ele>
        <time>2013-04-06T06:34:06.000Z</time>
      </trkpt>
      <trkpt lat="47.24399" lon="4.95166">
        <ele>520.8</ele>
        <time>2013-04-06T06:34:07.000Z</time>
      </trkpt>
      <trkpt lat="47.244" lon="4.9516">
        <ele>521.8</ele>
        <time>2013-04-06T06:34:10.000Z</time>
      </trkpt>
      <trkpt lat="47.24399" lon="4.95158">
        <ele>521.7</ele>
        <time>2013-04-06T06:34:11.000Z</time>
      </trkpt>
      <trkpt lat="47.24398" lon="4.95153">
        <ele>522.3</ele>
        <time>2013-04-06T06:34:14.000Z</time>
      </trkpt>
      <trkpt lat="47.24397" lon="4.95151">
        <ele>522.4</ele>
        <time>2013-04-06T06:34:15.000Z</time>
      </trkpt>
      <trkpt lat="47.24396" lon="4.95147">
        <ele>521.9</ele>
        <time>2013-04-06T06:34:17.000Z</time>
      </trkpt>
      <trkpt lat="47.24395" lon="4.95145">
        <ele>522.4</ele>
        <time>2013-04-06T06:34:18.000Z</time>
      </trkpt>
      <trkpt lat="47.24393" lon="4.95141">
        <ele>522.2</ele>
        <time>2013-04-06T06:34:20.000Z</time>
      </trkpt>
      <trkpt lat="47.24392" lon="4.95139">
        <ele>522.3</ele>
        <time>2013-04-06T06:34:21.000Z</time>
      </trkpt>
      <trkpt lat="47.24391" lon="4.95134">
        <ele>521.4</ele>
        <time>2013-04-06T06:34:23.000Z</time>
      </trkpt>
      <trkpt lat="47.2439" lon="4.95132">
        <ele>521</ele>
        <time>2013-04-06T06:34:24.000Z</time>
      </trkpt>
      <trkpt lat="47.24388" lon="4.95128">
        <ele>520.7</ele>
        <time>2013-04-06T06:34:26.000Z</time>
      </trkpt>
      <trkpt lat="47.24387" lon="4.95126">
        <ele>520.5</ele>
        <time>2013-04-06T06:34:27.000Z</time>
      </trkpt>
      <trkpt lat="47.24385" lon="4.95122">
        <ele>520.1</ele>
        <time>2013-04-06T06:34:29.000Z</time>
      </trkpt>
      <trkpt lat="47.24384" lon="4.95119">
        <ele>519.7</ele>
        <time>2013-04-06T06:34:30.000Z</time>
      </trkpt>
      <trkpt lat="47.24384" lon="4.95114">
        <ele>519.1</ele>
        <time>2013-04-06T06:34:31.000Z</time>
      </trkpt>
      <trkpt lat="47.24383" lon="4.95112">
        <ele>519.3</ele>
        <time>2013-04-06T06:34:32.000Z</time>
      </trkpt>
      <trkpt lat="47.2438" lon="4.95108">
        <ele>519.3</ele>
        <time>2013-04-06T06:34:34.000Z</time>
      </trkpt>
      <trkpt lat="47.24379" lon="4.95107">
        <ele>519</ele>
        <time>2013-04-06T06:34:35.000Z</time>
      </trkpt>
      <trkpt lat="47.24376" lon="4.95103">
        <ele>519</ele>
        <time>2013-04-06T06:34:37.000Z</time>
      </trkpt>
      <trkpt lat="47.24374" lon="4.95103">
        <ele>519.2</ele>
        <time>2013-04-06T06:34:38.000Z</time>
      </trkpt>
      <trkpt lat="47.24371" lon="4.951">
        <ele>519.8</ele>
        <time>2013-04-06T06:34:40.000Z</time>
      </trkpt>
      <trkpt lat="47.24369" lon="4.95099">
        <ele>520.2</ele>
        <time>2013-04-06T06:34:41.000Z</time>
      </trkpt>
      <trkpt lat="47.24365" lon="4.95095">
        <ele>520.8</ele>
        <time>2013-04-06T06:34:43.000Z</time>
      </trkpt>
      <trkpt lat="47.24364" lon="4.95093">
        <ele>521.4</ele>
        <time>2013-04-06T06:34:44.000Z</time>
      </trkpt>
      <trkpt lat="47.24359" lon="4.95092">
        <ele>522.3</ele>
        <time>2013-04-06T06:34:47.000Z</time>
      </trkpt>
      <trkpt lat="47.24358" lon="4.95091">
        <ele>522.5</ele>
        <time>2013-04-06T06:34:48.000Z</time>
      </trkpt>
      <trkpt lat="47.24355" lon="4.95089">
        <ele>522.9</ele>
        <time>2013-04-06T06:34:50.000Z</time>
      </trkpt>
      <trkpt lat="47.24353" lon="4.95088">
        <ele>523</ele>
        <time>2013-04-06T06:34:51.000Z</time>
      </trkpt>
      <trkpt lat="47.2435" lon="4.95087">
        <ele>523.4</ele>
        <time>2013-04-06T06:34:53.000Z</time>
      </trkpt>
      <trkpt lat="47.24349" lon="4.95085">
        <ele>523.5</ele>
        <time>2013-04-06T06:34:54.000Z</time>
      </trkpt>
      <trkpt lat="47.24332" lon="4.95072">
        <ele>527.2</ele>
        <time>2013-04-06T06:35:01.000Z</time>
      </trkpt>
      <trkpt lat="47.24329" lon="4.95066">
        <ele>524.8</ele>
        <time>2013-04-06T06:35:05.000Z</time>
      </trkpt>
      <trkpt lat="47.24328" lon="4.95065">
        <ele>523.8</ele>
        <time>2013-04-06T06:35:06.000Z</time>
      </trkpt>
      <trkpt lat="47.24325" lon="4.95063">
        <ele>523.7</ele>
        <time>2013-04-06T06:35:08.000Z</time>
      </trkpt>
      <trkpt lat="47.24324" lon="4.95062">
        <ele>523.8</ele>
        <time>2013-04-06T06:35:09.000Z</time>
      </trkpt>
      <trkpt lat="47.24322" lon="4.95058">
        <ele>523.9</ele>
        <time>2013-04-06T06:35:11.000Z</time>
      </trkpt>
      <trkpt lat="47.24321" lon="4.95056">
        <ele>523.9</ele>
        <time>2013-04-06T06:35:12.000Z</time>
      </trkpt>
      <trkpt lat="47.24318" lon="4.95053">
        <ele>525.5</ele>
        <time>2013-04-06T06:35:15.000Z</time>
      </trkpt>
      <trkpt lat="47.24317" lon="4.95051">
        <ele>526.2</ele>
        <time>2013-04-06T06:35:16.000Z</time>
      </trkpt>
      <trkpt lat="47.24313" lon="4.95047">
        <ele>528.1</ele>
        <time>2013-04-06T06:35:19.000Z</time>
      </trkpt>
      <trkpt lat="47.24312" lon="4.95046">
        <ele>528.6</ele>
        <time>2013-04-06T06:35:20.000Z</time>
      </trkpt>
      <trkpt lat="47.2431" lon="4.95042">
        <ele>529.7</ele>
        <time>2013-04-06T06:35:22.000Z</time>
      </trkpt>
      <trkpt lat="47.24309" lon="4.9504">
        <ele>529.8</ele>
        <time>2013-04-06T06:35:23.000Z</time>
      </trkpt>
      <trkpt lat="47.24307" lon="4.95037">
        <ele>530</ele>
        <time>2013-04-06T06:35:25.000Z</time>
      </trkpt>
      <trkpt lat="47.24306" lon="4.95034">
        <ele>528.8</ele>
        <time>2013-04-06T06:35:26.000Z</time>
      </trkpt>
      <trkpt lat="47.24304" lon="4.9503">
        <ele>528.2</ele>
        <time>2013-04-06T06:35:28.000Z</time>
      </trkpt>
      <trkpt lat="47.24303" lon="4.95028">
        <ele>527.8</ele>
        <time>2013-04-06T06:35:29.000Z</time>
      </trkpt>
      <trkpt lat="47.24301" lon="4.95023">
        <ele>527.4</ele>
        <time>2013-04-06T06:35:31.000Z</time>
      </trkpt>
      <trkpt lat="47.243" lon="4.95021">
        <ele>527.3</ele>
        <time>2013-04-06T06:35:32.000Z</time>
      </trkpt>
      <trkpt lat="47.24298" lon="4.95017">
        <ele>527.4</ele>
        <time>2013-04-06T06:35:34.000Z</time>
      </trkpt>
      <trkpt lat="47.24297" lon="4.95015">
        <ele>527.3</ele>
        <time>2013-04-06T06:35:35.000Z</time>
      </trkpt>
      <trkpt lat="47.24294" lon="4.95012">
        <ele>527.8</ele>
        <time>2013-04-06T06:35:37.000Z</time>
      </trkpt>
      <trkpt lat="47.24293" lon="4.95009">
        <ele>528.1</ele>
        <time>2013-04-06T06:35:38.000Z</time>
      </trkpt>
      <trkpt lat="47.24291" lon="4.95006">
        <ele>528.6</ele>
        <time>2013-04-06T06:35:40.000Z</time>
      </trkpt>
      <trkpt lat="47.24289" lon="4.95005">
        <ele>528.7</ele>
        <time>2013-04-06T06:35:41.000Z</time>
      </trkpt>
      <trkpt lat="47.24287" lon="4.95001">
        <ele>529</ele>
        <time>2013-04-06T06:35:43.000Z</time>
      </trkpt>
      <trkpt lat="47.24286" lon="4.94999">
        <ele>529.2</ele>
        <time>2013-04-06T06:35:44.000Z</time>
      </trkpt>
      <trkpt lat="47.24284" lon="4.94994">
        <ele>529.6</ele>
        <time>2013-04-06T06:35:46.000Z</time>
      </trkpt>
      <trkpt lat="47.24283" lon="4.94991">
        <ele>529.9</ele>
        <time>2013-04-06T06:35:47.000Z</time>
      </trkpt>
      <trkpt lat="47.24281" lon="4.94987">
        <ele>530.5</ele>
        <time>2013-04-06T06:35:49.000Z</time>
      </trkpt>
      <trkpt lat="47.24279" lon="4.94984">
        <ele>530.7</ele>
        <time>2013-04-06T06:35:50.000Z</time>
      </trkpt>
      <trkpt lat="47.24277" lon="4.94979">
        <ele>530.8</ele>
        <time>2013-04-06T06:35:52.000Z</time>
      </trkpt>
      <trkpt lat="47.24276" lon="4.94977">
        <ele>530.8</ele>
        <time>2013-04-06T06:35:53.000Z</time>
      </trkpt>
      <trkpt lat="47.24274" lon="4.94972">
        <ele>530.8</ele>
        <time>2013-04-06T06:35:55.000Z</time>
      </trkpt>
      <trkpt lat="47.24273" lon="4.9497">
        <ele>530.9</ele>
        <time>2013-04-06T06:35:56.000Z</time>
      </trkpt>
      <trkpt lat="47.24272" lon="4.94965">
        <ele>530.9</ele>
        <time>2013-04-06T06:35:58.000Z</time>
      </trkpt>
      <trkpt lat="47.24271" lon="4.94963">
        <ele>531</ele>
        <time>2013-04-06T06:35:59.000Z</time>
      </trkpt>
      <trkpt lat="47.2427" lon="4.94957">
        <ele>531.1</ele>
        <time>2013-04-06T06:36:01.000Z</time>
      </trkpt>
      <trkpt lat="47.24269" lon="4.94955">
        <ele>530.9</ele>
        <time>2013-04-06T06:36:02.000Z</time>
      </trkpt>
      <trkpt lat="47.24268" lon="4.9495">
        <ele>530.8</ele>
        <time>2013-04-06T06:36:04.000Z</time>
      </trkpt>
      <trkpt lat="47.24268" lon="4.94948">
        <ele>530.7</ele>
        <time>2013-04-06T06:36:05.000Z</time>
      </trkpt>
      <trkpt lat="47.24266" lon="4.94943">
        <ele>530.3</ele>
        <time>2013-04-06T06:36:07.000Z</time>
      </trkpt>
      <trkpt lat="47.24265" lon="4.94941">
        <ele>530.3</ele>
        <time>2013-04-06T06:36:08.000Z</time>
      </trkpt>
      <trkpt lat="47.24264" lon="4.94935">
        <ele>529.9</ele>
        <time>2013-04-06T06:36:10.000Z</time>
      </trkpt>
      <trkpt lat="47.24263" lon="4.94933">
        <ele>529.8</ele>
        <time>2013-04-06T06:36:11.000Z</time>
      </trkpt>
      <trkpt lat="47.24261" lon="4.94928">
        <ele>529.8</ele>
        <time>2013-04-06T06:36:14.000Z</time>
      </trkpt>
      <trkpt lat="47.2426" lon="4.94926">
        <ele>529.9</ele>
        <time>2013-04-06T06:36:15.000Z</time>
      </trkpt>
      <trkpt lat="47.24259" lon="4.94921">
        <ele>529.9</ele>
        <time>2013-04-06T06:36:17.000Z</time>
      </trkpt>
      <trkpt lat="47.24258" lon="4.94919">
        <ele>530</ele>
        <time>2013-04-06T06:36:18.000Z</time>
      </trkpt>
      <trkpt lat="47.24257" lon="4.94915">
        <ele>530.2</ele>
        <time>2013-04-06T06:36:20.000Z</time>
      </trkpt>
      <trkpt lat="47.24256" lon="4.94912">
        <ele>530.2</ele>
        <time>2013-04-06T06:36:21.000Z</time>
      </trkpt>
      <trkpt lat="47.24255" lon="4.94907">
        <ele>530.2</ele>
        <time>2013-04-06T06:36:23.000Z</time>
      </trkpt>
      <trkpt lat="47.24254" lon="4.94904">
        <ele>529.9</ele>
        <time>2013-04-06T06:36:24.000Z</time>
      </trkpt>
      <trkpt lat="47.24252" lon="4.94899">
        <ele>529.5</ele>
        <time>2013-04-06T06:36:26.000Z</time>
      </trkpt>
      <trkpt lat="47.24252" lon="4.94896">
        <ele>529.5</ele>
        <time>2013-04-06T06:36:27.000Z</time>
      </trkpt>
      <trkpt lat="47.24251" lon="4.9489">
        <ele>529.8</ele>
        <time>2013-04-06T06:36:29.000Z</time>
      </trkpt>
      <trkpt lat="47.2425" lon="4.94887">
        <ele>530</ele>
        <time>2013-04-06T06:36:30.000Z</time>
      </trkpt>
      <trkpt lat="47.24251" lon="4.94882">
        <ele>530.4</ele>
        <time>2013-04-06T06:36:32.000Z</time>
      </trkpt>
      <trkpt lat="47.2425" lon="4.94879">
        <ele>530.6</ele>
        <time>2013-04-06T06:36:33.000Z</time>
      </trkpt>
      <trkpt lat="47.2425" lon="4.94873">
        <ele>531</ele>
        <time>2013-04-06T06:36:35.000Z</time>
      </trkpt>
      <trkpt lat="47.24251" lon="4.9487">
        <ele>531.2</ele>
        <time>2013-04-06T06:36:36.000Z</time>
      </trkpt>
      <trkpt lat="47.2425" lon="4.94864">
        <ele>531.4</ele>
        <time>2013-04-06T06:36:38.000Z</time>
      </trkpt>
      <trkpt lat="47.2425" lon="4.94862">
        <ele>531.7</ele>
        <time>2013-04-06T06:36:39.000Z</time>
      </trkpt>
      <trkpt lat="47.24249" lon="4.94857">
        <ele>532.4</ele>
        <time>2013-04-06T06:36:41.000Z</time>
      </trkpt>
      <trkpt lat="47.24249" lon="4.94854">
        <ele>532.9</ele>
        <time>2013-04-06T06:36:42.000Z</time>
      </trkpt>
      <trkpt lat="47.24249" lon="4.94848">
        <ele>534</ele>
        <time>2013-04-06T06:36:44.000Z</time>
      </trkpt>
      <trkpt lat="47.24249" lon="4.94845">
        <ele>534.3</ele>
        <time>2013-04-06T06:36:45.000Z</time>
      </trkpt>
      <trkpt lat="47.24249" lon="4.9484">
        <ele>534.8</ele>
        <time>2013-04-06T06:36:47.000Z</time>
      </trkpt>
      <trkpt lat="47.24248" lon="4.94837">
        <ele>535.2</ele>
        <time>2013-04-06T06:36:48.000Z</time>
      </trkpt>
      <trkpt lat="47.24247" lon="4.94831">
        <ele>535.8</ele>
        <time>2013-04-06T06:36:51.000Z</time>
      </trkpt>
      <trkpt lat="47.24247" lon="4.94829">
        <ele>536.1</ele>
        <time>2013-04-06T06:36:52.000Z</time>
      </trkpt>
      <trkpt lat="47.24247" lon="4.94823">
        <ele>536.3</ele>
        <time>2013-04-06T06:36:54.000Z</time>
      </trkpt>
      <trkpt lat="47.24251" lon="4.94794">
        <ele>538.4</ele>
        <time>2013-04-06T06:37:02.000Z</time>
      </trkpt>
      <trkpt lat="47.2425" lon="4.9479">
        <ele>538.9</ele>
        <time>2013-04-06T06:37:04.000Z</time>
      </trkpt>
      <trkpt lat="47.24249" lon="4.94788">
        <ele>539.8</ele>
        <time>2013-04-06T06:37:05.000Z</time>
      </trkpt>
      <trkpt lat="47.24249" lon="4.94784">
        <ele>542.8</ele>
        <time>2013-04-06T06:37:07.000Z</time>
      </trkpt>
      <trkpt lat="47.24249" lon="4.94781">
        <ele>541.2</ele>
        <time>2013-04-06T06:37:08.000Z</time>
      </trkpt>
      <trkpt lat="47.2425" lon="4.94775">
        <ele>541.2</ele>
        <time>2013-04-06T06:37:11.000Z</time>
      </trkpt>
      <trkpt lat="47.2425" lon="4.94773">
        <ele>541.9</ele>
        <time>2013-04-06T06:37:12.000Z</time>
      </trkpt>
      <trkpt lat="47.2425" lon="4.94767">
        <ele>542.9</ele>
        <time>2013-04-06T06:37:15.000Z</time>
      </trkpt>
      <trkpt lat="47.24249" lon="4.94765">
        <ele>544.1</ele>
        <time>2013-04-06T06:37:16.000Z</time>
      </trkpt>
      <trkpt lat="47.24249" lon="4.94761">
        <ele>545.7</ele>
        <time>2013-04-06T06:37:18.000Z</time>
      </trkpt>
      <trkpt lat="47.24248" lon="4.94758">
        <ele>545.7</ele>
        <time>2013-04-06T06:37:19.000Z</time>
      </trkpt>
      <trkpt lat="47.24248" lon="4.94754">
        <ele>546.4</ele>
        <time>2013-04-06T06:37:21.000Z</time>
      </trkpt>
      <trkpt lat="47.24247" lon="4.94752">
        <ele>547.4</ele>
        <time>2013-04-06T06:37:22.000Z</time>
      </trkpt>
      <trkpt lat="47.24247" lon="4.94748">
        <ele>548.1</ele>
        <time>2013-04-06T06:37:24.000Z</time>
      </trkpt>
      <trkpt lat="47.24247" lon="4.94745">
        <ele>547.9</ele>
        <time>2013-04-06T06:37:25.000Z</time>
      </trkpt>
      <trkpt lat="47.24247" lon="4.9474">
        <ele>545.7</ele>
        <time>2013-04-06T06:37:27.000Z</time>
      </trkpt>
      <trkpt lat="47.24248" lon="4.94737">
        <ele>545.9</ele>
        <time>2013-04-06T06:37:28.000Z</time>
      </trkpt>
      <trkpt lat="47.24247" lon="4.94732">
        <ele>545.7</ele>
        <time>2013-04-06T06:37:30.000Z</time>
      </trkpt>
      <trkpt lat="47.24247" lon="4.9473">
        <ele>545</ele>
        <time>2013-04-06T06:37:31.000Z</time>
      </trkpt>
      <trkpt lat="47.24247" lon="4.94724">
        <ele>544.8</ele>
        <time>2013-04-06T06:37:33.000Z</time>
      </trkpt>
      <trkpt lat="47.24247" lon="4.94722">
        <ele>544.6</ele>
        <time>2013-04-06T06:37:34.000Z</time>
      </trkpt>
      <trkpt lat="47.24248" lon="4.94718">
        <ele>543.9</ele>
        <time>2013-04-06T06:37:36.000Z</time>
      </trkpt>
      <trkpt lat="47.24248" lon="4.94714">
        <ele>544.1</ele>
        <time>2013-04-06T06:37:37.000Z</time>
      </trkpt>
      <trkpt lat="47.24248" lon="4.94708">
        <ele>544.6</ele>
        <time>2013-04-06T06:37:39.000Z</time>
      </trkpt>
      <trkpt lat="47.24248" lon="4.94704">
        <ele>544.6</ele>
        <time>2013-04-06T06:37:40.000Z</time>
      </trkpt>
      <trkpt lat="47.24248" lon="4.94701">
        <ele>544.5</ele>
        <time>2013-04-06T06:37:41.000Z</time>
      </trkpt>
      <trkpt lat="47.24247" lon="4.94697">
        <ele>544.9</ele>
        <time>2013-04-06T06:37:42.000Z</time>
      </trkpt>
      <trkpt lat="47.24248" lon="4.94692">
        <ele>545</ele>
        <time>2013-04-06T06:37:44.000Z</time>
      </trkpt>
      <trkpt lat="47.24248" lon="4.94689">
        <ele>545.3</ele>
        <time>2013-04-06T06:37:45.000Z</time>
      </trkpt>
      <trkpt lat="47.24248" lon="4.94684">
        <ele>545.3</ele>
        <time>2013-04-06T06:37:47.000Z</time>
      </trkpt>
      <trkpt lat="47.24248" lon="4.94681">
        <ele>545.2</ele>
        <time>2013-04-06T06:37:48.000Z</time>
      </trkpt>
      <trkpt lat="47.24248" lon="4.94678">
        <ele>545.1</ele>
        <time>2013-04-06T06:37:49.000Z</time>
      </trkpt>
      <trkpt lat="47.24249" lon="4.94674">
        <ele>544.5</ele>
        <time>2013-04-06T06:37:50.000Z</time>
      </trkpt>
      <trkpt lat="47.24248" lon="4.94669">
        <ele>544.4</ele>
        <time>2013-04-06T06:37:52.000Z</time>
      </trkpt>
      <trkpt lat="47.24248" lon="4.94667">
        <ele>544.4</ele>
        <time>2013-04-06T06:37:53.000Z</time>
      </trkpt>
      <trkpt lat="47.24247" lon="4.94665">
        <ele>544.4</ele>
        <time>2013-04-06T06:37:54.000Z</time>
      </trkpt>
      <trkpt lat="47.24246" lon="4.94642">
        <ele>545</ele>
        <time>2013-04-06T06:38:02.000Z</time>
      </trkpt>
      <trkpt lat="47.24247" lon="4.94637">
        <ele>543.5</ele>
        <time>2013-04-06T06:38:04.000Z</time>
      </trkpt>
      <trkpt lat="47.24247" lon="4.94634">
        <ele>543.7</ele>
        <time>2013-04-06T06:38:05.000Z</time>
      </trkpt>
      <trkpt lat="47.24247" lon="4.9463">
        <ele>543.4</ele>
        <time>2013-04-06T06:38:07.000Z</time>
      </trkpt>
      <trkpt lat="47.24247" lon="4.94627">
        <ele>543.5</ele>
        <time>2013-04-06T06:38:08.000Z</time>
      </trkpt>
      <trkpt lat="47.24247" lon="4.94623">
        <ele>543.3</ele>
        <time>2013-04-06T06:38:10.000Z</time>
      </trkpt>
      <trkpt lat="47.24247" lon="4.9462">
        <ele>543.6</ele>
        <time>2013-04-06T06:38:11.000Z</time>
      </trkpt>
      <trkpt lat="47.24248" lon="4.94616">
        <ele>543.2</ele>
        <time>2013-04-06T06:38:13.000Z</time>
      </trkpt>
      <trkpt lat="47.24248" lon="4.94613">
        <ele>544.6</ele>
        <time>2013-04-06T06:38:14.000Z</time>
      </trkpt>
      <trkpt lat="47.24248" lon="4.94607">
        <ele>546.3</ele>
        <time>2013-04-06T06:38:16.000Z</time>
      </trkpt>
      <trkpt lat="47.24248" lon="4.94605">
        <ele>546.9</ele>
        <time>2013-04-06T06:38:17.000Z</time>
      </trkpt>
      <trkpt lat="47.24248" lon="4.946">
        <ele>547</ele>
        <time>2013-04-06T06:38:19.000Z</time>
      </trkpt>
      <trkpt lat="47.24248" lon="4.94598">
        <ele>547.6</ele>
        <time>2013-04-06T06:38:20.000Z</time>
      </trkpt>
      <trkpt lat="47.24247" lon="4.94591">
        <ele>547</ele>
        <time>2013-04-06T06:38:22.000Z</time>
      </trkpt>
      <trkpt lat="47.24247" lon="4.94588">
        <ele>546.7</ele>
        <time>2013-04-06T06:38:23.000Z</time>
      </trkpt>
      <trkpt lat="47.24247" lon="4.94582">
        <ele>548.6</ele>
        <time>2013-04-06T06:38:25.000Z</time>
      </trkpt>
      <trkpt lat="47.24247" lon="4.94579">
        <ele>548.2</ele>
        <time>2013-04-06T06:38:26.000Z</time>
      </trkpt>
      <trkpt lat="47.24247" lon="4.94573">
        <ele>547.8</ele>
        <time>2013-04-06T06:38:28.000Z</time>
      </trkpt>
      <trkpt lat="47.24247" lon="4.9457">
        <ele>547.5</ele>
        <time>2013-04-06T06:38:29.000Z</time>
      </trkpt>
      <trkpt lat="47.24247" lon="4.94564">
        <ele>547.3</ele>
        <time>2013-04-06T06:38:31.000Z</time>
      </trkpt>
      <trkpt lat="47.24247" lon="4.94561">
        <ele>547.3</ele>
        <time>2013-04-06T06:38:32.000Z</time>
      </trkpt>
      <trkpt lat="47.24246" lon="4.94555">
        <ele>547.9</ele>
        <time>2013-04-06T06:38:34.000Z</time>
      </trkpt>
      <trkpt lat="47.24246" lon="4.94553">
        <ele>547.8</ele>
        <time>2013-04-06T06:38:35.000Z</time>
      </trkpt>
      <trkpt lat="47.24246" lon="4.94548">
        <ele>547.8</ele>
        <time>2013-04-06T06:38:37.000Z</time>
      </trkpt>
      <trkpt lat="47.24246" lon="4.94546">
        <ele>547.8</ele>
        <time>2013-04-06T06:38:38.000Z</time>
      </trkpt>
      <trkpt lat="47.24246" lon="4.94541">
        <ele>547.4</ele>
        <time>2013-04-06T06:38:40.000Z</time>
      </trkpt>
      <trkpt lat="47.24246" lon="4.94539">
        <ele>547.3</ele>
        <time>2013-04-06T06:38:41.000Z</time>
      </trkpt>
      <trkpt lat="47.24246" lon="4.94533">
        <ele>547.5</ele>
        <time>2013-04-06T06:38:43.000Z</time>
      </trkpt>
      <trkpt lat="47.24246" lon="4.9453">
        <ele>547.8</ele>
        <time>2013-04-06T06:38:44.000Z</time>
      </trkpt>
      <trkpt lat="47.24246" lon="4.94524">
        <ele>547.8</ele>
        <time>2013-04-06T06:38:46.000Z</time>
      </trkpt>
      <trkpt lat="47.24246" lon="4.94522">
        <ele>547.7</ele>
        <time>2013-04-06T06:38:47.000Z</time>
      </trkpt>
      <trkpt lat="47.24247" lon="4.94516">
        <ele>547.6</ele>
        <time>2013-04-06T06:38:49.000Z</time>
      </trkpt>
      <trkpt lat="47.24247" lon="4.94513">
        <ele>547.5</ele>
        <time>2013-04-06T06:38:50.000Z</time>
      </trkpt>
      <trkpt lat="47.24248" lon="4.94508">
        <ele>547.6</ele>
        <time>2013-04-06T06:38:52.000Z</time>
      </trkpt>
      <trkpt lat="47.24248" lon="4.94505">
        <ele>547.4</ele>
        <time>2013-04-06T06:38:53.000Z</time>
      </trkpt>
      <trkpt lat="47.24248" lon="4.94501">
        <ele>547.1</ele>
        <time>2013-04-06T06:38:54.000Z</time>
      </trkpt>
      <trkpt lat="47.2425" lon="4.94478">
        <ele>547.2</ele>
        <time>2013-04-06T06:39:02.000Z</time>
      </trkpt>
      <trkpt lat="47.2425" lon="4.94472">
        <ele>549.9</ele>
        <time>2013-04-06T06:39:05.000Z</time>
      </trkpt>
      <trkpt lat="47.2425" lon="4.94469">
        <ele>550.3</ele>
        <time>2013-04-06T06:39:06.000Z</time>
      </trkpt>
      <trkpt lat="47.24249" lon="4.94465">
        <ele>551.7</ele>
        <time>2013-04-06T06:39:08.000Z</time>
      </trkpt>
      <trkpt lat="47.24249" lon="4.94463">
        <ele>552.4</ele>
        <time>2013-04-06T06:39:09.000Z</time>
      </trkpt>
      <trkpt lat="47.24249" lon="4.94458">
        <ele>552.1</ele>
        <time>2013-04-06T06:39:11.000Z</time>
      </trkpt>
      <trkpt lat="47.2425" lon="4.94455">
        <ele>551.4</ele>
        <time>2013-04-06T06:39:12.000Z</time>
      </trkpt>
      <trkpt lat="47.24251" lon="4.9445">
        <ele>552</ele>
        <time>2013-04-06T06:39:14.000Z</time>
      </trkpt>
      <trkpt lat="47.24252" lon="4.94447">
        <ele>551.7</ele>
        <time>2013-04-06T06:39:15.000Z</time>
      </trkpt>
      <trkpt lat="47.2425" lon="4.94442">
        <ele>553.1</ele>
        <time>2013-04-06T06:39:17.000Z</time>
      </trkpt>
      <trkpt lat="47.2425" lon="4.9444">
        <ele>553.9</ele>
        <time>2013-04-06T06:39:18.000Z</time>
      </trkpt>
      <trkpt lat="47.2425" lon="4.94435">
        <ele>556.1</ele>
        <time>2013-04-06T06:39:20.000Z</time>
      </trkpt>
      <trkpt lat="47.2425" lon="4.94433">
        <ele>556.8</ele>
        <time>2013-04-06T06:39:21.000Z</time>
      </trkpt>
      <trkpt lat="47.24249" lon="4.94428">
        <ele>557.2</ele>
        <time>2013-04-06T06:39:23.000Z</time>
      </trkpt>
      <trkpt lat="47.24249" lon="4.94425">
        <ele>557</ele>
        <time>2013-04-06T06:39:24.000Z</time>
      </trkpt>
      <trkpt lat="47.24248" lon="4.9442">
        <ele>557.7</ele>
        <time>2013-04-06T06:39:26.000Z</time>
      </trkpt>
      <trkpt lat="47.24249" lon="4.94417">
        <ele>556.3</ele>
        <time>2013-04-06T06:39:27.000Z</time>
      </trkpt>
      <trkpt lat="47.24249" lon="4.94411">
        <ele>555.4</ele>
        <time>2013-04-06T06:39:29.000Z</time>
      </trkpt>
      <trkpt lat="47.24249" lon="4.94409">
        <ele>555.3</ele>
        <time>2013-04-06T06:39:30.000Z</time>
      </trkpt>
      <trkpt lat="47.24249" lon="4.94403">
        <ele>554.3</ele>
        <time>2013-04-06T06:39:32.000Z</time>
      </trkpt>
      <trkpt lat="47.2425" lon="4.94401">
        <ele>554.2</ele>
        <time>2013-04-06T06:39:33.000Z</time>
      </trkpt>
      <trkpt lat="47.2425" lon="4.94395">
        <ele>553.6</ele>
        <time>2013-04-06T06:39:35.000Z</time>
      </trkpt>
      <trkpt lat="47.24249" lon="4.94393">
        <ele>553.2</ele>
        <time>2013-04-06T06:39:36.000Z</time>
      </trkpt>
      <trkpt lat="47.24249" lon="4.94388">
        <ele>553.3</ele>
        <time>2013-04-06T06:39:38.000Z</time>
      </trkpt>
      <trkpt lat="47.24248" lon="4.94386">
        <ele>553.5</ele>
        <time>2013-04-06T06:39:39.000Z</time>
      </trkpt>
      <trkpt lat="47.24247" lon="4.94382">
        <ele>553.6</ele>
        <time>2013-04-06T06:39:41.000Z</time>
      </trkpt>
      <trkpt lat="47.24247" lon="4.94379">
        <ele>553.4</ele>
        <time>2013-04-06T06:39:42.000Z</time>
      </trkpt>
      <trkpt lat="47.24246" lon="4.94373">
        <ele>553.7</ele>
        <time>2013-04-06T06:39:45.000Z</time>
      </trkpt>
      <trkpt lat="47.24246" lon="4.94371">
        <ele>554</ele>
        <time>2013-04-06T06:39:46.000Z</time>
      </trkpt>
      <trkpt lat="47.24245" lon="4.94367">
        <ele>554.1</ele>
        <time>2013-04-06T06:39:48.000Z</time>
      </trkpt>
      <trkpt lat="47.24245" lon="4.94364">
        <ele>554.2</ele>
        <time>2013-04-06T06:39:49.000Z</time>
      </trkpt>
      <trkpt lat="47.24244" lon="4.94358">
        <ele>554.4</ele>
        <time>2013-04-06T06:39:52.000Z</time>
      </trkpt>
      <trkpt lat="47.24244" lon="4.94356">
        <ele>554.7</ele>
        <time>2013-04-06T06:39:53.000Z</time>
      </trkpt>
      <trkpt lat="47.24243" lon="4.94354">
        <ele>554.7</ele>
        <time>2013-04-06T06:39:54.000Z</time>
      </trkpt>
      <trkpt lat="47.24239" lon="4.94322">
        <ele>556.7</ele>
        <time>2013-04-06T06:40:03.000Z</time>
      </trkpt>
      <trkpt lat="47.24236" lon="4.94317">
        <ele>560.3</ele>
        <time>2013-04-06T06:40:06.000Z</time>
      </trkpt>
      <trkpt lat="47.24236" lon="4.94314">
        <ele>560.8</ele>
        <time>2013-04-06T06:40:07.000Z</time>
      </trkpt>
      <trkpt lat="47.24235" lon="4.94311">
        <ele>561.1</ele>
        <time>2013-04-06T06:40:08.000Z</time>
      </trkpt>
      <trkpt lat="47.24234" lon="4.94308">
        <ele>560.5</ele>
        <time>2013-04-06T06:40:09.000Z</time>
      </trkpt>
      <trkpt lat="47.24233" lon="4.94303">
        <ele>561.7</ele>
        <time>2013-04-06T06:40:11.000Z</time>
      </trkpt>
      <trkpt lat="47.24233" lon="4.943">
        <ele>563.6</ele>
        <time>2013-04-06T06:40:12.000Z</time>
      </trkpt>
      <trkpt lat="47.24231" lon="4.94295">
        <ele>564.1</ele>
        <time>2013-04-06T06:40:14.000Z</time>
      </trkpt>
      <trkpt lat="47.24231" lon="4.94293">
        <ele>564</ele>
        <time>2013-04-06T06:40:15.000Z</time>
      </trkpt>
      <trkpt lat="47.24231" lon="4.94288">
        <ele>564</ele>
        <time>2013-04-06T06:40:17.000Z</time>
      </trkpt>
      <trkpt lat="47.24231" lon="4.94285">
        <ele>563.8</ele>
        <time>2013-04-06T06:40:18.000Z</time>
      </trkpt>
      <trkpt lat="47.24231" lon="4.94279">
        <ele>562.8</ele>
        <time>2013-04-06T06:40:20.000Z</time>
      </trkpt>
      <trkpt lat="47.2423" lon="4.94275">
        <ele>562.2</ele>
        <time>2013-04-06T06:40:21.000Z</time>
      </trkpt>
      <trkpt lat="47.2423" lon="4.94269">
        <ele>562</ele>
        <time>2013-04-06T06:40:23.000Z</time>
      </trkpt>
      <trkpt lat="47.24229" lon="4.94267">
        <ele>562.5</ele>
        <time>2013-04-06T06:40:24.000Z</time>
      </trkpt>
      <trkpt lat="47.24229" lon="4.9426">
        <ele>561.7</ele>
        <time>2013-04-06T06:40:27.000Z</time>
      </trkpt>
      <trkpt lat="47.24229" lon="4.94258">
        <ele>561.3</ele>
        <time>2013-04-06T06:40:28.000Z</time>
      </trkpt>
      <trkpt lat="47.24228" lon="4.94253">
        <ele>560.9</ele>
        <time>2013-04-06T06:40:30.000Z</time>
      </trkpt>
      <trkpt lat="47.24227" lon="4.94251">
        <ele>560.9</ele>
        <time>2013-04-06T06:40:31.000Z</time>
      </trkpt>
      <trkpt lat="47.24226" lon="4.94245">
        <ele>560.7</ele>
        <time>2013-04-06T06:40:33.000Z</time>
      </trkpt>
      <trkpt lat="47.24225" lon="4.94242">
        <ele>560.9</ele>
        <time>2013-04-06T06:40:34.000Z</time>
      </trkpt>
      <trkpt lat="47.24225" lon="4.94238">
        <ele>561.1</ele>
        <time>2013-04-06T06:40:36.000Z</time>
      </trkpt>
      <trkpt lat="47.24225" lon="4.94235">
        <ele>561.4</ele>
        <time>2013-04-06T06:40:37.000Z</time>
      </trkpt>
      <trkpt lat="47.24224" lon="4.94229">
        <ele>561.7</ele>
        <time>2013-04-06T06:40:39.000Z</time>
      </trkpt>
      <trkpt lat="47.24223" lon="4.94226">
        <ele>561.8</ele>
        <time>2013-04-06T06:40:40.000Z</time>
      </trkpt>
      <trkpt lat="47.24223" lon="4.94223">
        <ele>562</ele>
        <time>2013-04-06T06:40:41.000Z</time>
      </trkpt>
      <trkpt lat="47.24222" lon="4.9422">
        <ele>562.2</ele>
        <time>2013-04-06T06:40:42.000Z</time>
      </trkpt>
      <trkpt lat="47.24221" lon="4.94214">
        <ele>561.9</ele>
        <time>2013-04-06T06:40:44.000Z</time>
      </trkpt>
      <trkpt lat="47.24221" lon="4.94211">
        <ele>561.8</ele>
        <time>2013-04-06T06:40:45.000Z</time>
      </trkpt>
      <trkpt lat="47.2422" lon="4.94205">
        <ele>561.5</ele>
        <time>2013-04-06T06:40:47.000Z</time>
      </trkpt>
      <trkpt lat="47.24219" lon="4.94202">
        <ele>561.4</ele>
        <time>2013-04-06T06:40:48.000Z</time>
      </trkpt>
      <trkpt lat="47.24218" lon="4.94196">
        <ele>561.9</ele>
        <time>2013-04-06T06:40:50.000Z</time>
      </trkpt>
      <trkpt lat="47.24218" lon="4.94194">
        <ele>562.1</ele>
        <time>2013-04-06T06:40:51.000Z</time>
      </trkpt>
      <trkpt lat="47.24217" lon="4.94189">
        <ele>562</ele>
        <time>2013-04-06T06:40:53.000Z</time>
      </trkpt>
      <trkpt lat="47.24216" lon="4.94186">
        <ele>562</ele>
        <time>2013-04-06T06:40:54.000Z</time>
      </trkpt>
      <trkpt lat="47.24215" lon="4.94183">
        <ele>561.9</ele>
        <time>2013-04-06T06:40:55.000Z</time>
      </trkpt>
      <trkpt lat="47.24214" lon="4.94179">
        <ele>561.9</ele>
        <time>2013-04-06T06:40:56.000Z</time>
      </trkpt>
      <trkpt lat="47.24214" lon="4.94176">
        <ele>561.9</ele>
        <time>2013-04-06T06:40:57.000Z</time>
      </trkpt>
      <trkpt lat="47.2421" lon="4.94149">
        <ele>560.4</ele>
        <time>2013-04-06T06:41:05.000Z</time>
      </trkpt>
      <trkpt lat="47.2421" lon="4.94144">
        <ele>564.1</ele>
        <time>2013-04-06T06:41:08.000Z</time>
      </trkpt>
      <trkpt lat="47.24209" lon="4.94141">
        <ele>565.6</ele>
        <time>2013-04-06T06:41:09.000Z</time>
      </trkpt>
      <trkpt lat="47.24209" lon="4.94136">
        <ele>564.9</ele>
        <time>2013-04-06T06:41:11.000Z</time>
      </trkpt>
      <trkpt lat="47.24208" lon="4.94133">
        <ele>565</ele>
        <time>2013-04-06T06:41:12.000Z</time>
      </trkpt>
      <trkpt lat="47.24206" lon="4.94129">
        <ele>567.4</ele>
        <time>2013-04-06T06:41:14.000Z</time>
      </trkpt>
      <trkpt lat="47.24206" lon="4.94127">
        <ele>568</ele>
        <time>2013-04-06T06:41:15.000Z</time>
      </trkpt>
      <trkpt lat="47.24205" lon="4.94122">
        <ele>568.5</ele>
        <time>2013-04-06T06:41:17.000Z</time>
      </trkpt>
      <trkpt lat="47.24204" lon="4.94119">
        <ele>569</ele>
        <time>2013-04-06T06:41:18.000Z</time>
      </trkpt>
      <trkpt lat="47.24204" lon="4.94116">
        <ele>569.6</ele>
        <time>2013-04-06T06:41:19.000Z</time>
      </trkpt>
      <trkpt lat="47.24203" lon="4.94112">
        <ele>569.4</ele>
        <time>2013-04-06T06:41:20.000Z</time>
      </trkpt>
      <trkpt lat="47.24202" lon="4.94106">
        <ele>570.5</ele>
        <time>2013-04-06T06:41:22.000Z</time>
      </trkpt>
      <trkpt lat="47.24202" lon="4.94104">
        <ele>571.1</ele>
        <time>2013-04-06T06:41:23.000Z</time>
      </trkpt>
      <trkpt lat="47.24201" lon="4.94099">
        <ele>572</ele>
        <time>2013-04-06T06:41:25.000Z</time>
      </trkpt>
      <trkpt lat="47.24201" lon="4.94096">
        <ele>572</ele>
        <time>2013-04-06T06:41:26.000Z</time>
      </trkpt>
      <trkpt lat="47.242" lon="4.94093">
        <ele>571.4</ele>
        <time>2013-04-06T06:41:27.000Z</time>
      </trkpt>
      <trkpt lat="47.242" lon="4.9409">
        <ele>570.8</ele>
        <time>2013-04-06T06:41:28.000Z</time>
      </trkpt>
      <trkpt lat="47.24199" lon="4.94087">
        <ele>569.8</ele>
        <time>2013-04-06T06:41:29.000Z</time>
      </trkpt>
      <trkpt lat="47.24198" lon="4.94084">
        <ele>569.4</ele>
        <time>2013-04-06T06:41:30.000Z</time>
      </trkpt>
      <trkpt lat="47.24197" lon="4.94079">
        <ele>569.3</ele>
        <time>2013-04-06T06:41:32.000Z</time>
      </trkpt>
      <trkpt lat="47.24197" lon="4.94077">
        <ele>569.5</ele>
        <time>2013-04-06T06:41:33.000Z</time>
      </trkpt>
      <trkpt lat="47.24197" lon="4.94072">
        <ele>569.5</ele>
        <time>2013-04-06T06:41:35.000Z</time>
      </trkpt>
      <trkpt lat="47.24196" lon="4.94069">
        <ele>569.8</ele>
        <time>2013-04-06T06:41:36.000Z</time>
      </trkpt>
      <trkpt lat="47.24195" lon="4.94063">
        <ele>569.9</ele>
        <time>2013-04-06T06:41:38.000Z</time>
      </trkpt>
      <trkpt lat="47.24194" lon="4.94061">
        <ele>569.7</ele>
        <time>2013-04-06T06:41:39.000Z</time>
      </trkpt>
      <trkpt lat="47.24193" lon="4.94055">
        <ele>569.3</ele>
        <time>2013-04-06T06:41:42.000Z</time>
      </trkpt>
      <trkpt lat="47.24193" lon="4.94053">
        <ele>569.4</ele>
        <time>2013-04-06T06:41:43.000Z</time>
      </trkpt>
      <trkpt lat="47.24192" lon="4.94048">
        <ele>569.5</ele>
        <time>2013-04-06T06:41:45.000Z</time>
      </trkpt>
      <trkpt lat="47.24192" lon="4.94045">
        <ele>569.5</ele>
        <time>2013-04-06T06:41:46.000Z</time>
      </trkpt>
      <trkpt lat="47.24191" lon="4.94039">
        <ele>569.5</ele>
        <time>2013-04-06T06:41:48.000Z</time>
      </trkpt>
      <trkpt lat="47.2419" lon="4.94036">
        <ele>569.7</ele>
        <time>2013-04-06T06:41:49.000Z</time>
      </trkpt>
      <trkpt lat="47.24189" lon="4.9403">
        <ele>569.9</ele>
        <time>2013-04-06T06:41:51.000Z</time>
      </trkpt>
      <trkpt lat="47.24188" lon="4.94027">
        <ele>570</ele>
        <time>2013-04-06T06:41:52.000Z</time>
      </trkpt>
      <trkpt lat="47.24188" lon="4.94021">
        <ele>570.1</ele>
        <time>2013-04-06T06:41:54.000Z</time>
      </trkpt>
      <trkpt lat="47.24188" lon="4.94018">
        <ele>570.2</ele>
        <time>2013-04-06T06:41:55.000Z</time>
      </trkpt>
      <trkpt lat="47.24187" lon="4.94012">
        <ele>570.2</ele>
        <time>2013-04-06T06:41:57.000Z</time>
      </trkpt>
      <trkpt lat="47.24182" lon="4.93993">
        <ele>577.6</ele>
        <time>2013-04-06T06:42:05.000Z</time>
      </trkpt>
      <trkpt lat="47.24181" lon="4.93989">
        <ele>578.7</ele>
        <time>2013-04-06T06:42:07.000Z</time>
      </trkpt>
      <trkpt lat="47.24181" lon="4.93985">
        <ele>578.2</ele>
        <time>2013-04-06T06:42:08.000Z</time>
      </trkpt>
      <trkpt lat="47.24179" lon="4.93981">
        <ele>579.1</ele>
        <time>2013-04-06T06:42:10.000Z</time>
      </trkpt>
      <trkpt lat="47.24178" lon="4.93978">
        <ele>578</ele>
        <time>2013-04-06T06:42:11.000Z</time>
      </trkpt>
      <trkpt lat="47.24177" lon="4.93974">
        <ele>579.1</ele>
        <time>2013-04-06T06:42:13.000Z</time>
      </trkpt>
      <trkpt lat="47.24176" lon="4.93971">
        <ele>579.7</ele>
        <time>2013-04-06T06:42:14.000Z</time>
      </trkpt>
      <trkpt lat="47.24175" lon="4.93965">
        <ele>580.2</ele>
        <time>2013-04-06T06:42:17.000Z</time>
      </trkpt>
      <trkpt lat="47.24175" lon="4.93963">
        <ele>579.8</ele>
        <time>2013-04-06T06:42:18.000Z</time>
      </trkpt>
      <trkpt lat="47.24175" lon="4.93956">
        <ele>577.9</ele>
        <time>2013-04-06T06:42:20.000Z</time>
      </trkpt>
      <trkpt lat="47.24174" lon="4.93953">
        <ele>577.6</ele>
        <time>2013-04-06T06:42:21.000Z</time>
      </trkpt>
      <trkpt lat="47.24173" lon="4.93947">
        <ele>577.8</ele>
        <time>2013-04-06T06:42:23.000Z</time>
      </trkpt>
      <trkpt lat="47.24173" lon="4.93944">
        <ele>577.5</ele>
        <time>2013-04-06T06:42:24.000Z</time>
      </trkpt>
      <trkpt lat="47.24172" lon="4.93938">
        <ele>577</ele>
        <time>2013-04-06T06:42:26.000Z</time>
      </trkpt>
      <trkpt lat="47.24172" lon="4.93936">
        <ele>576.7</ele>
        <time>2013-04-06T06:42:27.000Z</time>
      </trkpt>
      <trkpt lat="47.2417" lon="4.9393">
        <ele>576.4</ele>
        <time>2013-04-06T06:42:29.000Z</time>
      </trkpt>
      <trkpt lat="47.24169" lon="4.93927">
        <ele>576.4</ele>
        <time>2013-04-06T06:42:30.000Z</time>
      </trkpt>
      <trkpt lat="47.24168" lon="4.93921">
        <ele>576.3</ele>
        <time>2013-04-06T06:42:32.000Z</time>
      </trkpt>
      <trkpt lat="47.24167" lon="4.9392">
        <ele>575.9</ele>
        <time>2013-04-06T06:42:33.000Z</time>
      </trkpt>
      <trkpt lat="47.24166" lon="4.93915">
        <ele>575.8</ele>
        <time>2013-04-06T06:42:35.000Z</time>
      </trkpt>
      <trkpt lat="47.24166" lon="4.93913">
        <ele>576.1</ele>
        <time>2013-04-06T06:42:36.000Z</time>
      </trkpt>
      <trkpt lat="47.24165" lon="4.93908">
        <ele>576.1</ele>
        <time>2013-04-06T06:42:38.000Z</time>
      </trkpt>
      <trkpt lat="47.24165" lon="4.93906">
        <ele>576.1</ele>
        <time>2013-04-06T06:42:39.000Z</time>
      </trkpt>
      <trkpt lat="47.24164" lon="4.93901">
        <ele>575.8</ele>
        <time>2013-04-06T06:42:41.000Z</time>
      </trkpt>
      <trkpt lat="47.24164" lon="4.93898">
        <ele>575.7</ele>
        <time>2013-04-06T06:42:42.000Z</time>
      </trkpt>
      <trkpt lat="47.24163" lon="4.93893">
        <ele>576</ele>
        <time>2013-04-06T06:42:44.000Z</time>
      </trkpt>
      <trkpt lat="47.24163" lon="4.93891">
        <ele>576.2</ele>
        <time>2013-04-06T06:42:45.000Z</time>
      </trkpt>
      <trkpt lat="47.24161" lon="4.93885">
        <ele>575.9</ele>
        <time>2013-04-06T06:42:47.000Z</time>
      </trkpt>
      <trkpt lat="47.24161" lon="4.93883">
        <ele>575.9</ele>
        <time>2013-04-06T06:42:48.000Z</time>
      </trkpt>
      <trkpt lat="47.2416" lon="4.93877">
        <ele>576.1</ele>
        <time>2013-04-06T06:42:50.000Z</time>
      </trkpt>
      <trkpt lat="47.2416" lon="4.93874">
        <ele>576.1</ele>
        <time>2013-04-06T06:42:51.000Z</time>
      </trkpt>
      <trkpt lat="47.24159" lon="4.93868">
        <ele>576.2</ele>
        <time>2013-04-06T06:42:53.000Z</time>
      </trkpt>
      <trkpt lat="47.24159" lon="4.93865">
        <ele>576.5</ele>
        <time>2013-04-06T06:42:54.000Z</time>
      </trkpt>
      <trkpt lat="47.24158" lon="4.9386">
        <ele>576.5</ele>
        <time>2013-04-06T06:42:56.000Z</time>
      </trkpt>
      <trkpt lat="47.24157" lon="4.93858">
        <ele>576.4</ele>
        <time>2013-04-06T06:42:57.000Z</time>
      </trkpt>
      <trkpt lat="47.24154" lon="4.93823">
        <ele>581.2</ele>
        <time>2013-04-06T06:43:06.000Z</time>
      </trkpt>
      <trkpt lat="47.24155" lon="4.93817">
        <ele>582.7</ele>
        <time>2013-04-06T06:43:09.000Z</time>
      </trkpt>
      <trkpt lat="47.24156" lon="4.93814">
        <ele>582.5</ele>
        <time>2013-04-06T06:43:10.000Z</time>
      </trkpt>
      <trkpt lat="47.24156" lon="4.93808">
        <ele>583.1</ele>
        <time>2013-04-06T06:43:13.000Z</time>
      </trkpt>
      <trkpt lat="47.24156" lon="4.93806">
        <ele>582.8</ele>
        <time>2013-04-06T06:43:14.000Z</time>
      </trkpt>
      <trkpt lat="47.24156" lon="4.93801">
        <ele>581.5</ele>
        <time>2013-04-06T06:43:16.000Z</time>
      </trkpt>
      <trkpt lat="47.24156" lon="4.93798">
        <ele>581.2</ele>
        <time>2013-04-06T06:43:17.000Z</time>
      </trkpt>
      <trkpt lat="47.24157" lon="4.93791">
        <ele>580</ele>
        <time>2013-04-06T06:43:19.000Z</time>
      </trkpt>
      <trkpt lat="47.24158" lon="4.93789">
        <ele>580.3</ele>
        <time>2013-04-06T06:43:20.000Z</time>
      </trkpt>
      <trkpt lat="47.24158" lon="4.93784">
        <ele>581.6</ele>
        <time>2013-04-06T06:43:22.000Z</time>
      </trkpt>
      <trkpt lat="47.24159" lon="4.93781">
        <ele>582</ele>
        <time>2013-04-06T06:43:23.000Z</time>
      </trkpt>
      <trkpt lat="47.24159" lon="4.93778">
        <ele>582.3</ele>
        <time>2013-04-06T06:43:24.000Z</time>
      </trkpt>
      <trkpt lat="47.2416" lon="4.93775">
        <ele>582.6</ele>
        <time>2013-04-06T06:43:25.000Z</time>
      </trkpt>
      <trkpt lat="47.24162" lon="4.93769">
        <ele>582.3</ele>
        <time>2013-04-06T06:43:27.000Z</time>
      </trkpt>
      <trkpt lat="47.24162" lon="4.93766">
        <ele>582.6</ele>
        <time>2013-04-06T06:43:28.000Z</time>
      </trkpt>
      <trkpt lat="47.24163" lon="4.93763">
        <ele>581.4</ele>
        <time>2013-04-06T06:43:29.000Z</time>
      </trkpt>
      <trkpt lat="47.24164" lon="4.9376">
        <ele>581.2</ele>
        <time>2013-04-06T06:43:30.000Z</time>
      </trkpt>
      <trkpt lat="47.24166" lon="4.93755">
        <ele>579.8</ele>
        <time>2013-04-06T06:43:32.000Z</time>
      </trkpt>
      <trkpt lat="47.24167" lon="4.93751">
        <ele>579.7</ele>
        <time>2013-04-06T06:43:33.000Z</time>
      </trkpt>
      <trkpt lat="47.24169" lon="4.93746">
        <ele>579.6</ele>
        <time>2013-04-06T06:43:35.000Z</time>
      </trkpt>
      <trkpt lat="47.24169" lon="4.93742">
        <ele>579.2</ele>
        <time>2013-04-06T06:43:36.000Z</time>
      </trkpt>
      <trkpt lat="47.24171" lon="4.93737">
        <ele>579.4</ele>
        <time>2013-04-06T06:43:39.000Z</time>
      </trkpt>
      <trkpt lat="47.24172" lon="4.93735">
        <ele>578.9</ele>
        <time>2013-04-06T06:43:40.000Z</time>
      </trkpt>
      <trkpt lat="47.24173" lon="4.93731">
        <ele>578.7</ele>
        <time>2013-04-06T06:43:42.000Z</time>
      </trkpt>
      <trkpt lat="47.24173" lon="4.93728">
        <ele>578.7</ele>
        <time>2013-04-06T06:43:43.000Z</time>
      </trkpt>
      <trkpt lat="47.24174" lon="4.93723">
        <ele>579.1</ele>
        <time>2013-04-06T06:43:45.000Z</time>
      </trkpt>
      <trkpt lat="47.24175" lon="4.9372">
        <ele>578.8</ele>
        <time>2013-04-06T06:43:46.000Z</time>
      </trkpt>
      <trkpt lat="47.24177" lon="4.93715">
        <ele>578.3</ele>
        <time>2013-04-06T06:43:48.000Z</time>
      </trkpt>
      <trkpt lat="47.24178" lon="4.93712">
        <ele>578.3</ele>
        <time>2013-04-06T06:43:49.000Z</time>
      </trkpt>
      <trkpt lat="47.24179" lon="4.93708">
        <ele>578</ele>
        <time>2013-04-06T06:43:50.000Z</time>
      </trkpt>
      <trkpt lat="47.24181" lon="4.93705">
        <ele>577.5</ele>
        <time>2013-04-06T06:43:51.000Z</time>
      </trkpt>
      <trkpt lat="47.24182" lon="4.93702">
        <ele>577.1</ele>
        <time>2013-04-06T06:43:52.000Z</time>
      </trkpt>
      <trkpt lat="47.24183" lon="4.93699">
        <ele>576.9</ele>
        <time>2013-04-06T06:43:53.000Z</time>
      </trkpt>
      <trkpt lat="47.24185" lon="4.93696">
        <ele>576.6</ele>
        <time>2013-04-06T06:43:54.000Z</time>
      </trkpt>
      <trkpt lat="47.24186" lon="4.93693">
        <ele>576.4</ele>
        <time>2013-04-06T06:43:55.000Z</time>
      </trkpt>
      <trkpt lat="47.24187" lon="4.9369">
        <ele>576</ele>
        <time>2013-04-06T06:43:56.000Z</time>
      </trkpt>
      <trkpt lat="47.24188" lon="4.93687">
        <ele>575.7</ele>
        <time>2013-04-06T06:43:57.000Z</time>
      </trkpt>
      <trkpt lat="47.24194" lon="4.93664">
        <ele>568.1</ele>
        <time>2013-04-06T06:44:06.000Z</time>
      </trkpt>
      <trkpt lat="47.24195" lon="4.93659">
        <ele>568.9</ele>
        <time>2013-04-06T06:44:08.000Z</time>
      </trkpt>
      <trkpt lat="47.24196" lon="4.93656">
        <ele>569.5</ele>
        <time>2013-04-06T06:44:09.000Z</time>
      </trkpt>
      <trkpt lat="47.24197" lon="4.93651">
        <ele>570.5</ele>
        <time>2013-04-06T06:44:12.000Z</time>
      </trkpt>
      <trkpt lat="47.24197" lon="4.93648">
        <ele>571.3</ele>
        <time>2013-04-06T06:44:13.000Z</time>
      </trkpt>
      <trkpt lat="47.24198" lon="4.93643">
        <ele>570.8</ele>
        <time>2013-04-06T06:44:15.000Z</time>
      </trkpt>
      <trkpt lat="47.24198" lon="4.93639">
        <ele>571.9</ele>
        <time>2013-04-06T06:44:16.000Z</time>
      </trkpt>
      <trkpt lat="47.24199" lon="4.93636">
        <ele>571.9</ele>
        <time>2013-04-06T06:44:17.000Z</time>
      </trkpt>
      <trkpt lat="47.242" lon="4.93633">
        <ele>572.5</ele>
        <time>2013-04-06T06:44:18.000Z</time>
      </trkpt>
      <trkpt lat="47.24202" lon="4.93627">
        <ele>572.9</ele>
        <time>2013-04-06T06:44:20.000Z</time>
      </trkpt>
      <trkpt lat="47.24203" lon="4.93625">
        <ele>573.3</ele>
        <time>2013-04-06T06:44:21.000Z</time>
      </trkpt>
      <trkpt lat="47.24204" lon="4.93622">
        <ele>574.3</ele>
        <time>2013-04-06T06:44:22.000Z</time>
      </trkpt>
      <trkpt lat="47.24205" lon="4.93619">
        <ele>575.2</ele>
        <time>2013-04-06T06:44:23.000Z</time>
      </trkpt>
      <trkpt lat="47.24206" lon="4.93613">
        <ele>575.3</ele>
        <time>2013-04-06T06:44:25.000Z</time>
      </trkpt>
      <trkpt lat="47.24206" lon="4.93611">
        <ele>576.1</ele>
        <time>2013-04-06T06:44:26.000Z</time>
      </trkpt>
      <trkpt lat="47.24208" lon="4.93606">
        <ele>575.3</ele>
        <time>2013-04-06T06:44:28.000Z</time>
      </trkpt>
      <trkpt lat="47.24209" lon="4.93604">
        <ele>574.7</ele>
        <time>2013-04-06T06:44:29.000Z</time>
      </trkpt>
      <trkpt lat="47.2421" lon="4.93597">
        <ele>574.5</ele>
        <time>2013-04-06T06:44:32.000Z</time>
      </trkpt>
      <trkpt lat="47.2421" lon="4.93595">
        <ele>574.6</ele>
        <time>2013-04-06T06:44:33.000Z</time>
      </trkpt>
      <trkpt lat="47.24211" lon="4.93592">
        <ele>574.7</ele>
        <time>2013-04-06T06:44:34.000Z</time>
      </trkpt>
      <trkpt lat="47.24211" lon="4.93588">
        <ele>574.5</ele>
        <time>2013-04-06T06:44:35.000Z</time>
      </trkpt>
      <trkpt lat="47.24212" lon="4.93585">
        <ele>574.6</ele>
        <time>2013-04-06T06:44:36.000Z</time>
      </trkpt>
      <trkpt lat="47.24213" lon="4.93582">
        <ele>574.6</ele>
        <time>2013-04-06T06:44:37.000Z</time>
      </trkpt>
      <trkpt lat="47.24213" lon="4.93575">
        <ele>574.5</ele>
        <time>2013-04-06T06:44:39.000Z</time>
      </trkpt>
      <trkpt lat="47.24214" lon="4.93572">
        <ele>574.6</ele>
        <time>2013-04-06T06:44:40.000Z</time>
      </trkpt>
      <trkpt lat="47.24214" lon="4.93566">
        <ele>574.2</ele>
        <time>2013-04-06T06:44:43.000Z</time>
      </trkpt>
      <trkpt lat="47.24215" lon="4.93564">
        <ele>574</ele>
        <time>2013-04-06T06:44:44.000Z</time>
      </trkpt>
      <trkpt lat="47.24214" lon="4.9356">
        <ele>574.4</ele>
        <time>2013-04-06T06:44:46.000Z</time>
      </trkpt>
      <trkpt lat="47.24215" lon="4.93557">
        <ele>574.4</ele>
        <time>2013-04-06T06:44:47.000Z</time>
      </trkpt>
      <trkpt lat="47.24216" lon="4.93552">
        <ele>574.1</ele>
        <time>2013-04-06T06:44:49.000Z</time>
      </trkpt>
      <trkpt lat="47.24217" lon="4.93549">
        <ele>573.8</ele>
        <time>2013-04-06T06:44:50.000Z</time>
      </trkpt>
      <trkpt lat="47.24218" lon="4.93543">
        <ele>573.2</ele>
        <time>2013-04-06T06:44:52.000Z</time>
      </trkpt>
      <trkpt lat="47.24218" lon="4.9354">
        <ele>573.2</ele>
        <time>2013-04-06T06:44:53.000Z</time>
      </trkpt>
      <trkpt lat="47.2422" lon="4.93537">
        <ele>573.7</ele>
        <time>2013-04-06T06:44:54.000Z</time>
      </trkpt>
      <trkpt lat="47.24221" lon="4.93534">
        <ele>573.8</ele>
        <time>2013-04-06T06:44:55.000Z</time>
      </trkpt>
      <trkpt lat="47.24221" lon="4.9353">
        <ele>574.4</ele>
        <time>2013-04-06T06:44:57.000Z</time>
      </trkpt>
      <trkpt lat="47.24226" lon="4.93515">
        <ele>579.9</ele>
        <time>2013-04-06T06:45:06.000Z</time>
      </trkpt>
      <trkpt lat="47.24227" lon="4.93511">
        <ele>580.2</ele>
        <time>2013-04-06T06:45:08.000Z</time>
      </trkpt>
      <trkpt lat="47.24228" lon="4.93509">
        <ele>577.8</ele>
        <time>2013-04-06T06:45:09.000Z</time>
      </trkpt>
      <trkpt lat="47.24228" lon="4.93506">
        <ele>577</ele>
        <time>2013-04-06T06:45:53.000Z</time>
      </trkpt>
      <trkpt lat="47.24231" lon="4.93504">
        <ele>571.5</ele>
        <time>2013-04-06T06:45:54.000Z</time>
      </trkpt>
      <trkpt lat="47.2423" lon="4.93505">
        <ele>571</ele>
        <time>2013-04-06T06:45:57.000Z</time>
      </trkpt>
      <trkpt lat="47.24225" lon="4.93505">
        <ele>576.2</ele>
        <time>2013-04-06T06:46:04.000Z</time>
      </trkpt>
      <trkpt lat="47.24225" lon="4.93505">
        <ele>576.2</ele>
        <time>2013-04-06T06:46:57.000Z</time>
      </trkpt>
      <trkpt lat="47.24222" lon="4.93494">
        <ele>569.6</ele>
        <time>2013-04-06T06:47:05.000Z</time>
      </trkpt>
      <trkpt lat="47.24222" lon="4.935">
        <ele>583.9</ele>
        <time>2013-04-06T06:48:57.000Z</time>
      </trkpt>
      <trkpt lat="47.24225" lon="4.935">
        <ele>563.7</ele>
        <time>2013-04-06T06:49:05.000Z</time>
      </trkpt>
      <trkpt lat="47.24229" lon="4.93498">
        <ele>573.7</ele>
        <time>2013-04-06T06:52:14.000Z</time>
      </trkpt>
      <trkpt lat="47.2423" lon="4.93497">
        <ele>573.3</ele>
        <time>2013-04-06T06:52:15.000Z</time>
      </trkpt>
      <trkpt lat="47.24234" lon="4.93495">
        <ele>576.3</ele>
        <time>2013-04-06T06:52:23.000Z</time>
      </trkpt>
      <trkpt lat="47.24234" lon="4.93495">
        <ele>577.3</ele>
        <time>2013-04-06T06:52:24.000Z</time>
      </trkpt>
      <trkpt lat="47.24232" lon="4.9349">
        <ele>575.6</ele>
        <time>2013-04-06T06:52:33.000Z</time>
      </trkpt>
      <trkpt lat="47.24232" lon="4.93488">
        <ele>575.2</ele>
        <time>2013-04-06T06:52:34.000Z</time>
      </trkpt>
      <trkpt lat="47.24233" lon="4.93483">
        <ele>575.2</ele>
        <time>2013-04-06T06:52:37.000Z</time>
      </trkpt>
      <trkpt lat="47.24232" lon="4.9348">
        <ele>574.6</ele>
        <time>2013-04-06T06:52:38.000Z</time>
      </trkpt>
      <trkpt lat="47.24233" lon="4.93476">
        <ele>573.5</ele>
        <time>2013-04-06T06:52:40.000Z</time>
      </trkpt>
      <trkpt lat="47.24234" lon="4.93474">
        <ele>573.1</ele>
        <time>2013-04-06T06:52:41.000Z</time>
      </trkpt>
      <trkpt lat="47.24235" lon="4.93469">
        <ele>573.1</ele>
        <time>2013-04-06T06:52:43.000Z</time>
      </trkpt>
      <trkpt lat="47.24236" lon="4.93467">
        <ele>573.1</ele>
        <time>2013-04-06T06:52:44.000Z</time>
      </trkpt>
      <trkpt lat="47.24237" lon="4.93463">
        <ele>572.9</ele>
        <time>2013-04-06T06:52:48.000Z</time>
      </trkpt>
      <trkpt lat="47.24237" lon="4.9346">
        <ele>572.9</ele>
        <time>2013-04-06T06:52:49.000Z</time>
      </trkpt>
      <trkpt lat="47.24238" lon="4.93454">
        <ele>572.9</ele>
        <time>2013-04-06T06:52:51.000Z</time>
      </trkpt>
      <trkpt lat="47.24238" lon="4.93451">
        <ele>572.9</ele>
        <time>2013-04-06T06:52:52.000Z</time>
      </trkpt>
      <trkpt lat="47.24239" lon="4.93447">
        <ele>573</ele>
        <time>2013-04-06T06:52:53.000Z</time>
      </trkpt>
      <trkpt lat="47.24239" lon="4.93444">
        <ele>573.2</ele>
        <time>2013-04-06T06:52:54.000Z</time>
      </trkpt>
      <trkpt lat="47.24239" lon="4.9344">
        <ele>573.3</ele>
        <time>2013-04-06T06:52:55.000Z</time>
      </trkpt>
      <trkpt lat="47.2424" lon="4.93437">
        <ele>573.3</ele>
        <time>2013-04-06T06:52:56.000Z</time>
      </trkpt>
      <trkpt lat="47.24241" lon="4.93434">
        <ele>573.5</ele>
        <time>2013-04-06T06:52:57.000Z</time>
      </trkpt>
      <trkpt lat="47.24244" lon="4.93396">
        <ele>582.4</ele>
        <time>2013-04-06T06:53:06.000Z</time>
      </trkpt>
      <trkpt lat="47.24244" lon="4.93392">
        <ele>581.4</ele>
        <time>2013-04-06T06:53:08.000Z</time>
      </trkpt>
      <trkpt lat="47.24245" lon="4.9339">
        <ele>580.5</ele>
        <time>2013-04-06T06:53:09.000Z</time>
      </trkpt>
      <trkpt lat="47.24246" lon="4.93385">
        <ele>580.2</ele>
        <time>2013-04-06T06:53:11.000Z</time>
      </trkpt>
      <trkpt lat="47.24245" lon="4.93382">
        <ele>579.9</ele>
        <time>2013-04-06T06:53:12.000Z</time>
      </trkpt>
      <trkpt lat="47.24245" lon="4.93376">
        <ele>581.2</ele>
        <time>2013-04-06T06:53:15.000Z</time>
      </trkpt>
      <trkpt lat="47.24245" lon="4.93374">
        <ele>582.3</ele>
        <time>2013-04-06T06:53:16.000Z</time>
      </trkpt>
      <trkpt lat="47.24246" lon="4.9337">
        <ele>582.5</ele>
        <time>2013-04-06T06:53:18.000Z</time>
      </trkpt>
      <trkpt lat="47.24247" lon="4.93367">
        <ele>583.4</ele>
        <time>2013-04-06T06:53:19.000Z</time>
      </trkpt>
      <trkpt lat="47.24247" lon="4.93361">
        <ele>582.9</ele>
        <time>2013-04-06T06:53:22.000Z</time>
      </trkpt>
      <trkpt lat="47.24247" lon="4.93358">
        <ele>582.6</ele>
        <time>2013-04-06T06:53:23.000Z</time>
      </trkpt>
      <trkpt lat="47.24248" lon="4.93351">
        <ele>581.6</ele>
        <time>2013-04-06T06:53:25.000Z</time>
      </trkpt>
      <trkpt lat="47.24248" lon="4.93349">
        <ele>581.9</ele>
        <time>2013-04-06T06:53:26.000Z</time>
      </trkpt>
      <trkpt lat="47.2425" lon="4.93344">
        <ele>583.3</ele>
        <time>2013-04-06T06:53:28.000Z</time>
      </trkpt>
      <trkpt lat="47.2425" lon="4.93341">
        <ele>583.1</ele>
        <time>2013-04-06T06:53:29.000Z</time>
      </trkpt>
      <trkpt lat="47.24251" lon="4.93335">
        <ele>581.5</ele>
        <time>2013-04-06T06:53:31.000Z</time>
      </trkpt>
      <trkpt lat="47.24252" lon="4.93333">
        <ele>581.3</ele>
        <time>2013-04-06T06:53:32.000Z</time>
      </trkpt>
      <trkpt lat="47.24253" lon="4.93327">
        <ele>580.7</ele>
        <time>2013-04-06T06:53:34.000Z</time>
      </trkpt>
      <trkpt lat="47.24253" lon="4.93324">
        <ele>580.2</ele>
        <time>2013-04-06T06:53:35.000Z</time>
      </trkpt>
      <trkpt lat="47.24253" lon="4.93319">
        <ele>579.3</ele>
        <time>2013-04-06T06:53:37.000Z</time>
      </trkpt>
      <trkpt lat="47.24253" lon="4.93316">
        <ele>579.2</ele>
        <time>2013-04-06T06:53:38.000Z</time>
      </trkpt>
      <trkpt lat="47.24253" lon="4.93311">
        <ele>579.1</ele>
        <time>2013-04-06T06:53:40.000Z</time>
      </trkpt>
      <trkpt lat="47.24254" lon="4.93309">
        <ele>579.1</ele>
        <time>2013-04-06T06:53:41.000Z</time>
      </trkpt>
      <trkpt lat="47.24254" lon="4.93305">
        <ele>579.2</ele>
        <time>2013-04-06T06:53:42.000Z</time>
      </trkpt>
      <trkpt lat="47.24254" lon="4.93302">
        <ele>579.1</ele>
        <time>2013-04-06T06:53:43.000Z</time>
      </trkpt>
      <trkpt lat="47.24256" lon="4.93296">
        <ele>578.5</ele>
        <time>2013-04-06T06:53:45.000Z</time>
      </trkpt>
      <trkpt lat="47.24256" lon="4.93292">
        <ele>578.3</ele>
        <time>2013-04-06T06:53:46.000Z</time>
      </trkpt>
      <trkpt lat="47.24257" lon="4.93286">
        <ele>577.7</ele>
        <time>2013-04-06T06:53:48.000Z</time>
      </trkpt>
      <trkpt lat="47.24257" lon="4.93283">
        <ele>577.4</ele>
        <time>2013-04-06T06:53:49.000Z</time>
      </trkpt>
      <trkpt lat="47.24258" lon="4.93276">
        <ele>577.3</ele>
        <time>2013-04-06T06:53:51.000Z</time>
      </trkpt>
      <trkpt lat="47.24258" lon="4.93274">
        <ele>577.2</ele>
        <time>2013-04-06T06:53:52.000Z</time>
      </trkpt>
      <trkpt lat="47.24259" lon="4.93269">
        <ele>577</ele>
        <time>2013-04-06T06:53:54.000Z</time>
      </trkpt>
      <trkpt lat="47.2426" lon="4.93266">
        <ele>576.9</ele>
        <time>2013-04-06T06:53:55.000Z</time>
      </trkpt>
      <trkpt lat="47.24262" lon="4.93261">
        <ele>577</ele>
        <time>2013-04-06T06:53:57.000Z</time>
      </trkpt>
      <trkpt lat="47.24268" lon="4.93229">
        <ele>580.9</ele>
        <time>2013-04-06T06:54:05.000Z</time>
      </trkpt>
      <trkpt lat="47.24268" lon="4.93224">
        <ele>581.3</ele>
        <time>2013-04-06T06:54:08.000Z</time>
      </trkpt>
      <trkpt lat="47.24269" lon="4.93221">
        <ele>580.3</ele>
        <time>2013-04-06T06:54:09.000Z</time>
      </trkpt>
      <trkpt lat="47.2427" lon="4.93216">
        <ele>581.2</ele>
        <time>2013-04-06T06:54:11.000Z</time>
      </trkpt>
      <trkpt lat="47.24271" lon="4.93213">
        <ele>582.6</ele>
        <time>2013-04-06T06:54:12.000Z</time>
      </trkpt>
      <trkpt lat="47.24271" lon="4.93208">
        <ele>581.3</ele>
        <time>2013-04-06T06:54:14.000Z</time>
      </trkpt>
      <trkpt lat="47.24272" lon="4.93205">
        <ele>580.4</ele>
        <time>2013-04-06T06:54:15.000Z</time>
      </trkpt>
      <trkpt lat="47.24273" lon="4.93199">
        <ele>579.2</ele>
        <time>2013-04-06T06:54:17.000Z</time>
      </trkpt>
      <trkpt lat="47.24274" lon="4.93197">
        <ele>579.4</ele>
        <time>2013-04-06T06:54:18.000Z</time>
      </trkpt>
      <trkpt lat="47.24275" lon="4.93192">
        <ele>580.4</ele>
        <time>2013-04-06T06:54:20.000Z</time>
      </trkpt>
      <trkpt lat="47.24275" lon="4.9319">
        <ele>580.2</ele>
        <time>2013-04-06T06:54:21.000Z</time>
      </trkpt>
      <trkpt lat="47.24275" lon="4.93186">
        <ele>580</ele>
        <time>2013-04-06T06:54:23.000Z</time>
      </trkpt>
      <trkpt lat="47.24275" lon="4.93183">
        <ele>580</ele>
        <time>2013-04-06T06:54:24.000Z</time>
      </trkpt>
      <trkpt lat="47.24276" lon="4.93177">
        <ele>579.3</ele>
        <time>2013-04-06T06:54:27.000Z</time>
      </trkpt>
      <trkpt lat="47.24276" lon="4.93174">
        <ele>579.4</ele>
        <time>2013-04-06T06:54:28.000Z</time>
      </trkpt>
      <trkpt lat="47.24276" lon="4.93169">
        <ele>578.2</ele>
        <time>2013-04-06T06:54:30.000Z</time>
      </trkpt>
      <trkpt lat="47.24276" lon="4.93167">
        <ele>578.4</ele>
        <time>2013-04-06T06:54:31.000Z</time>
      </trkpt>
      <trkpt lat="47.24276" lon="4.93162">
        <ele>578.3</ele>
        <time>2013-04-06T06:54:33.000Z</time>
      </trkpt>
      <trkpt lat="47.24277" lon="4.9316">
        <ele>578.4</ele>
        <time>2013-04-06T06:54:34.000Z</time>
      </trkpt>
      <trkpt lat="47.24278" lon="4.93154">
        <ele>579.1</ele>
        <time>2013-04-06T06:54:36.000Z</time>
      </trkpt>
      <trkpt lat="47.24279" lon="4.93152">
        <ele>579</ele>
        <time>2013-04-06T06:54:37.000Z</time>
      </trkpt>
      <trkpt lat="47.24279" lon="4.93147">
        <ele>579</ele>
        <time>2013-04-06T06:54:39.000Z</time>
      </trkpt>
      <trkpt lat="47.2428" lon="4.93145">
        <ele>578.9</ele>
        <time>2013-04-06T06:54:40.000Z</time>
      </trkpt>
      <trkpt lat="47.2428" lon="4.9314">
        <ele>578.8</ele>
        <time>2013-04-06T06:54:42.000Z</time>
      </trkpt>
      <trkpt lat="47.2428" lon="4.93138">
        <ele>578.8</ele>
        <time>2013-04-06T06:54:43.000Z</time>
      </trkpt>
      <trkpt lat="47.24281" lon="4.93132">
        <ele>579.2</ele>
        <time>2013-04-06T06:54:45.000Z</time>
      </trkpt>
      <trkpt lat="47.24282" lon="4.93129">
        <ele>578.9</ele>
        <time>2013-04-06T06:54:46.000Z</time>
      </trkpt>
      <trkpt lat="47.24282" lon="4.93126">
        <ele>578.9</ele>
        <time>2013-04-06T06:54:47.000Z</time>
      </trkpt>
      <trkpt lat="47.24283" lon="4.93122">
        <ele>578.7</ele>
        <time>2013-04-06T06:54:48.000Z</time>
      </trkpt>
      <trkpt lat="47.24284" lon="4.93119">
        <ele>578.7</ele>
        <time>2013-04-06T06:54:49.000Z</time>
      </trkpt>
      <trkpt lat="47.24284" lon="4.93115">
        <ele>578.7</ele>
        <time>2013-04-06T06:54:50.000Z</time>
      </trkpt>
      <trkpt lat="47.24284" lon="4.93109">
        <ele>578.6</ele>
        <time>2013-04-06T06:54:52.000Z</time>
      </trkpt>
      <trkpt lat="47.24284" lon="4.93105">
        <ele>578.7</ele>
        <time>2013-04-06T06:54:53.000Z</time>
      </trkpt>
      <trkpt lat="47.24286" lon="4.931">
        <ele>578.6</ele>
        <time>2013-04-06T06:54:55.000Z</time>
      </trkpt>
      <trkpt lat="47.24286" lon="4.93096">
        <ele>578.8</ele>
        <time>2013-04-06T06:54:56.000Z</time>
      </trkpt>
      <trkpt lat="47.24287" lon="4.93093">
        <ele>579.3</ele>
        <time>2013-04-06T06:54:57.000Z</time>
      </trkpt>
      <trkpt lat="47.24288" lon="4.9309">
        <ele>579.4</ele>
        <time>2013-04-06T06:54:58.000Z</time>
      </trkpt>
      <trkpt lat="47.24294" lon="4.93061">
        <ele>581</ele>
        <time>2013-04-06T06:55:06.000Z</time>
      </trkpt>
      <trkpt lat="47.24294" lon="4.93055">
        <ele>583.5</ele>
        <time>2013-04-06T06:55:08.000Z</time>
      </trkpt>
      <trkpt lat="47.24295" lon="4.93052">
        <ele>584.1</ele>
        <time>2013-04-06T06:55:09.000Z</time>
      </trkpt>
      <trkpt lat="47.24294" lon="4.93047">
        <ele>585.2</ele>
        <time>2013-04-06T06:55:11.000Z</time>
      </trkpt>
      <trkpt lat="47.24295" lon="4.93044">
        <ele>585.2</ele>
        <time>2013-04-06T06:55:12.000Z</time>
      </trkpt>
      <trkpt lat="47.24295" lon="4.93039">
        <ele>583.6</ele>
        <time>2013-04-06T06:55:14.000Z</time>
      </trkpt>
      <trkpt lat="47.24296" lon="4.93037">
        <ele>582.8</ele>
        <time>2013-04-06T06:55:15.000Z</time>
      </trkpt>
      <trkpt lat="47.24296" lon="4.93032">
        <ele>582.9</ele>
        <time>2013-04-06T06:55:17.000Z</time>
      </trkpt>
      <trkpt lat="47.24296" lon="4.93029">
        <ele>583.2</ele>
        <time>2013-04-06T06:55:18.000Z</time>
      </trkpt>
      <trkpt lat="47.24296" lon="4.93023">
        <ele>583.4</ele>
        <time>2013-04-06T06:55:20.000Z</time>
      </trkpt>
      <trkpt lat="47.24296" lon="4.9302">
        <ele>583.6</ele>
        <time>2013-04-06T06:55:21.000Z</time>
      </trkpt>
      <trkpt lat="47.24297" lon="4.93015">
        <ele>584.4</ele>
        <time>2013-04-06T06:55:23.000Z</time>
      </trkpt>
      <trkpt lat="47.24297" lon="4.93012">
        <ele>584.4</ele>
        <time>2013-04-06T06:55:24.000Z</time>
      </trkpt>
      <trkpt lat="47.24296" lon="4.93006">
        <ele>585.5</ele>
        <time>2013-04-06T06:55:27.000Z</time>
      </trkpt>
      <trkpt lat="47.24296" lon="4.93003">
        <ele>585.8</ele>
        <time>2013-04-06T06:55:28.000Z</time>
      </trkpt>
      <trkpt lat="47.24296" lon="4.92999">
        <ele>584.9</ele>
        <time>2013-04-06T06:55:30.000Z</time>
      </trkpt>
      <trkpt lat="47.24296" lon="4.92996">
        <ele>584.1</ele>
        <time>2013-04-06T06:55:31.000Z</time>
      </trkpt>
      <trkpt lat="47.24296" lon="4.92989">
        <ele>584</ele>
        <time>2013-04-06T06:55:33.000Z</time>
      </trkpt>
      <trkpt lat="47.24296" lon="4.92987">
        <ele>584.1</ele>
        <time>2013-04-06T06:55:34.000Z</time>
      </trkpt>
      <trkpt lat="47.24297" lon="4.92982">
        <ele>584.1</ele>
        <time>2013-04-06T06:55:36.000Z</time>
      </trkpt>
      <trkpt lat="47.24297" lon="4.92981">
        <ele>583.7</ele>
        <time>2013-04-06T06:55:37.000Z</time>
      </trkpt>
      <trkpt lat="47.24299" lon="4.92977">
        <ele>583.6</ele>
        <time>2013-04-06T06:55:39.000Z</time>
      </trkpt>
      <trkpt lat="47.243" lon="4.92975">
        <ele>584</ele>
        <time>2013-04-06T06:55:40.000Z</time>
      </trkpt>
      <trkpt lat="47.243" lon="4.92969">
        <ele>585.1</ele>
        <time>2013-04-06T06:55:44.000Z</time>
      </trkpt>
      <trkpt lat="47.24301" lon="4.92967">
        <ele>584.2</ele>
        <time>2013-04-06T06:55:45.000Z</time>
      </trkpt>
      <trkpt lat="47.24303" lon="4.92963">
        <ele>580.1</ele>
        <time>2013-04-06T06:55:57.000Z</time>
      </trkpt>
      <trkpt lat="47.24308" lon="4.92944">
        <ele>586.6</ele>
        <time>2013-04-06T06:56:06.000Z</time>
      </trkpt>
      <trkpt lat="47.2431" lon="4.9294">
        <ele>585.2</ele>
        <time>2013-04-06T06:56:09.000Z</time>
      </trkpt>
      <trkpt lat="47.24311" lon="4.92939">
        <ele>584.7</ele>
        <time>2013-04-06T06:56:10.000Z</time>
      </trkpt>
      <trkpt lat="47.24315" lon="4.92935">
        <ele>583.6</ele>
        <time>2013-04-06T06:56:13.000Z</time>
      </trkpt>
      <trkpt lat="47.24316" lon="4.92935">
        <ele>583</ele>
        <time>2013-04-06T06:56:14.000Z</time>
      </trkpt>
      <trkpt lat="47.24319" lon="4.92931">
        <ele>583.7</ele>
        <time>2013-04-06T06:56:17.000Z</time>
      </trkpt>
      <trkpt lat="47.2432" lon="4.9293">
        <ele>583.5</ele>
        <time>2013-04-06T06:56:18.000Z</time>
      </trkpt>
      <trkpt lat="47.24323" lon="4.92927">
        <ele>584.2</ele>
        <time>2013-04-06T06:56:22.000Z</time>
      </trkpt>
      <trkpt lat="47.24324" lon="4.92926">
        <ele>584.6</ele>
        <time>2013-04-06T06:56:23.000Z</time>
      </trkpt>
      <trkpt lat="47.24327" lon="4.92921">
        <ele>584.6</ele>
        <time>2013-04-06T06:56:26.000Z</time>
      </trkpt>
      <trkpt lat="47.24329" lon="4.9292">
        <ele>584.5</ele>
        <time>2013-04-06T06:56:27.000Z</time>
      </trkpt>
      <trkpt lat="47.24332" lon="4.92917">
        <ele>585.3</ele>
        <time>2013-04-06T06:56:29.000Z</time>
      </trkpt>
      <trkpt lat="47.24333" lon="4.92916">
        <ele>584.7</ele>
        <time>2013-04-06T06:56:30.000Z</time>
      </trkpt>
      <trkpt lat="47.24336" lon="4.92913">
        <ele>583.7</ele>
        <time>2013-04-06T06:56:33.000Z</time>
      </trkpt>
      <trkpt lat="47.24337" lon="4.92913">
        <ele>583.7</ele>
        <time>2013-04-06T06:56:34.000Z</time>
      </trkpt>
      <trkpt lat="47.2434" lon="4.92908">
        <ele>584</ele>
        <time>2013-04-06T06:56:37.000Z</time>
      </trkpt>
      <trkpt lat="47.2434" lon="4.92907">
        <ele>583.8</ele>
        <time>2013-04-06T06:56:38.000Z</time>
      </trkpt>
      <trkpt lat="47.24343" lon="4.92902">
        <ele>583.5</ele>
        <time>2013-04-06T06:56:42.000Z</time>
      </trkpt>
      <trkpt lat="47.24344" lon="4.929">
        <ele>583.2</ele>
        <time>2013-04-06T06:56:43.000Z</time>
      </trkpt>
      <trkpt lat="47.24345" lon="4.92897">
        <ele>583.5</ele>
        <time>2013-04-06T06:56:45.000Z</time>
      </trkpt>
      <trkpt lat="47.24346" lon="4.92894">
        <ele>583.4</ele>
        <time>2013-04-06T06:56:46.000Z</time>
      </trkpt>
      <trkpt lat="47.24348" lon="4.92891">
        <ele>582.9</ele>
        <time>2013-04-06T06:56:48.000Z</time>
      </trkpt>
      <trkpt lat="47.24349" lon="4.92888">
        <ele>582.8</ele>
        <time>2013-04-06T06:56:49.000Z</time>
      </trkpt>
      <trkpt lat="47.24351" lon="4.92883">
        <ele>583.7</ele>
        <time>2013-04-06T06:56:52.000Z</time>
      </trkpt>
      <trkpt lat="47.24351" lon="4.92881">
        <ele>583.6</ele>
        <time>2013-04-06T06:56:53.000Z</time>
      </trkpt>
      <trkpt lat="47.24352" lon="4.92875">
        <ele>583.6</ele>
        <time>2013-04-06T06:56:55.000Z</time>
      </trkpt>
      <trkpt lat="47.24352" lon="4.92874">
        <ele>583.9</ele>
        <time>2013-04-06T06:56:56.000Z</time>
      </trkpt>
      <trkpt lat="47.24353" lon="4.92871">
        <ele>583.8</ele>
        <time>2013-04-06T06:56:57.000Z</time>
      </trkpt>
      <trkpt lat="47.24364" lon="4.92836">
        <ele>587.5</ele>
        <time>2013-04-06T06:57:08.000Z</time>
      </trkpt>
      <trkpt lat="47.24366" lon="4.9283">
        <ele>588.5</ele>
        <time>2013-04-06T06:57:11.000Z</time>
      </trkpt>
      <trkpt lat="47.24367" lon="4.92828">
        <ele>588.9</ele>
        <time>2013-04-06T06:57:12.000Z</time>
      </trkpt>
      <trkpt lat="47.24368" lon="4.92822">
        <ele>588.3</ele>
        <time>2013-04-06T06:57:15.000Z</time>
      </trkpt>
      <trkpt lat="47.24368" lon="4.9282">
        <ele>587.6</ele>
        <time>2013-04-06T06:57:16.000Z</time>
      </trkpt>
      <trkpt lat="47.2437" lon="4.92814">
        <ele>586</ele>
        <time>2013-04-06T06:57:19.000Z</time>
      </trkpt>
      <trkpt lat="47.24371" lon="4.92812">
        <ele>586.2</ele>
        <time>2013-04-06T06:57:20.000Z</time>
      </trkpt>
      <trkpt lat="47.24372" lon="4.92807">
        <ele>584.7</ele>
        <time>2013-04-06T06:57:22.000Z</time>
      </trkpt>
      <trkpt lat="47.24373" lon="4.92805">
        <ele>585.6</ele>
        <time>2013-04-06T06:57:23.000Z</time>
      </trkpt>
      <trkpt lat="47.24374" lon="4.928">
        <ele>584.4</ele>
        <time>2013-04-06T06:57:26.000Z</time>
      </trkpt>
      <trkpt lat="47.24374" lon="4.92796">
        <ele>584.2</ele>
        <time>2013-04-06T06:57:27.000Z</time>
      </trkpt>
      <trkpt lat="47.24375" lon="4.92791">
        <ele>584.5</ele>
        <time>2013-04-06T06:57:29.000Z</time>
      </trkpt>
      <trkpt lat="47.24375" lon="4.92788">
        <ele>584.1</ele>
        <time>2013-04-06T06:57:30.000Z</time>
      </trkpt>
      <trkpt lat="47.24376" lon="4.92782">
        <ele>584.4</ele>
        <time>2013-04-06T06:57:33.000Z</time>
      </trkpt>
      <trkpt lat="47.24376" lon="4.9278">
        <ele>584.7</ele>
        <time>2013-04-06T06:57:34.000Z</time>
      </trkpt>
      <trkpt lat="47.24376" lon="4.92774">
        <ele>584.3</ele>
        <time>2013-04-06T06:57:37.000Z</time>
      </trkpt>
      <trkpt lat="47.24377" lon="4.92771">
        <ele>584.4</ele>
        <time>2013-04-06T06:57:38.000Z</time>
      </trkpt>
      <trkpt lat="47.24379" lon="4.92767">
        <ele>585.1</ele>
        <time>2013-04-06T06:57:40.000Z</time>
      </trkpt>
      <trkpt lat="47.24379" lon="4.92765">
        <ele>585.1</ele>
        <time>2013-04-06T06:57:41.000Z</time>
      </trkpt>
      <trkpt lat="47.24379" lon="4.92761">
        <ele>585.7</ele>
        <time>2013-04-06T06:57:43.000Z</time>
      </trkpt>
      <trkpt lat="47.24379" lon="4.92758">
        <ele>586</ele>
        <time>2013-04-06T06:57:44.000Z</time>
      </trkpt>
      <trkpt lat="47.2438" lon="4.92752">
        <ele>586.5</ele>
        <time>2013-04-06T06:57:46.000Z</time>
      </trkpt>
      <trkpt lat="47.24381" lon="4.92749">
        <ele>587</ele>
        <time>2013-04-06T06:57:47.000Z</time>
      </trkpt>
      <trkpt lat="47.24382" lon="4.92744">
        <ele>587.5</ele>
        <time>2013-04-06T06:57:49.000Z</time>
      </trkpt>
      <trkpt lat="47.24383" lon="4.92741">
        <ele>587.5</ele>
        <time>2013-04-06T06:57:50.000Z</time>
      </trkpt>
      <trkpt lat="47.24383" lon="4.92736">
        <ele>587.9</ele>
        <time>2013-04-06T06:57:53.000Z</time>
      </trkpt>
      <trkpt lat="47.24384" lon="4.92734">
        <ele>588.1</ele>
        <time>2013-04-06T06:57:54.000Z</time>
      </trkpt>
      <trkpt lat="47.24385" lon="4.92729">
        <ele>588.7</ele>
        <time>2013-04-06T06:57:56.000Z</time>
      </trkpt>
      <trkpt lat="47.24386" lon="4.92727">
        <ele>589.1</ele>
        <time>2013-04-06T06:57:57.000Z</time>
      </trkpt>
      <trkpt lat="47.24386" lon="4.92724">
        <ele>589.5</ele>
        <time>2013-04-06T06:57:58.000Z</time>
      </trkpt>
      <trkpt lat="47.24397" lon="4.92697">
        <ele>584.7</ele>
        <time>2013-04-06T06:58:06.000Z</time>
      </trkpt>
      <trkpt lat="47.24398" lon="4.92691">
        <ele>585.6</ele>
        <time>2013-04-06T06:58:09.000Z</time>
      </trkpt>
      <trkpt lat="47.24398" lon="4.92688">
        <ele>585.7</ele>
        <time>2013-04-06T06:58:10.000Z</time>
      </trkpt>
      <trkpt lat="47.24398" lon="4.92682">
        <ele>587.1</ele>
        <time>2013-04-06T06:58:13.000Z</time>
      </trkpt>
      <trkpt lat="47.24398" lon="4.9268">
        <ele>587.3</ele>
        <time>2013-04-06T06:58:14.000Z</time>
      </trkpt>
      <trkpt lat="47.24399" lon="4.92674">
        <ele>589.2</ele>
        <time>2013-04-06T06:58:18.000Z</time>
      </trkpt>
      <trkpt lat="47.244" lon="4.92672">
        <ele>589.3</ele>
        <time>2013-04-06T06:58:19.000Z</time>
      </trkpt>
      <trkpt lat="47.24402" lon="4.92667">
        <ele>589</ele>
        <time>2013-04-06T06:58:22.000Z</time>
      </trkpt>
      <trkpt lat="47.24402" lon="4.92665">
        <ele>589.7</ele>
        <time>2013-04-06T06:58:23.000Z</time>
      </trkpt>
      <trkpt lat="47.24403" lon="4.92661">
        <ele>591.6</ele>
        <time>2013-04-06T06:58:25.000Z</time>
      </trkpt>
      <trkpt lat="47.24403" lon="4.92658">
        <ele>592</ele>
        <time>2013-04-06T06:58:26.000Z</time>
      </trkpt>
      <trkpt lat="47.24405" lon="4.92652">
        <ele>591</ele>
        <time>2013-04-06T06:58:29.000Z</time>
      </trkpt>
      <trkpt lat="47.24405" lon="4.9265">
        <ele>591</ele>
        <time>2013-04-06T06:58:30.000Z</time>
      </trkpt>
      <trkpt lat="47.24406" lon="4.92645">
        <ele>590.8</ele>
        <time>2013-04-06T06:58:32.000Z</time>
      </trkpt>
      <trkpt lat="47.24406" lon="4.92641">
        <ele>590.6</ele>
        <time>2013-04-06T06:58:33.000Z</time>
      </trkpt>
      <trkpt lat="47.24409" lon="4.92637">
        <ele>587.8</ele>
        <time>2013-04-06T06:58:36.000Z</time>
      </trkpt>
      <trkpt lat="47.2441" lon="4.92635">
        <ele>587.8</ele>
        <time>2013-04-06T06:58:37.000Z</time>
      </trkpt>
      <trkpt lat="47.2441" lon="4.92629">
        <ele>587.8</ele>
        <time>2013-04-06T06:58:39.000Z</time>
      </trkpt>
      <trkpt lat="47.24411" lon="4.92625">
        <ele>587.7</ele>
        <time>2013-04-06T06:58:40.000Z</time>
      </trkpt>
      <trkpt lat="47.24411" lon="4.92621">
        <ele>587.4</ele>
        <time>2013-04-06T06:58:41.000Z</time>
      </trkpt>
      <trkpt lat="47.24412" lon="4.92616">
        <ele>587.7</ele>
        <time>2013-04-06T06:58:42.000Z</time>
      </trkpt>
      <trkpt lat="47.24413" lon="4.92612">
        <ele>588.1</ele>
        <time>2013-04-06T06:58:43.000Z</time>
      </trkpt>
      <trkpt lat="47.24414" lon="4.92608">
        <ele>588</ele>
        <time>2013-04-06T06:58:44.000Z</time>
      </trkpt>
      <trkpt lat="47.24415" lon="4.92602">
        <ele>588</ele>
        <time>2013-04-06T06:58:46.000Z</time>
      </trkpt>
      <trkpt lat="47.24416" lon="4.92599">
        <ele>587.6</ele>
        <time>2013-04-06T06:58:47.000Z</time>
      </trkpt>
      <trkpt lat="47.24417" lon="4.92594">
        <ele>587.6</ele>
        <time>2013-04-06T06:58:49.000Z</time>
      </trkpt>
      <trkpt lat="47.24418" lon="4.92591">
        <ele>587.5</ele>
        <time>2013-04-06T06:58:50.000Z</time>
      </trkpt>
      <trkpt lat="47.2442" lon="4.92586">
        <ele>587.1</ele>
        <time>2013-04-06T06:58:52.000Z</time>
      </trkpt>
      <trkpt lat="47.24421" lon="4.92583">
        <ele>587</ele>
        <time>2013-04-06T06:58:53.000Z</time>
      </trkpt>
      <trkpt lat="47.24422" lon="4.92579">
        <ele>586.4</ele>
        <time>2013-04-06T06:58:55.000Z</time>
      </trkpt>
      <trkpt lat="47.24423" lon="4.92577">
        <ele>586.3</ele>
        <time>2013-04-06T06:58:56.000Z</time>
      </trkpt>
      <trkpt lat="47.24423" lon="4.92575">
        <ele>586.2</ele>
        <time>2013-04-06T06:58:57.000Z</time>
      </trkpt>
      <trkpt lat="47.24428" lon="4.92543">
        <ele>591.9</ele>
        <time>2013-04-06T06:59:08.000Z</time>
      </trkpt>
      <trkpt lat="47.24428" lon="4.92537">
        <ele>594.5</ele>
        <time>2013-04-06T06:59:11.000Z</time>
      </trkpt>
      <trkpt lat="47.24428" lon="4.92535">
        <ele>595.2</ele>
        <time>2013-04-06T06:59:12.000Z</time>
      </trkpt>
      <trkpt lat="47.24427" lon="4.92529">
        <ele>596.7</ele>
        <time>2013-04-06T06:59:15.000Z</time>
      </trkpt>
      <trkpt lat="47.24427" lon="4.92527">
        <ele>597.9</ele>
        <time>2013-04-06T06:59:16.000Z</time>
      </trkpt>
      <trkpt lat="47.24428" lon="4.92521">
        <ele>599.1</ele>
        <time>2013-04-06T06:59:19.000Z</time>
      </trkpt>
      <trkpt lat="47.24428" lon="4.92519">
        <ele>600</ele>
        <time>2013-04-06T06:59:20.000Z</time>
      </trkpt>
      <trkpt lat="47.24429" lon="4.92514">
        <ele>600.2</ele>
        <time>2013-04-06T06:59:22.000Z</time>
      </trkpt>
      <trkpt lat="47.24429" lon="4.92511">
        <ele>600</ele>
        <time>2013-04-06T06:59:23.000Z</time>
      </trkpt>
      <trkpt lat="47.2443" lon="4.92507">
        <ele>600.6</ele>
        <time>2013-04-06T06:59:25.000Z</time>
      </trkpt>
      <trkpt lat="47.24431" lon="4.92505">
        <ele>600.2</ele>
        <time>2013-04-06T06:59:26.000Z</time>
      </trkpt>
      <trkpt lat="47.24433" lon="4.92501">
        <ele>597.6</ele>
        <time>2013-04-06T06:59:28.000Z</time>
      </trkpt>
      <trkpt lat="47.24434" lon="4.92499">
        <ele>596.4</ele>
        <time>2013-04-06T06:59:29.000Z</time>
      </trkpt>
      <trkpt lat="47.24435" lon="4.92495">
        <ele>596</ele>
        <time>2013-04-06T06:59:31.000Z</time>
      </trkpt>
      <trkpt lat="47.24435" lon="4.92492">
        <ele>596</ele>
        <time>2013-04-06T06:59:32.000Z</time>
      </trkpt>
      <trkpt lat="47.24435" lon="4.92486">
        <ele>595.9</ele>
        <time>2013-04-06T06:59:35.000Z</time>
      </trkpt>
      <trkpt lat="47.24435" lon="4.92485">
        <ele>595.8</ele>
        <time>2013-04-06T06:59:36.000Z</time>
      </trkpt>
      <trkpt lat="47.24435" lon="4.92479">
        <ele>595.5</ele>
        <time>2013-04-06T06:59:39.000Z</time>
      </trkpt>
      <trkpt lat="47.24435" lon="4.92477">
        <ele>595.2</ele>
        <time>2013-04-06T06:59:40.000Z</time>
      </trkpt>
      <trkpt lat="47.24436" lon="4.92471">
        <ele>594.8</ele>
        <time>2013-04-06T06:59:43.000Z</time>
      </trkpt>
      <trkpt lat="47.24437" lon="4.92469">
        <ele>594.3</ele>
        <time>2013-04-06T06:59:44.000Z</time>
      </trkpt>
      <trkpt lat="47.24439" lon="4.92463">
        <ele>593.3</ele>
        <time>2013-04-06T06:59:46.000Z</time>
      </trkpt>
      <trkpt lat="47.24441" lon="4.92463">
        <ele>593.1</ele>
        <time>2013-04-06T06:59:47.000Z</time>
      </trkpt>
      <trkpt lat="47.24445" lon="4.92462">
        <ele>592.5</ele>
        <time>2013-04-06T06:59:51.000Z</time>
      </trkpt>
      <trkpt lat="47.24446" lon="4.92462">
        <ele>592.4</ele>
        <time>2013-04-06T06:59:52.000Z</time>
      </trkpt>
      <trkpt lat="47.2445" lon="4.9246">
        <ele>591.8</ele>
        <time>2013-04-06T06:59:55.000Z</time>
      </trkpt>
      <trkpt lat="47.24451" lon="4.9246">
        <ele>591.7</ele>
        <time>2013-04-06T06:59:56.000Z</time>
      </trkpt>
      <trkpt lat="47.24453" lon="4.92461">
        <ele>591.6</ele>
        <time>2013-04-06T06:59:57.000Z</time>
      </trkpt>
      <trkpt lat="47.24469" lon="4.92463">
        <ele>588.6</ele>
        <time>2013-04-06T07:00:06.000Z</time>
      </trkpt>
      <trkpt lat="47.24473" lon="4.92463">
        <ele>591.2</ele>
        <time>2013-04-06T07:00:09.000Z</time>
      </trkpt>
      <trkpt lat="47.24475" lon="4.92463">
        <ele>591.8</ele>
        <time>2013-04-06T07:00:10.000Z</time>
      </trkpt>
      <trkpt lat="47.24479" lon="4.92462">
        <ele>592.6</ele>
        <time>2013-04-06T07:00:12.000Z</time>
      </trkpt>
      <trkpt lat="47.24481" lon="4.92463">
        <ele>592.8</ele>
        <time>2013-04-06T07:00:13.000Z</time>
      </trkpt>
      <trkpt lat="47.24485" lon="4.92463">
        <ele>594.8</ele>
        <time>2013-04-06T07:00:15.000Z</time>
      </trkpt>
      <trkpt lat="47.24486" lon="4.92463">
        <ele>595.5</ele>
        <time>2013-04-06T07:00:16.000Z</time>
      </trkpt>
      <trkpt lat="47.24489" lon="4.92463">
        <ele>597.3</ele>
        <time>2013-04-06T07:00:18.000Z</time>
      </trkpt>
      <trkpt lat="47.24491" lon="4.92464">
        <ele>598.2</ele>
        <time>2013-04-06T07:00:19.000Z</time>
      </trkpt>
      <trkpt lat="47.24495" lon="4.92464">
        <ele>600.7</ele>
        <time>2013-04-06T07:00:22.000Z</time>
      </trkpt>
      <trkpt lat="47.24497" lon="4.92465">
        <ele>599.6</ele>
        <time>2013-04-06T07:00:23.000Z</time>
      </trkpt>
      <trkpt lat="47.24501" lon="4.92467">
        <ele>601.6</ele>
        <time>2013-04-06T07:00:26.000Z</time>
      </trkpt>
      <trkpt lat="47.24502" lon="4.92468">
        <ele>601.5</ele>
        <time>2013-04-06T07:00:27.000Z</time>
      </trkpt>
      <trkpt lat="47.24505" lon="4.9247">
        <ele>600.9</ele>
        <time>2013-04-06T07:00:29.000Z</time>
      </trkpt>
      <trkpt lat="47.24507" lon="4.9247">
        <ele>600.5</ele>
        <time>2013-04-06T07:00:30.000Z</time>
      </trkpt>
      <trkpt lat="47.2451" lon="4.92472">
        <ele>600.7</ele>
        <time>2013-04-06T07:00:32.000Z</time>
      </trkpt>
      <trkpt lat="47.24512" lon="4.92473">
        <ele>601</ele>
        <time>2013-04-06T07:00:33.000Z</time>
      </trkpt>
      <trkpt lat="47.24516" lon="4.92474">
        <ele>601.4</ele>
        <time>2013-04-06T07:00:35.000Z</time>
      </trkpt>
      <trkpt lat="47.24519" lon="4.92473">
        <ele>600.3</ele>
        <time>2013-04-06T07:00:36.000Z</time>
      </trkpt>
      <trkpt lat="47.24523" lon="4.92473">
        <ele>599.7</ele>
        <time>2013-04-06T07:00:38.000Z</time>
      </trkpt>
      <trkpt lat="47.24525" lon="4.92474">
        <ele>599.4</ele>
        <time>2013-04-06T07:00:39.000Z</time>
      </trkpt>
      <trkpt lat="47.24528" lon="4.92475">
        <ele>599.3</ele>
        <time>2013-04-06T07:00:41.000Z</time>
      </trkpt>
      <trkpt lat="47.2453" lon="4.92476">
        <ele>599.9</ele>
        <time>2013-04-06T07:00:42.000Z</time>
      </trkpt>
      <trkpt lat="47.24534" lon="4.92478">
        <ele>600.4</ele>
        <time>2013-04-06T07:00:44.000Z</time>
      </trkpt>
      <trkpt lat="47.24535" lon="4.92479">
        <ele>600.7</ele>
        <time>2013-04-06T07:00:45.000Z</time>
      </trkpt>
      <trkpt lat="47.24539" lon="4.92479">
        <ele>600.6</ele>
        <time>2013-04-06T07:00:47.000Z</time>
      </trkpt>
      <trkpt lat="47.24541" lon="4.9248">
        <ele>600.6</ele>
        <time>2013-04-06T07:00:48.000Z</time>
      </trkpt>
      <trkpt lat="47.24545" lon="4.9248">
        <ele>600.3</ele>
        <time>2013-04-06T07:00:50.000Z</time>
      </trkpt>
      <trkpt lat="47.24547" lon="4.92481">
        <ele>599.9</ele>
        <time>2013-04-06T07:00:51.000Z</time>
      </trkpt>
      <trkpt lat="47.2455" lon="4.92483">
        <ele>600.1</ele>
        <time>2013-04-06T07:00:53.000Z</time>
      </trkpt>
      <trkpt lat="47.24552" lon="4.92485">
        <ele>600.1</ele>
        <time>2013-04-06T07:00:54.000Z</time>
      </trkpt>
      <trkpt lat="47.24556" lon="4.92487">
        <ele>599.9</ele>
        <time>2013-04-06T07:00:56.000Z</time>
      </trkpt>
      <trkpt lat="47.24558" lon="4.92489">
        <ele>599.7</ele>
        <time>2013-04-06T07:00:57.000Z</time>
      </trkpt>
      <trkpt lat="47.2456" lon="4.9249">
        <ele>599.8</ele>
        <time>2013-04-06T07:00:58.000Z</time>
      </trkpt>
      <trkpt lat="47.24575" lon="4.92498">
        <ele>597.8</ele>
        <time>2013-04-06T07:01:05.000Z</time>
      </trkpt>
      <trkpt lat="47.24578" lon="4.92499">
        <ele>597.6</ele>
        <time>2013-04-06T07:01:06.000Z</time>
      </trkpt>
      <trkpt lat="47.2458" lon="4.925">
        <ele>598</ele>
        <time>2013-04-06T07:01:07.000Z</time>
      </trkpt>
      <trkpt lat="47.24582" lon="4.92502">
        <ele>600.6</ele>
        <time>2013-04-06T07:01:09.000Z</time>
      </trkpt>
      <trkpt lat="47.24584" lon="4.92503">
        <ele>600.2</ele>
        <time>2013-04-06T07:01:10.000Z</time>
      </trkpt>
      <trkpt lat="47.24587" lon="4.92506">
        <ele>600.5</ele>
        <time>2013-04-06T07:01:12.000Z</time>
      </trkpt>
      <trkpt lat="47.24589" lon="4.92506">
        <ele>601.8</ele>
        <time>2013-04-06T07:01:13.000Z</time>
      </trkpt>
      <trkpt lat="47.24592" lon="4.92508">
        <ele>602</ele>
        <time>2013-04-06T07:01:15.000Z</time>
      </trkpt>
      <trkpt lat="47.24594" lon="4.92509">
        <ele>601.5</ele>
        <time>2013-04-06T07:01:16.000Z</time>
      </trkpt>
      <trkpt lat="47.24597" lon="4.92511">
        <ele>599.7</ele>
        <time>2013-04-06T07:01:18.000Z</time>
      </trkpt>
      <trkpt lat="47.24599" lon="4.92512">
        <ele>599.5</ele>
        <time>2013-04-06T07:01:19.000Z</time>
      </trkpt>
      <trkpt lat="47.24601" lon="4.92514">
        <ele>598.5</ele>
        <time>2013-04-06T07:01:20.000Z</time>
      </trkpt>
      <trkpt lat="47.24603" lon="4.92516">
        <ele>598.2</ele>
        <time>2013-04-06T07:01:21.000Z</time>
      </trkpt>
      <trkpt lat="47.24606" lon="4.92517">
        <ele>598.8</ele>
        <time>2013-04-06T07:01:22.000Z</time>
      </trkpt>
      <trkpt lat="47.24608" lon="4.92518">
        <ele>599.1</ele>
        <time>2013-04-06T07:01:23.000Z</time>
      </trkpt>
      <trkpt lat="47.2461" lon="4.92519">
        <ele>598</ele>
        <time>2013-04-06T07:01:24.000Z</time>
      </trkpt>
      <trkpt lat="47.24612" lon="4.92521">
        <ele>597.4</ele>
        <time>2013-04-06T07:01:25.000Z</time>
      </trkpt>
      <trkpt lat="47.24615" lon="4.92521">
        <ele>596.9</ele>
        <time>2013-04-06T07:01:26.000Z</time>
      </trkpt>
      <trkpt lat="47.24617" lon="4.92522">
        <ele>596.3</ele>
        <time>2013-04-06T07:01:27.000Z</time>
      </trkpt>
      <trkpt lat="47.24619" lon="4.92523">
        <ele>596.3</ele>
        <time>2013-04-06T07:01:28.000Z</time>
      </trkpt>
      <trkpt lat="47.24622" lon="4.92524">
        <ele>595.2</ele>
        <time>2013-04-06T07:01:29.000Z</time>
      </trkpt>
      <trkpt lat="47.24624" lon="4.92525">
        <ele>594.9</ele>
        <time>2013-04-06T07:01:30.000Z</time>
      </trkpt>
      <trkpt lat="47.24626" lon="4.92527">
        <ele>594.7</ele>
        <time>2013-04-06T07:01:31.000Z</time>
      </trkpt>
      <trkpt lat="47.24629" lon="4.92529">
        <ele>594.6</ele>
        <time>2013-04-06T07:01:33.000Z</time>
      </trkpt>
      <trkpt lat="47.24631" lon="4.9253">
        <ele>594.7</ele>
        <time>2013-04-06T07:01:34.000Z</time>
      </trkpt>
      <trkpt lat="47.24635" lon="4.92533">
        <ele>594.7</ele>
        <time>2013-04-06T07:01:36.000Z</time>
      </trkpt>
      <trkpt lat="47.24636" lon="4.92534">
        <ele>594.5</ele>
        <time>2013-04-06T07:01:37.000Z</time>
      </trkpt>
      <trkpt lat="47.2464" lon="4.92537">
        <ele>594.5</ele>
        <time>2013-04-06T07:01:39.000Z</time>
      </trkpt>
      <trkpt lat="47.24641" lon="4.92539">
        <ele>594.2</ele>
        <time>2013-04-06T07:01:40.000Z</time>
      </trkpt>
      <trkpt lat="47.24643" lon="4.92542">
        <ele>593.8</ele>
        <time>2013-04-06T07:01:41.000Z</time>
      </trkpt>
      <trkpt lat="47.24645" lon="4.92544">
        <ele>593.5</ele>
        <time>2013-04-06T07:01:42.000Z</time>
      </trkpt>
      <trkpt lat="47.24647" lon="4.92546">
        <ele>593</ele>
        <time>2013-04-06T07:01:43.000Z</time>
      </trkpt>
      <trkpt lat="47.24648" lon="4.92548">
        <ele>592.5</ele>
        <time>2013-04-06T07:01:44.000Z</time>
      </trkpt>
      <trkpt lat="47.2465" lon="4.9255">
        <ele>592.2</ele>
        <time>2013-04-06T07:01:45.000Z</time>
      </trkpt>
      <trkpt lat="47.24652" lon="4.92551">
        <ele>591.8</ele>
        <time>2013-04-06T07:01:46.000Z</time>
      </trkpt>
      <trkpt lat="47.24654" lon="4.92553">
        <ele>591.5</ele>
        <time>2013-04-06T07:01:47.000Z</time>
      </trkpt>
      <trkpt lat="47.24656" lon="4.92555">
        <ele>591.2</ele>
        <time>2013-04-06T07:01:48.000Z</time>
      </trkpt>
      <trkpt lat="47.2466" lon="4.92558">
        <ele>590.4</ele>
        <time>2013-04-06T07:01:50.000Z</time>
      </trkpt>
      <trkpt lat="47.24662" lon="4.92559">
        <ele>590.1</ele>
        <time>2013-04-06T07:01:51.000Z</time>
      </trkpt>
      <trkpt lat="47.24665" lon="4.92563">
        <ele>589.8</ele>
        <time>2013-04-06T07:01:53.000Z</time>
      </trkpt>
      <trkpt lat="47.24667" lon="4.92564">
        <ele>589.7</ele>
        <time>2013-04-06T07:01:54.000Z</time>
      </trkpt>
      <trkpt lat="47.24669" lon="4.92566">
        <ele>589.5</ele>
        <time>2013-04-06T07:01:55.000Z</time>
      </trkpt>
      <trkpt lat="47.24671" lon="4.92568">
        <ele>589.4</ele>
        <time>2013-04-06T07:01:56.000Z</time>
      </trkpt>
      <trkpt lat="47.24673" lon="4.9257">
        <ele>589.1</ele>
        <time>2013-04-06T07:01:57.000Z</time>
      </trkpt>
      <trkpt lat="47.24675" lon="4.92571">
        <ele>588.8</ele>
        <time>2013-04-06T07:01:58.000Z</time>
      </trkpt>
      <trkpt lat="47.24688" lon="4.92587">
        <ele>589</ele>
        <time>2013-04-06T07:02:06.000Z</time>
      </trkpt>
      <trkpt lat="47.24691" lon="4.92588">
        <ele>591.3</ele>
        <time>2013-04-06T07:02:08.000Z</time>
      </trkpt>
      <trkpt lat="47.24693" lon="4.92589">
        <ele>590.7</ele>
        <time>2013-04-06T07:02:09.000Z</time>
      </trkpt>
      <trkpt lat="47.24696" lon="4.92591">
        <ele>590.4</ele>
        <time>2013-04-06T07:02:11.000Z</time>
      </trkpt>
      <trkpt lat="47.24697" lon="4.92592">
        <ele>591</ele>
        <time>2013-04-06T07:02:12.000Z</time>
      </trkpt>
      <trkpt lat="47.24701" lon="4.92594">
        <ele>591.8</ele>
        <time>2013-04-06T07:02:14.000Z</time>
      </trkpt>
      <trkpt lat="47.24703" lon="4.92595">
        <ele>592.4</ele>
        <time>2013-04-06T07:02:15.000Z</time>
      </trkpt>
      <trkpt lat="47.24707" lon="4.92597">
        <ele>593.2</ele>
        <time>2013-04-06T07:02:17.000Z</time>
      </trkpt>
      <trkpt lat="47.24708" lon="4.92598">
        <ele>593.5</ele>
        <time>2013-04-06T07:02:18.000Z</time>
      </trkpt>
      <trkpt lat="47.24711" lon="4.926">
        <ele>594.5</ele>
        <time>2013-04-06T07:02:20.000Z</time>
      </trkpt>
      <trkpt lat="47.24713" lon="4.92601">
        <ele>595.1</ele>
        <time>2013-04-06T07:02:21.000Z</time>
      </trkpt>
      <trkpt lat="47.24717" lon="4.92603">
        <ele>595.4</ele>
        <time>2013-04-06T07:02:23.000Z</time>
      </trkpt>
      <trkpt lat="47.24719" lon="4.92604">
        <ele>595.7</ele>
        <time>2013-04-06T07:02:24.000Z</time>
      </trkpt>
      <trkpt lat="47.24722" lon="4.92608">
        <ele>593.6</ele>
        <time>2013-04-06T07:02:26.000Z</time>
      </trkpt>
      <trkpt lat="47.24725" lon="4.92609">
        <ele>592.7</ele>
        <time>2013-04-06T07:02:27.000Z</time>
      </trkpt>
      <trkpt lat="47.24728" lon="4.92613">
        <ele>591.4</ele>
        <time>2013-04-06T07:02:29.000Z</time>
      </trkpt>
      <trkpt lat="47.24729" lon="4.92615">
        <ele>591.3</ele>
        <time>2013-04-06T07:02:30.000Z</time>
      </trkpt>
      <trkpt lat="47.24732" lon="4.92618">
        <ele>591.8</ele>
        <time>2013-04-06T07:02:32.000Z</time>
      </trkpt>
      <trkpt lat="47.24734" lon="4.9262">
        <ele>592.4</ele>
        <time>2013-04-06T07:02:33.000Z</time>
      </trkpt>
      <trkpt lat="47.24738" lon="4.92624">
        <ele>592.3</ele>
        <time>2013-04-06T07:02:35.000Z</time>
      </trkpt>
      <trkpt lat="47.2474" lon="4.92625">
        <ele>592.2</ele>
        <time>2013-04-06T07:02:36.000Z</time>
      </trkpt>
      <trkpt lat="47.24743" lon="4.92626">
        <ele>592</ele>
        <time>2013-04-06T07:02:38.000Z</time>
      </trkpt>
      <trkpt lat="47.24745" lon="4.92627">
        <ele>591.9</ele>
        <time>2013-04-06T07:02:39.000Z</time>
      </trkpt>
      <trkpt lat="47.24747" lon="4.92628">
        <ele>591.6</ele>
        <time>2013-04-06T07:02:40.000Z</time>
      </trkpt>
      <trkpt lat="47.24749" lon="4.92629">
        <ele>591.8</ele>
        <time>2013-04-06T07:02:41.000Z</time>
      </trkpt>
      <trkpt lat="47.24752" lon="4.92632">
        <ele>591.6</ele>
        <time>2013-04-06T07:02:43.000Z</time>
      </trkpt>
      <trkpt lat="47.24754" lon="4.92633">
        <ele>591.4</ele>
        <time>2013-04-06T07:02:44.000Z</time>
      </trkpt>
      <trkpt lat="47.24758" lon="4.92635">
        <ele>590.9</ele>
        <time>2013-04-06T07:02:46.000Z</time>
      </trkpt>
      <trkpt lat="47.2476" lon="4.92636">
        <ele>590.5</ele>
        <time>2013-04-06T07:02:47.000Z</time>
      </trkpt>
      <trkpt lat="47.24764" lon="4.92637">
        <ele>590.1</ele>
        <time>2013-04-06T07:02:49.000Z</time>
      </trkpt>
      <trkpt lat="47.24766" lon="4.92638">
        <ele>590</ele>
        <time>2013-04-06T07:02:50.000Z</time>
      </trkpt>
      <trkpt lat="47.2477" lon="4.92638">
        <ele>589.8</ele>
        <time>2013-04-06T07:02:52.000Z</time>
      </trkpt>
      <trkpt lat="47.24772" lon="4.92639">
        <ele>589.8</ele>
        <time>2013-04-06T07:02:53.000Z</time>
      </trkpt>
      <trkpt lat="47.24774" lon="4.9264">
        <ele>590.1</ele>
        <time>2013-04-06T07:02:54.000Z</time>
      </trkpt>
      <trkpt lat="47.24776" lon="4.9264">
        <ele>590</ele>
        <time>2013-04-06T07:02:55.000Z</time>
      </trkpt>
      <trkpt lat="47.24779" lon="4.92641">
        <ele>590</ele>
        <time>2013-04-06T07:02:56.000Z</time>
      </trkpt>
      <trkpt lat="47.24781" lon="4.92642">
        <ele>589.8</ele>
        <time>2013-04-06T07:02:57.000Z</time>
      </trkpt>
      <trkpt lat="47.24783" lon="4.92642">
        <ele>589.5</ele>
        <time>2013-04-06T07:02:58.000Z</time>
      </trkpt>
      <trkpt lat="47.24797" lon="4.92653">
        <ele>588.5</ele>
        <time>2013-04-06T07:03:05.000Z</time>
      </trkpt>
      <trkpt lat="47.24799" lon="4.92655">
        <ele>588.6</ele>
        <time>2013-04-06T07:03:06.000Z</time>
      </trkpt>
      <trkpt lat="47.24801" lon="4.92657">
        <ele>588.4</ele>
        <time>2013-04-06T07:03:07.000Z</time>
      </trkpt>
      <trkpt lat="47.24805" lon="4.92658">
        <ele>591.6</ele>
        <time>2013-04-06T07:03:09.000Z</time>
      </trkpt>
      <trkpt lat="47.24807" lon="4.92659">
        <ele>592.4</ele>
        <time>2013-04-06T07:03:10.000Z</time>
      </trkpt>
      <trkpt lat="47.2481" lon="4.9266">
        <ele>594.4</ele>
        <time>2013-04-06T07:03:12.000Z</time>
      </trkpt>
      <trkpt lat="47.24812" lon="4.92661">
        <ele>594.8</ele>
        <time>2013-04-06T07:03:13.000Z</time>
      </trkpt>
      <trkpt lat="47.24815" lon="4.92662">
        <ele>595.6</ele>
        <time>2013-04-06T07:03:15.000Z</time>
      </trkpt>
      <trkpt lat="47.24817" lon="4.92663">
        <ele>595.4</ele>
        <time>2013-04-06T07:03:16.000Z</time>
      </trkpt>
      <trkpt lat="47.24821" lon="4.92666">
        <ele>594.5</ele>
        <time>2013-04-06T07:03:18.000Z</time>
      </trkpt>
      <trkpt lat="47.24824" lon="4.92667">
        <ele>594.4</ele>
        <time>2013-04-06T07:03:19.000Z</time>
      </trkpt>
      <trkpt lat="47.24827" lon="4.92669">
        <ele>594.7</ele>
        <time>2013-04-06T07:03:21.000Z</time>
      </trkpt>
      <trkpt lat="47.24829" lon="4.92671">
        <ele>594.5</ele>
        <time>2013-04-06T07:03:22.000Z</time>
      </trkpt>
      <trkpt lat="47.24833" lon="4.92673">
        <ele>595.6</ele>
        <time>2013-04-06T07:03:24.000Z</time>
      </trkpt>
      <trkpt lat="47.24834" lon="4.92673">
        <ele>595.9</ele>
        <time>2013-04-06T07:03:25.000Z</time>
      </trkpt>
      <trkpt lat="47.24837" lon="4.92675">
        <ele>596.2</ele>
        <time>2013-04-06T07:03:27.000Z</time>
      </trkpt>
      <trkpt lat="47.24839" lon="4.92676">
        <ele>596.2</ele>
        <time>2013-04-06T07:03:28.000Z</time>
      </trkpt>
      <trkpt lat="47.24843" lon="4.92678">
        <ele>595.1</ele>
        <time>2013-04-06T07:03:30.000Z</time>
      </trkpt>
      <trkpt lat="47.24844" lon="4.92678">
        <ele>594.9</ele>
        <time>2013-04-06T07:03:31.000Z</time>
      </trkpt>
      <trkpt lat="47.24848" lon="4.92681">
        <ele>594.8</ele>
        <time>2013-04-06T07:03:33.000Z</time>
      </trkpt>
      <trkpt lat="47.2485" lon="4.92683">
        <ele>594.5</ele>
        <time>2013-04-06T07:03:34.000Z</time>
      </trkpt>
      <trkpt lat="47.24852" lon="4.92685">
        <ele>594.3</ele>
        <time>2013-04-06T07:03:35.000Z</time>
      </trkpt>
      <trkpt lat="47.24854" lon="4.92687">
        <ele>594.8</ele>
        <time>2013-04-06T07:03:36.000Z</time>
      </trkpt>
      <trkpt lat="47.24856" lon="4.92689">
        <ele>595</ele>
        <time>2013-04-06T07:03:37.000Z</time>
      </trkpt>
      <trkpt lat="47.24858" lon="4.9269">
        <ele>594.6</ele>
        <time>2013-04-06T07:03:38.000Z</time>
      </trkpt>
      <trkpt lat="47.2486" lon="4.92692">
        <ele>594.3</ele>
        <time>2013-04-06T07:03:39.000Z</time>
      </trkpt>
      <trkpt lat="47.24862" lon="4.92694">
        <ele>594.1</ele>
        <time>2013-04-06T07:03:40.000Z</time>
      </trkpt>
      <trkpt lat="47.24865" lon="4.92697">
        <ele>593.7</ele>
        <time>2013-04-06T07:03:41.000Z</time>
      </trkpt>
      <trkpt lat="47.24866" lon="4.92699">
        <ele>593.1</ele>
        <time>2013-04-06T07:03:42.000Z</time>
      </trkpt>
      <trkpt lat="47.24868" lon="4.92702">
        <ele>592.9</ele>
        <time>2013-04-06T07:03:43.000Z</time>
      </trkpt>
      <trkpt lat="47.24871" lon="4.92704">
        <ele>592.5</ele>
        <time>2013-04-06T07:03:44.000Z</time>
      </trkpt>
      <trkpt lat="47.24873" lon="4.92705">
        <ele>592.1</ele>
        <time>2013-04-06T07:03:45.000Z</time>
      </trkpt>
      <trkpt lat="47.24875" lon="4.92707">
        <ele>591.9</ele>
        <time>2013-04-06T07:03:46.000Z</time>
      </trkpt>
      <trkpt lat="47.24879" lon="4.92709">
        <ele>591.1</ele>
        <time>2013-04-06T07:03:48.000Z</time>
      </trkpt>
      <trkpt lat="47.2488" lon="4.9271">
        <ele>591</ele>
        <time>2013-04-06T07:03:49.000Z</time>
      </trkpt>
      <trkpt lat="47.24884" lon="4.92713">
        <ele>590.7</ele>
        <time>2013-04-06T07:03:51.000Z</time>
      </trkpt>
      <trkpt lat="47.24885" lon="4.92714">
        <ele>590.6</ele>
        <time>2013-04-06T07:03:52.000Z</time>
      </trkpt>
      <trkpt lat="47.24888" lon="4.92716">
        <ele>590.4</ele>
        <time>2013-04-06T07:03:54.000Z</time>
      </trkpt>
      <trkpt lat="47.2489" lon="4.92716">
        <ele>590.4</ele>
        <time>2013-04-06T07:03:55.000Z</time>
      </trkpt>
      <trkpt lat="47.24894" lon="4.92718">
        <ele>590.6</ele>
        <time>2013-04-06T07:03:57.000Z</time>
      </trkpt>
      <trkpt lat="47.24896" lon="4.92719">
        <ele>590.8</ele>
        <time>2013-04-06T07:03:58.000Z</time>
      </trkpt>
      <trkpt lat="47.24914" lon="4.92729">
        <ele>593.3</ele>
        <time>2013-04-06T07:04:06.000Z</time>
      </trkpt>
      <trkpt lat="47.24917" lon="4.9273">
        <ele>593.9</ele>
        <time>2013-04-06T07:04:08.000Z</time>
      </trkpt>
      <trkpt lat="47.24918" lon="4.9273">
        <ele>594</ele>
        <time>2013-04-06T07:04:09.000Z</time>
      </trkpt>
      <trkpt lat="47.24923" lon="4.9273">
        <ele>594.9</ele>
        <time>2013-04-06T07:04:11.000Z</time>
      </trkpt>
      <trkpt lat="47.24925" lon="4.9273">
        <ele>594.3</ele>
        <time>2013-04-06T07:04:12.000Z</time>
      </trkpt>
      <trkpt lat="47.24927" lon="4.92731">
        <ele>593.1</ele>
        <time>2013-04-06T07:04:13.000Z</time>
      </trkpt>
      <trkpt lat="47.24929" lon="4.92732">
        <ele>593.7</ele>
        <time>2013-04-06T07:04:14.000Z</time>
      </trkpt>
      <trkpt lat="47.24933" lon="4.92733">
        <ele>592.7</ele>
        <time>2013-04-06T07:04:16.000Z</time>
      </trkpt>
      <trkpt lat="47.24935" lon="4.92734">
        <ele>592.8</ele>
        <time>2013-04-06T07:04:17.000Z</time>
      </trkpt>
      <trkpt lat="47.24938" lon="4.92735">
        <ele>591.2</ele>
        <time>2013-04-06T07:04:18.000Z</time>
      </trkpt>
      <trkpt lat="47.2494" lon="4.92736">
        <ele>590.9</ele>
        <time>2013-04-06T07:04:19.000Z</time>
      </trkpt>
      <trkpt lat="47.24944" lon="4.92738">
        <ele>591.2</ele>
        <time>2013-04-06T07:04:21.000Z</time>
      </trkpt>
      <trkpt lat="47.24946" lon="4.92739">
        <ele>591.3</ele>
        <time>2013-04-06T07:04:22.000Z</time>
      </trkpt>
      <trkpt lat="47.24948" lon="4.92741">
        <ele>590.3</ele>
        <time>2013-04-06T07:04:23.000Z</time>
      </trkpt>
      <trkpt lat="47.2495" lon="4.92742">
        <ele>589.5</ele>
        <time>2013-04-06T07:04:24.000Z</time>
      </trkpt>
      <trkpt lat="47.24952" lon="4.92744">
        <ele>587.8</ele>
        <time>2013-04-06T07:04:25.000Z</time>
      </trkpt>
      <trkpt lat="47.24954" lon="4.92745">
        <ele>587</ele>
        <time>2013-04-06T07:04:26.000Z</time>
      </trkpt>
      <trkpt lat="47.24956" lon="4.92747">
        <ele>586.5</ele>
        <time>2013-04-06T07:04:27.000Z</time>
      </trkpt>
      <trkpt lat="47.24958" lon="4.92749">
        <ele>585.7</ele>
        <time>2013-04-06T07:04:28.000Z</time>
      </trkpt>
      <trkpt lat="47.2496" lon="4.92751">
        <ele>585.7</ele>
        <time>2013-04-06T07:04:29.000Z</time>
      </trkpt>
      <trkpt lat="47.24962" lon="4.92753">
        <ele>585.2</ele>
        <time>2013-04-06T07:04:30.000Z</time>
      </trkpt>
      <trkpt lat="47.24964" lon="4.92755">
        <ele>584.6</ele>
        <time>2013-04-06T07:04:31.000Z</time>
      </trkpt>
      <trkpt lat="47.24966" lon="4.92757">
        <ele>584.4</ele>
        <time>2013-04-06T07:04:32.000Z</time>
      </trkpt>
      <trkpt lat="47.24969" lon="4.9276">
        <ele>583.8</ele>
        <time>2013-04-06T07:04:34.000Z</time>
      </trkpt>
      <trkpt lat="47.24971" lon="4.92762">
        <ele>583.4</ele>
        <time>2013-04-06T07:04:35.000Z</time>
      </trkpt>
      <trkpt lat="47.24973" lon="4.92764">
        <ele>583</ele>
        <time>2013-04-06T07:04:36.000Z</time>
      </trkpt>
      <trkpt lat="47.24975" lon="4.92766">
        <ele>583.2</ele>
        <time>2013-04-06T07:04:37.000Z</time>
      </trkpt>
      <trkpt lat="47.24978" lon="4.92769">
        <ele>582.9</ele>
        <time>2013-04-06T07:04:39.000Z</time>
      </trkpt>
      <trkpt lat="47.2498" lon="4.92771">
        <ele>582.6</ele>
        <time>2013-04-06T07:04:40.000Z</time>
      </trkpt>
      <trkpt lat="47.24984" lon="4.92773">
        <ele>582.7</ele>
        <time>2013-04-06T07:04:42.000Z</time>
      </trkpt>
      <trkpt lat="47.24986" lon="4.92775">
        <ele>582.7</ele>
        <time>2013-04-06T07:04:43.000Z</time>
      </trkpt>
      <trkpt lat="47.24989" lon="4.92778">
        <ele>582.3</ele>
        <time>2013-04-06T07:04:45.000Z</time>
      </trkpt>
      <trkpt lat="47.24991" lon="4.9278">
        <ele>582.3</ele>
        <time>2013-04-06T07:04:46.000Z</time>
      </trkpt>
      <trkpt lat="47.24995" lon="4.92783">
        <ele>582.2</ele>
        <time>2013-04-06T07:04:48.000Z</time>
      </trkpt>
      <trkpt lat="47.24996" lon="4.92785">
        <ele>582.4</ele>
        <time>2013-04-06T07:04:49.000Z</time>
      </trkpt>
      <trkpt lat="47.25" lon="4.92788">
        <ele>582.7</ele>
        <time>2013-04-06T07:04:51.000Z</time>
      </trkpt>
      <trkpt lat="47.25002" lon="4.9279">
        <ele>582.6</ele>
        <time>2013-04-06T07:04:52.000Z</time>
      </trkpt>
      <trkpt lat="47.25004" lon="4.92792">
        <ele>582.3</ele>
        <time>2013-04-06T07:04:53.000Z</time>
      </trkpt>
      <trkpt lat="47.25006" lon="4.92793">
        <ele>582.1</ele>
        <time>2013-04-06T07:04:54.000Z</time>
      </trkpt>
      <trkpt lat="47.25008" lon="4.92795">
        <ele>582</ele>
        <time>2013-04-06T07:04:55.000Z</time>
      </trkpt>
      <trkpt lat="47.2501" lon="4.92797">
        <ele>582.1</ele>
        <time>2013-04-06T07:04:56.000Z</time>
      </trkpt>
      <trkpt lat="47.25013" lon="4.92799">
        <ele>582.2</ele>
        <time>2013-04-06T07:04:58.000Z</time>
      </trkpt>
      <trkpt lat="47.25026" lon="4.92808">
        <ele>584.2</ele>
        <time>2013-04-06T07:05:05.000Z</time>
      </trkpt>
      <trkpt lat="47.25029" lon="4.92812">
        <ele>583.3</ele>
        <time>2013-04-06T07:05:07.000Z</time>
      </trkpt>
      <trkpt lat="47.25031" lon="4.92813">
        <ele>582.8</ele>
        <time>2013-04-06T07:05:08.000Z</time>
      </trkpt>
      <trkpt lat="47.25035" lon="4.92816">
        <ele>582.3</ele>
        <time>2013-04-06T07:05:10.000Z</time>
      </trkpt>
      <trkpt lat="47.25037" lon="4.92818">
        <ele>581.7</ele>
        <time>2013-04-06T07:05:11.000Z</time>
      </trkpt>
      <trkpt lat="47.25039" lon="4.92821">
        <ele>580.6</ele>
        <time>2013-04-06T07:05:12.000Z</time>
      </trkpt>
      <trkpt lat="47.25041" lon="4.92823">
        <ele>580.8</ele>
        <time>2013-04-06T07:05:13.000Z</time>
      </trkpt>
      <trkpt lat="47.25042" lon="4.92825">
        <ele>580</ele>
        <time>2013-04-06T07:05:14.000Z</time>
      </trkpt>
      <trkpt lat="47.25044" lon="4.92827">
        <ele>580.2</ele>
        <time>2013-04-06T07:05:15.000Z</time>
      </trkpt>
      <trkpt lat="47.25048" lon="4.9283">
        <ele>579.6</ele>
        <time>2013-04-06T07:05:17.000Z</time>
      </trkpt>
      <trkpt lat="47.25049" lon="4.92832">
        <ele>579.1</ele>
        <time>2013-04-06T07:05:18.000Z</time>
      </trkpt>
      <trkpt lat="47.25053" lon="4.92835">
        <ele>578.4</ele>
        <time>2013-04-06T07:05:20.000Z</time>
      </trkpt>
      <trkpt lat="47.25055" lon="4.92836">
        <ele>577.7</ele>
        <time>2013-04-06T07:05:21.000Z</time>
      </trkpt>
      <trkpt lat="47.25059" lon="4.92839">
        <ele>577.3</ele>
        <time>2013-04-06T07:05:23.000Z</time>
      </trkpt>
      <trkpt lat="47.2506" lon="4.92841">
        <ele>578</ele>
        <time>2013-04-06T07:05:24.000Z</time>
      </trkpt>
      <trkpt lat="47.25064" lon="4.92844">
        <ele>577.5</ele>
        <time>2013-04-06T07:05:26.000Z</time>
      </trkpt>
      <trkpt lat="47.25066" lon="4.92845">
        <ele>577.6</ele>
        <time>2013-04-06T07:05:27.000Z</time>
      </trkpt>
      <trkpt lat="47.25069" lon="4.92848">
        <ele>577.7</ele>
        <time>2013-04-06T07:05:29.000Z</time>
      </trkpt>
      <trkpt lat="47.25071" lon="4.9285">
        <ele>578.4</ele>
        <time>2013-04-06T07:05:30.000Z</time>
      </trkpt>
      <trkpt lat="47.25075" lon="4.92852">
        <ele>579.1</ele>
        <time>2013-04-06T07:05:32.000Z</time>
      </trkpt>
      <trkpt lat="47.25077" lon="4.92854">
        <ele>578.7</ele>
        <time>2013-04-06T07:05:33.000Z</time>
      </trkpt>
      <trkpt lat="47.25081" lon="4.92857">
        <ele>578.5</ele>
        <time>2013-04-06T07:05:35.000Z</time>
      </trkpt>
      <trkpt lat="47.25082" lon="4.92858">
        <ele>578.7</ele>
        <time>2013-04-06T07:05:36.000Z</time>
      </trkpt>
      <trkpt lat="47.25085" lon="4.92859">
        <ele>579.6</ele>
        <time>2013-04-06T07:05:39.000Z</time>
      </trkpt>
      <trkpt lat="47.25086" lon="4.9286">
        <ele>579.5</ele>
        <time>2013-04-06T07:05:40.000Z</time>
      </trkpt>
      <trkpt lat="47.2509" lon="4.92863">
        <ele>580.4</ele>
        <time>2013-04-06T07:05:44.000Z</time>
      </trkpt>
      <trkpt lat="47.25091" lon="4.92864">
        <ele>580.7</ele>
        <time>2013-04-06T07:05:45.000Z</time>
      </trkpt>
      <trkpt lat="47.25094" lon="4.92866">
        <ele>581.1</ele>
        <time>2013-04-06T07:05:49.000Z</time>
      </trkpt>
      <trkpt lat="47.25095" lon="4.92867">
        <ele>581.4</ele>
        <time>2013-04-06T07:05:50.000Z</time>
      </trkpt>
      <trkpt lat="47.251" lon="4.92869">
        <ele>582.1</ele>
        <time>2013-04-06T07:05:57.000Z</time>
      </trkpt>
      <trkpt lat="47.251" lon="4.9287">
        <ele>581.8</ele>
        <time>2013-04-06T07:05:58.000Z</time>
      </trkpt>
      <trkpt lat="47.25105" lon="4.92875">
        <ele>579.5</ele>
        <time>2013-04-06T07:06:05.000Z</time>
      </trkpt>
      <trkpt lat="47.25102" lon="4.92879">
        <ele>583.2</ele>
        <time>2013-04-06T07:06:21.000Z</time>
      </trkpt>
      <trkpt lat="47.25101" lon="4.9288">
        <ele>583.5</ele>
        <time>2013-04-06T07:06:22.000Z</time>
      </trkpt>
      <trkpt lat="47.25105" lon="4.92882">
        <ele>583</ele>
        <time>2013-04-06T07:06:33.000Z</time>
      </trkpt>
      <trkpt lat="47.25106" lon="4.92882">
        <ele>582.9</ele>
        <time>2013-04-06T07:06:34.000Z</time>
      </trkpt>
      <trkpt lat="47.25109" lon="4.92882">
        <ele>582.9</ele>
        <time>2013-04-06T07:06:36.000Z</time>
      </trkpt>
      <trkpt lat="47.25111" lon="4.92882">
        <ele>582.9</ele>
        <time>2013-04-06T07:06:37.000Z</time>
      </trkpt>
      <trkpt lat="47.25114" lon="4.92883">
        <ele>582.7</ele>
        <time>2013-04-06T07:06:39.000Z</time>
      </trkpt>
      <trkpt lat="47.25115" lon="4.92884">
        <ele>582.7</ele>
        <time>2013-04-06T07:06:40.000Z</time>
      </trkpt>
      <trkpt lat="47.2512" lon="4.92884">
        <ele>582.9</ele>
        <time>2013-04-06T07:06:43.000Z</time>
      </trkpt>
      <trkpt lat="47.25121" lon="4.92885">
        <ele>582.7</ele>
        <time>2013-04-06T07:06:44.000Z</time>
      </trkpt>
      <trkpt lat="47.25125" lon="4.92886">
        <ele>582.6</ele>
        <time>2013-04-06T07:06:46.000Z</time>
      </trkpt>
      <trkpt lat="47.25127" lon="4.92886">
        <ele>582.4</ele>
        <time>2013-04-06T07:06:47.000Z</time>
      </trkpt>
      <trkpt lat="47.2513" lon="4.92887">
        <ele>582.5</ele>
        <time>2013-04-06T07:06:49.000Z</time>
      </trkpt>
      <trkpt lat="47.25132" lon="4.92888">
        <ele>582.4</ele>
        <time>2013-04-06T07:06:50.000Z</time>
      </trkpt>
      <trkpt lat="47.25136" lon="4.92889">
        <ele>582.3</ele>
        <time>2013-04-06T07:06:52.000Z</time>
      </trkpt>
      <trkpt lat="47.25138" lon="4.92889">
        <ele>582.1</ele>
        <time>2013-04-06T07:06:53.000Z</time>
      </trkpt>
      <trkpt lat="47.25142" lon="4.9289">
        <ele>582.2</ele>
        <time>2013-04-06T07:06:55.000Z</time>
      </trkpt>
      <trkpt lat="47.25144" lon="4.92891">
        <ele>582.3</ele>
        <time>2013-04-06T07:06:56.000Z</time>
      </trkpt>
      <trkpt lat="47.25147" lon="4.92891">
        <ele>582.3</ele>
        <time>2013-04-06T07:06:58.000Z</time>
      </trkpt>
      <trkpt lat="47.25166" lon="4.92898">
        <ele>582.8</ele>
        <time>2013-04-06T07:07:05.000Z</time>
      </trkpt>
      <trkpt lat="47.25169" lon="4.92898">
        <ele>581.6</ele>
        <time>2013-04-06T07:07:07.000Z</time>
      </trkpt>
      <trkpt lat="47.25171" lon="4.92897">
        <ele>582</ele>
        <time>2013-04-06T07:07:08.000Z</time>
      </trkpt>
      <trkpt lat="47.25175" lon="4.92898">
        <ele>581.9</ele>
        <time>2013-04-06T07:07:10.000Z</time>
      </trkpt>
      <trkpt lat="47.25177" lon="4.92898">
        <ele>581.6</ele>
        <time>2013-04-06T07:07:11.000Z</time>
      </trkpt>
      <trkpt lat="47.25181" lon="4.92898">
        <ele>582.6</ele>
        <time>2013-04-06T07:07:13.000Z</time>
      </trkpt>
      <trkpt lat="47.25182" lon="4.92899">
        <ele>582.4</ele>
        <time>2013-04-06T07:07:14.000Z</time>
      </trkpt>
      <trkpt lat="47.25186" lon="4.929">
        <ele>580.8</ele>
        <time>2013-04-06T07:07:16.000Z</time>
      </trkpt>
      <trkpt lat="47.25189" lon="4.92901">
        <ele>580</ele>
        <time>2013-04-06T07:07:17.000Z</time>
      </trkpt>
      <trkpt lat="47.25192" lon="4.92901">
        <ele>579.6</ele>
        <time>2013-04-06T07:07:19.000Z</time>
      </trkpt>
      <trkpt lat="47.25194" lon="4.92902">
        <ele>579.6</ele>
        <time>2013-04-06T07:07:20.000Z</time>
      </trkpt>
      <trkpt lat="47.25198" lon="4.92903">
        <ele>579.5</ele>
        <time>2013-04-06T07:07:22.000Z</time>
      </trkpt>
      <trkpt lat="47.252" lon="4.92903">
        <ele>579.5</ele>
        <time>2013-04-06T07:07:23.000Z</time>
      </trkpt>
      <trkpt lat="47.25203" lon="4.92904">
        <ele>578.6</ele>
        <time>2013-04-06T07:07:25.000Z</time>
      </trkpt>
      <trkpt lat="47.25206" lon="4.92905">
        <ele>578.2</ele>
        <time>2013-04-06T07:07:26.000Z</time>
      </trkpt>
      <trkpt lat="47.25209" lon="4.92906">
        <ele>578.2</ele>
        <time>2013-04-06T07:07:28.000Z</time>
      </trkpt>
      <trkpt lat="47.25212" lon="4.92906">
        <ele>578.3</ele>
        <time>2013-04-06T07:07:29.000Z</time>
      </trkpt>
      <trkpt lat="47.25215" lon="4.92907">
        <ele>578.5</ele>
        <time>2013-04-06T07:07:31.000Z</time>
      </trkpt>
      <trkpt lat="47.25217" lon="4.92908">
        <ele>578.6</ele>
        <time>2013-04-06T07:07:32.000Z</time>
      </trkpt>
      <trkpt lat="47.25221" lon="4.92908">
        <ele>578.6</ele>
        <time>2013-04-06T07:07:34.000Z</time>
      </trkpt>
      <trkpt lat="47.25223" lon="4.92909">
        <ele>578.9</ele>
        <time>2013-04-06T07:07:35.000Z</time>
      </trkpt>
      <trkpt lat="47.25227" lon="4.92909">
        <ele>579.5</ele>
        <time>2013-04-06T07:07:37.000Z</time>
      </trkpt>
      <trkpt lat="47.25229" lon="4.9291">
        <ele>579.5</ele>
        <time>2013-04-06T07:07:38.000Z</time>
      </trkpt>
      <trkpt lat="47.25233" lon="4.9291">
        <ele>579.8</ele>
        <time>2013-04-06T07:07:40.000Z</time>
      </trkpt>
      <trkpt lat="47.25235" lon="4.92911">
        <ele>580</ele>
        <time>2013-04-06T07:07:41.000Z</time>
      </trkpt>
      <trkpt lat="47.25239" lon="4.92911">
        <ele>580.1</ele>
        <time>2013-04-06T07:07:43.000Z</time>
      </trkpt>
      <trkpt lat="47.25241" lon="4.92912">
        <ele>580.3</ele>
        <time>2013-04-06T07:07:44.000Z</time>
      </trkpt>
      <trkpt lat="47.25245" lon="4.92912">
        <ele>580.1</ele>
        <time>2013-04-06T07:07:46.000Z</time>
      </trkpt>
      <trkpt lat="47.25247" lon="4.92912">
        <ele>580.1</ele>
        <time>2013-04-06T07:07:47.000Z</time>
      </trkpt>
      <trkpt lat="47.25251" lon="4.92912">
        <ele>580.3</ele>
        <time>2013-04-06T07:07:49.000Z</time>
      </trkpt>
      <trkpt lat="47.25253" lon="4.92912">
        <ele>580.4</ele>
        <time>2013-04-06T07:07:50.000Z</time>
      </trkpt>
      <trkpt lat="47.25257" lon="4.92913">
        <ele>580.5</ele>
        <time>2013-04-06T07:07:52.000Z</time>
      </trkpt>
      <trkpt lat="47.25259" lon="4.92913">
        <ele>580.5</ele>
        <time>2013-04-06T07:07:53.000Z</time>
      </trkpt>
      <trkpt lat="47.25262" lon="4.92913">
        <ele>580.8</ele>
        <time>2013-04-06T07:07:55.000Z</time>
      </trkpt>
      <trkpt lat="47.25264" lon="4.92914">
        <ele>581</ele>
        <time>2013-04-06T07:07:56.000Z</time>
      </trkpt>
      <trkpt lat="47.25266" lon="4.92914">
        <ele>580.9</ele>
        <time>2013-04-06T07:07:57.000Z</time>
      </trkpt>
      <trkpt lat="47.25269" lon="4.92915">
        <ele>580.9</ele>
        <time>2013-04-06T07:07:58.000Z</time>
      </trkpt>
      <trkpt lat="47.25281" lon="4.92915">
        <ele>582.7</ele>
        <time>2013-04-06T07:08:05.000Z</time>
      </trkpt>
      <trkpt lat="47.25284" lon="4.92915">
        <ele>580.7</ele>
        <time>2013-04-06T07:08:06.000Z</time>
      </trkpt>
      <trkpt lat="47.25288" lon="4.92916">
        <ele>579.4</ele>
        <time>2013-04-06T07:08:07.000Z</time>
      </trkpt>
      <trkpt lat="47.2529" lon="4.92916">
        <ele>579.9</ele>
        <time>2013-04-06T07:08:08.000Z</time>
      </trkpt>
      <trkpt lat="47.25292" lon="4.92916">
        <ele>580.1</ele>
        <time>2013-04-06T07:08:09.000Z</time>
      </trkpt>
      <trkpt lat="47.25296" lon="4.92916">
        <ele>580.8</ele>
        <time>2013-04-06T07:08:11.000Z</time>
      </trkpt>
      <trkpt lat="47.25298" lon="4.92916">
        <ele>581.5</ele>
        <time>2013-04-06T07:08:12.000Z</time>
      </trkpt>
      <trkpt lat="47.25302" lon="4.92917">
        <ele>582.6</ele>
        <time>2013-04-06T07:08:14.000Z</time>
      </trkpt>
      <trkpt lat="47.25304" lon="4.92918">
        <ele>582.7</ele>
        <time>2013-04-06T07:08:15.000Z</time>
      </trkpt>
      <trkpt lat="47.25308" lon="4.92918">
        <ele>583.7</ele>
        <time>2013-04-06T07:08:17.000Z</time>
      </trkpt>
      <trkpt lat="47.2531" lon="4.92919">
        <ele>584.7</ele>
        <time>2013-04-06T07:08:18.000Z</time>
      </trkpt>
      <trkpt lat="47.25314" lon="4.92919">
        <ele>585.7</ele>
        <time>2013-04-06T07:08:20.000Z</time>
      </trkpt>
      <trkpt lat="47.25316" lon="4.92919">
        <ele>586.1</ele>
        <time>2013-04-06T07:08:21.000Z</time>
      </trkpt>
      <trkpt lat="47.2532" lon="4.92919">
        <ele>587.2</ele>
        <time>2013-04-06T07:08:23.000Z</time>
      </trkpt>
      <trkpt lat="47.25322" lon="4.9292">
        <ele>587.5</ele>
        <time>2013-04-06T07:08:24.000Z</time>
      </trkpt>
      <trkpt lat="47.25326" lon="4.9292">
        <ele>588.2</ele>
        <time>2013-04-06T07:08:26.000Z</time>
      </trkpt>
      <trkpt lat="47.25327" lon="4.9292">
        <ele>589</ele>
        <time>2013-04-06T07:08:27.000Z</time>
      </trkpt>
      <trkpt lat="47.2533" lon="4.92921">
        <ele>590.3</ele>
        <time>2013-04-06T07:08:29.000Z</time>
      </trkpt>
      <trkpt lat="47.25332" lon="4.92922">
        <ele>589.9</ele>
        <time>2013-04-06T07:08:30.000Z</time>
      </trkpt>
      <trkpt lat="47.25335" lon="4.92922">
        <ele>591.2</ele>
        <time>2013-04-06T07:08:32.000Z</time>
      </trkpt>
      <trkpt lat="47.25338" lon="4.92923">
        <ele>591.8</ele>
        <time>2013-04-06T07:08:33.000Z</time>
      </trkpt>
      <trkpt lat="47.25342" lon="4.92924">
        <ele>592.6</ele>
        <time>2013-04-06T07:08:35.000Z</time>
      </trkpt>
      <trkpt lat="47.25344" lon="4.92924">
        <ele>592.8</ele>
        <time>2013-04-06T07:08:36.000Z</time>
      </trkpt>
      <trkpt lat="47.25346" lon="4.92924">
        <ele>592.6</ele>
        <time>2013-04-06T07:08:37.000Z</time>
      </trkpt>
      <trkpt lat="47.25348" lon="4.92925">
        <ele>592.4</ele>
        <time>2013-04-06T07:08:38.000Z</time>
      </trkpt>
      <trkpt lat="47.25352" lon="4.92927">
        <ele>592</ele>
        <time>2013-04-06T07:08:40.000Z</time>
      </trkpt>
      <trkpt lat="47.25354" lon="4.92928">
        <ele>592.1</ele>
        <time>2013-04-06T07:08:41.000Z</time>
      </trkpt>
      <trkpt lat="47.25358" lon="4.9293">
        <ele>591.8</ele>
        <time>2013-04-06T07:08:43.000Z</time>
      </trkpt>
      <trkpt lat="47.2536" lon="4.92931">
        <ele>591.8</ele>
        <time>2013-04-06T07:08:44.000Z</time>
      </trkpt>
      <trkpt lat="47.25364" lon="4.92932">
        <ele>592.1</ele>
        <time>2013-04-06T07:08:46.000Z</time>
      </trkpt>
      <trkpt lat="47.25366" lon="4.92933">
        <ele>592.2</ele>
        <time>2013-04-06T07:08:47.000Z</time>
      </trkpt>
      <trkpt lat="47.25369" lon="4.92934">
        <ele>592.2</ele>
        <time>2013-04-06T07:08:49.000Z</time>
      </trkpt>
      <trkpt lat="47.25371" lon="4.92935">
        <ele>592.1</ele>
        <time>2013-04-06T07:08:50.000Z</time>
      </trkpt>
      <trkpt lat="47.25375" lon="4.92936">
        <ele>592.2</ele>
        <time>2013-04-06T07:08:52.000Z</time>
      </trkpt>
      <trkpt lat="47.25376" lon="4.92938">
        <ele>592.4</ele>
        <time>2013-04-06T07:08:53.000Z</time>
      </trkpt>
      <trkpt lat="47.2538" lon="4.92939">
        <ele>592.6</ele>
        <time>2013-04-06T07:08:55.000Z</time>
      </trkpt>
      <trkpt lat="47.25382" lon="4.92939">
        <ele>592.5</ele>
        <time>2013-04-06T07:08:56.000Z</time>
      </trkpt>
      <trkpt lat="47.25387" lon="4.92938">
        <ele>592.3</ele>
        <time>2013-04-06T07:08:58.000Z</time>
      </trkpt>
      <trkpt lat="47.254" lon="4.92938">
        <ele>587.7</ele>
        <time>2013-04-06T07:09:05.000Z</time>
      </trkpt>
      <trkpt lat="47.25404" lon="4.92937">
        <ele>587.4</ele>
        <time>2013-04-06T07:09:08.000Z</time>
      </trkpt>
      <trkpt lat="47.25406" lon="4.92936">
        <ele>587.6</ele>
        <time>2013-04-06T07:09:09.000Z</time>
      </trkpt>
      <trkpt lat="47.2541" lon="4.92936">
        <ele>591.3</ele>
        <time>2013-04-06T07:09:15.000Z</time>
      </trkpt>
      <trkpt lat="47.2541" lon="4.92936">
        <ele>592.1</ele>
        <time>2013-04-06T07:09:16.000Z</time>
      </trkpt>
      <trkpt lat="47.25413" lon="4.92933">
        <ele>591.1</ele>
        <time>2013-04-06T07:09:32.000Z</time>
      </trkpt>
      <trkpt lat="47.25414" lon="4.92934">
        <ele>590.9</ele>
        <time>2013-04-06T07:09:33.000Z</time>
      </trkpt>
      <trkpt lat="47.25417" lon="4.92938">
        <ele>590.3</ele>
        <time>2013-04-06T07:09:36.000Z</time>
      </trkpt>
      <trkpt lat="47.25417" lon="4.92939">
        <ele>590.1</ele>
        <time>2013-04-06T07:09:37.000Z</time>
      </trkpt>
      <trkpt lat="47.2542" lon="4.92944">
        <ele>589.7</ele>
        <time>2013-04-06T07:09:40.000Z</time>
      </trkpt>
      <trkpt lat="47.25421" lon="4.92947">
        <ele>589.7</ele>
        <time>2013-04-06T07:09:41.000Z</time>
      </trkpt>
      <trkpt lat="47.25421" lon="4.92952">
        <ele>589.9</ele>
        <time>2013-04-06T07:09:43.000Z</time>
      </trkpt>
      <trkpt lat="47.25422" lon="4.92955">
        <ele>589.8</ele>
        <time>2013-04-06T07:09:44.000Z</time>
      </trkpt>
      <trkpt lat="47.25423" lon="4.92961">
        <ele>589.9</ele>
        <time>2013-04-06T07:09:46.000Z</time>
      </trkpt>
      <trkpt lat="47.25423" lon="4.92964">
        <ele>589.8</ele>
        <time>2013-04-06T07:09:47.000Z</time>
      </trkpt>
      <trkpt lat="47.25424" lon="4.92969">
        <ele>589.8</ele>
        <time>2013-04-06T07:09:49.000Z</time>
      </trkpt>
      <trkpt lat="47.25424" lon="4.92972">
        <ele>589.9</ele>
        <time>2013-04-06T07:09:50.000Z</time>
      </trkpt>
      <trkpt lat="47.25424" lon="4.92977">
        <ele>590.2</ele>
        <time>2013-04-06T07:09:52.000Z</time>
      </trkpt>
      <trkpt lat="47.25425" lon="4.9298">
        <ele>590</ele>
        <time>2013-04-06T07:09:53.000Z</time>
      </trkpt>
      <trkpt lat="47.25425" lon="4.92984">
        <ele>590.1</ele>
        <time>2013-04-06T07:09:54.000Z</time>
      </trkpt>
      <trkpt lat="47.25426" lon="4.92988">
        <ele>590.3</ele>
        <time>2013-04-06T07:09:55.000Z</time>
      </trkpt>
      <trkpt lat="47.25427" lon="4.92991">
        <ele>590.5</ele>
        <time>2013-04-06T07:09:56.000Z</time>
      </trkpt>
      <trkpt lat="47.25426" lon="4.92995">
        <ele>590.5</ele>
        <time>2013-04-06T07:09:57.000Z</time>
      </trkpt>
      <trkpt lat="47.25427" lon="4.93001">
        <ele>590.8</ele>
        <time>2013-04-06T07:10:00.000Z</time>
      </trkpt>
      <trkpt lat="47.25428" lon="4.93002">
        <ele>591</ele>
        <time>2013-04-06T07:10:01.000Z</time>
      </trkpt>
      <trkpt lat="47.25429" lon="4.93009">
        <ele>591</ele>
        <time>2013-04-06T07:10:05.000Z</time>
      </trkpt>
      <trkpt lat="47.25429" lon="4.93011">
        <ele>591.1</ele>
        <time>2013-04-06T07:10:06.000Z</time>
      </trkpt>
      <trkpt lat="47.2543" lon="4.93017">
        <ele>590.9</ele>
        <time>2013-04-06T07:10:08.000Z</time>
      </trkpt>
      <trkpt lat="47.25431" lon="4.9302">
        <ele>590.8</ele>
        <time>2013-04-06T07:10:09.000Z</time>
      </trkpt>
      <trkpt lat="47.25432" lon="4.93023">
        <ele>590.7</ele>
        <time>2013-04-06T07:10:10.000Z</time>
      </trkpt>
      <trkpt lat="47.25434" lon="4.93027">
        <ele>590.6</ele>
        <time>2013-04-06T07:10:11.000Z</time>
      </trkpt>
      <trkpt lat="47.25437" lon="4.93031">
        <ele>590.1</ele>
        <time>2013-04-06T07:10:14.000Z</time>
      </trkpt>
      <trkpt lat="47.25438" lon="4.93033">
        <ele>590.1</ele>
        <time>2013-04-06T07:10:15.000Z</time>
      </trkpt>
      <trkpt lat="47.25439" lon="4.93036">
        <ele>590</ele>
        <time>2013-04-06T07:10:16.000Z</time>
      </trkpt>
      <trkpt lat="47.2544" lon="4.9304">
        <ele>589.8</ele>
        <time>2013-04-06T07:10:17.000Z</time>
      </trkpt>
      <trkpt lat="47.25442" lon="4.93045">
        <ele>589.5</ele>
        <time>2013-04-06T07:10:19.000Z</time>
      </trkpt>
      <trkpt lat="47.25443" lon="4.93047">
        <ele>589.5</ele>
        <time>2013-04-06T07:10:20.000Z</time>
      </trkpt>
      <trkpt lat="47.25442" lon="4.93052">
        <ele>589.7</ele>
        <time>2013-04-06T07:10:22.000Z</time>
      </trkpt>
      <trkpt lat="47.25442" lon="4.93054">
        <ele>589.8</ele>
        <time>2013-04-06T07:10:23.000Z</time>
      </trkpt>
      <trkpt lat="47.25443" lon="4.9306">
        <ele>589.5</ele>
        <time>2013-04-06T07:10:25.000Z</time>
      </trkpt>
      <trkpt lat="47.25443" lon="4.93063">
        <ele>589.5</ele>
        <time>2013-04-06T07:10:26.000Z</time>
      </trkpt>
      <trkpt lat="47.25444" lon="4.93068">
        <ele>589.4</ele>
        <time>2013-04-06T07:10:28.000Z</time>
      </trkpt>
      <trkpt lat="47.25445" lon="4.93071">
        <ele>589.4</ele>
        <time>2013-04-06T07:10:29.000Z</time>
      </trkpt>
      <trkpt lat="47.25446" lon="4.93074">
        <ele>589.5</ele>
        <time>2013-04-06T07:10:30.000Z</time>
      </trkpt>
      <trkpt lat="47.25447" lon="4.93078">
        <ele>589.5</ele>
        <time>2013-04-06T07:10:31.000Z</time>
      </trkpt>
      <trkpt lat="47.25448" lon="4.93083">
        <ele>589.4</ele>
        <time>2013-04-06T07:10:33.000Z</time>
      </trkpt>
      <trkpt lat="47.25448" lon="4.93086">
        <ele>589.4</ele>
        <time>2013-04-06T07:10:34.000Z</time>
      </trkpt>
      <trkpt lat="47.25449" lon="4.9309">
        <ele>589.6</ele>
        <time>2013-04-06T07:10:36.000Z</time>
      </trkpt>
      <trkpt lat="47.25449" lon="4.93092">
        <ele>589.6</ele>
        <time>2013-04-06T07:10:37.000Z</time>
      </trkpt>
      <trkpt lat="47.2545" lon="4.93097">
        <ele>589.4</ele>
        <time>2013-04-06T07:10:39.000Z</time>
      </trkpt>
      <trkpt lat="47.2545" lon="4.93099">
        <ele>589.3</ele>
        <time>2013-04-06T07:10:40.000Z</time>
      </trkpt>
      <trkpt lat="47.25451" lon="4.93105">
        <ele>589.2</ele>
        <time>2013-04-06T07:10:42.000Z</time>
      </trkpt>
      <trkpt lat="47.25451" lon="4.93108">
        <ele>589.3</ele>
        <time>2013-04-06T07:10:43.000Z</time>
      </trkpt>
      <trkpt lat="47.25451" lon="4.93113">
        <ele>589.3</ele>
        <time>2013-04-06T07:10:45.000Z</time>
      </trkpt>
      <trkpt lat="47.25451" lon="4.93116">
        <ele>589.3</ele>
        <time>2013-04-06T07:10:46.000Z</time>
      </trkpt>
      <trkpt lat="47.25451" lon="4.93122">
        <ele>589.3</ele>
        <time>2013-04-06T07:10:48.000Z</time>
      </trkpt>
      <trkpt lat="47.25451" lon="4.93125">
        <ele>589.2</ele>
        <time>2013-04-06T07:10:49.000Z</time>
      </trkpt>
      <trkpt lat="47.25452" lon="4.93129">
        <ele>588.9</ele>
        <time>2013-04-06T07:10:50.000Z</time>
      </trkpt>
      <trkpt lat="47.25452" lon="4.93132">
        <ele>588.8</ele>
        <time>2013-04-06T07:10:51.000Z</time>
      </trkpt>
      <trkpt lat="47.25453" lon="4.93138">
        <ele>588.5</ele>
        <time>2013-04-06T07:10:53.000Z</time>
      </trkpt>
      <trkpt lat="47.25454" lon="4.93142">
        <ele>588.4</ele>
        <time>2013-04-06T07:10:54.000Z</time>
      </trkpt>
      <trkpt lat="47.25454" lon="4.93149">
        <ele>588.3</ele>
        <time>2013-04-06T07:10:56.000Z</time>
      </trkpt>
      <trkpt lat="47.25455" lon="4.93151">
        <ele>588.2</ele>
        <time>2013-04-06T07:10:57.000Z</time>
      </trkpt>
      <trkpt lat="47.25456" lon="4.93154">
        <ele>588.1</ele>
        <time>2013-04-06T07:10:58.000Z</time>
      </trkpt>
      <trkpt lat="47.25457" lon="4.9319">
        <ele>587</ele>
        <time>2013-04-06T07:11:07.000Z</time>
      </trkpt>
      <trkpt lat="47.25458" lon="4.93195">
        <ele>588.5</ele>
        <time>2013-04-06T07:11:09.000Z</time>
      </trkpt>
      <trkpt lat="47.25458" lon="4.93197">
        <ele>588.4</ele>
        <time>2013-04-06T07:11:10.000Z</time>
      </trkpt>
      <trkpt lat="47.25459" lon="4.93202">
        <ele>587.3</ele>
        <time>2013-04-06T07:11:12.000Z</time>
      </trkpt>
      <trkpt lat="47.25459" lon="4.93204">
        <ele>587.3</ele>
        <time>2013-04-06T07:11:13.000Z</time>
      </trkpt>
      <trkpt lat="47.2546" lon="4.93211">
        <ele>589.7</ele>
        <time>2013-04-06T07:11:15.000Z</time>
      </trkpt>
      <trkpt lat="47.2546" lon="4.93214">
        <ele>590.1</ele>
        <time>2013-04-06T07:11:16.000Z</time>
      </trkpt>
      <trkpt lat="47.25461" lon="4.93218">
        <ele>590.3</ele>
        <time>2013-04-06T07:11:17.000Z</time>
      </trkpt>
      <trkpt lat="47.25461" lon="4.93221">
        <ele>588.5</ele>
        <time>2013-04-06T07:11:18.000Z</time>
      </trkpt>
      <trkpt lat="47.25462" lon="4.93224">
        <ele>588.1</ele>
        <time>2013-04-06T07:11:19.000Z</time>
      </trkpt>
      <trkpt lat="47.25463" lon="4.93227">
        <ele>588.5</ele>
        <time>2013-04-06T07:11:20.000Z</time>
      </trkpt>
      <trkpt lat="47.25463" lon="4.93231">
        <ele>588.1</ele>
        <time>2013-04-06T07:11:21.000Z</time>
      </trkpt>
      <trkpt lat="47.25464" lon="4.93234">
        <ele>587</ele>
        <time>2013-04-06T07:11:22.000Z</time>
      </trkpt>
      <trkpt lat="47.25464" lon="4.93239">
        <ele>586.6</ele>
        <time>2013-04-06T07:11:24.000Z</time>
      </trkpt>
      <trkpt lat="47.25464" lon="4.93242">
        <ele>586.4</ele>
        <time>2013-04-06T07:11:25.000Z</time>
      </trkpt>
      <trkpt lat="47.25464" lon="4.93248">
        <ele>587.1</ele>
        <time>2013-04-06T07:11:27.000Z</time>
      </trkpt>
      <trkpt lat="47.25463" lon="4.93251">
        <ele>586.2</ele>
        <time>2013-04-06T07:11:28.000Z</time>
      </trkpt>
      <trkpt lat="47.25463" lon="4.93254">
        <ele>585.6</ele>
        <time>2013-04-06T07:11:29.000Z</time>
      </trkpt>
      <trkpt lat="47.25463" lon="4.93258">
        <ele>584.5</ele>
        <time>2013-04-06T07:11:30.000Z</time>
      </trkpt>
      <trkpt lat="47.25463" lon="4.93262">
        <ele>583.9</ele>
        <time>2013-04-06T07:11:31.000Z</time>
      </trkpt>
      <trkpt lat="47.25462" lon="4.93266">
        <ele>583.4</ele>
        <time>2013-04-06T07:11:32.000Z</time>
      </trkpt>
      <trkpt lat="47.25462" lon="4.93272">
        <ele>581.4</ele>
        <time>2013-04-06T07:11:34.000Z</time>
      </trkpt>
      <trkpt lat="47.25461" lon="4.93275">
        <ele>580.7</ele>
        <time>2013-04-06T07:11:35.000Z</time>
      </trkpt>
      <trkpt lat="47.25461" lon="4.93281">
        <ele>580.2</ele>
        <time>2013-04-06T07:11:37.000Z</time>
      </trkpt>
      <trkpt lat="47.25461" lon="4.93285">
        <ele>580.1</ele>
        <time>2013-04-06T07:11:38.000Z</time>
      </trkpt>
      <trkpt lat="47.25461" lon="4.93289">
        <ele>579.2</ele>
        <time>2013-04-06T07:11:39.000Z</time>
      </trkpt>
      <trkpt lat="47.25462" lon="4.93293">
        <ele>579</ele>
        <time>2013-04-06T07:11:40.000Z</time>
      </trkpt>
      <trkpt lat="47.25462" lon="4.93296">
        <ele>578.8</ele>
        <time>2013-04-06T07:11:41.000Z</time>
      </trkpt>
      <trkpt lat="47.25462" lon="4.933">
        <ele>578.5</ele>
        <time>2013-04-06T07:11:42.000Z</time>
      </trkpt>
      <trkpt lat="47.25462" lon="4.93306">
        <ele>578.5</ele>
        <time>2013-04-06T07:11:44.000Z</time>
      </trkpt>
      <trkpt lat="47.25463" lon="4.93309">
        <ele>578.4</ele>
        <time>2013-04-06T07:11:45.000Z</time>
      </trkpt>
      <trkpt lat="47.25463" lon="4.93315">
        <ele>578.3</ele>
        <time>2013-04-06T07:11:47.000Z</time>
      </trkpt>
      <trkpt lat="47.25464" lon="4.93318">
        <ele>578.2</ele>
        <time>2013-04-06T07:11:48.000Z</time>
      </trkpt>
      <trkpt lat="47.25465" lon="4.93323">
        <ele>577.8</ele>
        <time>2013-04-06T07:11:50.000Z</time>
      </trkpt>
      <trkpt lat="47.25466" lon="4.93326">
        <ele>577.6</ele>
        <time>2013-04-06T07:11:51.000Z</time>
      </trkpt>
      <trkpt lat="47.25467" lon="4.93332">
        <ele>577.5</ele>
        <time>2013-04-06T07:11:53.000Z</time>
      </trkpt>
      <trkpt lat="47.25467" lon="4.93335">
        <ele>577.6</ele>
        <time>2013-04-06T07:11:54.000Z</time>
      </trkpt>
      <trkpt lat="47.25468" lon="4.93338">
        <ele>577.5</ele>
        <time>2013-04-06T07:11:55.000Z</time>
      </trkpt>
      <trkpt lat="47.25468" lon="4.93341">
        <ele>577.4</ele>
        <time>2013-04-06T07:11:56.000Z</time>
      </trkpt>
      <trkpt lat="47.25469" lon="4.93347">
        <ele>577.3</ele>
        <time>2013-04-06T07:11:58.000Z</time>
      </trkpt>
      <trkpt lat="47.25471" lon="4.93378">
        <ele>572.2</ele>
        <time>2013-04-06T07:12:06.000Z</time>
      </trkpt>
      <trkpt lat="47.25471" lon="4.93384">
        <ele>571</ele>
        <time>2013-04-06T07:12:08.000Z</time>
      </trkpt>
      <trkpt lat="47.25471" lon="4.93387">
        <ele>570.9</ele>
        <time>2013-04-06T07:12:09.000Z</time>
      </trkpt>
      <trkpt lat="47.25471" lon="4.93391">
        <ele>573</ele>
        <time>2013-04-06T07:12:11.000Z</time>
      </trkpt>
      <trkpt lat="47.2547" lon="4.93395">
        <ele>572.8</ele>
        <time>2013-04-06T07:12:12.000Z</time>
      </trkpt>
      <trkpt lat="47.2547" lon="4.93398">
        <ele>573</ele>
        <time>2013-04-06T07:12:13.000Z</time>
      </trkpt>
      <trkpt lat="47.2547" lon="4.93402">
        <ele>572.2</ele>
        <time>2013-04-06T07:12:14.000Z</time>
      </trkpt>
      <trkpt lat="47.25471" lon="4.93406">
        <ele>572.6</ele>
        <time>2013-04-06T07:12:15.000Z</time>
      </trkpt>
      <trkpt lat="47.25471" lon="4.93409">
        <ele>574.8</ele>
        <time>2013-04-06T07:12:16.000Z</time>
      </trkpt>
      <trkpt lat="47.25472" lon="4.93413">
        <ele>576.4</ele>
        <time>2013-04-06T07:12:17.000Z</time>
      </trkpt>
      <trkpt lat="47.25472" lon="4.93417">
        <ele>576</ele>
        <time>2013-04-06T07:12:18.000Z</time>
      </trkpt>
      <trkpt lat="47.25473" lon="4.9342">
        <ele>576.2</ele>
        <time>2013-04-06T07:12:19.000Z</time>
      </trkpt>
      <trkpt lat="47.25473" lon="4.93423">
        <ele>575.6</ele>
        <time>2013-04-06T07:12:20.000Z</time>
      </trkpt>
      <trkpt lat="47.25473" lon="4.9343">
        <ele>575.8</ele>
        <time>2013-04-06T07:12:22.000Z</time>
      </trkpt>
      <trkpt lat="47.25474" lon="4.93433">
        <ele>575.8</ele>
        <time>2013-04-06T07:12:23.000Z</time>
      </trkpt>
      <trkpt lat="47.25474" lon="4.93436">
        <ele>576.5</ele>
        <time>2013-04-06T07:12:24.000Z</time>
      </trkpt>
      <trkpt lat="47.25475" lon="4.9344">
        <ele>577</ele>
        <time>2013-04-06T07:12:25.000Z</time>
      </trkpt>
      <trkpt lat="47.25475" lon="4.93444">
        <ele>577</ele>
        <time>2013-04-06T07:12:26.000Z</time>
      </trkpt>
      <trkpt lat="47.25475" lon="4.93447">
        <ele>577.4</ele>
        <time>2013-04-06T07:12:27.000Z</time>
      </trkpt>
      <trkpt lat="47.25474" lon="4.93453">
        <ele>577.3</ele>
        <time>2013-04-06T07:12:29.000Z</time>
      </trkpt>
      <trkpt lat="47.25474" lon="4.93455">
        <ele>575.4</ele>
        <time>2013-04-06T07:12:30.000Z</time>
      </trkpt>
      <trkpt lat="47.25474" lon="4.9346">
        <ele>574.4</ele>
        <time>2013-04-06T07:12:32.000Z</time>
      </trkpt>
      <trkpt lat="47.25474" lon="4.93463">
        <ele>573.8</ele>
        <time>2013-04-06T07:12:33.000Z</time>
      </trkpt>
      <trkpt lat="47.25474" lon="4.93469">
        <ele>573.1</ele>
        <time>2013-04-06T07:12:35.000Z</time>
      </trkpt>
      <trkpt lat="47.25474" lon="4.93471">
        <ele>573.2</ele>
        <time>2013-04-06T07:12:36.000Z</time>
      </trkpt>
      <trkpt lat="47.25475" lon="4.93477">
        <ele>572.3</ele>
        <time>2013-04-06T07:12:38.000Z</time>
      </trkpt>
      <trkpt lat="47.25475" lon="4.93481">
        <ele>572.2</ele>
        <time>2013-04-06T07:12:39.000Z</time>
      </trkpt>
      <trkpt lat="47.25476" lon="4.93484">
        <ele>572</ele>
        <time>2013-04-06T07:12:40.000Z</time>
      </trkpt>
      <trkpt lat="47.25476" lon="4.93488">
        <ele>572.1</ele>
        <time>2013-04-06T07:12:41.000Z</time>
      </trkpt>
      <trkpt lat="47.25476" lon="4.93494">
        <ele>571.5</ele>
        <time>2013-04-06T07:12:43.000Z</time>
      </trkpt>
      <trkpt lat="47.25476" lon="4.93497">
        <ele>571.6</ele>
        <time>2013-04-06T07:12:44.000Z</time>
      </trkpt>
      <trkpt lat="47.25476" lon="4.935">
        <ele>571.6</ele>
        <time>2013-04-06T07:12:45.000Z</time>
      </trkpt>
      <trkpt lat="47.25476" lon="4.93504">
        <ele>571.5</ele>
        <time>2013-04-06T07:12:46.000Z</time>
      </trkpt>
      <trkpt lat="47.25476" lon="4.93508">
        <ele>571.5</ele>
        <time>2013-04-06T07:12:47.000Z</time>
      </trkpt>
      <trkpt lat="47.25477" lon="4.93511">
        <ele>571.2</ele>
        <time>2013-04-06T07:12:48.000Z</time>
      </trkpt>
      <trkpt lat="47.25478" lon="4.93515">
        <ele>571.1</ele>
        <time>2013-04-06T07:12:49.000Z</time>
      </trkpt>
      <trkpt lat="47.25478" lon="4.93518">
        <ele>571.1</ele>
        <time>2013-04-06T07:12:50.000Z</time>
      </trkpt>
      <trkpt lat="47.25479" lon="4.93524">
        <ele>570.8</ele>
        <time>2013-04-06T07:12:52.000Z</time>
      </trkpt>
      <trkpt lat="47.2548" lon="4.93527">
        <ele>570.6</ele>
        <time>2013-04-06T07:12:53.000Z</time>
      </trkpt>
      <trkpt lat="47.2548" lon="4.9353">
        <ele>570.5</ele>
        <time>2013-04-06T07:12:54.000Z</time>
      </trkpt>
      <trkpt lat="47.25481" lon="4.93534">
        <ele>570.8</ele>
        <time>2013-04-06T07:12:55.000Z</time>
      </trkpt>
      <trkpt lat="47.25481" lon="4.93537">
        <ele>570.7</ele>
        <time>2013-04-06T07:12:56.000Z</time>
      </trkpt>
      <trkpt lat="47.25481" lon="4.93541">
        <ele>570.7</ele>
        <time>2013-04-06T07:12:57.000Z</time>
      </trkpt>
      <trkpt lat="47.25481" lon="4.93543">
        <ele>570.3</ele>
        <time>2013-04-06T07:12:58.000Z</time>
      </trkpt>
      <trkpt lat="47.2551" lon="4.93763">
        <ele>560.2</ele>
        <time>2013-04-06T07:14:15.000Z</time>
      </trkpt>
      <trkpt lat="47.25511" lon="4.93768">
        <ele>560.4</ele>
        <time>2013-04-06T07:14:17.000Z</time>
      </trkpt>
      <trkpt lat="47.25511" lon="4.9377">
        <ele>559.4</ele>
        <time>2013-04-06T07:14:18.000Z</time>
      </trkpt>
      <trkpt lat="47.25511" lon="4.93776">
        <ele>553.7</ele>
        <time>2013-04-06T07:14:22.000Z</time>
      </trkpt>
      <trkpt lat="47.25511" lon="4.93777">
        <ele>553.3</ele>
        <time>2013-04-06T07:14:23.000Z</time>
      </trkpt>
      <trkpt lat="47.2551" lon="4.93777">
        <ele>553.7</ele>
        <time>2013-04-06T07:14:58.000Z</time>
      </trkpt>
      <trkpt lat="47.25517" lon="4.93792">
        <ele>547.9</ele>
        <time>2013-04-06T07:15:05.000Z</time>
      </trkpt>
      <trkpt lat="47.25517" lon="4.93792">
        <ele>547.9</ele>
        <time>2013-04-06T07:15:58.000Z</time>
      </trkpt>
      <trkpt lat="47.25516" lon="4.93782">
        <ele>537.8</ele>
        <time>2013-04-06T07:16:14.000Z</time>
      </trkpt>
      <trkpt lat="47.25515" lon="4.93782">
        <ele>539.4</ele>
        <time>2013-04-06T07:16:58.000Z</time>
      </trkpt>
      <trkpt lat="47.25524" lon="4.9379">
        <ele>536.3</ele>
        <time>2013-04-06T07:17:09.000Z</time>
      </trkpt>
      <trkpt lat="47.25524" lon="4.9379">
        <ele>536.3</ele>
        <time>2013-04-06T07:17:19.000Z</time>
      </trkpt>
      <trkpt lat="47.25515" lon="4.93785">
        <ele>538.5</ele>
        <time>2013-04-06T07:17:20.000Z</time>
      </trkpt>
      <trkpt lat="47.25515" lon="4.93785">
        <ele>540.4</ele>
        <time>2013-04-06T07:17:58.000Z</time>
      </trkpt>
      <trkpt lat="47.25512" lon="4.93791">
        <ele>541.4</ele>
        <time>2013-04-06T07:18:05.000Z</time>
      </trkpt>
      <trkpt lat="47.25515" lon="4.93793">
        <ele>541.4</ele>
        <time>2013-04-06T07:18:52.000Z</time>
      </trkpt>
      <trkpt lat="47.25516" lon="4.93794">
        <ele>542.1</ele>
        <time>2013-04-06T07:18:53.000Z</time>
      </trkpt>
      <trkpt lat="47.25519" lon="4.93797">
        <ele>544</ele>
        <time>2013-04-06T07:18:57.000Z</time>
      </trkpt>
      <trkpt lat="47.2552" lon="4.93798">
        <ele>544.4</ele>
        <time>2013-04-06T07:18:58.000Z</time>
      </trkpt>
      <trkpt lat="47.25522" lon="4.938">
        <ele>545.8</ele>
        <time>2013-04-06T07:19:00.000Z</time>
      </trkpt>
      <trkpt lat="47.25524" lon="4.93801">
        <ele>546.1</ele>
        <time>2013-04-06T07:19:01.000Z</time>
      </trkpt>
      <trkpt lat="47.25527" lon="4.93804">
        <ele>547.5</ele>
        <time>2013-04-06T07:19:04.000Z</time>
      </trkpt>
      <trkpt lat="47.25528" lon="4.93806">
        <ele>547.9</ele>
        <time>2013-04-06T07:19:05.000Z</time>
      </trkpt>
      <trkpt lat="47.2553" lon="4.93808">
        <ele>548.6</ele>
        <time>2013-04-06T07:19:07.000Z</time>
      </trkpt>
      <trkpt lat="47.25532" lon="4.9381">
        <ele>549</ele>
        <time>2013-04-06T07:19:08.000Z</time>
      </trkpt>
      <trkpt lat="47.25534" lon="4.93813">
        <ele>549.8</ele>
        <time>2013-04-06T07:19:10.000Z</time>
      </trkpt>
      <trkpt lat="47.25535" lon="4.93814">
        <ele>550.2</ele>
        <time>2013-04-06T07:19:11.000Z</time>
      </trkpt>
      <trkpt lat="47.25539" lon="4.93817">
        <ele>551</ele>
        <time>2013-04-06T07:19:14.000Z</time>
      </trkpt>
      <trkpt lat="47.2554" lon="4.93818">
        <ele>551.4</ele>
        <time>2013-04-06T07:19:15.000Z</time>
      </trkpt>
      <trkpt lat="47.25543" lon="4.93821">
        <ele>552.2</ele>
        <time>2013-04-06T07:19:17.000Z</time>
      </trkpt>
      <trkpt lat="47.25544" lon="4.93822">
        <ele>552.7</ele>
        <time>2013-04-06T07:19:18.000Z</time>
      </trkpt>
      <trkpt lat="47.25547" lon="4.93824">
        <ele>553.2</ele>
        <time>2013-04-06T07:19:20.000Z</time>
      </trkpt>
      <trkpt lat="47.25548" lon="4.93825">
        <ele>553.1</ele>
        <time>2013-04-06T07:19:21.000Z</time>
      </trkpt>
      <trkpt lat="47.25551" lon="4.93829">
        <ele>553.7</ele>
        <time>2013-04-06T07:19:23.000Z</time>
      </trkpt>
      <trkpt lat="47.25552" lon="4.9383">
        <ele>553.8</ele>
        <time>2013-04-06T07:19:24.000Z</time>
      </trkpt>
      <trkpt lat="47.25555" lon="4.93833">
        <ele>554.4</ele>
        <time>2013-04-06T07:19:26.000Z</time>
      </trkpt>
      <trkpt lat="47.25556" lon="4.93834">
        <ele>554.6</ele>
        <time>2013-04-06T07:19:27.000Z</time>
      </trkpt>
      <trkpt lat="47.25559" lon="4.93837">
        <ele>555</ele>
        <time>2013-04-06T07:19:29.000Z</time>
      </trkpt>
      <trkpt lat="47.2556" lon="4.93838">
        <ele>555.3</ele>
        <time>2013-04-06T07:19:30.000Z</time>
      </trkpt>
      <trkpt lat="47.25563" lon="4.9384">
        <ele>555.8</ele>
        <time>2013-04-06T07:19:32.000Z</time>
      </trkpt>
      <trkpt lat="47.25565" lon="4.93842">
        <ele>556.1</ele>
        <time>2013-04-06T07:19:33.000Z</time>
      </trkpt>
      <trkpt lat="47.25568" lon="4.93845">
        <ele>556.8</ele>
        <time>2013-04-06T07:19:35.000Z</time>
      </trkpt>
      <trkpt lat="47.2557" lon="4.93847">
        <ele>556.9</ele>
        <time>2013-04-06T07:19:36.000Z</time>
      </trkpt>
      <trkpt lat="47.25572" lon="4.93851">
        <ele>557.4</ele>
        <time>2013-04-06T07:19:38.000Z</time>
      </trkpt>
      <trkpt lat="47.25574" lon="4.93852">
        <ele>557.4</ele>
        <time>2013-04-06T07:19:39.000Z</time>
      </trkpt>
      <trkpt lat="47.25577" lon="4.93856">
        <ele>557.8</ele>
        <time>2013-04-06T07:19:41.000Z</time>
      </trkpt>
      <trkpt lat="47.25578" lon="4.93858">
        <ele>558.2</ele>
        <time>2013-04-06T07:19:42.000Z</time>
      </trkpt>
      <trkpt lat="47.25581" lon="4.93861">
        <ele>558.6</ele>
        <time>2013-04-06T07:19:44.000Z</time>
      </trkpt>
      <trkpt lat="47.25583" lon="4.93863">
        <ele>559</ele>
        <time>2013-04-06T07:19:45.000Z</time>
      </trkpt>
      <trkpt lat="47.25586" lon="4.93866">
        <ele>559.5</ele>
        <time>2013-04-06T07:19:47.000Z</time>
      </trkpt>
      <trkpt lat="47.25587" lon="4.93868">
        <ele>559.7</ele>
        <time>2013-04-06T07:19:48.000Z</time>
      </trkpt>
      <trkpt lat="47.2559" lon="4.9387">
        <ele>560.1</ele>
        <time>2013-04-06T07:19:50.000Z</time>
      </trkpt>
      <trkpt lat="47.25592" lon="4.93872">
        <ele>560.3</ele>
        <time>2013-04-06T07:19:51.000Z</time>
      </trkpt>
      <trkpt lat="47.25594" lon="4.93874">
        <ele>560.4</ele>
        <time>2013-04-06T07:19:53.000Z</time>
      </trkpt>
      <trkpt lat="47.25596" lon="4.93876">
        <ele>560.6</ele>
        <time>2013-04-06T07:19:54.000Z</time>
      </trkpt>
      <trkpt lat="47.25598" lon="4.93879">
        <ele>560.7</ele>
        <time>2013-04-06T07:19:56.000Z</time>
      </trkpt>
      <trkpt lat="47.256" lon="4.9388">
        <ele>560.9</ele>
        <time>2013-04-06T07:19:57.000Z</time>
      </trkpt>
      <trkpt lat="47.25602" lon="4.93882">
        <ele>561.1</ele>
        <time>2013-04-06T07:19:58.000Z</time>
      </trkpt>
      <trkpt lat="47.25613" lon="4.93897">
        <ele>565.6</ele>
        <time>2013-04-06T07:20:06.000Z</time>
      </trkpt>
      <trkpt lat="47.25616" lon="4.93899">
        <ele>565.3</ele>
        <time>2013-04-06T07:20:08.000Z</time>
      </trkpt>
      <trkpt lat="47.25617" lon="4.93902">
        <ele>566.2</ele>
        <time>2013-04-06T07:20:09.000Z</time>
      </trkpt>
      <trkpt lat="47.2562" lon="4.93906">
        <ele>567.1</ele>
        <time>2013-04-06T07:20:11.000Z</time>
      </trkpt>
      <trkpt lat="47.25621" lon="4.93908">
        <ele>566.2</ele>
        <time>2013-04-06T07:20:12.000Z</time>
      </trkpt>
      <trkpt lat="47.25624" lon="4.93911">
        <ele>566.1</ele>
        <time>2013-04-06T07:20:14.000Z</time>
      </trkpt>
      <trkpt lat="47.25625" lon="4.93913">
        <ele>565</ele>
        <time>2013-04-06T07:20:15.000Z</time>
      </trkpt>
      <trkpt lat="47.25627" lon="4.93916">
        <ele>566.3</ele>
        <time>2013-04-06T07:20:17.000Z</time>
      </trkpt>
      <trkpt lat="47.25628" lon="4.93918">
        <ele>565.9</ele>
        <time>2013-04-06T07:20:18.000Z</time>
      </trkpt>
      <trkpt lat="47.2563" lon="4.93921">
        <ele>565.3</ele>
        <time>2013-04-06T07:20:20.000Z</time>
      </trkpt>
      <trkpt lat="47.25632" lon="4.93922">
        <ele>564.7</ele>
        <time>2013-04-06T07:20:21.000Z</time>
      </trkpt>
      <trkpt lat="47.25635" lon="4.93926">
        <ele>562.7</ele>
        <time>2013-04-06T07:20:23.000Z</time>
      </trkpt>
      <trkpt lat="47.25636" lon="4.93927">
        <ele>562</ele>
        <time>2013-04-06T07:20:24.000Z</time>
      </trkpt>
      <trkpt lat="47.25639" lon="4.93931">
        <ele>561.1</ele>
        <time>2013-04-06T07:20:26.000Z</time>
      </trkpt>
      <trkpt lat="47.2564" lon="4.93932">
        <ele>561.1</ele>
        <time>2013-04-06T07:20:27.000Z</time>
      </trkpt>
      <trkpt lat="47.25642" lon="4.93934">
        <ele>560.8</ele>
        <time>2013-04-06T07:20:28.000Z</time>
      </trkpt>
      <trkpt lat="47.25643" lon="4.93937">
        <ele>560.8</ele>
        <time>2013-04-06T07:20:29.000Z</time>
      </trkpt>
      <trkpt lat="47.25647" lon="4.9394">
        <ele>559.6</ele>
        <time>2013-04-06T07:20:31.000Z</time>
      </trkpt>
      <trkpt lat="47.25649" lon="4.93941">
        <ele>559.6</ele>
        <time>2013-04-06T07:20:32.000Z</time>
      </trkpt>
      <trkpt lat="47.2565" lon="4.93943">
        <ele>559.7</ele>
        <time>2013-04-06T07:20:33.000Z</time>
      </trkpt>
      <trkpt lat="47.25652" lon="4.93946">
        <ele>560</ele>
        <time>2013-04-06T07:20:34.000Z</time>
      </trkpt>
      <trkpt lat="47.25656" lon="4.93948">
        <ele>559.7</ele>
        <time>2013-04-06T07:20:36.000Z</time>
      </trkpt>
      <trkpt lat="47.25658" lon="4.93949">
        <ele>559.8</ele>
        <time>2013-04-06T07:20:37.000Z</time>
      </trkpt>
      <trkpt lat="47.25661" lon="4.93952">
        <ele>559.7</ele>
        <time>2013-04-06T07:20:39.000Z</time>
      </trkpt>
      <trkpt lat="47.25662" lon="4.93953">
        <ele>559.9</ele>
        <time>2013-04-06T07:20:40.000Z</time>
      </trkpt>
      <trkpt lat="47.25665" lon="4.93956">
        <ele>560.2</ele>
        <time>2013-04-06T07:20:42.000Z</time>
      </trkpt>
      <trkpt lat="47.25667" lon="4.93958">
        <ele>560.3</ele>
        <time>2013-04-06T07:20:43.000Z</time>
      </trkpt>
      <trkpt lat="47.25669" lon="4.9396">
        <ele>560.6</ele>
        <time>2013-04-06T07:20:45.000Z</time>
      </trkpt>
      <trkpt lat="47.25671" lon="4.93961">
        <ele>560.7</ele>
        <time>2013-04-06T07:20:46.000Z</time>
      </trkpt>
      <trkpt lat="47.25674" lon="4.93964">
        <ele>561.4</ele>
        <time>2013-04-06T07:20:48.000Z</time>
      </trkpt>
      <trkpt lat="47.25676" lon="4.93965">
        <ele>561.1</ele>
        <time>2013-04-06T07:20:49.000Z</time>
      </trkpt>
      <trkpt lat="47.25679" lon="4.93967">
        <ele>560.9</ele>
        <time>2013-04-06T07:20:51.000Z</time>
      </trkpt>
      <trkpt lat="47.2568" lon="4.93968">
        <ele>561.1</ele>
        <time>2013-04-06T07:20:52.000Z</time>
      </trkpt>
      <trkpt lat="47.25682" lon="4.93971">
        <ele>561.3</ele>
        <time>2013-04-06T07:20:54.000Z</time>
      </trkpt>
      <trkpt lat="47.25684" lon="4.93972">
        <ele>561.1</ele>
        <time>2013-04-06T07:20:55.000Z</time>
      </trkpt>
      <trkpt lat="47.25687" lon="4.93974">
        <ele>561.1</ele>
        <time>2013-04-06T07:20:57.000Z</time>
      </trkpt>
      <trkpt lat="47.25688" lon="4.93976">
        <ele>561.7</ele>
        <time>2013-04-06T07:20:58.000Z</time>
      </trkpt>
      <trkpt lat="47.25703" lon="4.93994">
        <ele>560.2</ele>
        <time>2013-04-06T07:21:06.000Z</time>
      </trkpt>
      <trkpt lat="47.25706" lon="4.93997">
        <ele>560.9</ele>
        <time>2013-04-06T07:21:08.000Z</time>
      </trkpt>
      <trkpt lat="47.25708" lon="4.93999">
        <ele>561.2</ele>
        <time>2013-04-06T07:21:09.000Z</time>
      </trkpt>
      <trkpt lat="47.2571" lon="4.94002">
        <ele>560.3</ele>
        <time>2013-04-06T07:21:11.000Z</time>
      </trkpt>
      <trkpt lat="47.25713" lon="4.94003">
        <ele>560.5</ele>
        <time>2013-04-06T07:21:12.000Z</time>
      </trkpt>
      <trkpt lat="47.25716" lon="4.94006">
        <ele>560.2</ele>
        <time>2013-04-06T07:21:15.000Z</time>
      </trkpt>
      <trkpt lat="47.25718" lon="4.94007">
        <ele>560</ele>
        <time>2013-04-06T07:21:16.000Z</time>
      </trkpt>
      <trkpt lat="47.25722" lon="4.94009">
        <ele>559.8</ele>
        <time>2013-04-06T07:21:19.000Z</time>
      </trkpt>
      <trkpt lat="47.25723" lon="4.9401">
        <ele>560</ele>
        <time>2013-04-06T07:21:20.000Z</time>
      </trkpt>
      <trkpt lat="47.25727" lon="4.94014">
        <ele>560.8</ele>
        <time>2013-04-06T07:21:22.000Z</time>
      </trkpt>
      <trkpt lat="47.25728" lon="4.94015">
        <ele>561.2</ele>
        <time>2013-04-06T07:21:23.000Z</time>
      </trkpt>
      <trkpt lat="47.25731" lon="4.94019">
        <ele>562.3</ele>
        <time>2013-04-06T07:21:25.000Z</time>
      </trkpt>
      <trkpt lat="47.25733" lon="4.9402">
        <ele>562.4</ele>
        <time>2013-04-06T07:21:26.000Z</time>
      </trkpt>
      <trkpt lat="47.25736" lon="4.94023">
        <ele>562.7</ele>
        <time>2013-04-06T07:21:28.000Z</time>
      </trkpt>
      <trkpt lat="47.25738" lon="4.94025">
        <ele>562.9</ele>
        <time>2013-04-06T07:21:29.000Z</time>
      </trkpt>
      <trkpt lat="47.25741" lon="4.94029">
        <ele>563.1</ele>
        <time>2013-04-06T07:21:32.000Z</time>
      </trkpt>
      <trkpt lat="47.25742" lon="4.9403">
        <ele>563.5</ele>
        <time>2013-04-06T07:21:33.000Z</time>
      </trkpt>
      <trkpt lat="47.25745" lon="4.94033">
        <ele>564.3</ele>
        <time>2013-04-06T07:21:35.000Z</time>
      </trkpt>
      <trkpt lat="47.25746" lon="4.94035">
        <ele>564.6</ele>
        <time>2013-04-06T07:21:36.000Z</time>
      </trkpt>
      <trkpt lat="47.25749" lon="4.94039">
        <ele>565.1</ele>
        <time>2013-04-06T07:21:39.000Z</time>
      </trkpt>
      <trkpt lat="47.2575" lon="4.9404">
        <ele>565.3</ele>
        <time>2013-04-06T07:21:40.000Z</time>
      </trkpt>
      <trkpt lat="47.25753" lon="4.94043">
        <ele>565.5</ele>
        <time>2013-04-06T07:21:42.000Z</time>
      </trkpt>
      <trkpt lat="47.25755" lon="4.94044">
        <ele>565.6</ele>
        <time>2013-04-06T07:21:43.000Z</time>
      </trkpt>
      <trkpt lat="47.25759" lon="4.94047">
        <ele>565.3</ele>
        <time>2013-04-06T07:21:45.000Z</time>
      </trkpt>
      <trkpt lat="47.2576" lon="4.94049">
        <ele>564.8</ele>
        <time>2013-04-06T07:21:46.000Z</time>
      </trkpt>
      <trkpt lat="47.25763" lon="4.94053">
        <ele>564.5</ele>
        <time>2013-04-06T07:21:48.000Z</time>
      </trkpt>
      <trkpt lat="47.25764" lon="4.94055">
        <ele>564.4</ele>
        <time>2013-04-06T07:21:49.000Z</time>
      </trkpt>
      <trkpt lat="47.25768" lon="4.94058">
        <ele>562.9</ele>
        <time>2013-04-06T07:21:52.000Z</time>
      </trkpt>
      <trkpt lat="47.2577" lon="4.9406">
        <ele>562.3</ele>
        <time>2013-04-06T07:21:53.000Z</time>
      </trkpt>
      <trkpt lat="47.25772" lon="4.94062">
        <ele>561.4</ele>
        <time>2013-04-06T07:21:54.000Z</time>
      </trkpt>
      <trkpt lat="47.25774" lon="4.94063">
        <ele>561</ele>
        <time>2013-04-06T07:21:55.000Z</time>
      </trkpt>
      <trkpt lat="47.25777" lon="4.94066">
        <ele>560.9</ele>
        <time>2013-04-06T07:21:57.000Z</time>
      </trkpt>
      <trkpt lat="47.25778" lon="4.94068">
        <ele>560.9</ele>
        <time>2013-04-06T07:21:58.000Z</time>
      </trkpt>
      <trkpt lat="47.25796" lon="4.94086">
        <ele>561.3</ele>
        <time>2013-04-06T07:22:05.000Z</time>
      </trkpt>
      <trkpt lat="47.25797" lon="4.9409">
        <ele>560.9</ele>
        <time>2013-04-06T07:22:06.000Z</time>
      </trkpt>
      <trkpt lat="47.25799" lon="4.94092">
        <ele>561.1</ele>
        <time>2013-04-06T07:22:07.000Z</time>
      </trkpt>
      <trkpt lat="47.25803" lon="4.94092">
        <ele>562.4</ele>
        <time>2013-04-06T07:22:10.000Z</time>
      </trkpt>
      <trkpt lat="47.25804" lon="4.94094">
        <ele>563</ele>
        <time>2013-04-06T07:22:11.000Z</time>
      </trkpt>
      <trkpt lat="47.25807" lon="4.94097">
        <ele>562.3</ele>
        <time>2013-04-06T07:22:13.000Z</time>
      </trkpt>
      <trkpt lat="47.25808" lon="4.94098">
        <ele>562.3</ele>
        <time>2013-04-06T07:22:14.000Z</time>
      </trkpt>
      <trkpt lat="47.25811" lon="4.94102">
        <ele>561.6</ele>
        <time>2013-04-06T07:22:17.000Z</time>
      </trkpt>
      <trkpt lat="47.25812" lon="4.94103">
        <ele>560.7</ele>
        <time>2013-04-06T07:22:18.000Z</time>
      </trkpt>
      <trkpt lat="47.25815" lon="4.94107">
        <ele>558.4</ele>
        <time>2013-04-06T07:22:21.000Z</time>
      </trkpt>
      <trkpt lat="47.25816" lon="4.94108">
        <ele>556.6</ele>
        <time>2013-04-06T07:22:22.000Z</time>
      </trkpt>
      <trkpt lat="47.25819" lon="4.9411">
        <ele>554.2</ele>
        <time>2013-04-06T07:22:24.000Z</time>
      </trkpt>
      <trkpt lat="47.25821" lon="4.94112">
        <ele>552.8</ele>
        <time>2013-04-06T07:22:25.000Z</time>
      </trkpt>
      <trkpt lat="47.25824" lon="4.94116">
        <ele>551.8</ele>
        <time>2013-04-06T07:22:27.000Z</time>
      </trkpt>
      <trkpt lat="47.25824" lon="4.94118">
        <ele>551.1</ele>
        <time>2013-04-06T07:22:28.000Z</time>
      </trkpt>
      <trkpt lat="47.25827" lon="4.94122">
        <ele>551</ele>
        <time>2013-04-06T07:22:30.000Z</time>
      </trkpt>
      <trkpt lat="47.25829" lon="4.94124">
        <ele>550</ele>
        <time>2013-04-06T07:22:31.000Z</time>
      </trkpt>
      <trkpt lat="47.25832" lon="4.94128">
        <ele>549.4</ele>
        <time>2013-04-06T07:22:33.000Z</time>
      </trkpt>
      <trkpt lat="47.25834" lon="4.9413">
        <ele>549.2</ele>
        <time>2013-04-06T07:22:34.000Z</time>
      </trkpt>
      <trkpt lat="47.25837" lon="4.94132">
        <ele>549.3</ele>
        <time>2013-04-06T07:22:36.000Z</time>
      </trkpt>
      <trkpt lat="47.25838" lon="4.94133">
        <ele>549.3</ele>
        <time>2013-04-06T07:22:37.000Z</time>
      </trkpt>
      <trkpt lat="47.2584" lon="4.94135">
        <ele>549.4</ele>
        <time>2013-04-06T07:22:38.000Z</time>
      </trkpt>
      <trkpt lat="47.25842" lon="4.94137">
        <ele>549.3</ele>
        <time>2013-04-06T07:22:39.000Z</time>
      </trkpt>
      <trkpt lat="47.25844" lon="4.9414">
        <ele>549.3</ele>
        <time>2013-04-06T07:22:40.000Z</time>
      </trkpt>
      <trkpt lat="47.25845" lon="4.94142">
        <ele>549.4</ele>
        <time>2013-04-06T07:22:41.000Z</time>
      </trkpt>
      <trkpt lat="47.25847" lon="4.94145">
        <ele>549.6</ele>
        <time>2013-04-06T07:22:42.000Z</time>
      </trkpt>
      <trkpt lat="47.25849" lon="4.94147">
        <ele>549.5</ele>
        <time>2013-04-06T07:22:43.000Z</time>
      </trkpt>
      <trkpt lat="47.2585" lon="4.9415">
        <ele>549.4</ele>
        <time>2013-04-06T07:22:44.000Z</time>
      </trkpt>
      <trkpt lat="47.25852" lon="4.94152">
        <ele>549.4</ele>
        <time>2013-04-06T07:22:45.000Z</time>
      </trkpt>
      <trkpt lat="47.25853" lon="4.94155">
        <ele>549.1</ele>
        <time>2013-04-06T07:22:46.000Z</time>
      </trkpt>
      <trkpt lat="47.25855" lon="4.94158">
        <ele>549</ele>
        <time>2013-04-06T07:22:47.000Z</time>
      </trkpt>
      <trkpt lat="47.25857" lon="4.94162">
        <ele>548.9</ele>
        <time>2013-04-06T07:22:49.000Z</time>
      </trkpt>
      <trkpt lat="47.25859" lon="4.94165">
        <ele>549.1</ele>
        <time>2013-04-06T07:22:50.000Z</time>
      </trkpt>
      <trkpt lat="47.25861" lon="4.94168">
        <ele>548.8</ele>
        <time>2013-04-06T07:22:52.000Z</time>
      </trkpt>
      <trkpt lat="47.25863" lon="4.9417">
        <ele>548.5</ele>
        <time>2013-04-06T07:22:53.000Z</time>
      </trkpt>
      <trkpt lat="47.25865" lon="4.94172">
        <ele>548.4</ele>
        <time>2013-04-06T07:22:54.000Z</time>
      </trkpt>
      <trkpt lat="47.25866" lon="4.94173">
        <ele>548.2</ele>
        <time>2013-04-06T07:22:55.000Z</time>
      </trkpt>
      <trkpt lat="47.2587" lon="4.94176">
        <ele>547.9</ele>
        <time>2013-04-06T07:22:57.000Z</time>
      </trkpt>
      <trkpt lat="47.25871" lon="4.94177">
        <ele>547.9</ele>
        <time>2013-04-06T07:22:58.000Z</time>
      </trkpt>
      <trkpt lat="47.25885" lon="4.9419">
        <ele>543.8</ele>
        <time>2013-04-06T07:23:05.000Z</time>
      </trkpt>
      <trkpt lat="47.25888" lon="4.94193">
        <ele>542.1</ele>
        <time>2013-04-06T07:23:07.000Z</time>
      </trkpt>
      <trkpt lat="47.2589" lon="4.94194">
        <ele>542.1</ele>
        <time>2013-04-06T07:23:08.000Z</time>
      </trkpt>
      <trkpt lat="47.25892" lon="4.94196">
        <ele>541.4</ele>
        <time>2013-04-06T07:23:09.000Z</time>
      </trkpt>
      <trkpt lat="47.25895" lon="4.94198">
        <ele>542.4</ele>
        <time>2013-04-06T07:23:10.000Z</time>
      </trkpt>
      <trkpt lat="47.25898" lon="4.942">
        <ele>542.8</ele>
        <time>2013-04-06T07:23:12.000Z</time>
      </trkpt>
      <trkpt lat="47.259" lon="4.94202">
        <ele>542.9</ele>
        <time>2013-04-06T07:23:13.000Z</time>
      </trkpt>
      <trkpt lat="47.25903" lon="4.94205">
        <ele>542.9</ele>
        <time>2013-04-06T07:23:15.000Z</time>
      </trkpt>
      <trkpt lat="47.25904" lon="4.94206">
        <ele>542.6</ele>
        <time>2013-04-06T07:23:16.000Z</time>
      </trkpt>
      <trkpt lat="47.25907" lon="4.94208">
        <ele>543.5</ele>
        <time>2013-04-06T07:23:18.000Z</time>
      </trkpt>
      <trkpt lat="47.25908" lon="4.9421">
        <ele>544.5</ele>
        <time>2013-04-06T07:23:19.000Z</time>
      </trkpt>
      <trkpt lat="47.2591" lon="4.94213">
        <ele>545.8</ele>
        <time>2013-04-06T07:23:21.000Z</time>
      </trkpt>
      <trkpt lat="47.25912" lon="4.94215">
        <ele>545.8</ele>
        <time>2013-04-06T07:23:22.000Z</time>
      </trkpt>
      <trkpt lat="47.25914" lon="4.94218">
        <ele>546.1</ele>
        <time>2013-04-06T07:23:24.000Z</time>
      </trkpt>
      <trkpt lat="47.25916" lon="4.94219">
        <ele>545.8</ele>
        <time>2013-04-06T07:23:25.000Z</time>
      </trkpt>
      <trkpt lat="47.25919" lon="4.94222">
        <ele>545</ele>
        <time>2013-04-06T07:23:27.000Z</time>
      </trkpt>
      <trkpt lat="47.2592" lon="4.94224">
        <ele>544.2</ele>
        <time>2013-04-06T07:23:28.000Z</time>
      </trkpt>
      <trkpt lat="47.25923" lon="4.94228">
        <ele>544.3</ele>
        <time>2013-04-06T07:23:30.000Z</time>
      </trkpt>
      <trkpt lat="47.25925" lon="4.9423">
        <ele>543.9</ele>
        <time>2013-04-06T07:23:31.000Z</time>
      </trkpt>
      <trkpt lat="47.25927" lon="4.94232">
        <ele>543.3</ele>
        <time>2013-04-06T07:23:32.000Z</time>
      </trkpt>
      <trkpt lat="47.25929" lon="4.94233">
        <ele>543.3</ele>
        <time>2013-04-06T07:23:33.000Z</time>
      </trkpt>
      <trkpt lat="47.25931" lon="4.94235">
        <ele>543.2</ele>
        <time>2013-04-06T07:23:34.000Z</time>
      </trkpt>
      <trkpt lat="47.25933" lon="4.94237">
        <ele>542.8</ele>
        <time>2013-04-06T07:23:35.000Z</time>
      </trkpt>
      <trkpt lat="47.25937" lon="4.94242">
        <ele>542.6</ele>
        <time>2013-04-06T07:23:37.000Z</time>
      </trkpt>
      <trkpt lat="47.25938" lon="4.94244">
        <ele>542.4</ele>
        <time>2013-04-06T07:23:38.000Z</time>
      </trkpt>
      <trkpt lat="47.25941" lon="4.94249">
        <ele>541.6</ele>
        <time>2013-04-06T07:23:40.000Z</time>
      </trkpt>
      <trkpt lat="47.25943" lon="4.94251">
        <ele>541.3</ele>
        <time>2013-04-06T07:23:41.000Z</time>
      </trkpt>
      <trkpt lat="47.25945" lon="4.94254">
        <ele>541.5</ele>
        <time>2013-04-06T07:23:43.000Z</time>
      </trkpt>
      <trkpt lat="47.25946" lon="4.94256">
        <ele>541.6</ele>
        <time>2013-04-06T07:23:44.000Z</time>
      </trkpt>
      <trkpt lat="47.25948" lon="4.94261">
        <ele>541.6</ele>
        <time>2013-04-06T07:23:46.000Z</time>
      </trkpt>
      <trkpt lat="47.25949" lon="4.94263">
        <ele>541.5</ele>
        <time>2013-04-06T07:23:47.000Z</time>
      </trkpt>
      <trkpt lat="47.25951" lon="4.94267">
        <ele>541.2</ele>
        <time>2013-04-06T07:23:49.000Z</time>
      </trkpt>
      <trkpt lat="47.25953" lon="4.94269">
        <ele>541.2</ele>
        <time>2013-04-06T07:23:50.000Z</time>
      </trkpt>
      <trkpt lat="47.25954" lon="4.94272">
        <ele>541.2</ele>
        <time>2013-04-06T07:23:51.000Z</time>
      </trkpt>
      <trkpt lat="47.25955" lon="4.94275">
        <ele>541.2</ele>
        <time>2013-04-06T07:23:52.000Z</time>
      </trkpt>
      <trkpt lat="47.25957" lon="4.94278">
        <ele>541.4</ele>
        <time>2013-04-06T07:23:53.000Z</time>
      </trkpt>
      <trkpt lat="47.25958" lon="4.9428">
        <ele>541.2</ele>
        <time>2013-04-06T07:23:54.000Z</time>
      </trkpt>
      <trkpt lat="47.25961" lon="4.94285">
        <ele>541.3</ele>
        <time>2013-04-06T07:23:56.000Z</time>
      </trkpt>
      <trkpt lat="47.25962" lon="4.94288">
        <ele>541.3</ele>
        <time>2013-04-06T07:23:57.000Z</time>
      </trkpt>
      <trkpt lat="47.25963" lon="4.94291">
        <ele>541.4</ele>
        <time>2013-04-06T07:23:58.000Z</time>
      </trkpt>
      <trkpt lat="47.25972" lon="4.94314">
        <ele>537.2</ele>
        <time>2013-04-06T07:24:04.000Z</time>
      </trkpt>
      <trkpt lat="47.25974" lon="4.94318">
        <ele>538.8</ele>
        <time>2013-04-06T07:24:07.000Z</time>
      </trkpt>
      <trkpt lat="47.25976" lon="4.9432">
        <ele>541.4</ele>
        <time>2013-04-06T07:24:08.000Z</time>
      </trkpt>
      <trkpt lat="47.2598" lon="4.94322">
        <ele>543.6</ele>
        <time>2013-04-06T07:24:11.000Z</time>
      </trkpt>
      <trkpt lat="47.25981" lon="4.94324">
        <ele>543.6</ele>
        <time>2013-04-06T07:24:12.000Z</time>
      </trkpt>
      <trkpt lat="47.25984" lon="4.94326">
        <ele>543.3</ele>
        <time>2013-04-06T07:24:14.000Z</time>
      </trkpt>
      <trkpt lat="47.25985" lon="4.94328">
        <ele>543.9</ele>
        <time>2013-04-06T07:24:15.000Z</time>
      </trkpt>
      <trkpt lat="47.25986" lon="4.94331">
        <ele>544.8</ele>
        <time>2013-04-06T07:24:17.000Z</time>
      </trkpt>
      <trkpt lat="47.25988" lon="4.94333">
        <ele>544.7</ele>
        <time>2013-04-06T07:24:18.000Z</time>
      </trkpt>
      <trkpt lat="47.2599" lon="4.94337">
        <ele>544.5</ele>
        <time>2013-04-06T07:24:20.000Z</time>
      </trkpt>
      <trkpt lat="47.25992" lon="4.94339">
        <ele>544.6</ele>
        <time>2013-04-06T07:24:21.000Z</time>
      </trkpt>
      <trkpt lat="47.25993" lon="4.94342">
        <ele>544.3</ele>
        <time>2013-04-06T07:24:22.000Z</time>
      </trkpt>
      <trkpt lat="47.25994" lon="4.94345">
        <ele>544.4</ele>
        <time>2013-04-06T07:24:23.000Z</time>
      </trkpt>
      <trkpt lat="47.25997" lon="4.94349">
        <ele>544.6</ele>
        <time>2013-04-06T07:24:25.000Z</time>
      </trkpt>
      <trkpt lat="47.25999" lon="4.94351">
        <ele>544.3</ele>
        <time>2013-04-06T07:24:26.000Z</time>
      </trkpt>
      <trkpt lat="47.26001" lon="4.94355">
        <ele>543.1</ele>
        <time>2013-04-06T07:24:28.000Z</time>
      </trkpt>
      <trkpt lat="47.26003" lon="4.94358">
        <ele>544</ele>
        <time>2013-04-06T07:24:29.000Z</time>
      </trkpt>
      <trkpt lat="47.26005" lon="4.94361">
        <ele>543.4</ele>
        <time>2013-04-06T07:24:30.000Z</time>
      </trkpt>
      <trkpt lat="47.26007" lon="4.94363">
        <ele>543.2</ele>
        <time>2013-04-06T07:24:31.000Z</time>
      </trkpt>
      <trkpt lat="47.2601" lon="4.94367">
        <ele>542.2</ele>
        <time>2013-04-06T07:24:33.000Z</time>
      </trkpt>
      <trkpt lat="47.26011" lon="4.94368">
        <ele>541.9</ele>
        <time>2013-04-06T07:24:34.000Z</time>
      </trkpt>
      <trkpt lat="47.26014" lon="4.94372">
        <ele>541.1</ele>
        <time>2013-04-06T07:24:36.000Z</time>
      </trkpt>
      <trkpt lat="47.26016" lon="4.94374">
        <ele>540.5</ele>
        <time>2013-04-06T07:24:37.000Z</time>
      </trkpt>
      <trkpt lat="47.26018" lon="4.94376">
        <ele>540.2</ele>
        <time>2013-04-06T07:24:38.000Z</time>
      </trkpt>
      <trkpt lat="47.26019" lon="4.94378">
        <ele>540</ele>
        <time>2013-04-06T07:24:39.000Z</time>
      </trkpt>
      <trkpt lat="47.26023" lon="4.94382">
        <ele>539.4</ele>
        <time>2013-04-06T07:24:41.000Z</time>
      </trkpt>
      <trkpt lat="47.26025" lon="4.94384">
        <ele>539</ele>
        <time>2013-04-06T07:24:42.000Z</time>
      </trkpt>
      <trkpt lat="47.26028" lon="4.94388">
        <ele>538.6</ele>
        <time>2013-04-06T07:24:44.000Z</time>
      </trkpt>
      <trkpt lat="47.26029" lon="4.9439">
        <ele>538.3</ele>
        <time>2013-04-06T07:24:45.000Z</time>
      </trkpt>
      <trkpt lat="47.26031" lon="4.94392">
        <ele>537.9</ele>
        <time>2013-04-06T07:24:46.000Z</time>
      </trkpt>
      <trkpt lat="47.26033" lon="4.94395">
        <ele>537.6</ele>
        <time>2013-04-06T07:24:47.000Z</time>
      </trkpt>
      <trkpt lat="47.26036" lon="4.94398">
        <ele>537.4</ele>
        <time>2013-04-06T07:24:48.000Z</time>
      </trkpt>
      <trkpt lat="47.26038" lon="4.94401">
        <ele>537.3</ele>
        <time>2013-04-06T07:24:49.000Z</time>
      </trkpt>
      <trkpt lat="47.26039" lon="4.94403">
        <ele>537.2</ele>
        <time>2013-04-06T07:24:50.000Z</time>
      </trkpt>
      <trkpt lat="47.26041" lon="4.94406">
        <ele>536.9</ele>
        <time>2013-04-06T07:24:51.000Z</time>
      </trkpt>
      <trkpt lat="47.26042" lon="4.94408">
        <ele>536.8</ele>
        <time>2013-04-06T07:24:52.000Z</time>
      </trkpt>
      <trkpt lat="47.26044" lon="4.94411">
        <ele>536.5</ele>
        <time>2013-04-06T07:24:53.000Z</time>
      </trkpt>
      <trkpt lat="47.26046" lon="4.94413">
        <ele>536.4</ele>
        <time>2013-04-06T07:24:54.000Z</time>
      </trkpt>
      <trkpt lat="47.26048" lon="4.94416">
        <ele>536.1</ele>
        <time>2013-04-06T07:24:55.000Z</time>
      </trkpt>
      <trkpt lat="47.26049" lon="4.94418">
        <ele>535.8</ele>
        <time>2013-04-06T07:24:56.000Z</time>
      </trkpt>
      <trkpt lat="47.26051" lon="4.9442">
        <ele>535.5</ele>
        <time>2013-04-06T07:24:57.000Z</time>
      </trkpt>
      <trkpt lat="47.26052" lon="4.94422">
        <ele>535.4</ele>
        <time>2013-04-06T07:24:58.000Z</time>
      </trkpt>
      <trkpt lat="47.26075" lon="4.94446">
        <ele>536.5</ele>
        <time>2013-04-06T07:25:08.000Z</time>
      </trkpt>
      <trkpt lat="47.26078" lon="4.94449">
        <ele>536.5</ele>
        <time>2013-04-06T07:25:10.000Z</time>
      </trkpt>
      <trkpt lat="47.26079" lon="4.94451">
        <ele>535.4</ele>
        <time>2013-04-06T07:25:11.000Z</time>
      </trkpt>
      <trkpt lat="47.2608" lon="4.94454">
        <ele>536.4</ele>
        <time>2013-04-06T07:25:13.000Z</time>
      </trkpt>
      <trkpt lat="47.2608" lon="4.94457">
        <ele>536.5</ele>
        <time>2013-04-06T07:25:14.000Z</time>
      </trkpt>
      <trkpt lat="47.26081" lon="4.94462">
        <ele>539.2</ele>
        <time>2013-04-06T07:25:16.000Z</time>
      </trkpt>
      <trkpt lat="47.26082" lon="4.94466">
        <ele>540.6</ele>
        <time>2013-04-06T07:25:17.000Z</time>
      </trkpt>
      <trkpt lat="47.26083" lon="4.9447">
        <ele>542.2</ele>
        <time>2013-04-06T07:25:18.000Z</time>
      </trkpt>
      <trkpt lat="47.26085" lon="4.94474">
        <ele>543.1</ele>
        <time>2013-04-06T07:25:19.000Z</time>
      </trkpt>
      <trkpt lat="47.26086" lon="4.94477">
        <ele>543.3</ele>
        <time>2013-04-06T07:25:20.000Z</time>
      </trkpt>
      <trkpt lat="47.26087" lon="4.9448">
        <ele>543.7</ele>
        <time>2013-04-06T07:25:21.000Z</time>
      </trkpt>
      <trkpt lat="47.26088" lon="4.94485">
        <ele>545.6</ele>
        <time>2013-04-06T07:25:23.000Z</time>
      </trkpt>
      <trkpt lat="47.26089" lon="4.94488">
        <ele>546.1</ele>
        <time>2013-04-06T07:25:24.000Z</time>
      </trkpt>
      <trkpt lat="47.2609" lon="4.94491">
        <ele>545.3</ele>
        <time>2013-04-06T07:25:25.000Z</time>
      </trkpt>
      <trkpt lat="47.26091" lon="4.94495">
        <ele>544.5</ele>
        <time>2013-04-06T07:25:26.000Z</time>
      </trkpt>
      <trkpt lat="47.26093" lon="4.94499">
        <ele>544.6</ele>
        <time>2013-04-06T07:25:27.000Z</time>
      </trkpt>
      <trkpt lat="47.26094" lon="4.94503">
        <ele>543.8</ele>
        <time>2013-04-06T07:25:28.000Z</time>
      </trkpt>
      <trkpt lat="47.26094" lon="4.94507">
        <ele>544.6</ele>
        <time>2013-04-06T07:25:29.000Z</time>
      </trkpt>
      <trkpt lat="47.26095" lon="4.94511">
        <ele>544.4</ele>
        <time>2013-04-06T07:25:30.000Z</time>
      </trkpt>
      <trkpt lat="47.26095" lon="4.94514">
        <ele>542.2</ele>
        <time>2013-04-06T07:25:31.000Z</time>
      </trkpt>
      <trkpt lat="47.26095" lon="4.94518">
        <ele>541.7</ele>
        <time>2013-04-06T07:25:32.000Z</time>
      </trkpt>
      <trkpt lat="47.26096" lon="4.94524">
        <ele>539.8</ele>
        <time>2013-04-06T07:25:34.000Z</time>
      </trkpt>
      <trkpt lat="47.26097" lon="4.94527">
        <ele>539</ele>
        <time>2013-04-06T07:25:35.000Z</time>
      </trkpt>
      <trkpt lat="47.26098" lon="4.9453">
        <ele>538.8</ele>
        <time>2013-04-06T07:25:36.000Z</time>
      </trkpt>
      <trkpt lat="47.26098" lon="4.94533">
        <ele>538.2</ele>
        <time>2013-04-06T07:25:37.000Z</time>
      </trkpt>
      <trkpt lat="47.26099" lon="4.94537">
        <ele>538</ele>
        <time>2013-04-06T07:25:38.000Z</time>
      </trkpt>
      <trkpt lat="47.261" lon="4.94539">
        <ele>537.9</ele>
        <time>2013-04-06T07:25:39.000Z</time>
      </trkpt>
      <trkpt lat="47.26102" lon="4.94545">
        <ele>537.6</ele>
        <time>2013-04-06T07:25:41.000Z</time>
      </trkpt>
      <trkpt lat="47.26102" lon="4.94547">
        <ele>537.5</ele>
        <time>2013-04-06T07:25:42.000Z</time>
      </trkpt>
      <trkpt lat="47.26104" lon="4.94552">
        <ele>537.5</ele>
        <time>2013-04-06T07:25:44.000Z</time>
      </trkpt>
      <trkpt lat="47.26105" lon="4.94555">
        <ele>537.3</ele>
        <time>2013-04-06T07:25:45.000Z</time>
      </trkpt>
      <trkpt lat="47.26107" lon="4.94561">
        <ele>537.2</ele>
        <time>2013-04-06T07:25:47.000Z</time>
      </trkpt>
      <trkpt lat="47.26107" lon="4.94564">
        <ele>537.1</ele>
        <time>2013-04-06T07:25:48.000Z</time>
      </trkpt>
      <trkpt lat="47.26109" lon="4.9457">
        <ele>536.6</ele>
        <time>2013-04-06T07:25:50.000Z</time>
      </trkpt>
      <trkpt lat="47.26109" lon="4.94573">
        <ele>536.3</ele>
        <time>2013-04-06T07:25:51.000Z</time>
      </trkpt>
      <trkpt lat="47.26111" lon="4.94579">
        <ele>536.2</ele>
        <time>2013-04-06T07:25:53.000Z</time>
      </trkpt>
      <trkpt lat="47.26111" lon="4.94582">
        <ele>536.3</ele>
        <time>2013-04-06T07:25:54.000Z</time>
      </trkpt>
      <trkpt lat="47.26113" lon="4.94587">
        <ele>535.4</ele>
        <time>2013-04-06T07:25:56.000Z</time>
      </trkpt>
      <trkpt lat="47.26114" lon="4.9459">
        <ele>535.1</ele>
        <time>2013-04-06T07:25:57.000Z</time>
      </trkpt>
      <trkpt lat="47.26114" lon="4.94592">
        <ele>535</ele>
        <time>2013-04-06T07:25:58.000Z</time>
      </trkpt>
      <trkpt lat="47.26119" lon="4.94622">
        <ele>520</ele>
        <time>2013-04-06T07:26:10.000Z</time>
      </trkpt>
      <trkpt lat="47.2612" lon="4.94624">
        <ele>520.3</ele>
        <time>2013-04-06T07:26:52.000Z</time>
      </trkpt>
      <trkpt lat="47.26121" lon="4.94636">
        <ele>517.5</ele>
        <time>2013-04-06T07:26:53.000Z</time>
      </trkpt>
      <trkpt lat="47.26122" lon="4.9464">
        <ele>517.8</ele>
        <time>2013-04-06T07:26:58.000Z</time>
      </trkpt>
      <trkpt lat="47.26121" lon="4.94658">
        <ele>527.5</ele>
        <time>2013-04-06T07:27:06.000Z</time>
      </trkpt>
      <trkpt lat="47.2612" lon="4.94664">
        <ele>529.6</ele>
        <time>2013-04-06T07:27:09.000Z</time>
      </trkpt>
      <trkpt lat="47.2612" lon="4.94665">
        <ele>530.9</ele>
        <time>2013-04-06T07:27:10.000Z</time>
      </trkpt>
      <trkpt lat="47.26118" lon="4.9467">
        <ele>533.9</ele>
        <time>2013-04-06T07:27:13.000Z</time>
      </trkpt>
      <trkpt lat="47.26118" lon="4.94671">
        <ele>534.6</ele>
        <time>2013-04-06T07:27:14.000Z</time>
      </trkpt>
      <trkpt lat="47.26118" lon="4.94678">
        <ele>536.7</ele>
        <time>2013-04-06T07:27:17.000Z</time>
      </trkpt>
      <trkpt lat="47.26117" lon="4.94681">
        <ele>536.8</ele>
        <time>2013-04-06T07:27:18.000Z</time>
      </trkpt>
      <trkpt lat="47.26117" lon="4.94685">
        <ele>536.6</ele>
        <time>2013-04-06T07:27:20.000Z</time>
      </trkpt>
      <trkpt lat="47.26116" lon="4.94688">
        <ele>536.6</ele>
        <time>2013-04-06T07:27:21.000Z</time>
      </trkpt>
      <trkpt lat="47.26115" lon="4.94693">
        <ele>535.7</ele>
        <time>2013-04-06T07:27:23.000Z</time>
      </trkpt>
      <trkpt lat="47.26114" lon="4.94696">
        <ele>535.2</ele>
        <time>2013-04-06T07:27:24.000Z</time>
      </trkpt>
      <trkpt lat="47.26113" lon="4.947">
        <ele>535.1</ele>
        <time>2013-04-06T07:27:26.000Z</time>
      </trkpt>
      <trkpt lat="47.26112" lon="4.94703">
        <ele>535.3</ele>
        <time>2013-04-06T07:27:27.000Z</time>
      </trkpt>
      <trkpt lat="47.26111" lon="4.94707">
        <ele>534.7</ele>
        <time>2013-04-06T07:27:29.000Z</time>
      </trkpt>
      <trkpt lat="47.26111" lon="4.94709">
        <ele>534.8</ele>
        <time>2013-04-06T07:27:30.000Z</time>
      </trkpt>
      <trkpt lat="47.2611" lon="4.94715">
        <ele>532.6</ele>
        <time>2013-04-06T07:27:32.000Z</time>
      </trkpt>
      <trkpt lat="47.26109" lon="4.94716">
        <ele>532.9</ele>
        <time>2013-04-06T07:27:33.000Z</time>
      </trkpt>
      <trkpt lat="47.26109" lon="4.94722">
        <ele>531.5</ele>
        <time>2013-04-06T07:27:36.000Z</time>
      </trkpt>
      <trkpt lat="47.26109" lon="4.94724">
        <ele>530.7</ele>
        <time>2013-04-06T07:27:37.000Z</time>
      </trkpt>
      <trkpt lat="47.26107" lon="4.94729">
        <ele>530.1</ele>
        <time>2013-04-06T07:27:40.000Z</time>
      </trkpt>
      <trkpt lat="47.26107" lon="4.9473">
        <ele>530.1</ele>
        <time>2013-04-06T07:27:41.000Z</time>
      </trkpt>
      <trkpt lat="47.26105" lon="4.94734">
        <ele>529.9</ele>
        <time>2013-04-06T07:27:43.000Z</time>
      </trkpt>
      <trkpt lat="47.26104" lon="4.94736">
        <ele>529.8</ele>
        <time>2013-04-06T07:27:44.000Z</time>
      </trkpt>
      <trkpt lat="47.26103" lon="4.94742">
        <ele>528.9</ele>
        <time>2013-04-06T07:27:47.000Z</time>
      </trkpt>
      <trkpt lat="47.26102" lon="4.94744">
        <ele>528.6</ele>
        <time>2013-04-06T07:27:48.000Z</time>
      </trkpt>
      <trkpt lat="47.26102" lon="4.9475">
        <ele>527.9</ele>
        <time>2013-04-06T07:27:51.000Z</time>
      </trkpt>
      <trkpt lat="47.26101" lon="4.94752">
        <ele>527.7</ele>
        <time>2013-04-06T07:27:52.000Z</time>
      </trkpt>
      <trkpt lat="47.26101" lon="4.94759">
        <ele>527.5</ele>
        <time>2013-04-06T07:27:55.000Z</time>
      </trkpt>
      <trkpt lat="47.26101" lon="4.94761">
        <ele>527.2</ele>
        <time>2013-04-06T07:27:56.000Z</time>
      </trkpt>
      <trkpt lat="47.261" lon="4.94765">
        <ele>526.8</ele>
        <time>2013-04-06T07:27:58.000Z</time>
      </trkpt>
      <trkpt lat="47.26099" lon="4.94785">
        <ele>525.3</ele>
        <time>2013-04-06T07:28:05.000Z</time>
      </trkpt>
      <trkpt lat="47.26099" lon="4.94791">
        <ele>527.9</ele>
        <time>2013-04-06T07:28:08.000Z</time>
      </trkpt>
      <trkpt lat="47.26098" lon="4.94793">
        <ele>528.1</ele>
        <time>2013-04-06T07:28:09.000Z</time>
      </trkpt>
      <trkpt lat="47.26097" lon="4.94798">
        <ele>527.9</ele>
        <time>2013-04-06T07:28:11.000Z</time>
      </trkpt>
      <trkpt lat="47.26097" lon="4.948">
        <ele>528.1</ele>
        <time>2013-04-06T07:28:12.000Z</time>
      </trkpt>
      <trkpt lat="47.26096" lon="4.94804">
        <ele>529.2</ele>
        <time>2013-04-06T07:28:15.000Z</time>
      </trkpt>
      <trkpt lat="47.26096" lon="4.94806">
        <ele>528.9</ele>
        <time>2013-04-06T07:28:16.000Z</time>
      </trkpt>
      <trkpt lat="47.26095" lon="4.94811">
        <ele>528.3</ele>
        <time>2013-04-06T07:28:18.000Z</time>
      </trkpt>
      <trkpt lat="47.26095" lon="4.94813">
        <ele>527.9</ele>
        <time>2013-04-06T07:28:19.000Z</time>
      </trkpt>
      <trkpt lat="47.26095" lon="4.94818">
        <ele>528.3</ele>
        <time>2013-04-06T07:28:21.000Z</time>
      </trkpt>
      <trkpt lat="47.26096" lon="4.9482">
        <ele>528.9</ele>
        <time>2013-04-06T07:28:22.000Z</time>
      </trkpt>
      <trkpt lat="47.26095" lon="4.94825">
        <ele>529.2</ele>
        <time>2013-04-06T07:28:24.000Z</time>
      </trkpt>
      <trkpt lat="47.26095" lon="4.94827">
        <ele>529.3</ele>
        <time>2013-04-06T07:28:25.000Z</time>
      </trkpt>
      <trkpt lat="47.26093" lon="4.94831">
        <ele>529.6</ele>
        <time>2013-04-06T07:28:27.000Z</time>
      </trkpt>
      <trkpt lat="47.26093" lon="4.94833">
        <ele>529.9</ele>
        <time>2013-04-06T07:28:28.000Z</time>
      </trkpt>
      <trkpt lat="47.26092" lon="4.94838">
        <ele>528.4</ele>
        <time>2013-04-06T07:28:30.000Z</time>
      </trkpt>
      <trkpt lat="47.26092" lon="4.94841">
        <ele>527.7</ele>
        <time>2013-04-06T07:28:31.000Z</time>
      </trkpt>
      <trkpt lat="47.26091" lon="4.94847">
        <ele>525</ele>
        <time>2013-04-06T07:28:33.000Z</time>
      </trkpt>
      <trkpt lat="47.26089" lon="4.94852">
        <ele>524.1</ele>
        <time>2013-04-06T07:28:34.000Z</time>
      </trkpt>
      <trkpt lat="47.26086" lon="4.94853">
        <ele>522.6</ele>
        <time>2013-04-06T07:28:35.000Z</time>
      </trkpt>
      <trkpt lat="47.26084" lon="4.94853">
        <ele>521.4</ele>
        <time>2013-04-06T07:28:36.000Z</time>
      </trkpt>
      <trkpt lat="47.2608" lon="4.94853">
        <ele>520</ele>
        <time>2013-04-06T07:28:39.000Z</time>
      </trkpt>
      <trkpt lat="47.2608" lon="4.94853">
        <ele>519.8</ele>
        <time>2013-04-06T07:28:40.000Z</time>
      </trkpt>
      <trkpt lat="47.26076" lon="4.9485">
        <ele>517.4</ele>
        <time>2013-04-06T07:28:54.000Z</time>
      </trkpt>
      <trkpt lat="47.26076" lon="4.94849">
        <ele>517.3</ele>
        <time>2013-04-06T07:28:55.000Z</time>
      </trkpt>
      <trkpt lat="47.26073" lon="4.94845">
        <ele>516.3</ele>
        <time>2013-04-06T07:28:58.000Z</time>
      </trkpt>
      <trkpt lat="47.26069" lon="4.9483">
        <ele>514</ele>
        <time>2013-04-06T07:29:05.000Z</time>
      </trkpt>
      <trkpt lat="47.26068" lon="4.94825">
        <ele>514.6</ele>
        <time>2013-04-06T07:29:08.000Z</time>
      </trkpt>
      <trkpt lat="47.26068" lon="4.94823">
        <ele>514.5</ele>
        <time>2013-04-06T07:29:09.000Z</time>
      </trkpt>
      <trkpt lat="47.26067" lon="4.94817">
        <ele>514.8</ele>
        <time>2013-04-06T07:29:12.000Z</time>
      </trkpt>
      <trkpt lat="47.26066" lon="4.94815">
        <ele>514.7</ele>
        <time>2013-04-06T07:29:13.000Z</time>
      </trkpt>
      <trkpt lat="47.26063" lon="4.94811">
        <ele>513.5</ele>
        <time>2013-04-06T07:29:20.000Z</time>
      </trkpt>
      <trkpt lat="47.26062" lon="4.94811">
        <ele>513.3</ele>
        <time>2013-04-06T07:29:21.000Z</time>
      </trkpt>
      <trkpt lat="47.2606" lon="4.94806">
        <ele>512.2</ele>
        <time>2013-04-06T07:29:27.000Z</time>
      </trkpt>
      <trkpt lat="47.2606" lon="4.94805">
        <ele>512.5</ele>
        <time>2013-04-06T07:29:28.000Z</time>
      </trkpt>
      <trkpt lat="47.26057" lon="4.94803">
        <ele>512</ele>
        <time>2013-04-06T07:29:30.000Z</time>
      </trkpt>
      <trkpt lat="47.26056" lon="4.94802">
        <ele>511.9</ele>
        <time>2013-04-06T07:29:31.000Z</time>
      </trkpt>
      <trkpt lat="47.26053" lon="4.94796">
        <ele>511.8</ele>
        <time>2013-04-06T07:29:34.000Z</time>
      </trkpt>
      <trkpt lat="47.26053" lon="4.94794">
        <ele>512</ele>
        <time>2013-04-06T07:29:35.000Z</time>
      </trkpt>
      <trkpt lat="47.2605" lon="4.94791">
        <ele>512.5</ele>
        <time>2013-04-06T07:29:37.000Z</time>
      </trkpt>
      <trkpt lat="47.26048" lon="4.9479">
        <ele>512.7</ele>
        <time>2013-04-06T07:29:38.000Z</time>
      </trkpt>
      <trkpt lat="47.26045" lon="4.94788">
        <ele>513.1</ele>
        <time>2013-04-06T07:29:41.000Z</time>
      </trkpt>
      <trkpt lat="47.26044" lon="4.94785">
        <ele>513.3</ele>
        <time>2013-04-06T07:29:42.000Z</time>
      </trkpt>
      <trkpt lat="47.26041" lon="4.94781">
        <ele>513.9</ele>
        <time>2013-04-06T07:29:50.000Z</time>
      </trkpt>
      <trkpt lat="47.26038" lon="4.94782">
        <ele>514.8</ele>
        <time>2013-04-06T07:29:51.000Z</time>
      </trkpt>
      <trkpt lat="47.26035" lon="4.94784">
        <ele>515.7</ele>
        <time>2013-04-06T07:29:54.000Z</time>
      </trkpt>
      <trkpt lat="47.26034" lon="4.94785">
        <ele>516</ele>
        <time>2013-04-06T07:29:55.000Z</time>
      </trkpt>
      <trkpt lat="47.26031" lon="4.94788">
        <ele>516.2</ele>
        <time>2013-04-06T07:29:57.000Z</time>
      </trkpt>
      <trkpt lat="47.26029" lon="4.94789">
        <ele>516.4</ele>
        <time>2013-04-06T07:29:58.000Z</time>
      </trkpt>
      <trkpt lat="47.2602" lon="4.94809">
        <ele>519.8</ele>
        <time>2013-04-06T07:30:08.000Z</time>
      </trkpt>
      <trkpt lat="47.26018" lon="4.94815">
        <ele>519.9</ele>
        <time>2013-04-06T07:30:10.000Z</time>
      </trkpt>
      <trkpt lat="47.26018" lon="4.94821">
        <ele>517.9</ele>
        <time>2013-04-06T07:30:11.000Z</time>
      </trkpt>
      <trkpt lat="47.26018" lon="4.94826">
        <ele>517.6</ele>
        <time>2013-04-06T07:30:15.000Z</time>
      </trkpt>
      <trkpt lat="47.26018" lon="4.94828">
        <ele>518</ele>
        <time>2013-04-06T07:30:16.000Z</time>
      </trkpt>
      <trkpt lat="47.26018" lon="4.94833">
        <ele>520.1</ele>
        <time>2013-04-06T07:30:20.000Z</time>
      </trkpt>
      <trkpt lat="47.26017" lon="4.94835">
        <ele>520.3</ele>
        <time>2013-04-06T07:30:21.000Z</time>
      </trkpt>
      <trkpt lat="47.26014" lon="4.94837">
        <ele>521</ele>
        <time>2013-04-06T07:30:24.000Z</time>
      </trkpt>
      <trkpt lat="47.26013" lon="4.94838">
        <ele>521.6</ele>
        <time>2013-04-06T07:30:25.000Z</time>
      </trkpt>
      <trkpt lat="47.26011" lon="4.94842">
        <ele>520.9</ele>
        <time>2013-04-06T07:30:28.000Z</time>
      </trkpt>
      <trkpt lat="47.2601" lon="4.94843">
        <ele>520.9</ele>
        <time>2013-04-06T07:30:29.000Z</time>
      </trkpt>
      <trkpt lat="47.26007" lon="4.94846">
        <ele>519.8</ele>
        <time>2013-04-06T07:30:32.000Z</time>
      </trkpt>
      <trkpt lat="47.26005" lon="4.94847">
        <ele>520.1</ele>
        <time>2013-04-06T07:30:33.000Z</time>
      </trkpt>
      <trkpt lat="47.26001" lon="4.9485">
        <ele>521.5</ele>
        <time>2013-04-06T07:30:36.000Z</time>
      </trkpt>
      <trkpt lat="47.26" lon="4.94851">
        <ele>522.1</ele>
        <time>2013-04-06T07:30:37.000Z</time>
      </trkpt>
      <trkpt lat="47.25997" lon="4.94855">
        <ele>522.2</ele>
        <time>2013-04-06T07:30:39.000Z</time>
      </trkpt>
      <trkpt lat="47.25996" lon="4.94857">
        <ele>522.6</ele>
        <time>2013-04-06T07:30:40.000Z</time>
      </trkpt>
      <trkpt lat="47.25994" lon="4.94861">
        <ele>523</ele>
        <time>2013-04-06T07:30:42.000Z</time>
      </trkpt>
      <trkpt lat="47.25992" lon="4.94864">
        <ele>522.4</ele>
        <time>2013-04-06T07:30:43.000Z</time>
      </trkpt>
      <trkpt lat="47.2599" lon="4.94867">
        <ele>521.2</ele>
        <time>2013-04-06T07:30:45.000Z</time>
      </trkpt>
      <trkpt lat="47.25989" lon="4.94868">
        <ele>520.9</ele>
        <time>2013-04-06T07:30:46.000Z</time>
      </trkpt>
      <trkpt lat="47.25986" lon="4.94871">
        <ele>520.8</ele>
        <time>2013-04-06T07:30:48.000Z</time>
      </trkpt>
      <trkpt lat="47.25985" lon="4.94872">
        <ele>521</ele>
        <time>2013-04-06T07:30:49.000Z</time>
      </trkpt>
      <trkpt lat="47.25982" lon="4.94875">
        <ele>521.2</ele>
        <time>2013-04-06T07:30:52.000Z</time>
      </trkpt>
      <trkpt lat="47.25981" lon="4.94878">
        <ele>521.3</ele>
        <time>2013-04-06T07:30:53.000Z</time>
      </trkpt>
      <trkpt lat="47.25979" lon="4.94881">
        <ele>521.5</ele>
        <time>2013-04-06T07:30:55.000Z</time>
      </trkpt>
      <trkpt lat="47.25977" lon="4.94883">
        <ele>521.7</ele>
        <time>2013-04-06T07:30:56.000Z</time>
      </trkpt>
      <trkpt lat="47.25975" lon="4.94886">
        <ele>521.8</ele>
        <time>2013-04-06T07:30:58.000Z</time>
      </trkpt>
      <trkpt lat="47.25953" lon="4.94925">
        <ele>528.3</ele>
        <time>2013-04-06T07:31:15.000Z</time>
      </trkpt>
      <trkpt lat="47.25952" lon="4.94928">
        <ele>528.8</ele>
        <time>2013-04-06T07:31:16.000Z</time>
      </trkpt>
      <trkpt lat="47.25951" lon="4.94931">
        <ele>529.4</ele>
        <time>2013-04-06T07:31:17.000Z</time>
      </trkpt>
      <trkpt lat="47.25951" lon="4.94935">
        <ele>532.6</ele>
        <time>2013-04-06T07:31:19.000Z</time>
      </trkpt>
      <trkpt lat="47.2595" lon="4.94938">
        <ele>533.8</ele>
        <time>2013-04-06T07:31:20.000Z</time>
      </trkpt>
      <trkpt lat="47.25949" lon="4.94944">
        <ele>534.9</ele>
        <time>2013-04-06T07:31:23.000Z</time>
      </trkpt>
      <trkpt lat="47.25949" lon="4.94947">
        <ele>534.8</ele>
        <time>2013-04-06T07:31:24.000Z</time>
      </trkpt>
      <trkpt lat="47.25946" lon="4.94951">
        <ele>533.9</ele>
        <time>2013-04-06T07:31:26.000Z</time>
      </trkpt>
      <trkpt lat="47.25945" lon="4.94952">
        <ele>532.8</ele>
        <time>2013-04-06T07:31:27.000Z</time>
      </trkpt>
      <trkpt lat="47.25941" lon="4.94956">
        <ele>529.2</ele>
        <time>2013-04-06T07:31:29.000Z</time>
      </trkpt>
      <trkpt lat="47.25939" lon="4.94959">
        <ele>528.4</ele>
        <time>2013-04-06T07:31:30.000Z</time>
      </trkpt>
      <trkpt lat="47.25937" lon="4.94961">
        <ele>527.6</ele>
        <time>2013-04-06T07:31:31.000Z</time>
      </trkpt>
      <trkpt lat="47.25935" lon="4.94963">
        <ele>526.6</ele>
        <time>2013-04-06T07:31:32.000Z</time>
      </trkpt>
      <trkpt lat="47.25933" lon="4.94965">
        <ele>526.1</ele>
        <time>2013-04-06T07:31:33.000Z</time>
      </trkpt>
      <trkpt lat="47.25932" lon="4.94968">
        <ele>526.3</ele>
        <time>2013-04-06T07:31:34.000Z</time>
      </trkpt>
      <trkpt lat="47.2593" lon="4.94974">
        <ele>525.7</ele>
        <time>2013-04-06T07:31:36.000Z</time>
      </trkpt>
      <trkpt lat="47.2593" lon="4.94977">
        <ele>525.4</ele>
        <time>2013-04-06T07:31:37.000Z</time>
      </trkpt>
      <trkpt lat="47.25929" lon="4.94982">
        <ele>525.2</ele>
        <time>2013-04-06T07:31:39.000Z</time>
      </trkpt>
      <trkpt lat="47.25928" lon="4.94984">
        <ele>525.3</ele>
        <time>2013-04-06T07:31:40.000Z</time>
      </trkpt>
      <trkpt lat="47.25927" lon="4.9499">
        <ele>525.1</ele>
        <time>2013-04-06T07:31:42.000Z</time>
      </trkpt>
      <trkpt lat="47.25926" lon="4.94992">
        <ele>524.8</ele>
        <time>2013-04-06T07:31:43.000Z</time>
      </trkpt>
      <trkpt lat="47.25925" lon="4.94997">
        <ele>524</ele>
        <time>2013-04-06T07:31:45.000Z</time>
      </trkpt>
      <trkpt lat="47.25923" lon="4.95">
        <ele>523.9</ele>
        <time>2013-04-06T07:31:46.000Z</time>
      </trkpt>
      <trkpt lat="47.25921" lon="4.95005">
        <ele>523.4</ele>
        <time>2013-04-06T07:31:48.000Z</time>
      </trkpt>
      <trkpt lat="47.2592" lon="4.95008">
        <ele>523.1</ele>
        <time>2013-04-06T07:31:49.000Z</time>
      </trkpt>
      <trkpt lat="47.25919" lon="4.95014">
        <ele>521.7</ele>
        <time>2013-04-06T07:31:51.000Z</time>
      </trkpt>
      <trkpt lat="47.25918" lon="4.95017">
        <ele>521.5</ele>
        <time>2013-04-06T07:31:52.000Z</time>
      </trkpt>
      <trkpt lat="47.25918" lon="4.95023">
        <ele>521.1</ele>
        <time>2013-04-06T07:31:54.000Z</time>
      </trkpt>
      <trkpt lat="47.25917" lon="4.95025">
        <ele>520.9</ele>
        <time>2013-04-06T07:31:55.000Z</time>
      </trkpt>
      <trkpt lat="47.25916" lon="4.95028">
        <ele>520.5</ele>
        <time>2013-04-06T07:31:56.000Z</time>
      </trkpt>
      <trkpt lat="47.25915" lon="4.95031">
        <ele>520.2</ele>
        <time>2013-04-06T07:31:57.000Z</time>
      </trkpt>
      <trkpt lat="47.25913" lon="4.95034">
        <ele>520.1</ele>
        <time>2013-04-06T07:31:58.000Z</time>
      </trkpt>
      <trkpt lat="47.25912" lon="4.95078">
        <ele>520.1</ele>
        <time>2013-04-06T07:32:13.000Z</time>
      </trkpt>
      <trkpt lat="47.25911" lon="4.95082">
        <ele>520.8</ele>
        <time>2013-04-06T07:32:14.000Z</time>
      </trkpt>
      <trkpt lat="47.25911" lon="4.95085">
        <ele>520.2</ele>
        <time>2013-04-06T07:32:15.000Z</time>
      </trkpt>
      <trkpt lat="47.2591" lon="4.95094">
        <ele>519.2</ele>
        <time>2013-04-06T07:32:17.000Z</time>
      </trkpt>
      <trkpt lat="47.25909" lon="4.951">
        <ele>518.1</ele>
        <time>2013-04-06T07:32:19.000Z</time>
      </trkpt>
      <trkpt lat="47.25909" lon="4.95103">
        <ele>517.9</ele>
        <time>2013-04-06T07:32:20.000Z</time>
      </trkpt>
      <trkpt lat="47.25908" lon="4.95109">
        <ele>516.4</ele>
        <time>2013-04-06T07:32:22.000Z</time>
      </trkpt>
      <trkpt lat="47.25909" lon="4.95111">
        <ele>516.1</ele>
        <time>2013-04-06T07:32:23.000Z</time>
      </trkpt>
      <trkpt lat="47.25909" lon="4.95115">
        <ele>516.2</ele>
        <time>2013-04-06T07:32:24.000Z</time>
      </trkpt>
      <trkpt lat="47.25908" lon="4.95118">
        <ele>516.1</ele>
        <time>2013-04-06T07:32:25.000Z</time>
      </trkpt>
      <trkpt lat="47.25907" lon="4.95124">
        <ele>515</ele>
        <time>2013-04-06T07:32:27.000Z</time>
      </trkpt>
      <trkpt lat="47.25907" lon="4.95126">
        <ele>515.9</ele>
        <time>2013-04-06T07:32:28.000Z</time>
      </trkpt>
      <trkpt lat="47.25906" lon="4.9513">
        <ele>515.5</ele>
        <time>2013-04-06T07:32:29.000Z</time>
      </trkpt>
      <trkpt lat="47.25906" lon="4.95133">
        <ele>514</ele>
        <time>2013-04-06T07:32:30.000Z</time>
      </trkpt>
      <trkpt lat="47.25906" lon="4.95137">
        <ele>514.1</ele>
        <time>2013-04-06T07:32:31.000Z</time>
      </trkpt>
      <trkpt lat="47.25907" lon="4.9514">
        <ele>514.1</ele>
        <time>2013-04-06T07:32:32.000Z</time>
      </trkpt>
      <trkpt lat="47.25907" lon="4.95145">
        <ele>514</ele>
        <time>2013-04-06T07:32:34.000Z</time>
      </trkpt>
      <trkpt lat="47.25907" lon="4.95147">
        <ele>513.2</ele>
        <time>2013-04-06T07:32:35.000Z</time>
      </trkpt>
      <trkpt lat="47.25906" lon="4.9515">
        <ele>513.4</ele>
        <time>2013-04-06T07:32:36.000Z</time>
      </trkpt>
      <trkpt lat="47.25904" lon="4.95154">
        <ele>513.3</ele>
        <time>2013-04-06T07:32:37.000Z</time>
      </trkpt>
      <trkpt lat="47.25904" lon="4.9516">
        <ele>512.5</ele>
        <time>2013-04-06T07:32:39.000Z</time>
      </trkpt>
      <trkpt lat="47.25904" lon="4.95163">
        <ele>512.6</ele>
        <time>2013-04-06T07:32:40.000Z</time>
      </trkpt>
      <trkpt lat="47.25904" lon="4.95167">
        <ele>512.2</ele>
        <time>2013-04-06T07:32:41.000Z</time>
      </trkpt>
      <trkpt lat="47.25903" lon="4.9517">
        <ele>512.4</ele>
        <time>2013-04-06T07:32:42.000Z</time>
      </trkpt>
      <trkpt lat="47.25903" lon="4.95173">
        <ele>512.1</ele>
        <time>2013-04-06T07:32:43.000Z</time>
      </trkpt>
      <trkpt lat="47.25903" lon="4.95177">
        <ele>512.1</ele>
        <time>2013-04-06T07:32:44.000Z</time>
      </trkpt>
      <trkpt lat="47.25902" lon="4.9518">
        <ele>512</ele>
        <time>2013-04-06T07:32:45.000Z</time>
      </trkpt>
      <trkpt lat="47.25902" lon="4.95184">
        <ele>512.4</ele>
        <time>2013-04-06T07:32:46.000Z</time>
      </trkpt>
      <trkpt lat="47.25901" lon="4.95187">
        <ele>512</ele>
        <time>2013-04-06T07:32:47.000Z</time>
      </trkpt>
      <trkpt lat="47.25901" lon="4.95191">
        <ele>512</ele>
        <time>2013-04-06T07:32:48.000Z</time>
      </trkpt>
      <trkpt lat="47.25901" lon="4.95195">
        <ele>511.8</ele>
        <time>2013-04-06T07:32:49.000Z</time>
      </trkpt>
      <trkpt lat="47.25902" lon="4.95199">
        <ele>511.6</ele>
        <time>2013-04-06T07:32:50.000Z</time>
      </trkpt>
      <trkpt lat="47.25902" lon="4.95202">
        <ele>511.5</ele>
        <time>2013-04-06T07:32:51.000Z</time>
      </trkpt>
      <trkpt lat="47.25903" lon="4.95206">
        <ele>511.5</ele>
        <time>2013-04-06T07:32:52.000Z</time>
      </trkpt>
      <trkpt lat="47.25903" lon="4.95209">
        <ele>511</ele>
        <time>2013-04-06T07:32:53.000Z</time>
      </trkpt>
      <trkpt lat="47.25901" lon="4.95213">
        <ele>511</ele>
        <time>2013-04-06T07:32:54.000Z</time>
      </trkpt>
      <trkpt lat="47.25901" lon="4.95217">
        <ele>510.6</ele>
        <time>2013-04-06T07:32:55.000Z</time>
      </trkpt>
      <trkpt lat="47.25901" lon="4.9522">
        <ele>510.2</ele>
        <time>2013-04-06T07:32:56.000Z</time>
      </trkpt>
      <trkpt lat="47.259" lon="4.95226">
        <ele>510.1</ele>
        <time>2013-04-06T07:32:58.000Z</time>
      </trkpt>
      <trkpt lat="47.25897" lon="4.95292">
        <ele>508.7</ele>
        <time>2013-04-06T07:33:17.000Z</time>
      </trkpt>
      <trkpt lat="47.25895" lon="4.95295">
        <ele>508.8</ele>
        <time>2013-04-06T07:33:18.000Z</time>
      </trkpt>
      <trkpt lat="47.25894" lon="4.95297">
        <ele>507.6</ele>
        <time>2013-04-06T07:33:19.000Z</time>
      </trkpt>
      <trkpt lat="47.25892" lon="4.95303">
        <ele>505.4</ele>
        <time>2013-04-06T07:33:21.000Z</time>
      </trkpt>
      <trkpt lat="47.25891" lon="4.95305">
        <ele>504.9</ele>
        <time>2013-04-06T07:33:22.000Z</time>
      </trkpt>
      <trkpt lat="47.25891" lon="4.9531">
        <ele>506.2</ele>
        <time>2013-04-06T07:33:24.000Z</time>
      </trkpt>
      <trkpt lat="47.2589" lon="4.95313">
        <ele>505.7</ele>
        <time>2013-04-06T07:33:25.000Z</time>
      </trkpt>
      <trkpt lat="47.2589" lon="4.95319">
        <ele>505.8</ele>
        <time>2013-04-06T07:33:27.000Z</time>
      </trkpt>
      <trkpt lat="47.2589" lon="4.95322">
        <ele>506.5</ele>
        <time>2013-04-06T07:33:28.000Z</time>
      </trkpt>
      <trkpt lat="47.2589" lon="4.95325">
        <ele>505.9</ele>
        <time>2013-04-06T07:33:29.000Z</time>
      </trkpt>
      <trkpt lat="47.2589" lon="4.95329">
        <ele>503.9</ele>
        <time>2013-04-06T07:33:30.000Z</time>
      </trkpt>
      <trkpt lat="47.2589" lon="4.95334">
        <ele>503.1</ele>
        <time>2013-04-06T07:33:32.000Z</time>
      </trkpt>
      <trkpt lat="47.2589" lon="4.95337">
        <ele>502.4</ele>
        <time>2013-04-06T07:33:33.000Z</time>
      </trkpt>
      <trkpt lat="47.2589" lon="4.95341">
        <ele>501.9</ele>
        <time>2013-04-06T07:33:34.000Z</time>
      </trkpt>
      <trkpt lat="47.25889" lon="4.95345">
        <ele>501.2</ele>
        <time>2013-04-06T07:33:35.000Z</time>
      </trkpt>
      <trkpt lat="47.25889" lon="4.95349">
        <ele>500.5</ele>
        <time>2013-04-06T07:33:36.000Z</time>
      </trkpt>
      <trkpt lat="47.25889" lon="4.95352">
        <ele>500.3</ele>
        <time>2013-04-06T07:33:37.000Z</time>
      </trkpt>
      <trkpt lat="47.25888" lon="4.95356">
        <ele>499.6</ele>
        <time>2013-04-06T07:33:38.000Z</time>
      </trkpt>
      <trkpt lat="47.25887" lon="4.9536">
        <ele>498.6</ele>
        <time>2013-04-06T07:33:39.000Z</time>
      </trkpt>
      <trkpt lat="47.25887" lon="4.95366">
        <ele>498.1</ele>
        <time>2013-04-06T07:33:41.000Z</time>
      </trkpt>
      <trkpt lat="47.25887" lon="4.95369">
        <ele>497.8</ele>
        <time>2013-04-06T07:33:42.000Z</time>
      </trkpt>
      <trkpt lat="47.25887" lon="4.95373">
        <ele>497.2</ele>
        <time>2013-04-06T07:33:44.000Z</time>
      </trkpt>
      <trkpt lat="47.25887" lon="4.95376">
        <ele>496.7</ele>
        <time>2013-04-06T07:33:45.000Z</time>
      </trkpt>
      <trkpt lat="47.25886" lon="4.95382">
        <ele>495.9</ele>
        <time>2013-04-06T07:33:47.000Z</time>
      </trkpt>
      <trkpt lat="47.25885" lon="4.95385">
        <ele>496</ele>
        <time>2013-04-06T07:33:48.000Z</time>
      </trkpt>
      <trkpt lat="47.25884" lon="4.95391">
        <ele>495.5</ele>
        <time>2013-04-06T07:33:50.000Z</time>
      </trkpt>
      <trkpt lat="47.25883" lon="4.95395">
        <ele>495.2</ele>
        <time>2013-04-06T07:33:51.000Z</time>
      </trkpt>
      <trkpt lat="47.25882" lon="4.95398">
        <ele>495</ele>
        <time>2013-04-06T07:33:52.000Z</time>
      </trkpt>
      <trkpt lat="47.25881" lon="4.95401">
        <ele>494.6</ele>
        <time>2013-04-06T07:33:53.000Z</time>
      </trkpt>
      <trkpt lat="47.25879" lon="4.95406">
        <ele>493.8</ele>
        <time>2013-04-06T07:33:55.000Z</time>
      </trkpt>
      <trkpt lat="47.25879" lon="4.95409">
        <ele>493.7</ele>
        <time>2013-04-06T07:33:56.000Z</time>
      </trkpt>
      <trkpt lat="47.25878" lon="4.95415">
        <ele>493.2</ele>
        <time>2013-04-06T07:33:58.000Z</time>
      </trkpt>
      <trkpt lat="47.25866" lon="4.95469">
        <ele>491</ele>
        <time>2013-04-06T07:34:17.000Z</time>
      </trkpt>
      <trkpt lat="47.25864" lon="4.95473">
        <ele>492.8</ele>
        <time>2013-04-06T07:34:19.000Z</time>
      </trkpt>
      <trkpt lat="47.25864" lon="4.95476">
        <ele>494.4</ele>
        <time>2013-04-06T07:34:20.000Z</time>
      </trkpt>
      <trkpt lat="47.25862" lon="4.95482">
        <ele>496</ele>
        <time>2013-04-06T07:34:22.000Z</time>
      </trkpt>
      <trkpt lat="47.25862" lon="4.95485">
        <ele>496</ele>
        <time>2013-04-06T07:34:23.000Z</time>
      </trkpt>
      <trkpt lat="47.25861" lon="4.95489">
        <ele>496.6</ele>
        <time>2013-04-06T07:34:24.000Z</time>
      </trkpt>
      <trkpt lat="47.25861" lon="4.95492">
        <ele>496.7</ele>
        <time>2013-04-06T07:34:25.000Z</time>
      </trkpt>
      <trkpt lat="47.2586" lon="4.95496">
        <ele>496</ele>
        <time>2013-04-06T07:34:26.000Z</time>
      </trkpt>
      <trkpt lat="47.25858" lon="4.95498">
        <ele>496</ele>
        <time>2013-04-06T07:34:27.000Z</time>
      </trkpt>
      <trkpt lat="47.25857" lon="4.95503">
        <ele>497.6</ele>
        <time>2013-04-06T07:34:29.000Z</time>
      </trkpt>
      <trkpt lat="47.25855" lon="4.95506">
        <ele>495.5</ele>
        <time>2013-04-06T07:34:30.000Z</time>
      </trkpt>
      <trkpt lat="47.25854" lon="4.9551">
        <ele>494.7</ele>
        <time>2013-04-06T07:34:31.000Z</time>
      </trkpt>
      <trkpt lat="47.25853" lon="4.95512">
        <ele>494.4</ele>
        <time>2013-04-06T07:34:32.000Z</time>
      </trkpt>
      <trkpt lat="47.25851" lon="4.95517">
        <ele>493.2</ele>
        <time>2013-04-06T07:34:34.000Z</time>
      </trkpt>
      <trkpt lat="47.2585" lon="4.9552">
        <ele>492.7</ele>
        <time>2013-04-06T07:34:35.000Z</time>
      </trkpt>
      <trkpt lat="47.25848" lon="4.95526">
        <ele>491.6</ele>
        <time>2013-04-06T07:34:37.000Z</time>
      </trkpt>
      <trkpt lat="47.25847" lon="4.95529">
        <ele>491.3</ele>
        <time>2013-04-06T07:34:38.000Z</time>
      </trkpt>
      <trkpt lat="47.25845" lon="4.95533">
        <ele>490.5</ele>
        <time>2013-04-06T07:34:40.000Z</time>
      </trkpt>
      <trkpt lat="47.25844" lon="4.95536">
        <ele>490.3</ele>
        <time>2013-04-06T07:34:41.000Z</time>
      </trkpt>
      <trkpt lat="47.25842" lon="4.95539">
        <ele>489.5</ele>
        <time>2013-04-06T07:34:42.000Z</time>
      </trkpt>
      <trkpt lat="47.25841" lon="4.95541">
        <ele>488.9</ele>
        <time>2013-04-06T07:34:43.000Z</time>
      </trkpt>
      <trkpt lat="47.25839" lon="4.95546">
        <ele>488</ele>
        <time>2013-04-06T07:34:45.000Z</time>
      </trkpt>
      <trkpt lat="47.25837" lon="4.95549">
        <ele>487.7</ele>
        <time>2013-04-06T07:34:46.000Z</time>
      </trkpt>
      <trkpt lat="47.25836" lon="4.95553">
        <ele>487.6</ele>
        <time>2013-04-06T07:34:47.000Z</time>
      </trkpt>
      <trkpt lat="47.25835" lon="4.95556">
        <ele>487.8</ele>
        <time>2013-04-06T07:34:48.000Z</time>
      </trkpt>
      <trkpt lat="47.25834" lon="4.95561">
        <ele>487.8</ele>
        <time>2013-04-06T07:34:50.000Z</time>
      </trkpt>
      <trkpt lat="47.25833" lon="4.95563">
        <ele>487.9</ele>
        <time>2013-04-06T07:34:51.000Z</time>
      </trkpt>
      <trkpt lat="47.2583" lon="4.95569">
        <ele>487.6</ele>
        <time>2013-04-06T07:34:54.000Z</time>
      </trkpt>
      <trkpt lat="47.25829" lon="4.9557">
        <ele>487.9</ele>
        <time>2013-04-06T07:34:55.000Z</time>
      </trkpt>
      <trkpt lat="47.25827" lon="4.95574">
        <ele>488.4</ele>
        <time>2013-04-06T07:34:58.000Z</time>
      </trkpt>
      <trkpt lat="47.2582" lon="4.95596">
        <ele>487.8</ele>
        <time>2013-04-06T07:35:05.000Z</time>
      </trkpt>
      <trkpt lat="47.25819" lon="4.95601">
        <ele>488.3</ele>
        <time>2013-04-06T07:35:08.000Z</time>
      </trkpt>
      <trkpt lat="47.25819" lon="4.95603">
        <ele>488.2</ele>
        <time>2013-04-06T07:35:09.000Z</time>
      </trkpt>
      <trkpt lat="47.25818" lon="4.95608">
        <ele>490.9</ele>
        <time>2013-04-06T07:35:12.000Z</time>
      </trkpt>
      <trkpt lat="47.25817" lon="4.95609">
        <ele>491.7</ele>
        <time>2013-04-06T07:35:13.000Z</time>
      </trkpt>
      <trkpt lat="47.25815" lon="4.95612">
        <ele>492.3</ele>
        <time>2013-04-06T07:35:15.000Z</time>
      </trkpt>
      <trkpt lat="47.25813" lon="4.95616">
        <ele>492.5</ele>
        <time>2013-04-06T07:35:16.000Z</time>
      </trkpt>
      <trkpt lat="47.25812" lon="4.95621">
        <ele>491.4</ele>
        <time>2013-04-06T07:35:18.000Z</time>
      </trkpt>
      <trkpt lat="47.25812" lon="4.95623">
        <ele>492.1</ele>
        <time>2013-04-06T07:35:19.000Z</time>
      </trkpt>
      <trkpt lat="47.2581" lon="4.95628">
        <ele>493.9</ele>
        <time>2013-04-06T07:35:21.000Z</time>
      </trkpt>
      <trkpt lat="47.25809" lon="4.95629">
        <ele>493.9</ele>
        <time>2013-04-06T07:35:22.000Z</time>
      </trkpt>
      <trkpt lat="47.25807" lon="4.95634">
        <ele>495.5</ele>
        <time>2013-04-06T07:35:25.000Z</time>
      </trkpt>
      <trkpt lat="47.25806" lon="4.95636">
        <ele>495.7</ele>
        <time>2013-04-06T07:35:26.000Z</time>
      </trkpt>
      <trkpt lat="47.25804" lon="4.95639">
        <ele>495.8</ele>
        <time>2013-04-06T07:35:28.000Z</time>
      </trkpt>
      <trkpt lat="47.25802" lon="4.95641">
        <ele>495.8</ele>
        <time>2013-04-06T07:35:29.000Z</time>
      </trkpt>
      <trkpt lat="47.25799" lon="4.95645">
        <ele>492.9</ele>
        <time>2013-04-06T07:35:31.000Z</time>
      </trkpt>
      <trkpt lat="47.25798" lon="4.95646">
        <ele>491.8</ele>
        <time>2013-04-06T07:35:32.000Z</time>
      </trkpt>
      <trkpt lat="47.25795" lon="4.95649">
        <ele>489.9</ele>
        <time>2013-04-06T07:35:34.000Z</time>
      </trkpt>
      <trkpt lat="47.25792" lon="4.95651">
        <ele>489.4</ele>
        <time>2013-04-06T07:35:35.000Z</time>
      </trkpt>
      <trkpt lat="47.2579" lon="4.95653">
        <ele>488.9</ele>
        <time>2013-04-06T07:35:36.000Z</time>
      </trkpt>
      <trkpt lat="47.25787" lon="4.95654">
        <ele>488.5</ele>
        <time>2013-04-06T07:35:37.000Z</time>
      </trkpt>
      <trkpt lat="47.25785" lon="4.95655">
        <ele>487.8</ele>
        <time>2013-04-06T07:35:38.000Z</time>
      </trkpt>
      <trkpt lat="47.25783" lon="4.95657">
        <ele>487.5</ele>
        <time>2013-04-06T07:35:39.000Z</time>
      </trkpt>
      <trkpt lat="47.25779" lon="4.9566">
        <ele>487.2</ele>
        <time>2013-04-06T07:35:41.000Z</time>
      </trkpt>
      <trkpt lat="47.25778" lon="4.95662">
        <ele>486.8</ele>
        <time>2013-04-06T07:35:42.000Z</time>
      </trkpt>
      <trkpt lat="47.25775" lon="4.95662">
        <ele>485.7</ele>
        <time>2013-04-06T07:35:44.000Z</time>
      </trkpt>
      <trkpt lat="47.25773" lon="4.95662">
        <ele>484.9</ele>
        <time>2013-04-06T07:35:45.000Z</time>
      </trkpt>
      <trkpt lat="47.25769" lon="4.95665">
        <ele>484.7</ele>
        <time>2013-04-06T07:35:47.000Z</time>
      </trkpt>
      <trkpt lat="47.25767" lon="4.95666">
        <ele>484.3</ele>
        <time>2013-04-06T07:35:48.000Z</time>
      </trkpt>
      <trkpt lat="47.25765" lon="4.95669">
        <ele>483.6</ele>
        <time>2013-04-06T07:35:49.000Z</time>
      </trkpt>
      <trkpt lat="47.25762" lon="4.95671">
        <ele>483.1</ele>
        <time>2013-04-06T07:35:50.000Z</time>
      </trkpt>
      <trkpt lat="47.25759" lon="4.95673">
        <ele>481.8</ele>
        <time>2013-04-06T07:35:52.000Z</time>
      </trkpt>
      <trkpt lat="47.25757" lon="4.95674">
        <ele>481.4</ele>
        <time>2013-04-06T07:35:53.000Z</time>
      </trkpt>
      <trkpt lat="47.25753" lon="4.95674">
        <ele>481.3</ele>
        <time>2013-04-06T07:35:55.000Z</time>
      </trkpt>
      <trkpt lat="47.25752" lon="4.95673">
        <ele>481.1</ele>
        <time>2013-04-06T07:35:56.000Z</time>
      </trkpt>
      <trkpt lat="47.25748" lon="4.95673">
        <ele>480.7</ele>
        <time>2013-04-06T07:35:58.000Z</time>
      </trkpt>
      <trkpt lat="47.25721" lon="4.95677">
        <ele>467.8</ele>
        <time>2013-04-06T07:36:09.000Z</time>
      </trkpt>
      <trkpt lat="47.25717" lon="4.95677">
        <ele>466.2</ele>
        <time>2013-04-06T07:36:13.000Z</time>
      </trkpt>
      <trkpt lat="47.25716" lon="4.95679">
        <ele>466.2</ele>
        <time>2013-04-06T07:36:14.000Z</time>
      </trkpt>
      <trkpt lat="47.25713" lon="4.9568">
        <ele>466.1</ele>
        <time>2013-04-06T07:36:16.000Z</time>
      </trkpt>
      <trkpt lat="47.25711" lon="4.95681">
        <ele>465.6</ele>
        <time>2013-04-06T07:36:17.000Z</time>
      </trkpt>
      <trkpt lat="47.25707" lon="4.95683">
        <ele>466.4</ele>
        <time>2013-04-06T07:36:20.000Z</time>
      </trkpt>
      <trkpt lat="47.25706" lon="4.95684">
        <ele>466.4</ele>
        <time>2013-04-06T07:36:21.000Z</time>
      </trkpt>
      <trkpt lat="47.25702" lon="4.95685">
        <ele>466</ele>
        <time>2013-04-06T07:36:24.000Z</time>
      </trkpt>
      <trkpt lat="47.25701" lon="4.95685">
        <ele>467</ele>
        <time>2013-04-06T07:36:25.000Z</time>
      </trkpt>
      <trkpt lat="47.25697" lon="4.95686">
        <ele>468.4</ele>
        <time>2013-04-06T07:36:27.000Z</time>
      </trkpt>
      <trkpt lat="47.25696" lon="4.95687">
        <ele>469</ele>
        <time>2013-04-06T07:36:28.000Z</time>
      </trkpt>
      <trkpt lat="47.25694" lon="4.95687">
        <ele>468.6</ele>
        <time>2013-04-06T07:36:29.000Z</time>
      </trkpt>
      <trkpt lat="47.25691" lon="4.95688">
        <ele>467.6</ele>
        <time>2013-04-06T07:36:30.000Z</time>
      </trkpt>
      <trkpt lat="47.25689" lon="4.95689">
        <ele>467.8</ele>
        <time>2013-04-06T07:36:31.000Z</time>
      </trkpt>
      <trkpt lat="47.25687" lon="4.9569">
        <ele>467.9</ele>
        <time>2013-04-06T07:36:32.000Z</time>
      </trkpt>
      <trkpt lat="47.25683" lon="4.95693">
        <ele>467</ele>
        <time>2013-04-06T07:36:34.000Z</time>
      </trkpt>
      <trkpt lat="47.25681" lon="4.95693">
        <ele>466.2</ele>
        <time>2013-04-06T07:36:35.000Z</time>
      </trkpt>
      <trkpt lat="47.25678" lon="4.95693">
        <ele>466.2</ele>
        <time>2013-04-06T07:36:36.000Z</time>
      </trkpt>
      <trkpt lat="47.25677" lon="4.95693">
        <ele>465.6</ele>
        <time>2013-04-06T07:36:37.000Z</time>
      </trkpt>
      <trkpt lat="47.25675" lon="4.95695">
        <ele>465.3</ele>
        <time>2013-04-06T07:36:38.000Z</time>
      </trkpt>
      <trkpt lat="47.25672" lon="4.95696">
        <ele>465.2</ele>
        <time>2013-04-06T07:36:39.000Z</time>
      </trkpt>
      <trkpt lat="47.25668" lon="4.95698">
        <ele>465</ele>
        <time>2013-04-06T07:36:41.000Z</time>
      </trkpt>
      <trkpt lat="47.25666" lon="4.95699">
        <ele>465.1</ele>
        <time>2013-04-06T07:36:42.000Z</time>
      </trkpt>
      <trkpt lat="47.25663" lon="4.957">
        <ele>465.2</ele>
        <time>2013-04-06T07:36:43.000Z</time>
      </trkpt>
      <trkpt lat="47.25661" lon="4.95702">
        <ele>465.2</ele>
        <time>2013-04-06T07:36:44.000Z</time>
      </trkpt>
      <trkpt lat="47.25657" lon="4.95704">
        <ele>464.2</ele>
        <time>2013-04-06T07:36:46.000Z</time>
      </trkpt>
      <trkpt lat="47.25655" lon="4.95705">
        <ele>463.8</ele>
        <time>2013-04-06T07:36:47.000Z</time>
      </trkpt>
      <trkpt lat="47.25651" lon="4.95707">
        <ele>463.4</ele>
        <time>2013-04-06T07:36:49.000Z</time>
      </trkpt>
      <trkpt lat="47.25648" lon="4.95709">
        <ele>463.5</ele>
        <time>2013-04-06T07:36:50.000Z</time>
      </trkpt>
      <trkpt lat="47.25644" lon="4.95709">
        <ele>463.8</ele>
        <time>2013-04-06T07:36:52.000Z</time>
      </trkpt>
      <trkpt lat="47.25643" lon="4.95708">
        <ele>463.4</ele>
        <time>2013-04-06T07:36:53.000Z</time>
      </trkpt>
      <trkpt lat="47.25639" lon="4.95706">
        <ele>463.1</ele>
        <time>2013-04-06T07:36:56.000Z</time>
      </trkpt>
      <trkpt lat="47.25639" lon="4.95705">
        <ele>463.2</ele>
        <time>2013-04-06T07:36:57.000Z</time>
      </trkpt>
      <trkpt lat="47.25638" lon="4.95703">
        <ele>463.1</ele>
        <time>2013-04-06T07:36:58.000Z</time>
      </trkpt>
      <trkpt lat="47.25629" lon="4.95701">
        <ele>458.9</ele>
        <time>2013-04-06T07:37:07.000Z</time>
      </trkpt>
      <trkpt lat="47.25627" lon="4.95707">
        <ele>451.3</ele>
        <time>2013-04-06T07:37:11.000Z</time>
      </trkpt>
      <trkpt lat="47.25628" lon="4.95708">
        <ele>451.3</ele>
        <time>2013-04-06T07:37:12.000Z</time>
      </trkpt>
      <trkpt lat="47.25629" lon="4.95712">
        <ele>449</ele>
        <time>2013-04-06T07:37:19.000Z</time>
      </trkpt>
      <trkpt lat="47.25632" lon="4.95716">
        <ele>451.7</ele>
        <time>2013-04-06T07:37:20.000Z</time>
      </trkpt>
      <trkpt lat="47.25634" lon="4.95719">
        <ele>458.1</ele>
        <time>2013-04-06T07:37:26.000Z</time>
      </trkpt>
      <trkpt lat="47.25635" lon="4.9572">
        <ele>458.3</ele>
        <time>2013-04-06T07:37:27.000Z</time>
      </trkpt>
      <trkpt lat="47.25639" lon="4.95721">
        <ele>457.5</ele>
        <time>2013-04-06T07:37:32.000Z</time>
      </trkpt>
      <trkpt lat="47.2564" lon="4.95722">
        <ele>457.7</ele>
        <time>2013-04-06T07:37:33.000Z</time>
      </trkpt>
      <trkpt lat="47.25641" lon="4.95728">
        <ele>458.1</ele>
        <time>2013-04-06T07:37:38.000Z</time>
      </trkpt>
      <trkpt lat="47.25641" lon="4.95729">
        <ele>458.6</ele>
        <time>2013-04-06T07:37:39.000Z</time>
      </trkpt>
      <trkpt lat="47.25642" lon="4.95732">
        <ele>456.9</ele>
        <time>2013-04-06T07:37:51.000Z</time>
      </trkpt>
      <trkpt lat="47.25646" lon="4.95735">
        <ele>456.3</ele>
        <time>2013-04-06T07:37:52.000Z</time>
      </trkpt>
      <trkpt lat="47.25647" lon="4.95737">
        <ele>456.8</ele>
        <time>2013-04-06T07:37:58.000Z</time>
      </trkpt>
      <trkpt lat="47.25652" lon="4.95739">
        <ele>465.9</ele>
        <time>2013-04-06T07:38:07.000Z</time>
      </trkpt>
      <trkpt lat="47.25652" lon="4.9574">
        <ele>465.3</ele>
        <time>2013-04-06T07:38:34.000Z</time>
      </trkpt>
      <trkpt lat="47.25657" lon="4.95752">
        <ele>466.5</ele>
        <time>2013-04-06T07:38:35.000Z</time>
      </trkpt>
      <trkpt lat="47.25655" lon="4.95756">
        <ele>465.4</ele>
        <time>2013-04-06T07:38:50.000Z</time>
      </trkpt>
      <trkpt lat="47.25654" lon="4.95757">
        <ele>464.8</ele>
        <time>2013-04-06T07:38:51.000Z</time>
      </trkpt>
      <trkpt lat="47.25654" lon="4.95755">
        <ele>464.1</ele>
        <time>2013-04-06T07:38:58.000Z</time>
      </trkpt>
      <trkpt lat="47.25646" lon="4.95749">
        <ele>460.7</ele>
        <time>2013-04-06T07:39:07.000Z</time>
      </trkpt>
      <trkpt lat="47.25645" lon="4.95745">
        <ele>453.3</ele>
        <time>2013-04-06T07:39:14.000Z</time>
      </trkpt>
      <trkpt lat="47.25644" lon="4.95743">
        <ele>452.3</ele>
        <time>2013-04-06T07:39:15.000Z</time>
      </trkpt>
      <trkpt lat="47.25641" lon="4.9574">
        <ele>453.4</ele>
        <time>2013-04-06T07:39:19.000Z</time>
      </trkpt>
      <trkpt lat="47.25641" lon="4.95738">
        <ele>452.6</ele>
        <time>2013-04-06T07:39:20.000Z</time>
      </trkpt>
      <trkpt lat="47.25638" lon="4.95734">
        <ele>449.4</ele>
        <time>2013-04-06T07:39:24.000Z</time>
      </trkpt>
      <trkpt lat="47.25637" lon="4.95733">
        <ele>448.3</ele>
        <time>2013-04-06T07:39:25.000Z</time>
      </trkpt>
      <trkpt lat="47.25634" lon="4.95728">
        <ele>446.4</ele>
        <time>2013-04-06T07:39:31.000Z</time>
      </trkpt>
      <trkpt lat="47.25634" lon="4.95727">
        <ele>446.2</ele>
        <time>2013-04-06T07:39:32.000Z</time>
      </trkpt>
      <trkpt lat="47.25631" lon="4.95724">
        <ele>443.8</ele>
        <time>2013-04-06T07:39:58.000Z</time>
      </trkpt>
      <trkpt lat="47.25621" lon="4.95695">
        <ele>438</ele>
        <time>2013-04-06T07:40:15.000Z</time>
      </trkpt>
      <trkpt lat="47.25624" lon="4.95696">
        <ele>430.5</ele>
        <time>2013-04-06T07:40:21.000Z</time>
      </trkpt>
      <trkpt lat="47.25629" lon="4.95699">
        <ele>439.2</ele>
        <time>2013-04-06T07:40:22.000Z</time>
      </trkpt>
      <trkpt lat="47.25631" lon="4.95703">
        <ele>448.6</ele>
        <time>2013-04-06T07:40:35.000Z</time>
      </trkpt>
      <trkpt lat="47.25632" lon="4.95704">
        <ele>448.5</ele>
        <time>2013-04-06T07:40:36.000Z</time>
      </trkpt>
      <trkpt lat="47.25632" lon="4.95709">
        <ele>445.8</ele>
        <time>2013-04-06T07:40:40.000Z</time>
      </trkpt>
      <trkpt lat="47.2563" lon="4.95711">
        <ele>445</ele>
        <time>2013-04-06T07:40:41.000Z</time>
      </trkpt>
      <trkpt lat="47.25632" lon="4.95716">
        <ele>446</ele>
        <time>2013-04-06T07:40:48.000Z</time>
      </trkpt>
      <trkpt lat="47.25633" lon="4.95717">
        <ele>446.4</ele>
        <time>2013-04-06T07:40:49.000Z</time>
      </trkpt>
      <trkpt lat="47.25636" lon="4.9572">
        <ele>447.6</ele>
        <time>2013-04-06T07:40:52.000Z</time>
      </trkpt>
      <trkpt lat="47.25637" lon="4.95721">
        <ele>448.3</ele>
        <time>2013-04-06T07:40:53.000Z</time>
      </trkpt>
      <trkpt lat="47.2564" lon="4.95724">
        <ele>448.7</ele>
        <time>2013-04-06T07:40:57.000Z</time>
      </trkpt>
      <trkpt lat="47.25641" lon="4.95725">
        <ele>449.5</ele>
        <time>2013-04-06T07:40:58.000Z</time>
      </trkpt>
      <trkpt lat="47.25637" lon="4.95725">
        <ele>468.1</ele>
        <time>2013-04-06T07:41:13.000Z</time>
      </trkpt>
      <trkpt lat="47.25643" lon="4.95732">
        <ele>462.1</ele>
        <time>2013-04-06T07:41:14.000Z</time>
      </trkpt>
      <trkpt lat="47.25647" lon="4.95736">
        <ele>463.1</ele>
        <time>2013-04-06T07:41:20.000Z</time>
      </trkpt>
      <trkpt lat="47.25647" lon="4.95736">
        <ele>463.3</ele>
        <time>2013-04-06T07:41:21.000Z</time>
      </trkpt>
      <trkpt lat="47.25651" lon="4.9574">
        <ele>464.1</ele>
        <time>2013-04-06T07:41:27.000Z</time>
      </trkpt>
      <trkpt lat="47.25651" lon="4.9574">
        <ele>464.7</ele>
        <time>2013-04-06T07:41:28.000Z</time>
      </trkpt>
      <trkpt lat="47.25653" lon="4.95746">
        <ele>465.5</ele>
        <time>2013-04-06T07:41:36.000Z</time>
      </trkpt>
      <trkpt lat="47.25654" lon="4.95746">
        <ele>465.8</ele>
        <time>2013-04-06T07:41:37.000Z</time>
      </trkpt>
      <trkpt lat="47.25655" lon="4.95751">
        <ele>467.2</ele>
        <time>2013-04-06T07:41:43.000Z</time>
      </trkpt>
      <trkpt lat="47.25656" lon="4.95752">
        <ele>467.4</ele>
        <time>2013-04-06T07:41:44.000Z</time>
      </trkpt>
      <trkpt lat="47.25659" lon="4.95756">
        <ele>468.3</ele>
        <time>2013-04-06T07:41:49.000Z</time>
      </trkpt>
      <trkpt lat="47.25659" lon="4.95757">
        <ele>468.5</ele>
        <time>2013-04-06T07:41:50.000Z</time>
      </trkpt>
      <trkpt lat="47.25658" lon="4.95763">
        <ele>490.6</ele>
        <time>2013-04-06T07:42:15.000Z</time>
      </trkpt>
      <trkpt lat="47.25658" lon="4.95764">
        <ele>490.7</ele>
        <time>2013-04-06T07:42:16.000Z</time>
      </trkpt>
      <trkpt lat="47.25657" lon="4.9577">
        <ele>487.1</ele>
        <time>2013-04-06T07:42:34.000Z</time>
      </trkpt>
      <trkpt lat="47.25657" lon="4.95783">
        <ele>485.5</ele>
        <time>2013-04-06T07:42:35.000Z</time>
      </trkpt>
      <trkpt lat="47.25659" lon="4.95788">
        <ele>481.4</ele>
        <time>2013-04-06T07:42:52.000Z</time>
      </trkpt>
      <trkpt lat="47.25659" lon="4.95789">
        <ele>481.7</ele>
        <time>2013-04-06T07:42:53.000Z</time>
      </trkpt>
      <trkpt lat="47.25663" lon="4.95792">
        <ele>480.4</ele>
        <time>2013-04-06T07:42:59.000Z</time>
      </trkpt>
      <trkpt lat="47.2567" lon="4.95791">
        <ele>482.5</ele>
        <time>2013-04-06T07:43:06.000Z</time>
      </trkpt>
      <trkpt lat="47.25671" lon="4.95797">
        <ele>487.8</ele>
        <time>2013-04-06T07:43:14.000Z</time>
      </trkpt>
      <trkpt lat="47.25671" lon="4.95798">
        <ele>488.4</ele>
        <time>2013-04-06T07:43:15.000Z</time>
      </trkpt>
      <trkpt lat="47.25672" lon="4.95804">
        <ele>488.6</ele>
        <time>2013-04-06T07:43:20.000Z</time>
      </trkpt>
      <trkpt lat="47.25672" lon="4.95805">
        <ele>489.3</ele>
        <time>2013-04-06T07:43:21.000Z</time>
      </trkpt>
      <trkpt lat="47.25675" lon="4.9581">
        <ele>491.7</ele>
        <time>2013-04-06T07:43:29.000Z</time>
      </trkpt>
      <trkpt lat="47.25675" lon="4.95811">
        <ele>491.5</ele>
        <time>2013-04-06T07:43:30.000Z</time>
      </trkpt>
      <trkpt lat="47.25677" lon="4.95817">
        <ele>490.9</ele>
        <time>2013-04-06T07:43:36.000Z</time>
      </trkpt>
      <trkpt lat="47.25677" lon="4.95818">
        <ele>491</ele>
        <time>2013-04-06T07:43:37.000Z</time>
      </trkpt>
      <trkpt lat="47.25678" lon="4.95824">
        <ele>489.1</ele>
        <time>2013-04-06T07:43:47.000Z</time>
      </trkpt>
      <trkpt lat="47.25679" lon="4.95825">
        <ele>489</ele>
        <time>2013-04-06T07:43:48.000Z</time>
      </trkpt>
      <trkpt lat="47.25677" lon="4.95829">
        <ele>488.2</ele>
        <time>2013-04-06T07:43:59.000Z</time>
      </trkpt>
      <trkpt lat="47.25675" lon="4.95835">
        <ele>487.8</ele>
        <time>2013-04-06T07:44:06.000Z</time>
      </trkpt>
      <trkpt lat="47.25672" lon="4.95837">
        <ele>486.8</ele>
        <time>2013-04-06T07:44:10.000Z</time>
      </trkpt>
      <trkpt lat="47.25671" lon="4.95838">
        <ele>486.8</ele>
        <time>2013-04-06T07:44:11.000Z</time>
      </trkpt>
      <trkpt lat="47.25668" lon="4.95842">
        <ele>487.2</ele>
        <time>2013-04-06T07:44:16.000Z</time>
      </trkpt>
      <trkpt lat="47.25667" lon="4.95843">
        <ele>487.3</ele>
        <time>2013-04-06T07:44:17.000Z</time>
      </trkpt>
      <trkpt lat="47.25665" lon="4.95845">
        <ele>486.5</ele>
        <time>2013-04-06T07:44:19.000Z</time>
      </trkpt>
      <trkpt lat="47.25663" lon="4.95846">
        <ele>486.1</ele>
        <time>2013-04-06T07:44:20.000Z</time>
      </trkpt>
      <trkpt lat="47.2566" lon="4.95849">
        <ele>485.9</ele>
        <time>2013-04-06T07:44:23.000Z</time>
      </trkpt>
      <trkpt lat="47.25659" lon="4.95851">
        <ele>486.2</ele>
        <time>2013-04-06T07:44:24.000Z</time>
      </trkpt>
      <trkpt lat="47.25656" lon="4.95856">
        <ele>486.2</ele>
        <time>2013-04-06T07:44:27.000Z</time>
      </trkpt>
      <trkpt lat="47.25655" lon="4.95857">
        <ele>486.1</ele>
        <time>2013-04-06T07:44:28.000Z</time>
      </trkpt>
      <trkpt lat="47.25653" lon="4.95863">
        <ele>486</ele>
        <time>2013-04-06T07:44:31.000Z</time>
      </trkpt>
      <trkpt lat="47.25652" lon="4.95865">
        <ele>486</ele>
        <time>2013-04-06T07:44:32.000Z</time>
      </trkpt>
      <trkpt lat="47.25651" lon="4.95868">
        <ele>485.6</ele>
        <time>2013-04-06T07:44:34.000Z</time>
      </trkpt>
      <trkpt lat="47.2565" lon="4.9587">
        <ele>485.6</ele>
        <time>2013-04-06T07:44:35.000Z</time>
      </trkpt>
      <trkpt lat="47.25649" lon="4.95876">
        <ele>485.2</ele>
        <time>2013-04-06T07:44:39.000Z</time>
      </trkpt>
      <trkpt lat="47.25649" lon="4.95877">
        <ele>485.1</ele>
        <time>2013-04-06T07:44:40.000Z</time>
      </trkpt>
      <trkpt lat="47.25651" lon="4.95883">
        <ele>485.3</ele>
        <time>2013-04-06T07:44:44.000Z</time>
      </trkpt>
      <trkpt lat="47.25651" lon="4.95884">
        <ele>485.5</ele>
        <time>2013-04-06T07:44:45.000Z</time>
      </trkpt>
      <trkpt lat="47.25653" lon="4.95889">
        <ele>485.8</ele>
        <time>2013-04-06T07:44:48.000Z</time>
      </trkpt>
      <trkpt lat="47.25653" lon="4.95891">
        <ele>486</ele>
        <time>2013-04-06T07:44:49.000Z</time>
      </trkpt>
      <trkpt lat="47.25655" lon="4.95897">
        <ele>486.7</ele>
        <time>2013-04-06T07:44:52.000Z</time>
      </trkpt>
      <trkpt lat="47.25656" lon="4.95899">
        <ele>486.9</ele>
        <time>2013-04-06T07:44:53.000Z</time>
      </trkpt>
      <trkpt lat="47.25656" lon="4.95903">
        <ele>486.8</ele>
        <time>2013-04-06T07:44:55.000Z</time>
      </trkpt>
      <trkpt lat="47.25657" lon="4.95905">
        <ele>486.9</ele>
        <time>2013-04-06T07:44:56.000Z</time>
      </trkpt>
      <trkpt lat="47.25657" lon="4.95911">
        <ele>487</ele>
        <time>2013-04-06T07:44:59.000Z</time>
      </trkpt>
      <trkpt lat="47.25656" lon="4.95912">
        <ele>486.7</ele>
        <time>2013-04-06T07:45:00.000Z</time>
      </trkpt>
      <trkpt lat="47.25658" lon="4.95926">
        <ele>482.4</ele>
        <time>2013-04-06T07:45:07.000Z</time>
      </trkpt>
      <trkpt lat="47.25661" lon="4.95928">
        <ele>484</ele>
        <time>2013-04-06T07:46:50.000Z</time>
      </trkpt>
      <trkpt lat="47.25662" lon="4.9593">
        <ele>484</ele>
        <time>2013-04-06T07:46:51.000Z</time>
      </trkpt>
      <trkpt lat="47.25661" lon="4.95936">
        <ele>484.2</ele>
        <time>2013-04-06T07:46:55.000Z</time>
      </trkpt>
      <trkpt lat="47.2566" lon="4.95938">
        <ele>484.5</ele>
        <time>2013-04-06T07:46:56.000Z</time>
      </trkpt>
      <trkpt lat="47.25659" lon="4.95944">
        <ele>484.9</ele>
        <time>2013-04-06T07:47:00.000Z</time>
      </trkpt>
      <trkpt lat="47.25658" lon="4.95958">
        <ele>480.7</ele>
        <time>2013-04-06T07:47:07.000Z</time>
      </trkpt>
      <trkpt lat="47.25656" lon="4.95962">
        <ele>480.2</ele>
        <time>2013-04-06T07:47:09.000Z</time>
      </trkpt>
      <trkpt lat="47.25655" lon="4.95964">
        <ele>479.9</ele>
        <time>2013-04-06T07:47:10.000Z</time>
      </trkpt>
      <trkpt lat="47.25653" lon="4.95967">
        <ele>479.8</ele>
        <time>2013-04-06T07:47:12.000Z</time>
      </trkpt>
      <trkpt lat="47.25652" lon="4.95969">
        <ele>479.9</ele>
        <time>2013-04-06T07:47:13.000Z</time>
      </trkpt>
      <trkpt lat="47.25649" lon="4.95974">
        <ele>480.1</ele>
        <time>2013-04-06T07:47:16.000Z</time>
      </trkpt>
      <trkpt lat="47.25648" lon="4.95975">
        <ele>480.2</ele>
        <time>2013-04-06T07:47:17.000Z</time>
      </trkpt>
      <trkpt lat="47.25646" lon="4.95979">
        <ele>479.9</ele>
        <time>2013-04-06T07:47:19.000Z</time>
      </trkpt>
      <trkpt lat="47.25645" lon="4.95981">
        <ele>480.3</ele>
        <time>2013-04-06T07:47:20.000Z</time>
      </trkpt>
      <trkpt lat="47.25644" lon="4.95984">
        <ele>480.3</ele>
        <time>2013-04-06T07:47:22.000Z</time>
      </trkpt>
      <trkpt lat="47.25643" lon="4.95986">
        <ele>480.3</ele>
        <time>2013-04-06T07:47:23.000Z</time>
      </trkpt>
      <trkpt lat="47.2564" lon="4.95991">
        <ele>480.5</ele>
        <time>2013-04-06T07:47:26.000Z</time>
      </trkpt>
      <trkpt lat="47.25639" lon="4.95992">
        <ele>480.4</ele>
        <time>2013-04-06T07:47:27.000Z</time>
      </trkpt>
      <trkpt lat="47.25636" lon="4.95995">
        <ele>480.1</ele>
        <time>2013-04-06T07:47:29.000Z</time>
      </trkpt>
      <trkpt lat="47.25635" lon="4.95996">
        <ele>480.4</ele>
        <time>2013-04-06T07:47:30.000Z</time>
      </trkpt>
      <trkpt lat="47.25632" lon="4.96001">
        <ele>480.2</ele>
        <time>2013-04-06T07:47:33.000Z</time>
      </trkpt>
      <trkpt lat="47.25631" lon="4.96002">
        <ele>480.2</ele>
        <time>2013-04-06T07:47:34.000Z</time>
      </trkpt>
      <trkpt lat="47.25629" lon="4.96007">
        <ele>480.5</ele>
        <time>2013-04-06T07:47:38.000Z</time>
      </trkpt>
      <trkpt lat="47.25628" lon="4.96008">
        <ele>480.5</ele>
        <time>2013-04-06T07:47:39.000Z</time>
      </trkpt>
      <trkpt lat="47.25626" lon="4.96011">
        <ele>480.4</ele>
        <time>2013-04-06T07:47:42.000Z</time>
      </trkpt>
      <trkpt lat="47.25625" lon="4.96013">
        <ele>480.4</ele>
        <time>2013-04-06T07:47:43.000Z</time>
      </trkpt>
      <trkpt lat="47.25623" lon="4.96018">
        <ele>480.1</ele>
        <time>2013-04-06T07:47:46.000Z</time>
      </trkpt>
      <trkpt lat="47.25622" lon="4.9602">
        <ele>480</ele>
        <time>2013-04-06T07:47:47.000Z</time>
      </trkpt>
      <trkpt lat="47.25619" lon="4.96023">
        <ele>479.5</ele>
        <time>2013-04-06T07:47:50.000Z</time>
      </trkpt>
      <trkpt lat="47.25618" lon="4.96025">
        <ele>479.3</ele>
        <time>2013-04-06T07:47:51.000Z</time>
      </trkpt>
      <trkpt lat="47.25615" lon="4.96029">
        <ele>479.4</ele>
        <time>2013-04-06T07:47:59.000Z</time>
      </trkpt>
      <trkpt lat="47.25614" lon="4.9603">
        <ele>479.2</ele>
        <time>2013-04-06T07:48:00.000Z</time>
      </trkpt>
      <trkpt lat="47.25605" lon="4.96041">
        <ele>472</ele>
        <time>2013-04-06T07:48:07.000Z</time>
      </trkpt>
      <trkpt lat="47.25603" lon="4.96047">
        <ele>473.9</ele>
        <time>2013-04-06T07:48:11.000Z</time>
      </trkpt>
      <trkpt lat="47.25602" lon="4.96048">
        <ele>474</ele>
        <time>2013-04-06T07:48:12.000Z</time>
      </trkpt>
      <trkpt lat="47.25601" lon="4.96053">
        <ele>473.9</ele>
        <time>2013-04-06T07:48:16.000Z</time>
      </trkpt>
      <trkpt lat="47.256" lon="4.96055">
        <ele>474</ele>
        <time>2013-04-06T07:48:17.000Z</time>
      </trkpt>
      <trkpt lat="47.25601" lon="4.96061">
        <ele>472.4</ele>
        <time>2013-04-06T07:48:22.000Z</time>
      </trkpt>
      <trkpt lat="47.25602" lon="4.96062">
        <ele>472.3</ele>
        <time>2013-04-06T07:48:23.000Z</time>
      </trkpt>
      <trkpt lat="47.25603" lon="4.96068">
        <ele>471.9</ele>
        <time>2013-04-06T07:48:27.000Z</time>
      </trkpt>
      <trkpt lat="47.25603" lon="4.9607">
        <ele>471.9</ele>
        <time>2013-04-06T07:48:28.000Z</time>
      </trkpt>
      <trkpt lat="47.25605" lon="4.96075">
        <ele>472.1</ele>
        <time>2013-04-06T07:48:31.000Z</time>
      </trkpt>
      <trkpt lat="47.25606" lon="4.96076">
        <ele>472.2</ele>
        <time>2013-04-06T07:48:32.000Z</time>
      </trkpt>
      <trkpt lat="47.25608" lon="4.96081">
        <ele>472.8</ele>
        <time>2013-04-06T07:48:35.000Z</time>
      </trkpt>
      <trkpt lat="47.25609" lon="4.96083">
        <ele>472.9</ele>
        <time>2013-04-06T07:48:36.000Z</time>
      </trkpt>
      <trkpt lat="47.25611" lon="4.96088">
        <ele>472.8</ele>
        <time>2013-04-06T07:48:39.000Z</time>
      </trkpt>
      <trkpt lat="47.25611" lon="4.96089">
        <ele>472.7</ele>
        <time>2013-04-06T07:48:40.000Z</time>
      </trkpt>
      <trkpt lat="47.25615" lon="4.96092">
        <ele>472.9</ele>
        <time>2013-04-06T07:48:43.000Z</time>
      </trkpt>
      <trkpt lat="47.25616" lon="4.96092">
        <ele>473</ele>
        <time>2013-04-06T07:48:44.000Z</time>
      </trkpt>
      <trkpt lat="47.25619" lon="4.9609">
        <ele>473.8</ele>
        <time>2013-04-06T07:48:49.000Z</time>
      </trkpt>
      <trkpt lat="47.2562" lon="4.9609">
        <ele>474</ele>
        <time>2013-04-06T07:48:50.000Z</time>
      </trkpt>
      <trkpt lat="47.25623" lon="4.96091">
        <ele>474.6</ele>
        <time>2013-04-06T07:48:53.000Z</time>
      </trkpt>
      <trkpt lat="47.25625" lon="4.96091">
        <ele>474.8</ele>
        <time>2013-04-06T07:48:54.000Z</time>
      </trkpt>
      <trkpt lat="47.25628" lon="4.96094">
        <ele>475.4</ele>
        <time>2013-04-06T07:48:57.000Z</time>
      </trkpt>
      <trkpt lat="47.2563" lon="4.96094">
        <ele>475.6</ele>
        <time>2013-04-06T07:48:58.000Z</time>
      </trkpt>
      <trkpt lat="47.25632" lon="4.96096">
        <ele>475.6</ele>
        <time>2013-04-06T07:49:00.000Z</time>
      </trkpt>
      <trkpt lat="47.25643" lon="4.96105">
        <ele>488</ele>
        <time>2013-04-06T07:49:07.000Z</time>
      </trkpt>
      <trkpt lat="47.25646" lon="4.96107">
        <ele>487.7</ele>
        <time>2013-04-06T07:49:09.000Z</time>
      </trkpt>
      <trkpt lat="47.25647" lon="4.96108">
        <ele>488.4</ele>
        <time>2013-04-06T07:49:10.000Z</time>
      </trkpt>
      <trkpt lat="47.25651" lon="4.96109">
        <ele>485.3</ele>
        <time>2013-04-06T07:49:13.000Z</time>
      </trkpt>
      <trkpt lat="47.25652" lon="4.96109">
        <ele>485.4</ele>
        <time>2013-04-06T07:49:14.000Z</time>
      </trkpt>
      <trkpt lat="47.25654" lon="4.96112">
        <ele>484.9</ele>
        <time>2013-04-06T07:49:17.000Z</time>
      </trkpt>
      <trkpt lat="47.25655" lon="4.96114">
        <ele>484.8</ele>
        <time>2013-04-06T07:49:18.000Z</time>
      </trkpt>
      <trkpt lat="47.25657" lon="4.96118">
        <ele>485.4</ele>
        <time>2013-04-06T07:49:21.000Z</time>
      </trkpt>
      <trkpt lat="47.25658" lon="4.9612">
        <ele>485.5</ele>
        <time>2013-04-06T07:49:22.000Z</time>
      </trkpt>
      <trkpt lat="47.2566" lon="4.96123">
        <ele>486</ele>
        <time>2013-04-06T07:49:24.000Z</time>
      </trkpt>
      <trkpt lat="47.25661" lon="4.96125">
        <ele>485.7</ele>
        <time>2013-04-06T07:49:25.000Z</time>
      </trkpt>
      <trkpt lat="47.25662" lon="4.96129">
        <ele>485.4</ele>
        <time>2013-04-06T07:49:27.000Z</time>
      </trkpt>
      <trkpt lat="47.25663" lon="4.96131">
        <ele>485.1</ele>
        <time>2013-04-06T07:49:28.000Z</time>
      </trkpt>
      <trkpt lat="47.25665" lon="4.96135">
        <ele>485.8</ele>
        <time>2013-04-06T07:49:31.000Z</time>
      </trkpt>
      <trkpt lat="47.25666" lon="4.96137">
        <ele>484.9</ele>
        <time>2013-04-06T07:49:32.000Z</time>
      </trkpt>
      <trkpt lat="47.25668" lon="4.96139">
        <ele>484.8</ele>
        <time>2013-04-06T07:49:33.000Z</time>
      </trkpt>
      <trkpt lat="47.2567" lon="4.96141">
        <ele>484.1</ele>
        <time>2013-04-06T07:49:34.000Z</time>
      </trkpt>
      <trkpt lat="47.25672" lon="4.96145">
        <ele>483.9</ele>
        <time>2013-04-06T07:49:36.000Z</time>
      </trkpt>
      <trkpt lat="47.25673" lon="4.96147">
        <ele>484.1</ele>
        <time>2013-04-06T07:49:37.000Z</time>
      </trkpt>
      <trkpt lat="47.25675" lon="4.96151">
        <ele>484.5</ele>
        <time>2013-04-06T07:49:39.000Z</time>
      </trkpt>
      <trkpt lat="47.25675" lon="4.96153">
        <ele>484.6</ele>
        <time>2013-04-06T07:49:40.000Z</time>
      </trkpt>
      <trkpt lat="47.25678" lon="4.96158">
        <ele>484.1</ele>
        <time>2013-04-06T07:49:43.000Z</time>
      </trkpt>
      <trkpt lat="47.25679" lon="4.96159">
        <ele>484.2</ele>
        <time>2013-04-06T07:49:44.000Z</time>
      </trkpt>
      <trkpt lat="47.25682" lon="4.9616">
        <ele>484.7</ele>
        <time>2013-04-06T07:49:47.000Z</time>
      </trkpt>
      <trkpt lat="47.25683" lon="4.96161">
        <ele>484.8</ele>
        <time>2013-04-06T07:49:48.000Z</time>
      </trkpt>
      <trkpt lat="47.25686" lon="4.96165">
        <ele>484.4</ele>
        <time>2013-04-06T07:49:51.000Z</time>
      </trkpt>
      <trkpt lat="47.25688" lon="4.96167">
        <ele>484</ele>
        <time>2013-04-06T07:49:52.000Z</time>
      </trkpt>
      <trkpt lat="47.25689" lon="4.9617">
        <ele>483.7</ele>
        <time>2013-04-06T07:49:53.000Z</time>
      </trkpt>
      <trkpt lat="47.25691" lon="4.96173">
        <ele>483.4</ele>
        <time>2013-04-06T07:49:54.000Z</time>
      </trkpt>
      <trkpt lat="47.25694" lon="4.96177">
        <ele>483.4</ele>
        <time>2013-04-06T07:49:56.000Z</time>
      </trkpt>
      <trkpt lat="47.25695" lon="4.96179">
        <ele>483.5</ele>
        <time>2013-04-06T07:49:57.000Z</time>
      </trkpt>
      <trkpt lat="47.25698" lon="4.96182">
        <ele>483.3</ele>
        <time>2013-04-06T07:50:00.000Z</time>
      </trkpt>
      <trkpt lat="47.25707" lon="4.96188">
        <ele>485</ele>
        <time>2013-04-06T07:50:07.000Z</time>
      </trkpt>
      <trkpt lat="47.25711" lon="4.96191">
        <ele>485.2</ele>
        <time>2013-04-06T07:50:09.000Z</time>
      </trkpt>
      <trkpt lat="47.25712" lon="4.96193">
        <ele>484.6</ele>
        <time>2013-04-06T07:50:10.000Z</time>
      </trkpt>
      <trkpt lat="47.25714" lon="4.96196">
        <ele>484.4</ele>
        <time>2013-04-06T07:50:12.000Z</time>
      </trkpt>
      <trkpt lat="47.25716" lon="4.96198">
        <ele>483.8</ele>
        <time>2013-04-06T07:50:13.000Z</time>
      </trkpt>
      <trkpt lat="47.25718" lon="4.96202">
        <ele>483.5</ele>
        <time>2013-04-06T07:50:15.000Z</time>
      </trkpt>
      <trkpt lat="47.2572" lon="4.96204">
        <ele>483.1</ele>
        <time>2013-04-06T07:50:16.000Z</time>
      </trkpt>
      <trkpt lat="47.25722" lon="4.96208">
        <ele>483.2</ele>
        <time>2013-04-06T07:50:18.000Z</time>
      </trkpt>
      <trkpt lat="47.25723" lon="4.96209">
        <ele>483.3</ele>
        <time>2013-04-06T07:50:19.000Z</time>
      </trkpt>
      <trkpt lat="47.25725" lon="4.96213">
        <ele>483.1</ele>
        <time>2013-04-06T07:50:21.000Z</time>
      </trkpt>
      <trkpt lat="47.25726" lon="4.96215">
        <ele>482.9</ele>
        <time>2013-04-06T07:50:22.000Z</time>
      </trkpt>
      <trkpt lat="47.25729" lon="4.9622">
        <ele>483.6</ele>
        <time>2013-04-06T07:50:25.000Z</time>
      </trkpt>
      <trkpt lat="47.25729" lon="4.9622">
        <ele>484.3</ele>
        <time>2013-04-06T07:50:26.000Z</time>
      </trkpt>
      <trkpt lat="47.25731" lon="4.96226">
        <ele>484.9</ele>
        <time>2013-04-06T07:50:29.000Z</time>
      </trkpt>
      <trkpt lat="47.25731" lon="4.9623">
        <ele>483.4</ele>
        <time>2013-04-06T07:50:30.000Z</time>
      </trkpt>
      <trkpt lat="47.25731" lon="4.96234">
        <ele>482.6</ele>
        <time>2013-04-06T07:50:32.000Z</time>
      </trkpt>
      <trkpt lat="47.25731" lon="4.96237">
        <ele>482.2</ele>
        <time>2013-04-06T07:50:33.000Z</time>
      </trkpt>
      <trkpt lat="47.25732" lon="4.96242">
        <ele>481.7</ele>
        <time>2013-04-06T07:50:35.000Z</time>
      </trkpt>
      <trkpt lat="47.25733" lon="4.96244">
        <ele>481.7</ele>
        <time>2013-04-06T07:50:36.000Z</time>
      </trkpt>
      <trkpt lat="47.25734" lon="4.96249">
        <ele>482.2</ele>
        <time>2013-04-06T07:50:38.000Z</time>
      </trkpt>
      <trkpt lat="47.25734" lon="4.96251">
        <ele>482</ele>
        <time>2013-04-06T07:50:39.000Z</time>
      </trkpt>
      <trkpt lat="47.25735" lon="4.96256">
        <ele>482</ele>
        <time>2013-04-06T07:50:41.000Z</time>
      </trkpt>
      <trkpt lat="47.25736" lon="4.96258">
        <ele>482</ele>
        <time>2013-04-06T07:50:42.000Z</time>
      </trkpt>
      <trkpt lat="47.25737" lon="4.96264">
        <ele>482.3</ele>
        <time>2013-04-06T07:50:45.000Z</time>
      </trkpt>
      <trkpt lat="47.25737" lon="4.96266">
        <ele>482.5</ele>
        <time>2013-04-06T07:50:46.000Z</time>
      </trkpt>
      <trkpt lat="47.25736" lon="4.9627">
        <ele>482.6</ele>
        <time>2013-04-06T07:50:48.000Z</time>
      </trkpt>
      <trkpt lat="47.25736" lon="4.96273">
        <ele>482.4</ele>
        <time>2013-04-06T07:50:49.000Z</time>
      </trkpt>
      <trkpt lat="47.25737" lon="4.96278">
        <ele>482.3</ele>
        <time>2013-04-06T07:50:51.000Z</time>
      </trkpt>
      <trkpt lat="47.25738" lon="4.9628">
        <ele>482.3</ele>
        <time>2013-04-06T07:50:52.000Z</time>
      </trkpt>
      <trkpt lat="47.25739" lon="4.96285">
        <ele>482</ele>
        <time>2013-04-06T07:50:54.000Z</time>
      </trkpt>
      <trkpt lat="47.25739" lon="4.96287">
        <ele>482.1</ele>
        <time>2013-04-06T07:50:55.000Z</time>
      </trkpt>
      <trkpt lat="47.2574" lon="4.96292">
        <ele>482.2</ele>
        <time>2013-04-06T07:50:57.000Z</time>
      </trkpt>
      <trkpt lat="47.2574" lon="4.96295">
        <ele>482.2</ele>
        <time>2013-04-06T07:50:58.000Z</time>
      </trkpt>
      <trkpt lat="47.2574" lon="4.963">
        <ele>482</ele>
        <time>2013-04-06T07:51:00.000Z</time>
      </trkpt>
      <trkpt lat="47.2574" lon="4.96302">
        <ele>482</ele>
        <time>2013-04-06T07:51:01.000Z</time>
      </trkpt>
      <trkpt lat="47.2574" lon="4.96308">
        <ele>482.1</ele>
        <time>2013-04-06T07:51:03.000Z</time>
      </trkpt>
      <trkpt lat="47.2574" lon="4.9631">
        <ele>481.9</ele>
        <time>2013-04-06T07:51:04.000Z</time>
      </trkpt>
      <trkpt lat="47.2574" lon="4.96316">
        <ele>481.9</ele>
        <time>2013-04-06T07:51:06.000Z</time>
      </trkpt>
      <trkpt lat="47.2574" lon="4.96318">
        <ele>481.9</ele>
        <time>2013-04-06T07:51:07.000Z</time>
      </trkpt>
      <trkpt lat="47.25741" lon="4.96323">
        <ele>481.8</ele>
        <time>2013-04-06T07:51:09.000Z</time>
      </trkpt>
      <trkpt lat="47.25741" lon="4.96326">
        <ele>481.7</ele>
        <time>2013-04-06T07:51:10.000Z</time>
      </trkpt>
      <trkpt lat="47.25742" lon="4.96331">
        <ele>481.6</ele>
        <time>2013-04-06T07:51:12.000Z</time>
      </trkpt>
      <trkpt lat="47.25743" lon="4.96334">
        <ele>481.5</ele>
        <time>2013-04-06T07:51:13.000Z</time>
      </trkpt>
      <trkpt lat="47.25744" lon="4.96339">
        <ele>481.5</ele>
        <time>2013-04-06T07:51:15.000Z</time>
      </trkpt>
      <trkpt lat="47.25744" lon="4.96341">
        <ele>481.5</ele>
        <time>2013-04-06T07:51:16.000Z</time>
      </trkpt>
      <trkpt lat="47.25745" lon="4.96346">
        <ele>481.3</ele>
        <time>2013-04-06T07:51:18.000Z</time>
      </trkpt>
      <trkpt lat="47.25746" lon="4.96348">
        <ele>481.2</ele>
        <time>2013-04-06T07:51:19.000Z</time>
      </trkpt>
      <trkpt lat="47.25746" lon="4.96353">
        <ele>481.1</ele>
        <time>2013-04-06T07:51:21.000Z</time>
      </trkpt>
      <trkpt lat="47.25747" lon="4.96355">
        <ele>481.1</ele>
        <time>2013-04-06T07:51:22.000Z</time>
      </trkpt>
      <trkpt lat="47.25747" lon="4.9636">
        <ele>480.9</ele>
        <time>2013-04-06T07:51:24.000Z</time>
      </trkpt>
      <trkpt lat="47.25748" lon="4.96363">
        <ele>480.8</ele>
        <time>2013-04-06T07:51:25.000Z</time>
      </trkpt>
      <trkpt lat="47.25749" lon="4.96367">
        <ele>480.7</ele>
        <time>2013-04-06T07:51:27.000Z</time>
      </trkpt>
      <trkpt lat="47.25749" lon="4.9637">
        <ele>480.6</ele>
        <time>2013-04-06T07:51:28.000Z</time>
      </trkpt>
      <trkpt lat="47.2575" lon="4.96375">
        <ele>480.4</ele>
        <time>2013-04-06T07:51:30.000Z</time>
      </trkpt>
      <trkpt lat="47.2575" lon="4.96377">
        <ele>480.3</ele>
        <time>2013-04-06T07:51:31.000Z</time>
      </trkpt>
      <trkpt lat="47.25751" lon="4.96382">
        <ele>480.3</ele>
        <time>2013-04-06T07:51:33.000Z</time>
      </trkpt>
      <trkpt lat="47.25752" lon="4.96384">
        <ele>480.4</ele>
        <time>2013-04-06T07:51:34.000Z</time>
      </trkpt>
      <trkpt lat="47.25752" lon="4.96389">
        <ele>480.5</ele>
        <time>2013-04-06T07:51:36.000Z</time>
      </trkpt>
      <trkpt lat="47.25752" lon="4.96391">
        <ele>480.6</ele>
        <time>2013-04-06T07:51:37.000Z</time>
      </trkpt>
      <trkpt lat="47.25752" lon="4.96396">
        <ele>480.7</ele>
        <time>2013-04-06T07:51:39.000Z</time>
      </trkpt>
      <trkpt lat="47.25753" lon="4.96399">
        <ele>480.8</ele>
        <time>2013-04-06T07:51:40.000Z</time>
      </trkpt>
      <trkpt lat="47.25754" lon="4.96404">
        <ele>480.9</ele>
        <time>2013-04-06T07:51:42.000Z</time>
      </trkpt>
      <trkpt lat="47.25755" lon="4.96406">
        <ele>481.2</ele>
        <time>2013-04-06T07:51:43.000Z</time>
      </trkpt>
      <trkpt lat="47.25757" lon="4.9641">
        <ele>481.3</ele>
        <time>2013-04-06T07:51:45.000Z</time>
      </trkpt>
      <trkpt lat="47.25757" lon="4.96412">
        <ele>481.3</ele>
        <time>2013-04-06T07:51:46.000Z</time>
      </trkpt>
      <trkpt lat="47.25759" lon="4.96419">
        <ele>481.3</ele>
        <time>2013-04-06T07:51:49.000Z</time>
      </trkpt>
      <trkpt lat="47.25759" lon="4.96421">
        <ele>481.5</ele>
        <time>2013-04-06T07:51:50.000Z</time>
      </trkpt>
      <trkpt lat="47.25758" lon="4.96425">
        <ele>481.7</ele>
        <time>2013-04-06T07:51:52.000Z</time>
      </trkpt>
      <trkpt lat="47.25757" lon="4.96428">
        <ele>481.7</ele>
        <time>2013-04-06T07:51:53.000Z</time>
      </trkpt>
      <trkpt lat="47.25756" lon="4.96434">
        <ele>481.8</ele>
        <time>2013-04-06T07:51:57.000Z</time>
      </trkpt>
      <trkpt lat="47.25755" lon="4.96437">
        <ele>481.9</ele>
        <time>2013-04-06T07:51:58.000Z</time>
      </trkpt>
      <trkpt lat="47.25754" lon="4.9644">
        <ele>481.9</ele>
        <time>2013-04-06T07:51:59.000Z</time>
      </trkpt>
      <trkpt lat="47.25752" lon="4.96443">
        <ele>481.8</ele>
        <time>2013-04-06T07:52:00.000Z</time>
      </trkpt>
      <trkpt lat="47.25742" lon="4.96459">
        <ele>483.9</ele>
        <time>2013-04-06T07:52:07.000Z</time>
      </trkpt>
      <trkpt lat="47.25742" lon="4.96464">
        <ele>483</ele>
        <time>2013-04-06T07:52:09.000Z</time>
      </trkpt>
      <trkpt lat="47.25743" lon="4.96466">
        <ele>482.9</ele>
        <time>2013-04-06T07:52:10.000Z</time>
      </trkpt>
      <trkpt lat="47.25745" lon="4.96471">
        <ele>483.8</ele>
        <time>2013-04-06T07:52:12.000Z</time>
      </trkpt>
      <trkpt lat="47.25745" lon="4.96472">
        <ele>484.8</ele>
        <time>2013-04-06T07:52:13.000Z</time>
      </trkpt>
      <trkpt lat="47.25746" lon="4.96478">
        <ele>485</ele>
        <time>2013-04-06T07:52:16.000Z</time>
      </trkpt>
      <trkpt lat="47.25747" lon="4.9648">
        <ele>485.4</ele>
        <time>2013-04-06T07:52:17.000Z</time>
      </trkpt>
      <trkpt lat="47.25747" lon="4.96486">
        <ele>485.9</ele>
        <time>2013-04-06T07:52:20.000Z</time>
      </trkpt>
      <trkpt lat="47.25748" lon="4.96488">
        <ele>486.3</ele>
        <time>2013-04-06T07:52:21.000Z</time>
      </trkpt>
      <trkpt lat="47.25748" lon="4.96493">
        <ele>486.9</ele>
        <time>2013-04-06T07:52:23.000Z</time>
      </trkpt>
      <trkpt lat="47.25748" lon="4.96495">
        <ele>486.9</ele>
        <time>2013-04-06T07:52:24.000Z</time>
      </trkpt>
      <trkpt lat="47.25748" lon="4.965">
        <ele>487.2</ele>
        <time>2013-04-06T07:52:26.000Z</time>
      </trkpt>
      <trkpt lat="47.25748" lon="4.96503">
        <ele>486.8</ele>
        <time>2013-04-06T07:52:27.000Z</time>
      </trkpt>
      <trkpt lat="47.25748" lon="4.96508">
        <ele>486.5</ele>
        <time>2013-04-06T07:52:29.000Z</time>
      </trkpt>
      <trkpt lat="47.25748" lon="4.9651">
        <ele>485.6</ele>
        <time>2013-04-06T07:52:30.000Z</time>
      </trkpt>
      <trkpt lat="47.25749" lon="4.96517">
        <ele>483.9</ele>
        <time>2013-04-06T07:52:32.000Z</time>
      </trkpt>
      <trkpt lat="47.25749" lon="4.96519">
        <ele>484</ele>
        <time>2013-04-06T07:52:33.000Z</time>
      </trkpt>
      <trkpt lat="47.2575" lon="4.96525">
        <ele>484.2</ele>
        <time>2013-04-06T07:52:36.000Z</time>
      </trkpt>
      <trkpt lat="47.25751" lon="4.96527">
        <ele>484.1</ele>
        <time>2013-04-06T07:52:37.000Z</time>
      </trkpt>
      <trkpt lat="47.25752" lon="4.96531">
        <ele>483.5</ele>
        <time>2013-04-06T07:52:39.000Z</time>
      </trkpt>
      <trkpt lat="47.25752" lon="4.96534">
        <ele>483.2</ele>
        <time>2013-04-06T07:52:40.000Z</time>
      </trkpt>
      <trkpt lat="47.25754" lon="4.96539">
        <ele>482.8</ele>
        <time>2013-04-06T07:52:43.000Z</time>
      </trkpt>
      <trkpt lat="47.25754" lon="4.96541">
        <ele>482.8</ele>
        <time>2013-04-06T07:52:44.000Z</time>
      </trkpt>
      <trkpt lat="47.25756" lon="4.96546">
        <ele>483.3</ele>
        <time>2013-04-06T07:52:47.000Z</time>
      </trkpt>
      <trkpt lat="47.25756" lon="4.96547">
        <ele>483.3</ele>
        <time>2013-04-06T07:52:48.000Z</time>
      </trkpt>
      <trkpt lat="47.25757" lon="4.96552">
        <ele>483.3</ele>
        <time>2013-04-06T07:52:51.000Z</time>
      </trkpt>
      <trkpt lat="47.25757" lon="4.96555">
        <ele>483.2</ele>
        <time>2013-04-06T07:52:52.000Z</time>
      </trkpt>
      <trkpt lat="47.25758" lon="4.9656">
        <ele>483</ele>
        <time>2013-04-06T07:52:54.000Z</time>
      </trkpt>
      <trkpt lat="47.25758" lon="4.96562">
        <ele>483</ele>
        <time>2013-04-06T07:52:55.000Z</time>
      </trkpt>
      <trkpt lat="47.25758" lon="4.96567">
        <ele>482.9</ele>
        <time>2013-04-06T07:52:57.000Z</time>
      </trkpt>
      <trkpt lat="47.25757" lon="4.96569">
        <ele>482.8</ele>
        <time>2013-04-06T07:52:58.000Z</time>
      </trkpt>
      <trkpt lat="47.25756" lon="4.96574">
        <ele>482.5</ele>
        <time>2013-04-06T07:53:00.000Z</time>
      </trkpt>
      <trkpt lat="47.25756" lon="4.96596">
        <ele>479.8</ele>
        <time>2013-04-06T07:53:07.000Z</time>
      </trkpt>
      <trkpt lat="47.25753" lon="4.96599">
        <ele>480.1</ele>
        <time>2013-04-06T07:53:09.000Z</time>
      </trkpt>
      <trkpt lat="47.25752" lon="4.96601">
        <ele>480.6</ele>
        <time>2013-04-06T07:53:10.000Z</time>
      </trkpt>
      <trkpt lat="47.2575" lon="4.96606">
        <ele>481.3</ele>
        <time>2013-04-06T07:53:12.000Z</time>
      </trkpt>
      <trkpt lat="47.25749" lon="4.96608">
        <ele>480.6</ele>
        <time>2013-04-06T07:53:13.000Z</time>
      </trkpt>
      <trkpt lat="47.25748" lon="4.96613">
        <ele>480.5</ele>
        <time>2013-04-06T07:53:15.000Z</time>
      </trkpt>
      <trkpt lat="47.25748" lon="4.96616">
        <ele>479.2</ele>
        <time>2013-04-06T07:53:16.000Z</time>
      </trkpt>
      <trkpt lat="47.25746" lon="4.96621">
        <ele>478.8</ele>
        <time>2013-04-06T07:53:18.000Z</time>
      </trkpt>
      <trkpt lat="47.25746" lon="4.96624">
        <ele>478.5</ele>
        <time>2013-04-06T07:53:19.000Z</time>
      </trkpt>
      <trkpt lat="47.25745" lon="4.96629">
        <ele>478.5</ele>
        <time>2013-04-06T07:53:21.000Z</time>
      </trkpt>
      <trkpt lat="47.25745" lon="4.96632">
        <ele>478.4</ele>
        <time>2013-04-06T07:53:22.000Z</time>
      </trkpt>
      <trkpt lat="47.25744" lon="4.96638">
        <ele>477.5</ele>
        <time>2013-04-06T07:53:25.000Z</time>
      </trkpt>
      <trkpt lat="47.25743" lon="4.96641">
        <ele>476.2</ele>
        <time>2013-04-06T07:53:26.000Z</time>
      </trkpt>
      <trkpt lat="47.25742" lon="4.96646">
        <ele>475</ele>
        <time>2013-04-06T07:53:28.000Z</time>
      </trkpt>
      <trkpt lat="47.25742" lon="4.96649">
        <ele>474.3</ele>
        <time>2013-04-06T07:53:29.000Z</time>
      </trkpt>
      <trkpt lat="47.25741" lon="4.96654">
        <ele>474.2</ele>
        <time>2013-04-06T07:53:31.000Z</time>
      </trkpt>
      <trkpt lat="47.2574" lon="4.96657">
        <ele>474.6</ele>
        <time>2013-04-06T07:53:32.000Z</time>
      </trkpt>
      <trkpt lat="47.2574" lon="4.96663">
        <ele>474.7</ele>
        <time>2013-04-06T07:53:34.000Z</time>
      </trkpt>
      <trkpt lat="47.2574" lon="4.96665">
        <ele>475</ele>
        <time>2013-04-06T07:53:35.000Z</time>
      </trkpt>
      <trkpt lat="47.25741" lon="4.9667">
        <ele>475</ele>
        <time>2013-04-06T07:53:37.000Z</time>
      </trkpt>
      <trkpt lat="47.25741" lon="4.96673">
        <ele>474.9</ele>
        <time>2013-04-06T07:53:38.000Z</time>
      </trkpt>
      <trkpt lat="47.25741" lon="4.96678">
        <ele>474.7</ele>
        <time>2013-04-06T07:53:40.000Z</time>
      </trkpt>
      <trkpt lat="47.25741" lon="4.96681">
        <ele>474.3</ele>
        <time>2013-04-06T07:53:41.000Z</time>
      </trkpt>
      <trkpt lat="47.2574" lon="4.96684">
        <ele>473.9</ele>
        <time>2013-04-06T07:53:42.000Z</time>
      </trkpt>
      <trkpt lat="47.2574" lon="4.96687">
        <ele>473.6</ele>
        <time>2013-04-06T07:53:43.000Z</time>
      </trkpt>
      <trkpt lat="47.25739" lon="4.96693">
        <ele>473.8</ele>
        <time>2013-04-06T07:53:45.000Z</time>
      </trkpt>
      <trkpt lat="47.25738" lon="4.96696">
        <ele>473.9</ele>
        <time>2013-04-06T07:53:46.000Z</time>
      </trkpt>
      <trkpt lat="47.25737" lon="4.96702">
        <ele>474</ele>
        <time>2013-04-06T07:53:49.000Z</time>
      </trkpt>
      <trkpt lat="47.25736" lon="4.96704">
        <ele>473.8</ele>
        <time>2013-04-06T07:53:50.000Z</time>
      </trkpt>
      <trkpt lat="47.25735" lon="4.96709">
        <ele>473.8</ele>
        <time>2013-04-06T07:53:52.000Z</time>
      </trkpt>
      <trkpt lat="47.25734" lon="4.96711">
        <ele>473.6</ele>
        <time>2013-04-06T07:53:53.000Z</time>
      </trkpt>
      <trkpt lat="47.25733" lon="4.96717">
        <ele>473.1</ele>
        <time>2013-04-06T07:53:55.000Z</time>
      </trkpt>
      <trkpt lat="47.25732" lon="4.96719">
        <ele>472.9</ele>
        <time>2013-04-06T07:53:56.000Z</time>
      </trkpt>
      <trkpt lat="47.25732" lon="4.96724">
        <ele>472.5</ele>
        <time>2013-04-06T07:53:58.000Z</time>
      </trkpt>
      <trkpt lat="47.25731" lon="4.96726">
        <ele>472.4</ele>
        <time>2013-04-06T07:53:59.000Z</time>
      </trkpt>
      <trkpt lat="47.2573" lon="4.96728">
        <ele>472.5</ele>
        <time>2013-04-06T07:54:00.000Z</time>
      </trkpt>
      <trkpt lat="47.25734" lon="4.96749">
        <ele>464.8</ele>
        <time>2013-04-06T07:54:07.000Z</time>
      </trkpt>
      <trkpt lat="47.25733" lon="4.96754">
        <ele>467.6</ele>
        <time>2013-04-06T07:54:10.000Z</time>
      </trkpt>
      <trkpt lat="47.25733" lon="4.96756">
        <ele>466.6</ele>
        <time>2013-04-06T07:54:11.000Z</time>
      </trkpt>
      <trkpt lat="47.25733" lon="4.9676">
        <ele>467.8</ele>
        <time>2013-04-06T07:54:14.000Z</time>
      </trkpt>
      <trkpt lat="47.25732" lon="4.96763">
        <ele>467.2</ele>
        <time>2013-04-06T07:54:15.000Z</time>
      </trkpt>
      <trkpt lat="47.25732" lon="4.96768">
        <ele>467.9</ele>
        <time>2013-04-06T07:54:18.000Z</time>
      </trkpt>
      <trkpt lat="47.25732" lon="4.96769">
        <ele>467.6</ele>
        <time>2013-04-06T07:54:19.000Z</time>
      </trkpt>
      <trkpt lat="47.25731" lon="4.96775">
        <ele>465.2</ele>
        <time>2013-04-06T07:54:22.000Z</time>
      </trkpt>
      <trkpt lat="47.25731" lon="4.96777">
        <ele>464.4</ele>
        <time>2013-04-06T07:54:23.000Z</time>
      </trkpt>
      <trkpt lat="47.2573" lon="4.96783">
        <ele>462.7</ele>
        <time>2013-04-06T07:54:25.000Z</time>
      </trkpt>
      <trkpt lat="47.2573" lon="4.96785">
        <ele>462.6</ele>
        <time>2013-04-06T07:54:26.000Z</time>
      </trkpt>
      <trkpt lat="47.2573" lon="4.96791">
        <ele>461.1</ele>
        <time>2013-04-06T07:54:29.000Z</time>
      </trkpt>
      <trkpt lat="47.25731" lon="4.96793">
        <ele>460.4</ele>
        <time>2013-04-06T07:54:30.000Z</time>
      </trkpt>
      <trkpt lat="47.25732" lon="4.96797">
        <ele>459.6</ele>
        <time>2013-04-06T07:54:32.000Z</time>
      </trkpt>
      <trkpt lat="47.25732" lon="4.968">
        <ele>458.8</ele>
        <time>2013-04-06T07:54:33.000Z</time>
      </trkpt>
      <trkpt lat="47.25733" lon="4.96806">
        <ele>457.9</ele>
        <time>2013-04-06T07:54:36.000Z</time>
      </trkpt>
      <trkpt lat="47.25734" lon="4.96808">
        <ele>457.9</ele>
        <time>2013-04-06T07:54:37.000Z</time>
      </trkpt>
      <trkpt lat="47.25734" lon="4.96813">
        <ele>457.7</ele>
        <time>2013-04-06T07:54:39.000Z</time>
      </trkpt>
      <trkpt lat="47.25734" lon="4.96815">
        <ele>457.9</ele>
        <time>2013-04-06T07:54:40.000Z</time>
      </trkpt>
      <trkpt lat="47.25734" lon="4.9682">
        <ele>457.9</ele>
        <time>2013-04-06T07:54:42.000Z</time>
      </trkpt>
      <trkpt lat="47.25734" lon="4.96822">
        <ele>457.8</ele>
        <time>2013-04-06T07:54:43.000Z</time>
      </trkpt>
      <trkpt lat="47.25735" lon="4.96828">
        <ele>457.1</ele>
        <time>2013-04-06T07:54:46.000Z</time>
      </trkpt>
      <trkpt lat="47.25736" lon="4.9683">
        <ele>456.9</ele>
        <time>2013-04-06T07:54:47.000Z</time>
      </trkpt>
      <trkpt lat="47.25737" lon="4.96834">
        <ele>456.8</ele>
        <time>2013-04-06T07:54:49.000Z</time>
      </trkpt>
      <trkpt lat="47.25737" lon="4.96836">
        <ele>456.7</ele>
        <time>2013-04-06T07:54:50.000Z</time>
      </trkpt>
      <trkpt lat="47.25739" lon="4.96842">
        <ele>456.3</ele>
        <time>2013-04-06T07:54:53.000Z</time>
      </trkpt>
      <trkpt lat="47.25739" lon="4.96843">
        <ele>456</ele>
        <time>2013-04-06T07:54:54.000Z</time>
      </trkpt>
      <trkpt lat="47.25742" lon="4.96848">
        <ele>455.2</ele>
        <time>2013-04-06T07:54:57.000Z</time>
      </trkpt>
      <trkpt lat="47.25744" lon="4.96849">
        <ele>455</ele>
        <time>2013-04-06T07:54:58.000Z</time>
      </trkpt>
      <trkpt lat="47.25745" lon="4.96854">
        <ele>454.7</ele>
        <time>2013-04-06T07:55:00.000Z</time>
      </trkpt>
      <trkpt lat="47.25755" lon="4.96865">
        <ele>452.4</ele>
        <time>2013-04-06T07:55:07.000Z</time>
      </trkpt>
      <trkpt lat="47.25758" lon="4.9687">
        <ele>455.4</ele>
        <time>2013-04-06T07:55:09.000Z</time>
      </trkpt>
      <trkpt lat="47.25759" lon="4.96871">
        <ele>455.2</ele>
        <time>2013-04-06T07:55:10.000Z</time>
      </trkpt>
      <trkpt lat="47.25762" lon="4.96876">
        <ele>453.8</ele>
        <time>2013-04-06T07:55:13.000Z</time>
      </trkpt>
      <trkpt lat="47.25762" lon="4.96878">
        <ele>453.2</ele>
        <time>2013-04-06T07:55:14.000Z</time>
      </trkpt>
      <trkpt lat="47.25764" lon="4.96883">
        <ele>453.2</ele>
        <time>2013-04-06T07:55:18.000Z</time>
      </trkpt>
      <trkpt lat="47.25765" lon="4.96883">
        <ele>453.2</ele>
        <time>2013-04-06T07:55:19.000Z</time>
      </trkpt>
      <trkpt lat="47.25769" lon="4.96884">
        <ele>452.5</ele>
        <time>2013-04-06T07:55:22.000Z</time>
      </trkpt>
      <trkpt lat="47.2577" lon="4.96884">
        <ele>452.6</ele>
        <time>2013-04-06T07:55:23.000Z</time>
      </trkpt>
      <trkpt lat="47.25774" lon="4.96883">
        <ele>452.7</ele>
        <time>2013-04-06T07:55:26.000Z</time>
      </trkpt>
      <trkpt lat="47.25775" lon="4.96884">
        <ele>453.2</ele>
        <time>2013-04-06T07:55:27.000Z</time>
      </trkpt>
      <trkpt lat="47.25778" lon="4.96883">
        <ele>453.2</ele>
        <time>2013-04-06T07:55:29.000Z</time>
      </trkpt>
      <trkpt lat="47.2578" lon="4.96883">
        <ele>453.3</ele>
        <time>2013-04-06T07:55:30.000Z</time>
      </trkpt>
      <trkpt lat="47.25783" lon="4.96883">
        <ele>454.7</ele>
        <time>2013-04-06T07:55:32.000Z</time>
      </trkpt>
      <trkpt lat="47.25785" lon="4.96882">
        <ele>454.5</ele>
        <time>2013-04-06T07:55:33.000Z</time>
      </trkpt>
      <trkpt lat="47.25788" lon="4.96883">
        <ele>454.8</ele>
        <time>2013-04-06T07:55:35.000Z</time>
      </trkpt>
      <trkpt lat="47.2579" lon="4.96882">
        <ele>454.8</ele>
        <time>2013-04-06T07:55:36.000Z</time>
      </trkpt>
      <trkpt lat="47.25795" lon="4.96882">
        <ele>454</ele>
        <time>2013-04-06T07:55:39.000Z</time>
      </trkpt>
      <trkpt lat="47.25796" lon="4.96882">
        <ele>453.9</ele>
        <time>2013-04-06T07:55:40.000Z</time>
      </trkpt>
      <trkpt lat="47.258" lon="4.96882">
        <ele>453.9</ele>
        <time>2013-04-06T07:55:42.000Z</time>
      </trkpt>
      <trkpt lat="47.25802" lon="4.96882">
        <ele>454.2</ele>
        <time>2013-04-06T07:55:43.000Z</time>
      </trkpt>
      <trkpt lat="47.25805" lon="4.96882">
        <ele>454.5</ele>
        <time>2013-04-06T07:55:45.000Z</time>
      </trkpt>
      <trkpt lat="47.25806" lon="4.96881">
        <ele>454.7</ele>
        <time>2013-04-06T07:55:46.000Z</time>
      </trkpt>
      <trkpt lat="47.2581" lon="4.9688">
        <ele>454.9</ele>
        <time>2013-04-06T07:55:48.000Z</time>
      </trkpt>
      <trkpt lat="47.25812" lon="4.9688">
        <ele>454.8</ele>
        <time>2013-04-06T07:55:49.000Z</time>
      </trkpt>
      <trkpt lat="47.25816" lon="4.96879">
        <ele>454.6</ele>
        <time>2013-04-06T07:55:52.000Z</time>
      </trkpt>
      <trkpt lat="47.25817" lon="4.96879">
        <ele>454.4</ele>
        <time>2013-04-06T07:55:53.000Z</time>
      </trkpt>
      <trkpt lat="47.25821" lon="4.96879">
        <ele>454.7</ele>
        <time>2013-04-06T07:55:55.000Z</time>
      </trkpt>
      <trkpt lat="47.25822" lon="4.9688">
        <ele>455</ele>
        <time>2013-04-06T07:55:56.000Z</time>
      </trkpt>
      <trkpt lat="47.25826" lon="4.96878">
        <ele>455.2</ele>
        <time>2013-04-06T07:55:59.000Z</time>
      </trkpt>
      <trkpt lat="47.25827" lon="4.96877">
        <ele>455.1</ele>
        <time>2013-04-06T07:56:00.000Z</time>
      </trkpt>
      <trkpt lat="47.25843" lon="4.96871">
        <ele>454.9</ele>
        <time>2013-04-06T07:56:07.000Z</time>
      </trkpt>
      <trkpt lat="47.25846" lon="4.96869">
        <ele>456.5</ele>
        <time>2013-04-06T07:56:09.000Z</time>
      </trkpt>
      <trkpt lat="47.25847" lon="4.96868">
        <ele>456.4</ele>
        <time>2013-04-06T07:56:10.000Z</time>
      </trkpt>
      <trkpt lat="47.25851" lon="4.96865">
        <ele>458.2</ele>
        <time>2013-04-06T07:56:13.000Z</time>
      </trkpt>
      <trkpt lat="47.25852" lon="4.96864">
        <ele>458.5</ele>
        <time>2013-04-06T07:56:14.000Z</time>
      </trkpt>
      <trkpt lat="47.25855" lon="4.96861">
        <ele>459.2</ele>
        <time>2013-04-06T07:56:16.000Z</time>
      </trkpt>
      <trkpt lat="47.25856" lon="4.9686">
        <ele>459.7</ele>
        <time>2013-04-06T07:56:17.000Z</time>
      </trkpt>
      <trkpt lat="47.2586" lon="4.96856">
        <ele>460.9</ele>
        <time>2013-04-06T07:56:20.000Z</time>
      </trkpt>
      <trkpt lat="47.25861" lon="4.96855">
        <ele>461.1</ele>
        <time>2013-04-06T07:56:21.000Z</time>
      </trkpt>
      <trkpt lat="47.25865" lon="4.96854">
        <ele>461</ele>
        <time>2013-04-06T07:56:23.000Z</time>
      </trkpt>
      <trkpt lat="47.25866" lon="4.96854">
        <ele>460.5</ele>
        <time>2013-04-06T07:56:24.000Z</time>
      </trkpt>
      <trkpt lat="47.25869" lon="4.96852">
        <ele>460.7</ele>
        <time>2013-04-06T07:56:26.000Z</time>
      </trkpt>
      <trkpt lat="47.25871" lon="4.96851">
        <ele>460.6</ele>
        <time>2013-04-06T07:56:27.000Z</time>
      </trkpt>
      <trkpt lat="47.25874" lon="4.96849">
        <ele>460.5</ele>
        <time>2013-04-06T07:56:29.000Z</time>
      </trkpt>
      <trkpt lat="47.25876" lon="4.96848">
        <ele>460.2</ele>
        <time>2013-04-06T07:56:30.000Z</time>
      </trkpt>
      <trkpt lat="47.25878" lon="4.96847">
        <ele>459.6</ele>
        <time>2013-04-06T07:56:32.000Z</time>
      </trkpt>
      <trkpt lat="47.2588" lon="4.96846">
        <ele>459</ele>
        <time>2013-04-06T07:56:33.000Z</time>
      </trkpt>
      <trkpt lat="47.25883" lon="4.96844">
        <ele>458.4</ele>
        <time>2013-04-06T07:56:35.000Z</time>
      </trkpt>
      <trkpt lat="47.25884" lon="4.96844">
        <ele>458</ele>
        <time>2013-04-06T07:56:36.000Z</time>
      </trkpt>
      <trkpt lat="47.25888" lon="4.96841">
        <ele>457.6</ele>
        <time>2013-04-06T07:56:38.000Z</time>
      </trkpt>
      <trkpt lat="47.2589" lon="4.9684">
        <ele>457.7</ele>
        <time>2013-04-06T07:56:39.000Z</time>
      </trkpt>
      <trkpt lat="47.25894" lon="4.96839">
        <ele>458.4</ele>
        <time>2013-04-06T07:56:41.000Z</time>
      </trkpt>
      <trkpt lat="47.25895" lon="4.96838">
        <ele>458.6</ele>
        <time>2013-04-06T07:56:42.000Z</time>
      </trkpt>
      <trkpt lat="47.25899" lon="4.96838">
        <ele>458.4</ele>
        <time>2013-04-06T07:56:44.000Z</time>
      </trkpt>
      <trkpt lat="47.259" lon="4.96837">
        <ele>458.3</ele>
        <time>2013-04-06T07:56:45.000Z</time>
      </trkpt>
      <trkpt lat="47.25905" lon="4.96839">
        <ele>457.9</ele>
        <time>2013-04-06T07:56:47.000Z</time>
      </trkpt>
      <trkpt lat="47.25907" lon="4.96839">
        <ele>457.6</ele>
        <time>2013-04-06T07:56:48.000Z</time>
      </trkpt>
      <trkpt lat="47.2591" lon="4.9684">
        <ele>457.3</ele>
        <time>2013-04-06T07:56:50.000Z</time>
      </trkpt>
      <trkpt lat="47.25912" lon="4.96841">
        <ele>457.1</ele>
        <time>2013-04-06T07:56:51.000Z</time>
      </trkpt>
      <trkpt lat="47.25915" lon="4.96843">
        <ele>456.9</ele>
        <time>2013-04-06T07:56:53.000Z</time>
      </trkpt>
      <trkpt lat="47.25917" lon="4.96843">
        <ele>457</ele>
        <time>2013-04-06T07:56:54.000Z</time>
      </trkpt>
      <trkpt lat="47.2592" lon="4.96841">
        <ele>457.1</ele>
        <time>2013-04-06T07:56:56.000Z</time>
      </trkpt>
      <trkpt lat="47.25922" lon="4.9684">
        <ele>457.1</ele>
        <time>2013-04-06T07:56:57.000Z</time>
      </trkpt>
      <trkpt lat="47.25924" lon="4.96838">
        <ele>456.9</ele>
        <time>2013-04-06T07:56:59.000Z</time>
      </trkpt>
      <trkpt lat="47.25926" lon="4.96837">
        <ele>456.8</ele>
        <time>2013-04-06T07:57:00.000Z</time>
      </trkpt>
      <trkpt lat="47.25927" lon="4.96836">
        <ele>456.7</ele>
        <time>2013-04-06T07:57:01.000Z</time>
      </trkpt>
      <trkpt lat="47.25946" lon="4.96836">
        <ele>451.6</ele>
        <time>2013-04-06T07:57:08.000Z</time>
      </trkpt>
      <trkpt lat="47.25947" lon="4.96831">
        <ele>453.4</ele>
        <time>2013-04-06T07:57:45.000Z</time>
      </trkpt>
      <trkpt lat="47.25946" lon="4.96826">
        <ele>457.5</ele>
        <time>2013-04-06T07:57:46.000Z</time>
      </trkpt>
      <trkpt lat="47.25948" lon="4.96823">
        <ele>456.5</ele>
        <time>2013-04-06T07:57:52.000Z</time>
      </trkpt>
      <trkpt lat="47.25949" lon="4.96822">
        <ele>456.5</ele>
        <time>2013-04-06T07:57:53.000Z</time>
      </trkpt>
      <trkpt lat="47.25952" lon="4.96819">
        <ele>456</ele>
        <time>2013-04-06T07:57:56.000Z</time>
      </trkpt>
      <trkpt lat="47.25953" lon="4.96818">
        <ele>455.9</ele>
        <time>2013-04-06T07:57:57.000Z</time>
      </trkpt>
      <trkpt lat="47.25957" lon="4.96815">
        <ele>455.8</ele>
        <time>2013-04-06T07:58:00.000Z</time>
      </trkpt>
      <trkpt lat="47.25958" lon="4.96814">
        <ele>455.9</ele>
        <time>2013-04-06T07:58:01.000Z</time>
      </trkpt>
      <trkpt lat="47.25963" lon="4.96801">
        <ele>459.5</ele>
        <time>2013-04-06T07:58:08.000Z</time>
      </trkpt>
      <trkpt lat="47.25966" lon="4.96801">
        <ele>459.3</ele>
        <time>2013-04-06T07:58:09.000Z</time>
      </trkpt>
      <trkpt lat="47.25968" lon="4.96802">
        <ele>459</ele>
        <time>2013-04-06T07:58:10.000Z</time>
      </trkpt>
      <trkpt lat="47.25969" lon="4.96805">
        <ele>457.5</ele>
        <time>2013-04-06T07:58:11.000Z</time>
      </trkpt>
      <trkpt lat="47.25971" lon="4.96807">
        <ele>456.7</ele>
        <time>2013-04-06T07:58:12.000Z</time>
      </trkpt>
      <trkpt lat="47.25973" lon="4.96812">
        <ele>455.6</ele>
        <time>2013-04-06T07:58:14.000Z</time>
      </trkpt>
      <trkpt lat="47.25974" lon="4.96815">
        <ele>455.2</ele>
        <time>2013-04-06T07:58:15.000Z</time>
      </trkpt>
      <trkpt lat="47.25976" lon="4.96818">
        <ele>454</ele>
        <time>2013-04-06T07:58:17.000Z</time>
      </trkpt>
      <trkpt lat="47.25977" lon="4.96821">
        <ele>453.4</ele>
        <time>2013-04-06T07:58:18.000Z</time>
      </trkpt>
      <trkpt lat="47.25979" lon="4.96826">
        <ele>453.3</ele>
        <time>2013-04-06T07:58:21.000Z</time>
      </trkpt>
      <trkpt lat="47.25979" lon="4.96827">
        <ele>453.2</ele>
        <time>2013-04-06T07:58:22.000Z</time>
      </trkpt>
      <trkpt lat="47.25981" lon="4.96831">
        <ele>452.6</ele>
        <time>2013-04-06T07:58:24.000Z</time>
      </trkpt>
      <trkpt lat="47.25982" lon="4.96833">
        <ele>453</ele>
        <time>2013-04-06T07:58:25.000Z</time>
      </trkpt>
      <trkpt lat="47.25982" lon="4.96838">
        <ele>452.6</ele>
        <time>2013-04-06T07:58:27.000Z</time>
      </trkpt>
      <trkpt lat="47.25982" lon="4.96841">
        <ele>451.7</ele>
        <time>2013-04-06T07:58:28.000Z</time>
      </trkpt>
      <trkpt lat="47.25982" lon="4.96847">
        <ele>451.1</ele>
        <time>2013-04-06T07:58:30.000Z</time>
      </trkpt>
      <trkpt lat="47.25983" lon="4.96849">
        <ele>450.9</ele>
        <time>2013-04-06T07:58:31.000Z</time>
      </trkpt>
      <trkpt lat="47.25983" lon="4.96854">
        <ele>450</ele>
        <time>2013-04-06T07:58:33.000Z</time>
      </trkpt>
      <trkpt lat="47.25983" lon="4.96857">
        <ele>449.3</ele>
        <time>2013-04-06T07:58:34.000Z</time>
      </trkpt>
      <trkpt lat="47.25984" lon="4.96862">
        <ele>448.1</ele>
        <time>2013-04-06T07:58:36.000Z</time>
      </trkpt>
      <trkpt lat="47.25984" lon="4.96865">
        <ele>447.6</ele>
        <time>2013-04-06T07:58:37.000Z</time>
      </trkpt>
      <trkpt lat="47.25984" lon="4.9687">
        <ele>446.2</ele>
        <time>2013-04-06T07:58:39.000Z</time>
      </trkpt>
      <trkpt lat="47.25984" lon="4.96873">
        <ele>445.5</ele>
        <time>2013-04-06T07:58:40.000Z</time>
      </trkpt>
      <trkpt lat="47.25984" lon="4.96876">
        <ele>445</ele>
        <time>2013-04-06T07:58:41.000Z</time>
      </trkpt>
      <trkpt lat="47.25984" lon="4.96879">
        <ele>444.7</ele>
        <time>2013-04-06T07:58:42.000Z</time>
      </trkpt>
      <trkpt lat="47.25983" lon="4.96885">
        <ele>444.2</ele>
        <time>2013-04-06T07:58:44.000Z</time>
      </trkpt>
      <trkpt lat="47.25982" lon="4.96888">
        <ele>444.2</ele>
        <time>2013-04-06T07:58:45.000Z</time>
      </trkpt>
      <trkpt lat="47.25983" lon="4.96891">
        <ele>443.9</ele>
        <time>2013-04-06T07:58:46.000Z</time>
      </trkpt>
      <trkpt lat="47.25984" lon="4.96895">
        <ele>443.7</ele>
        <time>2013-04-06T07:58:47.000Z</time>
      </trkpt>
      <trkpt lat="47.25984" lon="4.96901">
        <ele>443.5</ele>
        <time>2013-04-06T07:58:49.000Z</time>
      </trkpt>
      <trkpt lat="47.25984" lon="4.96904">
        <ele>443.5</ele>
        <time>2013-04-06T07:58:50.000Z</time>
      </trkpt>
      <trkpt lat="47.25984" lon="4.96909">
        <ele>443.3</ele>
        <time>2013-04-06T07:58:52.000Z</time>
      </trkpt>
      <trkpt lat="47.25984" lon="4.96912">
        <ele>443.3</ele>
        <time>2013-04-06T07:58:53.000Z</time>
      </trkpt>
      <trkpt lat="47.25982" lon="4.96917">
        <ele>442.9</ele>
        <time>2013-04-06T07:58:55.000Z</time>
      </trkpt>
      <trkpt lat="47.25981" lon="4.9692">
        <ele>442.7</ele>
        <time>2013-04-06T07:58:56.000Z</time>
      </trkpt>
      <trkpt lat="47.25979" lon="4.96923">
        <ele>442.2</ele>
        <time>2013-04-06T07:58:57.000Z</time>
      </trkpt>
      <trkpt lat="47.25978" lon="4.96926">
        <ele>441.8</ele>
        <time>2013-04-06T07:58:58.000Z</time>
      </trkpt>
      <trkpt lat="47.25976" lon="4.9693">
        <ele>441.4</ele>
        <time>2013-04-06T07:59:00.000Z</time>
      </trkpt>
      <trkpt lat="47.25975" lon="4.96932">
        <ele>441.1</ele>
        <time>2013-04-06T07:59:01.000Z</time>
      </trkpt>
      <trkpt lat="47.25971" lon="4.96953">
        <ele>431.8</ele>
        <time>2013-04-06T07:59:07.000Z</time>
      </trkpt>
      <trkpt lat="47.25969" lon="4.96959">
        <ele>429.9</ele>
        <time>2013-04-06T07:59:10.000Z</time>
      </trkpt>
      <trkpt lat="47.25968" lon="4.96961">
        <ele>429.6</ele>
        <time>2013-04-06T07:59:11.000Z</time>
      </trkpt>
      <trkpt lat="47.25966" lon="4.96964">
        <ele>431.6</ele>
        <time>2013-04-06T07:59:13.000Z</time>
      </trkpt>
      <trkpt lat="47.25965" lon="4.96967">
        <ele>431.1</ele>
        <time>2013-04-06T07:59:14.000Z</time>
      </trkpt>
      <trkpt lat="47.25964" lon="4.96972">
        <ele>430.4</ele>
        <time>2013-04-06T07:59:16.000Z</time>
      </trkpt>
      <trkpt lat="47.25964" lon="4.96975">
        <ele>430</ele>
        <time>2013-04-06T07:59:17.000Z</time>
      </trkpt>
      <trkpt lat="47.25963" lon="4.9698">
        <ele>429.1</ele>
        <time>2013-04-06T07:59:19.000Z</time>
      </trkpt>
      <trkpt lat="47.25962" lon="4.96982">
        <ele>429.7</ele>
        <time>2013-04-06T07:59:20.000Z</time>
      </trkpt>
      <trkpt lat="47.25962" lon="4.96987">
        <ele>429.6</ele>
        <time>2013-04-06T07:59:22.000Z</time>
      </trkpt>
      <trkpt lat="47.25962" lon="4.9699">
        <ele>429.2</ele>
        <time>2013-04-06T07:59:23.000Z</time>
      </trkpt>
      <trkpt lat="47.25962" lon="4.96994">
        <ele>429</ele>
        <time>2013-04-06T07:59:25.000Z</time>
      </trkpt>
      <trkpt lat="47.25962" lon="4.96997">
        <ele>428.3</ele>
        <time>2013-04-06T07:59:26.000Z</time>
      </trkpt>
      <trkpt lat="47.25961" lon="4.97002">
        <ele>427.9</ele>
        <time>2013-04-06T07:59:28.000Z</time>
      </trkpt>
      <trkpt lat="47.25961" lon="4.97005">
        <ele>427.8</ele>
        <time>2013-04-06T07:59:29.000Z</time>
      </trkpt>
      <trkpt lat="47.25959" lon="4.9701">
        <ele>426.9</ele>
        <time>2013-04-06T07:59:31.000Z</time>
      </trkpt>
      <trkpt lat="47.25959" lon="4.97014">
        <ele>427.5</ele>
        <time>2013-04-06T07:59:32.000Z</time>
      </trkpt>
      <trkpt lat="47.25958" lon="4.97018">
        <ele>426.9</ele>
        <time>2013-04-06T07:59:34.000Z</time>
      </trkpt>
      <trkpt lat="47.25958" lon="4.97021">
        <ele>426.7</ele>
        <time>2013-04-06T07:59:35.000Z</time>
      </trkpt>
      <trkpt lat="47.25957" lon="4.97026">
        <ele>425.6</ele>
        <time>2013-04-06T07:59:37.000Z</time>
      </trkpt>
      <trkpt lat="47.25957" lon="4.97029">
        <ele>425.3</ele>
        <time>2013-04-06T07:59:38.000Z</time>
      </trkpt>
      <trkpt lat="47.25957" lon="4.97035">
        <ele>424.4</ele>
        <time>2013-04-06T07:59:40.000Z</time>
      </trkpt>
      <trkpt lat="47.25956" lon="4.97037">
        <ele>424.1</ele>
        <time>2013-04-06T07:59:41.000Z</time>
      </trkpt>
      <trkpt lat="47.25956" lon="4.97042">
        <ele>423.5</ele>
        <time>2013-04-06T07:59:43.000Z</time>
      </trkpt>
      <trkpt lat="47.25957" lon="4.97044">
        <ele>423.1</ele>
        <time>2013-04-06T07:59:44.000Z</time>
      </trkpt>
      <trkpt lat="47.25957" lon="4.97049">
        <ele>422.3</ele>
        <time>2013-04-06T07:59:46.000Z</time>
      </trkpt>
      <trkpt lat="47.25957" lon="4.97051">
        <ele>422</ele>
        <time>2013-04-06T07:59:47.000Z</time>
      </trkpt>
      <trkpt lat="47.25956" lon="4.97058">
        <ele>421.2</ele>
        <time>2013-04-06T07:59:50.000Z</time>
      </trkpt>
      <trkpt lat="47.25956" lon="4.9706">
        <ele>421</ele>
        <time>2013-04-06T07:59:51.000Z</time>
      </trkpt>
      <trkpt lat="47.25956" lon="4.97066">
        <ele>420.3</ele>
        <time>2013-04-06T07:59:53.000Z</time>
      </trkpt>
      <trkpt lat="47.25956" lon="4.97069">
        <ele>420.1</ele>
        <time>2013-04-06T07:59:54.000Z</time>
      </trkpt>
      <trkpt lat="47.25956" lon="4.97074">
        <ele>419.7</ele>
        <time>2013-04-06T07:59:56.000Z</time>
      </trkpt>
      <trkpt lat="47.25955" lon="4.97077">
        <ele>419.3</ele>
        <time>2013-04-06T07:59:57.000Z</time>
      </trkpt>
      <trkpt lat="47.25954" lon="4.97082">
        <ele>418.6</ele>
        <time>2013-04-06T07:59:59.000Z</time>
      </trkpt>
      <trkpt lat="47.25954" lon="4.97086">
        <ele>418</ele>
        <time>2013-04-06T08:00:00.000Z</time>
      </trkpt>
      <trkpt lat="47.25953" lon="4.97089">
        <ele>417.5</ele>
        <time>2013-04-06T08:00:01.000Z</time>
      </trkpt>
      <trkpt lat="47.25947" lon="4.97103">
        <ele>409.3</ele>
        <time>2013-04-06T08:00:07.000Z</time>
      </trkpt>
      <trkpt lat="47.25946" lon="4.97108">
        <ele>406.4</ele>
        <time>2013-04-06T08:00:09.000Z</time>
      </trkpt>
      <trkpt lat="47.25946" lon="4.9711">
        <ele>404.4</ele>
        <time>2013-04-06T08:00:10.000Z</time>
      </trkpt>
      <trkpt lat="47.25945" lon="4.97116">
        <ele>404.5</ele>
        <time>2013-04-06T08:00:12.000Z</time>
      </trkpt>
      <trkpt lat="47.25945" lon="4.97118">
        <ele>404.4</ele>
        <time>2013-04-06T08:00:13.000Z</time>
      </trkpt>
      <trkpt lat="47.25943" lon="4.97123">
        <ele>403.6</ele>
        <time>2013-04-06T08:00:15.000Z</time>
      </trkpt>
      <trkpt lat="47.25943" lon="4.97126">
        <ele>403.6</ele>
        <time>2013-04-06T08:00:16.000Z</time>
      </trkpt>
      <trkpt lat="47.25942" lon="4.97131">
        <ele>403.3</ele>
        <time>2013-04-06T08:00:18.000Z</time>
      </trkpt>
      <trkpt lat="47.25942" lon="4.97134">
        <ele>403.1</ele>
        <time>2013-04-06T08:00:19.000Z</time>
      </trkpt>
      <trkpt lat="47.2594" lon="4.97139">
        <ele>403.5</ele>
        <time>2013-04-06T08:00:21.000Z</time>
      </trkpt>
      <trkpt lat="47.25938" lon="4.97141">
        <ele>404.2</ele>
        <time>2013-04-06T08:00:22.000Z</time>
      </trkpt>
      <trkpt lat="47.25934" lon="4.97144">
        <ele>405.5</ele>
        <time>2013-04-06T08:00:25.000Z</time>
      </trkpt>
      <trkpt lat="47.25933" lon="4.97145">
        <ele>405.3</ele>
        <time>2013-04-06T08:00:26.000Z</time>
      </trkpt>
      <trkpt lat="47.25929" lon="4.97147">
        <ele>405.1</ele>
        <time>2013-04-06T08:00:32.000Z</time>
      </trkpt>
      <trkpt lat="47.25927" lon="4.97148">
        <ele>405.3</ele>
        <time>2013-04-06T08:00:33.000Z</time>
      </trkpt>
      <trkpt lat="47.25924" lon="4.97148">
        <ele>405.6</ele>
        <time>2013-04-06T08:00:35.000Z</time>
      </trkpt>
      <trkpt lat="47.25922" lon="4.97148">
        <ele>405.9</ele>
        <time>2013-04-06T08:00:36.000Z</time>
      </trkpt>
      <trkpt lat="47.25918" lon="4.97149">
        <ele>405.9</ele>
        <time>2013-04-06T08:00:39.000Z</time>
      </trkpt>
      <trkpt lat="47.25917" lon="4.97149">
        <ele>405.8</ele>
        <time>2013-04-06T08:00:40.000Z</time>
      </trkpt>
      <trkpt lat="47.25913" lon="4.97149">
        <ele>405.8</ele>
        <time>2013-04-06T08:00:44.000Z</time>
      </trkpt>
      <trkpt lat="47.25912" lon="4.97149">
        <ele>405.8</ele>
        <time>2013-04-06T08:00:45.000Z</time>
      </trkpt>
      <trkpt lat="47.25908" lon="4.9715">
        <ele>406.3</ele>
        <time>2013-04-06T08:00:48.000Z</time>
      </trkpt>
      <trkpt lat="47.25907" lon="4.97151">
        <ele>406.6</ele>
        <time>2013-04-06T08:00:49.000Z</time>
      </trkpt>
      <trkpt lat="47.25903" lon="4.97151">
        <ele>406.7</ele>
        <time>2013-04-06T08:00:52.000Z</time>
      </trkpt>
      <trkpt lat="47.25901" lon="4.97151">
        <ele>406.7</ele>
        <time>2013-04-06T08:00:53.000Z</time>
      </trkpt>
      <trkpt lat="47.25897" lon="4.97151">
        <ele>406.5</ele>
        <time>2013-04-06T08:00:57.000Z</time>
      </trkpt>
      <trkpt lat="47.25895" lon="4.97151">
        <ele>406.1</ele>
        <time>2013-04-06T08:00:58.000Z</time>
      </trkpt>
      <trkpt lat="47.25892" lon="4.97151">
        <ele>406</ele>
        <time>2013-04-06T08:01:00.000Z</time>
      </trkpt>
      <trkpt lat="47.2589" lon="4.97151">
        <ele>405.8</ele>
        <time>2013-04-06T08:01:01.000Z</time>
      </trkpt>
      <trkpt lat="47.25867" lon="4.97142">
        <ele>406.5</ele>
        <time>2013-04-06T08:01:07.000Z</time>
      </trkpt>
      <trkpt lat="47.25863" lon="4.97143">
        <ele>404.6</ele>
        <time>2013-04-06T08:01:11.000Z</time>
      </trkpt>
      <trkpt lat="47.25862" lon="4.97142">
        <ele>404.4</ele>
        <time>2013-04-06T08:01:12.000Z</time>
      </trkpt>
      <trkpt lat="47.25859" lon="4.97142">
        <ele>405.1</ele>
        <time>2013-04-06T08:01:16.000Z</time>
      </trkpt>
      <trkpt lat="47.25857" lon="4.97142">
        <ele>405.2</ele>
        <time>2013-04-06T08:01:17.000Z</time>
      </trkpt>
      <trkpt lat="47.25854" lon="4.97141">
        <ele>405.2</ele>
        <time>2013-04-06T08:01:19.000Z</time>
      </trkpt>
      <trkpt lat="47.25852" lon="4.97141">
        <ele>404.8</ele>
        <time>2013-04-06T08:01:20.000Z</time>
      </trkpt>
      <trkpt lat="47.25848" lon="4.9714">
        <ele>404.9</ele>
        <time>2013-04-06T08:01:22.000Z</time>
      </trkpt>
      <trkpt lat="47.25845" lon="4.9714">
        <ele>404.6</ele>
        <time>2013-04-06T08:01:23.000Z</time>
      </trkpt>
      <trkpt lat="47.25842" lon="4.9714">
        <ele>404.5</ele>
        <time>2013-04-06T08:01:24.000Z</time>
      </trkpt>
      <trkpt lat="47.2584" lon="4.9714">
        <ele>404.2</ele>
        <time>2013-04-06T08:01:25.000Z</time>
      </trkpt>
      <trkpt lat="47.25837" lon="4.97139">
        <ele>404.7</ele>
        <time>2013-04-06T08:01:27.000Z</time>
      </trkpt>
      <trkpt lat="47.25835" lon="4.97138">
        <ele>404.8</ele>
        <time>2013-04-06T08:01:28.000Z</time>
      </trkpt>
      <trkpt lat="47.25832" lon="4.97138">
        <ele>404.2</ele>
        <time>2013-04-06T08:01:30.000Z</time>
      </trkpt>
      <trkpt lat="47.2583" lon="4.97137">
        <ele>404.2</ele>
        <time>2013-04-06T08:01:31.000Z</time>
      </trkpt>
      <trkpt lat="47.25827" lon="4.97138">
        <ele>404</ele>
        <time>2013-04-06T08:01:33.000Z</time>
      </trkpt>
      <trkpt lat="47.25826" lon="4.97138">
        <ele>404.1</ele>
        <time>2013-04-06T08:01:34.000Z</time>
      </trkpt>
      <trkpt lat="47.25821" lon="4.97137">
        <ele>404.8</ele>
        <time>2013-04-06T08:01:37.000Z</time>
      </trkpt>
      <trkpt lat="47.2582" lon="4.97137">
        <ele>404.8</ele>
        <time>2013-04-06T08:01:38.000Z</time>
      </trkpt>
      <trkpt lat="47.25816" lon="4.97136">
        <ele>405.1</ele>
        <time>2013-04-06T08:01:40.000Z</time>
      </trkpt>
      <trkpt lat="47.25814" lon="4.97135">
        <ele>405.2</ele>
        <time>2013-04-06T08:01:41.000Z</time>
      </trkpt>
      <trkpt lat="47.25811" lon="4.97134">
        <ele>405.1</ele>
        <time>2013-04-06T08:01:43.000Z</time>
      </trkpt>
      <trkpt lat="47.2581" lon="4.97133">
        <ele>405.2</ele>
        <time>2013-04-06T08:01:44.000Z</time>
      </trkpt>
      <trkpt lat="47.25806" lon="4.97132">
        <ele>405.6</ele>
        <time>2013-04-06T08:01:47.000Z</time>
      </trkpt>
      <trkpt lat="47.25803" lon="4.97132">
        <ele>405.5</ele>
        <time>2013-04-06T08:01:48.000Z</time>
      </trkpt>
      <trkpt lat="47.25799" lon="4.97132">
        <ele>405.7</ele>
        <time>2013-04-06T08:01:50.000Z</time>
      </trkpt>
      <trkpt lat="47.25797" lon="4.97132">
        <ele>405.8</ele>
        <time>2013-04-06T08:01:51.000Z</time>
      </trkpt>
      <trkpt lat="47.25793" lon="4.97131">
        <ele>406.5</ele>
        <time>2013-04-06T08:01:54.000Z</time>
      </trkpt>
      <trkpt lat="47.25791" lon="4.97131">
        <ele>406.5</ele>
        <time>2013-04-06T08:01:55.000Z</time>
      </trkpt>
      <trkpt lat="47.25787" lon="4.97131">
        <ele>407.2</ele>
        <time>2013-04-06T08:01:58.000Z</time>
      </trkpt>
      <trkpt lat="47.25785" lon="4.97131">
        <ele>407.2</ele>
        <time>2013-04-06T08:01:59.000Z</time>
      </trkpt>
      <trkpt lat="47.25782" lon="4.97131">
        <ele>407.5</ele>
        <time>2013-04-06T08:02:01.000Z</time>
      </trkpt>
      <trkpt lat="47.25768" lon="4.97125">
        <ele>402.8</ele>
        <time>2013-04-06T08:02:08.000Z</time>
      </trkpt>
      <trkpt lat="47.25763" lon="4.97125">
        <ele>405.9</ele>
        <time>2013-04-06T08:02:11.000Z</time>
      </trkpt>
      <trkpt lat="47.25762" lon="4.97125">
        <ele>406.6</ele>
        <time>2013-04-06T08:02:12.000Z</time>
      </trkpt>
      <trkpt lat="47.25758" lon="4.97126">
        <ele>408.5</ele>
        <time>2013-04-06T08:02:15.000Z</time>
      </trkpt>
      <trkpt lat="47.25756" lon="4.97126">
        <ele>408.5</ele>
        <time>2013-04-06T08:02:16.000Z</time>
      </trkpt>
      <trkpt lat="47.25753" lon="4.97124">
        <ele>407.5</ele>
        <time>2013-04-06T08:02:18.000Z</time>
      </trkpt>
      <trkpt lat="47.25751" lon="4.97124">
        <ele>407.2</ele>
        <time>2013-04-06T08:02:19.000Z</time>
      </trkpt>
      <trkpt lat="47.25747" lon="4.97123">
        <ele>407.7</ele>
        <time>2013-04-06T08:02:22.000Z</time>
      </trkpt>
      <trkpt lat="47.25745" lon="4.97123">
        <ele>407.6</ele>
        <time>2013-04-06T08:02:23.000Z</time>
      </trkpt>
      <trkpt lat="47.25742" lon="4.97122">
        <ele>407.4</ele>
        <time>2013-04-06T08:02:25.000Z</time>
      </trkpt>
      <trkpt lat="47.2574" lon="4.97121">
        <ele>407.1</ele>
        <time>2013-04-06T08:02:26.000Z</time>
      </trkpt>
      <trkpt lat="47.25737" lon="4.9712">
        <ele>404.8</ele>
        <time>2013-04-06T08:02:28.000Z</time>
      </trkpt>
      <trkpt lat="47.25735" lon="4.9712">
        <ele>405</ele>
        <time>2013-04-06T08:02:29.000Z</time>
      </trkpt>
      <trkpt lat="47.25731" lon="4.97119">
        <ele>404.8</ele>
        <time>2013-04-06T08:02:31.000Z</time>
      </trkpt>
      <trkpt lat="47.25729" lon="4.97118">
        <ele>404.7</ele>
        <time>2013-04-06T08:02:32.000Z</time>
      </trkpt>
      <trkpt lat="47.25725" lon="4.97117">
        <ele>403.9</ele>
        <time>2013-04-06T08:02:34.000Z</time>
      </trkpt>
      <trkpt lat="47.25723" lon="4.97116">
        <ele>403.5</ele>
        <time>2013-04-06T08:02:35.000Z</time>
      </trkpt>
      <trkpt lat="47.2572" lon="4.97116">
        <ele>403</ele>
        <time>2013-04-06T08:02:37.000Z</time>
      </trkpt>
      <trkpt lat="47.25718" lon="4.97116">
        <ele>402.6</ele>
        <time>2013-04-06T08:02:38.000Z</time>
      </trkpt>
      <trkpt lat="47.25714" lon="4.97116">
        <ele>402.2</ele>
        <time>2013-04-06T08:02:40.000Z</time>
      </trkpt>
      <trkpt lat="47.25712" lon="4.97117">
        <ele>402.1</ele>
        <time>2013-04-06T08:02:41.000Z</time>
      </trkpt>
      <trkpt lat="47.25709" lon="4.9712">
        <ele>401.5</ele>
        <time>2013-04-06T08:02:43.000Z</time>
      </trkpt>
      <trkpt lat="47.25708" lon="4.97121">
        <ele>401.3</ele>
        <time>2013-04-06T08:02:44.000Z</time>
      </trkpt>
      <trkpt lat="47.25705" lon="4.97125">
        <ele>400.4</ele>
        <time>2013-04-06T08:02:47.000Z</time>
      </trkpt>
      <trkpt lat="47.25704" lon="4.97126">
        <ele>400</ele>
        <time>2013-04-06T08:02:48.000Z</time>
      </trkpt>
      <trkpt lat="47.25702" lon="4.97132">
        <ele>399.6</ele>
        <time>2013-04-06T08:02:51.000Z</time>
      </trkpt>
      <trkpt lat="47.25703" lon="4.97134">
        <ele>399.2</ele>
        <time>2013-04-06T08:02:52.000Z</time>
      </trkpt>
      <trkpt lat="47.25703" lon="4.97138">
        <ele>398.4</ele>
        <time>2013-04-06T08:02:54.000Z</time>
      </trkpt>
      <trkpt lat="47.25703" lon="4.9714">
        <ele>398.1</ele>
        <time>2013-04-06T08:02:55.000Z</time>
      </trkpt>
      <trkpt lat="47.25702" lon="4.97146">
        <ele>397.2</ele>
        <time>2013-04-06T08:02:58.000Z</time>
      </trkpt>
      <trkpt lat="47.25702" lon="4.97148">
        <ele>396.9</ele>
        <time>2013-04-06T08:02:59.000Z</time>
      </trkpt>
      <trkpt lat="47.25702" lon="4.97152">
        <ele>396.1</ele>
        <time>2013-04-06T08:03:01.000Z</time>
      </trkpt>
      <trkpt lat="47.25698" lon="4.97171">
        <ele>390</ele>
        <time>2013-04-06T08:03:08.000Z</time>
      </trkpt>
      <trkpt lat="47.25698" lon="4.97177">
        <ele>388.3</ele>
        <time>2013-04-06T08:03:11.000Z</time>
      </trkpt>
      <trkpt lat="47.25697" lon="4.97179">
        <ele>387.7</ele>
        <time>2013-04-06T08:03:12.000Z</time>
      </trkpt>
      <trkpt lat="47.25697" lon="4.97184">
        <ele>387.9</ele>
        <time>2013-04-06T08:03:14.000Z</time>
      </trkpt>
      <trkpt lat="47.25697" lon="4.97186">
        <ele>387.4</ele>
        <time>2013-04-06T08:03:15.000Z</time>
      </trkpt>
      <trkpt lat="47.25696" lon="4.97191">
        <ele>387.4</ele>
        <time>2013-04-06T08:03:17.000Z</time>
      </trkpt>
      <trkpt lat="47.25696" lon="4.97193">
        <ele>387.2</ele>
        <time>2013-04-06T08:03:18.000Z</time>
      </trkpt>
      <trkpt lat="47.25695" lon="4.972">
        <ele>386.2</ele>
        <time>2013-04-06T08:03:21.000Z</time>
      </trkpt>
      <trkpt lat="47.25695" lon="4.97202">
        <ele>385.9</ele>
        <time>2013-04-06T08:03:22.000Z</time>
      </trkpt>
      <trkpt lat="47.25694" lon="4.97208">
        <ele>385.4</ele>
        <time>2013-04-06T08:03:25.000Z</time>
      </trkpt>
      <trkpt lat="47.25693" lon="4.9721">
        <ele>385.2</ele>
        <time>2013-04-06T08:03:26.000Z</time>
      </trkpt>
      <trkpt lat="47.25692" lon="4.97217">
        <ele>384.4</ele>
        <time>2013-04-06T08:03:29.000Z</time>
      </trkpt>
      <trkpt lat="47.25691" lon="4.97219">
        <ele>384.1</ele>
        <time>2013-04-06T08:03:30.000Z</time>
      </trkpt>
      <trkpt lat="47.2569" lon="4.97224">
        <ele>383.5</ele>
        <time>2013-04-06T08:03:33.000Z</time>
      </trkpt>
      <trkpt lat="47.25689" lon="4.97225">
        <ele>383.5</ele>
        <time>2013-04-06T08:03:34.000Z</time>
      </trkpt>
      <trkpt lat="47.25685" lon="4.97225">
        <ele>383.8</ele>
        <time>2013-04-06T08:03:37.000Z</time>
      </trkpt>
      <trkpt lat="47.25684" lon="4.97225">
        <ele>383.9</ele>
        <time>2013-04-06T08:03:38.000Z</time>
      </trkpt>
      <trkpt lat="47.2568" lon="4.97224">
        <ele>384.1</ele>
        <time>2013-04-06T08:03:41.000Z</time>
      </trkpt>
      <trkpt lat="47.25678" lon="4.97223">
        <ele>384.1</ele>
        <time>2013-04-06T08:03:42.000Z</time>
      </trkpt>
      <trkpt lat="47.25674" lon="4.97222">
        <ele>384.1</ele>
        <time>2013-04-06T08:03:45.000Z</time>
      </trkpt>
      <trkpt lat="47.25673" lon="4.97222">
        <ele>384.2</ele>
        <time>2013-04-06T08:03:46.000Z</time>
      </trkpt>
      <trkpt lat="47.25669" lon="4.9722">
        <ele>384.1</ele>
        <time>2013-04-06T08:03:49.000Z</time>
      </trkpt>
      <trkpt lat="47.25668" lon="4.9722">
        <ele>384.1</ele>
        <time>2013-04-06T08:03:50.000Z</time>
      </trkpt>
      <trkpt lat="47.25664" lon="4.97218">
        <ele>385.1</ele>
        <time>2013-04-06T08:03:54.000Z</time>
      </trkpt>
      <trkpt lat="47.25663" lon="4.97218">
        <ele>385.1</ele>
        <time>2013-04-06T08:03:55.000Z</time>
      </trkpt>
      <trkpt lat="47.25659" lon="4.97215">
        <ele>385.8</ele>
        <time>2013-04-06T08:03:58.000Z</time>
      </trkpt>
      <trkpt lat="47.25658" lon="4.97214">
        <ele>385.9</ele>
        <time>2013-04-06T08:03:59.000Z</time>
      </trkpt>
      <trkpt lat="47.25655" lon="4.97212">
        <ele>386</ele>
        <time>2013-04-06T08:04:01.000Z</time>
      </trkpt>
      <trkpt lat="47.25648" lon="4.97204">
        <ele>391.4</ele>
        <time>2013-04-06T08:04:08.000Z</time>
      </trkpt>
      <trkpt lat="47.25645" lon="4.972">
        <ele>390.6</ele>
        <time>2013-04-06T08:04:10.000Z</time>
      </trkpt>
      <trkpt lat="47.25644" lon="4.97198">
        <ele>391.1</ele>
        <time>2013-04-06T08:04:11.000Z</time>
      </trkpt>
      <trkpt lat="47.25642" lon="4.97195">
        <ele>391</ele>
        <time>2013-04-06T08:04:13.000Z</time>
      </trkpt>
      <trkpt lat="47.25641" lon="4.97194">
        <ele>390.6</ele>
        <time>2013-04-06T08:04:14.000Z</time>
      </trkpt>
      <trkpt lat="47.25638" lon="4.97191">
        <ele>389.5</ele>
        <time>2013-04-06T08:04:16.000Z</time>
      </trkpt>
      <trkpt lat="47.25636" lon="4.97189">
        <ele>389</ele>
        <time>2013-04-06T08:04:17.000Z</time>
      </trkpt>
      <trkpt lat="47.25634" lon="4.97187">
        <ele>388.4</ele>
        <time>2013-04-06T08:04:19.000Z</time>
      </trkpt>
      <trkpt lat="47.25632" lon="4.97185">
        <ele>388.4</ele>
        <time>2013-04-06T08:04:20.000Z</time>
      </trkpt>
      <trkpt lat="47.2563" lon="4.97182">
        <ele>388.1</ele>
        <time>2013-04-06T08:04:22.000Z</time>
      </trkpt>
      <trkpt lat="47.25629" lon="4.97181">
        <ele>387.9</ele>
        <time>2013-04-06T08:04:23.000Z</time>
      </trkpt>
      <trkpt lat="47.25625" lon="4.97176">
        <ele>387.9</ele>
        <time>2013-04-06T08:04:26.000Z</time>
      </trkpt>
      <trkpt lat="47.25624" lon="4.97175">
        <ele>388</ele>
        <time>2013-04-06T08:04:27.000Z</time>
      </trkpt>
      <trkpt lat="47.25621" lon="4.9717">
        <ele>388</ele>
        <time>2013-04-06T08:04:30.000Z</time>
      </trkpt>
      <trkpt lat="47.2562" lon="4.97169">
        <ele>388</ele>
        <time>2013-04-06T08:04:31.000Z</time>
      </trkpt>
      <trkpt lat="47.25617" lon="4.97164">
        <ele>388</ele>
        <time>2013-04-06T08:04:34.000Z</time>
      </trkpt>
      <trkpt lat="47.25616" lon="4.97163">
        <ele>388</ele>
        <time>2013-04-06T08:04:35.000Z</time>
      </trkpt>
      <trkpt lat="47.25613" lon="4.9716">
        <ele>387.9</ele>
        <time>2013-04-06T08:04:37.000Z</time>
      </trkpt>
      <trkpt lat="47.25612" lon="4.97158">
        <ele>388</ele>
        <time>2013-04-06T08:04:38.000Z</time>
      </trkpt>
      <trkpt lat="47.25609" lon="4.97154">
        <ele>388.2</ele>
        <time>2013-04-06T08:04:41.000Z</time>
      </trkpt>
      <trkpt lat="47.25608" lon="4.97153">
        <ele>388.3</ele>
        <time>2013-04-06T08:04:42.000Z</time>
      </trkpt>
      <trkpt lat="47.25605" lon="4.9715">
        <ele>388.3</ele>
        <time>2013-04-06T08:04:44.000Z</time>
      </trkpt>
      <trkpt lat="47.25604" lon="4.97149">
        <ele>388.4</ele>
        <time>2013-04-06T08:04:45.000Z</time>
      </trkpt>
      <trkpt lat="47.25601" lon="4.97146">
        <ele>388.3</ele>
        <time>2013-04-06T08:04:47.000Z</time>
      </trkpt>
      <trkpt lat="47.256" lon="4.97145">
        <ele>388.3</ele>
        <time>2013-04-06T08:04:48.000Z</time>
      </trkpt>
      <trkpt lat="47.25596" lon="4.97142">
        <ele>388</ele>
        <time>2013-04-06T08:04:51.000Z</time>
      </trkpt>
      <trkpt lat="47.25594" lon="4.97142">
        <ele>388</ele>
        <time>2013-04-06T08:04:52.000Z</time>
      </trkpt>
      <trkpt lat="47.2559" lon="4.97139">
        <ele>387.7</ele>
        <time>2013-04-06T08:04:55.000Z</time>
      </trkpt>
      <trkpt lat="47.25589" lon="4.97139">
        <ele>387.8</ele>
        <time>2013-04-06T08:04:56.000Z</time>
      </trkpt>
      <trkpt lat="47.25586" lon="4.97137">
        <ele>387.7</ele>
        <time>2013-04-06T08:04:58.000Z</time>
      </trkpt>
      <trkpt lat="47.25584" lon="4.97137">
        <ele>387.6</ele>
        <time>2013-04-06T08:04:59.000Z</time>
      </trkpt>
      <trkpt lat="47.25581" lon="4.97136">
        <ele>387.6</ele>
        <time>2013-04-06T08:05:01.000Z</time>
      </trkpt>
      <trkpt lat="47.2557" lon="4.97134">
        <ele>386.4</ele>
        <time>2013-04-06T08:05:08.000Z</time>
      </trkpt>
      <trkpt lat="47.25566" lon="4.97131">
        <ele>387.1</ele>
        <time>2013-04-06T08:05:11.000Z</time>
      </trkpt>
      <trkpt lat="47.25565" lon="4.9713">
        <ele>386.8</ele>
        <time>2013-04-06T08:05:12.000Z</time>
      </trkpt>
      <trkpt lat="47.25562" lon="4.97129">
        <ele>386.8</ele>
        <time>2013-04-06T08:05:14.000Z</time>
      </trkpt>
      <trkpt lat="47.2556" lon="4.97128">
        <ele>386.5</ele>
        <time>2013-04-06T08:05:15.000Z</time>
      </trkpt>
      <trkpt lat="47.25556" lon="4.97126">
        <ele>386.6</ele>
        <time>2013-04-06T08:05:18.000Z</time>
      </trkpt>
      <trkpt lat="47.25555" lon="4.97125">
        <ele>386.4</ele>
        <time>2013-04-06T08:05:19.000Z</time>
      </trkpt>
      <trkpt lat="47.25552" lon="4.97123">
        <ele>386</ele>
        <time>2013-04-06T08:05:21.000Z</time>
      </trkpt>
      <trkpt lat="47.2555" lon="4.97122">
        <ele>385.9</ele>
        <time>2013-04-06T08:05:22.000Z</time>
      </trkpt>
      <trkpt lat="47.25548" lon="4.9712">
        <ele>386.1</ele>
        <time>2013-04-06T08:05:24.000Z</time>
      </trkpt>
      <trkpt lat="47.25546" lon="4.9712">
        <ele>386.2</ele>
        <time>2013-04-06T08:05:25.000Z</time>
      </trkpt>
      <trkpt lat="47.25543" lon="4.97118">
        <ele>386.8</ele>
        <time>2013-04-06T08:05:27.000Z</time>
      </trkpt>
      <trkpt lat="47.25542" lon="4.97117">
        <ele>387</ele>
        <time>2013-04-06T08:05:28.000Z</time>
      </trkpt>
      <trkpt lat="47.25539" lon="4.97115">
        <ele>387.2</ele>
        <time>2013-04-06T08:05:30.000Z</time>
      </trkpt>
      <trkpt lat="47.25537" lon="4.97114">
        <ele>387.1</ele>
        <time>2013-04-06T08:05:31.000Z</time>
      </trkpt>
      <trkpt lat="47.25534" lon="4.97112">
        <ele>387</ele>
        <time>2013-04-06T08:05:33.000Z</time>
      </trkpt>
      <trkpt lat="47.25533" lon="4.97111">
        <ele>386.9</ele>
        <time>2013-04-06T08:05:34.000Z</time>
      </trkpt>
      <trkpt lat="47.2553" lon="4.97108">
        <ele>386.9</ele>
        <time>2013-04-06T08:05:36.000Z</time>
      </trkpt>
      <trkpt lat="47.25529" lon="4.97107">
        <ele>387</ele>
        <time>2013-04-06T08:05:37.000Z</time>
      </trkpt>
      <trkpt lat="47.25525" lon="4.97103">
        <ele>386.8</ele>
        <time>2013-04-06T08:05:40.000Z</time>
      </trkpt>
      <trkpt lat="47.25523" lon="4.97102">
        <ele>386.7</ele>
        <time>2013-04-06T08:05:41.000Z</time>
      </trkpt>
      <trkpt lat="47.2552" lon="4.97098">
        <ele>386.5</ele>
        <time>2013-04-06T08:05:44.000Z</time>
      </trkpt>
      <trkpt lat="47.25519" lon="4.97097">
        <ele>386.5</ele>
        <time>2013-04-06T08:05:45.000Z</time>
      </trkpt>
      <trkpt lat="47.25516" lon="4.97094">
        <ele>386.5</ele>
        <time>2013-04-06T08:05:47.000Z</time>
      </trkpt>
      <trkpt lat="47.25515" lon="4.97093">
        <ele>386.5</ele>
        <time>2013-04-06T08:05:48.000Z</time>
      </trkpt>
      <trkpt lat="47.25511" lon="4.97089">
        <ele>386.4</ele>
        <time>2013-04-06T08:05:51.000Z</time>
      </trkpt>
      <trkpt lat="47.2551" lon="4.97087">
        <ele>386.3</ele>
        <time>2013-04-06T08:05:52.000Z</time>
      </trkpt>
      <trkpt lat="47.25508" lon="4.97083">
        <ele>386.4</ele>
        <time>2013-04-06T08:05:54.000Z</time>
      </trkpt>
      <trkpt lat="47.25507" lon="4.97081">
        <ele>386.4</ele>
        <time>2013-04-06T08:05:55.000Z</time>
      </trkpt>
      <trkpt lat="47.25506" lon="4.97078">
        <ele>386.4</ele>
        <time>2013-04-06T08:05:57.000Z</time>
      </trkpt>
      <trkpt lat="47.25505" lon="4.97075">
        <ele>386.4</ele>
        <time>2013-04-06T08:05:58.000Z</time>
      </trkpt>
      <trkpt lat="47.25504" lon="4.97072">
        <ele>386.6</ele>
        <time>2013-04-06T08:06:00.000Z</time>
      </trkpt>
      <trkpt lat="47.25503" lon="4.97069">
        <ele>386.6</ele>
        <time>2013-04-06T08:06:01.000Z</time>
      </trkpt>
      <trkpt lat="47.25497" lon="4.97055">
        <ele>390.2</ele>
        <time>2013-04-06T08:06:08.000Z</time>
      </trkpt>
      <trkpt lat="47.25497" lon="4.9705">
        <ele>390.6</ele>
        <time>2013-04-06T08:06:10.000Z</time>
      </trkpt>
      <trkpt lat="47.25497" lon="4.97048">
        <ele>390.4</ele>
        <time>2013-04-06T08:06:11.000Z</time>
      </trkpt>
      <trkpt lat="47.25497" lon="4.97043">
        <ele>389.8</ele>
        <time>2013-04-06T08:06:13.000Z</time>
      </trkpt>
      <trkpt lat="47.25497" lon="4.9704">
        <ele>388.7</ele>
        <time>2013-04-06T08:06:14.000Z</time>
      </trkpt>
      <trkpt lat="47.25497" lon="4.97036">
        <ele>387.4</ele>
        <time>2013-04-06T08:06:16.000Z</time>
      </trkpt>
      <trkpt lat="47.25497" lon="4.97034">
        <ele>387.3</ele>
        <time>2013-04-06T08:06:17.000Z</time>
      </trkpt>
      <trkpt lat="47.25496" lon="4.97027">
        <ele>387</ele>
        <time>2013-04-06T08:06:20.000Z</time>
      </trkpt>
      <trkpt lat="47.25496" lon="4.97025">
        <ele>386.9</ele>
        <time>2013-04-06T08:06:21.000Z</time>
      </trkpt>
      <trkpt lat="47.25495" lon="4.97019">
        <ele>387.4</ele>
        <time>2013-04-06T08:06:24.000Z</time>
      </trkpt>
      <trkpt lat="47.25494" lon="4.97017">
        <ele>387.4</ele>
        <time>2013-04-06T08:06:25.000Z</time>
      </trkpt>
      <trkpt lat="47.25493" lon="4.97012">
        <ele>387.9</ele>
        <time>2013-04-06T08:06:28.000Z</time>
      </trkpt>
      <trkpt lat="47.25492" lon="4.9701">
        <ele>387.9</ele>
        <time>2013-04-06T08:06:29.000Z</time>
      </trkpt>
      <trkpt lat="47.2549" lon="4.97005">
        <ele>388.1</ele>
        <time>2013-04-06T08:06:32.000Z</time>
      </trkpt>
      <trkpt lat="47.25489" lon="4.97003">
        <ele>388.1</ele>
        <time>2013-04-06T08:06:33.000Z</time>
      </trkpt>
      <trkpt lat="47.25487" lon="4.96997">
        <ele>388.1</ele>
        <time>2013-04-06T08:06:36.000Z</time>
      </trkpt>
      <trkpt lat="47.25486" lon="4.96995">
        <ele>388.1</ele>
        <time>2013-04-06T08:06:37.000Z</time>
      </trkpt>
      <trkpt lat="47.25484" lon="4.96989">
        <ele>388.3</ele>
        <time>2013-04-06T08:06:40.000Z</time>
      </trkpt>
      <trkpt lat="47.25484" lon="4.96987">
        <ele>388.2</ele>
        <time>2013-04-06T08:06:41.000Z</time>
      </trkpt>
      <trkpt lat="47.25482" lon="4.96983">
        <ele>388.4</ele>
        <time>2013-04-06T08:06:43.000Z</time>
      </trkpt>
      <trkpt lat="47.25482" lon="4.96981">
        <ele>388.6</ele>
        <time>2013-04-06T08:06:44.000Z</time>
      </trkpt>
      <trkpt lat="47.25481" lon="4.96977">
        <ele>388.8</ele>
        <time>2013-04-06T08:06:46.000Z</time>
      </trkpt>
      <trkpt lat="47.2548" lon="4.96975">
        <ele>389</ele>
        <time>2013-04-06T08:06:47.000Z</time>
      </trkpt>
      <trkpt lat="47.25479" lon="4.9697">
        <ele>389.2</ele>
        <time>2013-04-06T08:06:49.000Z</time>
      </trkpt>
      <trkpt lat="47.25479" lon="4.96968">
        <ele>389.4</ele>
        <time>2013-04-06T08:06:50.000Z</time>
      </trkpt>
      <trkpt lat="47.25477" lon="4.96963">
        <ele>389.8</ele>
        <time>2013-04-06T08:06:53.000Z</time>
      </trkpt>
      <trkpt lat="47.25476" lon="4.96962">
        <ele>389.7</ele>
        <time>2013-04-06T08:06:54.000Z</time>
      </trkpt>
      <trkpt lat="47.25474" lon="4.96957">
        <ele>389.6</ele>
        <time>2013-04-06T08:06:57.000Z</time>
      </trkpt>
      <trkpt lat="47.25473" lon="4.96956">
        <ele>389.7</ele>
        <time>2013-04-06T08:06:58.000Z</time>
      </trkpt>
      <trkpt lat="47.25471" lon="4.96952">
        <ele>390</ele>
        <time>2013-04-06T08:07:01.000Z</time>
      </trkpt>
      <trkpt lat="47.25464" lon="4.96939">
        <ele>389.5</ele>
        <time>2013-04-06T08:07:08.000Z</time>
      </trkpt>
      <trkpt lat="47.25461" lon="4.96935">
        <ele>390.3</ele>
        <time>2013-04-06T08:07:11.000Z</time>
      </trkpt>
      <trkpt lat="47.2546" lon="4.96934">
        <ele>390.6</ele>
        <time>2013-04-06T08:07:12.000Z</time>
      </trkpt>
      <trkpt lat="47.25457" lon="4.96929">
        <ele>390.7</ele>
        <time>2013-04-06T08:07:15.000Z</time>
      </trkpt>
      <trkpt lat="47.25456" lon="4.96928">
        <ele>390.7</ele>
        <time>2013-04-06T08:07:16.000Z</time>
      </trkpt>
      <trkpt lat="47.25453" lon="4.96925">
        <ele>390.7</ele>
        <time>2013-04-06T08:07:18.000Z</time>
      </trkpt>
      <trkpt lat="47.25452" lon="4.96923">
        <ele>390.8</ele>
        <time>2013-04-06T08:07:19.000Z</time>
      </trkpt>
      <trkpt lat="47.25449" lon="4.96919">
        <ele>390.9</ele>
        <time>2013-04-06T08:07:22.000Z</time>
      </trkpt>
      <trkpt lat="47.25448" lon="4.96917">
        <ele>391</ele>
        <time>2013-04-06T08:07:23.000Z</time>
      </trkpt>
      <trkpt lat="47.25446" lon="4.96914">
        <ele>391</ele>
        <time>2013-04-06T08:07:25.000Z</time>
      </trkpt>
      <trkpt lat="47.25445" lon="4.96912">
        <ele>391</ele>
        <time>2013-04-06T08:07:26.000Z</time>
      </trkpt>
      <trkpt lat="47.25442" lon="4.96909">
        <ele>390.7</ele>
        <time>2013-04-06T08:07:28.000Z</time>
      </trkpt>
      <trkpt lat="47.25441" lon="4.96907">
        <ele>390.6</ele>
        <time>2013-04-06T08:07:29.000Z</time>
      </trkpt>
      <trkpt lat="47.25438" lon="4.96903">
        <ele>390.9</ele>
        <time>2013-04-06T08:07:33.000Z</time>
      </trkpt>
      <trkpt lat="47.25437" lon="4.96902">
        <ele>391</ele>
        <time>2013-04-06T08:07:34.000Z</time>
      </trkpt>
      <trkpt lat="47.25435" lon="4.96897">
        <ele>390.8</ele>
        <time>2013-04-06T08:07:37.000Z</time>
      </trkpt>
      <trkpt lat="47.25434" lon="4.96896">
        <ele>390.8</ele>
        <time>2013-04-06T08:07:38.000Z</time>
      </trkpt>
      <trkpt lat="47.25431" lon="4.96891">
        <ele>390.9</ele>
        <time>2013-04-06T08:07:41.000Z</time>
      </trkpt>
      <trkpt lat="47.2543" lon="4.96889">
        <ele>390.9</ele>
        <time>2013-04-06T08:07:42.000Z</time>
      </trkpt>
      <trkpt lat="47.25428" lon="4.96885">
        <ele>391</ele>
        <time>2013-04-06T08:07:44.000Z</time>
      </trkpt>
      <trkpt lat="47.25427" lon="4.96884">
        <ele>391.1</ele>
        <time>2013-04-06T08:07:45.000Z</time>
      </trkpt>
      <trkpt lat="47.25424" lon="4.96878">
        <ele>391.5</ele>
        <time>2013-04-06T08:07:48.000Z</time>
      </trkpt>
      <trkpt lat="47.25424" lon="4.96876">
        <ele>391.6</ele>
        <time>2013-04-06T08:07:49.000Z</time>
      </trkpt>
      <trkpt lat="47.25422" lon="4.96872">
        <ele>391.7</ele>
        <time>2013-04-06T08:07:51.000Z</time>
      </trkpt>
      <trkpt lat="47.2542" lon="4.96871">
        <ele>391.7</ele>
        <time>2013-04-06T08:07:52.000Z</time>
      </trkpt>
      <trkpt lat="47.25418" lon="4.96867">
        <ele>391.6</ele>
        <time>2013-04-06T08:07:54.000Z</time>
      </trkpt>
      <trkpt lat="47.25417" lon="4.96866">
        <ele>391.6</ele>
        <time>2013-04-06T08:07:55.000Z</time>
      </trkpt>
      <trkpt lat="47.25415" lon="4.96862">
        <ele>391.4</ele>
        <time>2013-04-06T08:07:57.000Z</time>
      </trkpt>
      <trkpt lat="47.25414" lon="4.9686">
        <ele>391.3</ele>
        <time>2013-04-06T08:07:58.000Z</time>
      </trkpt>
      <trkpt lat="47.25413" lon="4.96856">
        <ele>391.2</ele>
        <time>2013-04-06T08:08:00.000Z</time>
      </trkpt>
      <trkpt lat="47.25412" lon="4.96854">
        <ele>391.1</ele>
        <time>2013-04-06T08:08:01.000Z</time>
      </trkpt>
      <trkpt lat="47.25405" lon="4.96839">
        <ele>389.1</ele>
        <time>2013-04-06T08:08:08.000Z</time>
      </trkpt>
      <trkpt lat="47.25403" lon="4.96833">
        <ele>389.7</ele>
        <time>2013-04-06T08:08:11.000Z</time>
      </trkpt>
      <trkpt lat="47.25402" lon="4.9683">
        <ele>389.8</ele>
        <time>2013-04-06T08:08:12.000Z</time>
      </trkpt>
      <trkpt lat="47.25401" lon="4.96824">
        <ele>390.5</ele>
        <time>2013-04-06T08:08:15.000Z</time>
      </trkpt>
      <trkpt lat="47.254" lon="4.96822">
        <ele>390.3</ele>
        <time>2013-04-06T08:08:16.000Z</time>
      </trkpt>
      <trkpt lat="47.25398" lon="4.96816">
        <ele>390.3</ele>
        <time>2013-04-06T08:08:19.000Z</time>
      </trkpt>
      <trkpt lat="47.25397" lon="4.96814">
        <ele>390.3</ele>
        <time>2013-04-06T08:08:20.000Z</time>
      </trkpt>
      <trkpt lat="47.25396" lon="4.9681">
        <ele>390.3</ele>
        <time>2013-04-06T08:08:22.000Z</time>
      </trkpt>
      <trkpt lat="47.25395" lon="4.96808">
        <ele>390.5</ele>
        <time>2013-04-06T08:08:23.000Z</time>
      </trkpt>
      <trkpt lat="47.25393" lon="4.96803">
        <ele>390.8</ele>
        <time>2013-04-06T08:08:25.000Z</time>
      </trkpt>
      <trkpt lat="47.25393" lon="4.96801">
        <ele>391.1</ele>
        <time>2013-04-06T08:08:26.000Z</time>
      </trkpt>
      <trkpt lat="47.25391" lon="4.96797">
        <ele>391.3</ele>
        <time>2013-04-06T08:08:28.000Z</time>
      </trkpt>
      <trkpt lat="47.25391" lon="4.96795">
        <ele>391.5</ele>
        <time>2013-04-06T08:08:29.000Z</time>
      </trkpt>
      <trkpt lat="47.25389" lon="4.96789">
        <ele>392</ele>
        <time>2013-04-06T08:08:32.000Z</time>
      </trkpt>
      <trkpt lat="47.25388" lon="4.96787">
        <ele>392.1</ele>
        <time>2013-04-06T08:08:33.000Z</time>
      </trkpt>
      <trkpt lat="47.25386" lon="4.96781">
        <ele>392.3</ele>
        <time>2013-04-06T08:08:36.000Z</time>
      </trkpt>
      <trkpt lat="47.25386" lon="4.96779">
        <ele>392.5</ele>
        <time>2013-04-06T08:08:37.000Z</time>
      </trkpt>
      <trkpt lat="47.25384" lon="4.96775">
        <ele>392.7</ele>
        <time>2013-04-06T08:08:39.000Z</time>
      </trkpt>
      <trkpt lat="47.25384" lon="4.96773">
        <ele>392.6</ele>
        <time>2013-04-06T08:08:40.000Z</time>
      </trkpt>
      <trkpt lat="47.25382" lon="4.96767">
        <ele>392.6</ele>
        <time>2013-04-06T08:08:43.000Z</time>
      </trkpt>
      <trkpt lat="47.25382" lon="4.96765">
        <ele>392.6</ele>
        <time>2013-04-06T08:08:44.000Z</time>
      </trkpt>
      <trkpt lat="47.25381" lon="4.96761">
        <ele>392.6</ele>
        <time>2013-04-06T08:08:46.000Z</time>
      </trkpt>
      <trkpt lat="47.2538" lon="4.96758">
        <ele>392.7</ele>
        <time>2013-04-06T08:08:47.000Z</time>
      </trkpt>
      <trkpt lat="47.25379" lon="4.96754">
        <ele>392.7</ele>
        <time>2013-04-06T08:08:49.000Z</time>
      </trkpt>
      <trkpt lat="47.25378" lon="4.96752">
        <ele>392.6</ele>
        <time>2013-04-06T08:08:50.000Z</time>
      </trkpt>
      <trkpt lat="47.25377" lon="4.96748">
        <ele>392.8</ele>
        <time>2013-04-06T08:08:52.000Z</time>
      </trkpt>
      <trkpt lat="47.25377" lon="4.96745">
        <ele>392.9</ele>
        <time>2013-04-06T08:08:53.000Z</time>
      </trkpt>
      <trkpt lat="47.25376" lon="4.96741">
        <ele>392.7</ele>
        <time>2013-04-06T08:08:55.000Z</time>
      </trkpt>
      <trkpt lat="47.25375" lon="4.96739">
        <ele>392.7</ele>
        <time>2013-04-06T08:08:56.000Z</time>
      </trkpt>
      <trkpt lat="47.25374" lon="4.96734">
        <ele>392.9</ele>
        <time>2013-04-06T08:08:58.000Z</time>
      </trkpt>
      <trkpt lat="47.25373" lon="4.96732">
        <ele>393</ele>
        <time>2013-04-06T08:08:59.000Z</time>
      </trkpt>
      <trkpt lat="47.25372" lon="4.96728">
        <ele>393.2</ele>
        <time>2013-04-06T08:09:01.000Z</time>
      </trkpt>
      <trkpt lat="47.25371" lon="4.9671">
        <ele>393.4</ele>
        <time>2013-04-06T08:09:08.000Z</time>
      </trkpt>
      <trkpt lat="47.25369" lon="4.96706">
        <ele>392.6</ele>
        <time>2013-04-06T08:09:10.000Z</time>
      </trkpt>
      <trkpt lat="47.25368" lon="4.96704">
        <ele>392.4</ele>
        <time>2013-04-06T08:09:11.000Z</time>
      </trkpt>
      <trkpt lat="47.25367" lon="4.96698">
        <ele>392.2</ele>
        <time>2013-04-06T08:09:14.000Z</time>
      </trkpt>
      <trkpt lat="47.25366" lon="4.96697">
        <ele>392.2</ele>
        <time>2013-04-06T08:09:15.000Z</time>
      </trkpt>
      <trkpt lat="47.25365" lon="4.96692">
        <ele>393.5</ele>
        <time>2013-04-06T08:09:18.000Z</time>
      </trkpt>
      <trkpt lat="47.25364" lon="4.9669">
        <ele>393.7</ele>
        <time>2013-04-06T08:09:19.000Z</time>
      </trkpt>
      <trkpt lat="47.25363" lon="4.96685">
        <ele>394.3</ele>
        <time>2013-04-06T08:09:21.000Z</time>
      </trkpt>
      <trkpt lat="47.25362" lon="4.96684">
        <ele>394.7</ele>
        <time>2013-04-06T08:09:22.000Z</time>
      </trkpt>
      <trkpt lat="47.2536" lon="4.96679">
        <ele>396.7</ele>
        <time>2013-04-06T08:09:25.000Z</time>
      </trkpt>
      <trkpt lat="47.25359" lon="4.96677">
        <ele>397.1</ele>
        <time>2013-04-06T08:09:26.000Z</time>
      </trkpt>
      <trkpt lat="47.25357" lon="4.96671">
        <ele>399.4</ele>
        <time>2013-04-06T08:09:29.000Z</time>
      </trkpt>
      <trkpt lat="47.25357" lon="4.96669">
        <ele>400</ele>
        <time>2013-04-06T08:09:30.000Z</time>
      </trkpt>
      <trkpt lat="47.25355" lon="4.96664">
        <ele>402</ele>
        <time>2013-04-06T08:09:32.000Z</time>
      </trkpt>
      <trkpt lat="47.25354" lon="4.96662">
        <ele>402</ele>
        <time>2013-04-06T08:09:33.000Z</time>
      </trkpt>
      <trkpt lat="47.25354" lon="4.96656">
        <ele>402.1</ele>
        <time>2013-04-06T08:09:35.000Z</time>
      </trkpt>
      <trkpt lat="47.25353" lon="4.96654">
        <ele>402.3</ele>
        <time>2013-04-06T08:09:36.000Z</time>
      </trkpt>
      <trkpt lat="47.25352" lon="4.96649">
        <ele>402.4</ele>
        <time>2013-04-06T08:09:38.000Z</time>
      </trkpt>
      <trkpt lat="47.25352" lon="4.96647">
        <ele>402.3</ele>
        <time>2013-04-06T08:09:39.000Z</time>
      </trkpt>
      <trkpt lat="47.25352" lon="4.9664">
        <ele>402.2</ele>
        <time>2013-04-06T08:09:42.000Z</time>
      </trkpt>
      <trkpt lat="47.25352" lon="4.96638">
        <ele>402.5</ele>
        <time>2013-04-06T08:09:43.000Z</time>
      </trkpt>
      <trkpt lat="47.25351" lon="4.96631">
        <ele>402.9</ele>
        <time>2013-04-06T08:09:46.000Z</time>
      </trkpt>
      <trkpt lat="47.25351" lon="4.96629">
        <ele>402.9</ele>
        <time>2013-04-06T08:09:47.000Z</time>
      </trkpt>
      <trkpt lat="47.2535" lon="4.96624">
        <ele>403.1</ele>
        <time>2013-04-06T08:09:49.000Z</time>
      </trkpt>
      <trkpt lat="47.2535" lon="4.96622">
        <ele>403.3</ele>
        <time>2013-04-06T08:09:50.000Z</time>
      </trkpt>
      <trkpt lat="47.25349" lon="4.96615">
        <ele>403.9</ele>
        <time>2013-04-06T08:09:53.000Z</time>
      </trkpt>
      <trkpt lat="47.25348" lon="4.96613">
        <ele>404</ele>
        <time>2013-04-06T08:09:54.000Z</time>
      </trkpt>
      <trkpt lat="47.25347" lon="4.96608">
        <ele>404.4</ele>
        <time>2013-04-06T08:09:56.000Z</time>
      </trkpt>
      <trkpt lat="47.25347" lon="4.96605">
        <ele>404.5</ele>
        <time>2013-04-06T08:09:57.000Z</time>
      </trkpt>
      <trkpt lat="47.25346" lon="4.966">
        <ele>404.6</ele>
        <time>2013-04-06T08:09:59.000Z</time>
      </trkpt>
      <trkpt lat="47.25346" lon="4.96598">
        <ele>404.7</ele>
        <time>2013-04-06T08:10:00.000Z</time>
      </trkpt>
      <trkpt lat="47.25345" lon="4.96595">
        <ele>404.8</ele>
        <time>2013-04-06T08:10:01.000Z</time>
      </trkpt>
      <trkpt lat="47.25346" lon="4.96577">
        <ele>408.5</ele>
        <time>2013-04-06T08:10:08.000Z</time>
      </trkpt>
      <trkpt lat="47.25344" lon="4.96574">
        <ele>410.6</ele>
        <time>2013-04-06T08:10:11.000Z</time>
      </trkpt>
      <trkpt lat="47.25343" lon="4.96572">
        <ele>411</ele>
        <time>2013-04-06T08:10:12.000Z</time>
      </trkpt>
      <trkpt lat="47.25341" lon="4.96567">
        <ele>412.5</ele>
        <time>2013-04-06T08:10:15.000Z</time>
      </trkpt>
      <trkpt lat="47.25341" lon="4.96565">
        <ele>413.1</ele>
        <time>2013-04-06T08:10:16.000Z</time>
      </trkpt>
      <trkpt lat="47.2534" lon="4.9656">
        <ele>414.5</ele>
        <time>2013-04-06T08:10:19.000Z</time>
      </trkpt>
      <trkpt lat="47.2534" lon="4.96559">
        <ele>414.5</ele>
        <time>2013-04-06T08:10:20.000Z</time>
      </trkpt>
      <trkpt lat="47.25338" lon="4.96554">
        <ele>413.7</ele>
        <time>2013-04-06T08:10:22.000Z</time>
      </trkpt>
      <trkpt lat="47.25337" lon="4.96552">
        <ele>414</ele>
        <time>2013-04-06T08:10:23.000Z</time>
      </trkpt>
      <trkpt lat="47.25336" lon="4.96547">
        <ele>413.3</ele>
        <time>2013-04-06T08:10:25.000Z</time>
      </trkpt>
      <trkpt lat="47.25335" lon="4.96544">
        <ele>413.3</ele>
        <time>2013-04-06T08:10:26.000Z</time>
      </trkpt>
      <trkpt lat="47.25335" lon="4.96539">
        <ele>411.5</ele>
        <time>2013-04-06T08:10:28.000Z</time>
      </trkpt>
      <trkpt lat="47.25335" lon="4.96536">
        <ele>410.6</ele>
        <time>2013-04-06T08:10:29.000Z</time>
      </trkpt>
      <trkpt lat="47.25335" lon="4.96531">
        <ele>409.6</ele>
        <time>2013-04-06T08:10:32.000Z</time>
      </trkpt>
      <trkpt lat="47.25335" lon="4.96529">
        <ele>409.1</ele>
        <time>2013-04-06T08:10:33.000Z</time>
      </trkpt>
      <trkpt lat="47.25334" lon="4.96523">
        <ele>407.7</ele>
        <time>2013-04-06T08:10:37.000Z</time>
      </trkpt>
      <trkpt lat="47.25333" lon="4.96521">
        <ele>407.3</ele>
        <time>2013-04-06T08:10:38.000Z</time>
      </trkpt>
      <trkpt lat="47.25332" lon="4.96515">
        <ele>405.3</ele>
        <time>2013-04-06T08:10:41.000Z</time>
      </trkpt>
      <trkpt lat="47.25331" lon="4.96515">
        <ele>404.7</ele>
        <time>2013-04-06T08:10:42.000Z</time>
      </trkpt>
      <trkpt lat="47.25332" lon="4.96509">
        <ele>404.3</ele>
        <time>2013-04-06T08:10:47.000Z</time>
      </trkpt>
      <trkpt lat="47.25334" lon="4.96509">
        <ele>404.2</ele>
        <time>2013-04-06T08:10:48.000Z</time>
      </trkpt>
      <trkpt lat="47.25333" lon="4.96508">
        <ele>404.2</ele>
        <time>2013-04-06T08:11:01.000Z</time>
      </trkpt>
      <trkpt lat="47.25309" lon="4.96501">
        <ele>397.8</ele>
        <time>2013-04-06T08:11:08.000Z</time>
      </trkpt>
      <trkpt lat="47.25305" lon="4.96502">
        <ele>402.6</ele>
        <time>2013-04-06T08:11:14.000Z</time>
      </trkpt>
      <trkpt lat="47.25304" lon="4.96503">
        <ele>403.8</ele>
        <time>2013-04-06T08:11:15.000Z</time>
      </trkpt>
      <trkpt lat="47.25301" lon="4.96506">
        <ele>410</ele>
        <time>2013-04-06T08:11:19.000Z</time>
      </trkpt>
      <trkpt lat="47.25299" lon="4.96507">
        <ele>411.6</ele>
        <time>2013-04-06T08:11:20.000Z</time>
      </trkpt>
      <trkpt lat="47.25297" lon="4.9651">
        <ele>413</ele>
        <time>2013-04-06T08:11:22.000Z</time>
      </trkpt>
      <trkpt lat="47.25295" lon="4.96512">
        <ele>413</ele>
        <time>2013-04-06T08:11:23.000Z</time>
      </trkpt>
      <trkpt lat="47.25292" lon="4.96513">
        <ele>413.1</ele>
        <time>2013-04-06T08:11:25.000Z</time>
      </trkpt>
      <trkpt lat="47.25291" lon="4.96514">
        <ele>412.8</ele>
        <time>2013-04-06T08:11:26.000Z</time>
      </trkpt>
      <trkpt lat="47.25287" lon="4.96517">
        <ele>413.7</ele>
        <time>2013-04-06T08:11:29.000Z</time>
      </trkpt>
      <trkpt lat="47.25286" lon="4.96518">
        <ele>413.7</ele>
        <time>2013-04-06T08:11:30.000Z</time>
      </trkpt>
      <trkpt lat="47.25284" lon="4.96523">
        <ele>411.3</ele>
        <time>2013-04-06T08:11:35.000Z</time>
      </trkpt>
      <trkpt lat="47.25283" lon="4.96524">
        <ele>411</ele>
        <time>2013-04-06T08:11:36.000Z</time>
      </trkpt>
      <trkpt lat="47.25281" lon="4.96529">
        <ele>410.8</ele>
        <time>2013-04-06T08:11:40.000Z</time>
      </trkpt>
      <trkpt lat="47.2528" lon="4.96531">
        <ele>410.8</ele>
        <time>2013-04-06T08:11:41.000Z</time>
      </trkpt>
      <trkpt lat="47.25278" lon="4.96537">
        <ele>411.6</ele>
        <time>2013-04-06T08:11:44.000Z</time>
      </trkpt>
      <trkpt lat="47.25277" lon="4.96539">
        <ele>412</ele>
        <time>2013-04-06T08:11:45.000Z</time>
      </trkpt>
      <trkpt lat="47.25277" lon="4.96544">
        <ele>412.3</ele>
        <time>2013-04-06T08:11:48.000Z</time>
      </trkpt>
      <trkpt lat="47.25277" lon="4.96547">
        <ele>412.9</ele>
        <time>2013-04-06T08:11:49.000Z</time>
      </trkpt>
      <trkpt lat="47.25277" lon="4.96552">
        <ele>413.1</ele>
        <time>2013-04-06T08:11:51.000Z</time>
      </trkpt>
      <trkpt lat="47.25276" lon="4.96554">
        <ele>413.1</ele>
        <time>2013-04-06T08:11:52.000Z</time>
      </trkpt>
      <trkpt lat="47.25274" lon="4.96558">
        <ele>413.3</ele>
        <time>2013-04-06T08:11:54.000Z</time>
      </trkpt>
      <trkpt lat="47.25272" lon="4.96561">
        <ele>413.8</ele>
        <time>2013-04-06T08:11:55.000Z</time>
      </trkpt>
      <trkpt lat="47.2527" lon="4.96565">
        <ele>414.1</ele>
        <time>2013-04-06T08:11:57.000Z</time>
      </trkpt>
      <trkpt lat="47.25269" lon="4.96568">
        <ele>414.2</ele>
        <time>2013-04-06T08:11:58.000Z</time>
      </trkpt>
      <trkpt lat="47.25267" lon="4.96572">
        <ele>414.4</ele>
        <time>2013-04-06T08:12:00.000Z</time>
      </trkpt>
      <trkpt lat="47.25266" lon="4.96575">
        <ele>414.6</ele>
        <time>2013-04-06T08:12:01.000Z</time>
      </trkpt>
      <trkpt lat="47.25259" lon="4.96597">
        <ele>412.4</ele>
        <time>2013-04-06T08:12:08.000Z</time>
      </trkpt>
      <trkpt lat="47.25255" lon="4.96599">
        <ele>411</ele>
        <time>2013-04-06T08:12:10.000Z</time>
      </trkpt>
      <trkpt lat="47.25254" lon="4.966">
        <ele>411.9</ele>
        <time>2013-04-06T08:12:11.000Z</time>
      </trkpt>
      <trkpt lat="47.25253" lon="4.96605">
        <ele>412.4</ele>
        <time>2013-04-06T08:12:14.000Z</time>
      </trkpt>
      <trkpt lat="47.25252" lon="4.96607">
        <ele>412.4</ele>
        <time>2013-04-06T08:12:15.000Z</time>
      </trkpt>
      <trkpt lat="47.25249" lon="4.96611">
        <ele>411.2</ele>
        <time>2013-04-06T08:12:17.000Z</time>
      </trkpt>
      <trkpt lat="47.25248" lon="4.96613">
        <ele>410.7</ele>
        <time>2013-04-06T08:12:18.000Z</time>
      </trkpt>
      <trkpt lat="47.25246" lon="4.96617">
        <ele>410.8</ele>
        <time>2013-04-06T08:12:20.000Z</time>
      </trkpt>
      <trkpt lat="47.25245" lon="4.96619">
        <ele>410.5</ele>
        <time>2013-04-06T08:12:21.000Z</time>
      </trkpt>
      <trkpt lat="47.25244" lon="4.96624">
        <ele>411.1</ele>
        <time>2013-04-06T08:12:23.000Z</time>
      </trkpt>
      <trkpt lat="47.25242" lon="4.96627">
        <ele>411.3</ele>
        <time>2013-04-06T08:12:24.000Z</time>
      </trkpt>
      <trkpt lat="47.2524" lon="4.96632">
        <ele>411.9</ele>
        <time>2013-04-06T08:12:26.000Z</time>
      </trkpt>
      <trkpt lat="47.25239" lon="4.96635">
        <ele>412.1</ele>
        <time>2013-04-06T08:12:27.000Z</time>
      </trkpt>
      <trkpt lat="47.25238" lon="4.96639">
        <ele>410.6</ele>
        <time>2013-04-06T08:12:28.000Z</time>
      </trkpt>
      <trkpt lat="47.25237" lon="4.96642">
        <ele>409.7</ele>
        <time>2013-04-06T08:12:29.000Z</time>
      </trkpt>
      <trkpt lat="47.25235" lon="4.96648">
        <ele>407.4</ele>
        <time>2013-04-06T08:12:31.000Z</time>
      </trkpt>
      <trkpt lat="47.25234" lon="4.9665">
        <ele>406.9</ele>
        <time>2013-04-06T08:12:32.000Z</time>
      </trkpt>
      <trkpt lat="47.25232" lon="4.96656">
        <ele>404.7</ele>
        <time>2013-04-06T08:12:34.000Z</time>
      </trkpt>
      <trkpt lat="47.25231" lon="4.96658">
        <ele>403.1</ele>
        <time>2013-04-06T08:12:35.000Z</time>
      </trkpt>
      <trkpt lat="47.25229" lon="4.96663">
        <ele>401.7</ele>
        <time>2013-04-06T08:12:39.000Z</time>
      </trkpt>
      <trkpt lat="47.25229" lon="4.96664">
        <ele>401.9</ele>
        <time>2013-04-06T08:12:40.000Z</time>
      </trkpt>
      <trkpt lat="47.2523" lon="4.9667">
        <ele>401.3</ele>
        <time>2013-04-06T08:12:44.000Z</time>
      </trkpt>
      <trkpt lat="47.2523" lon="4.96671">
        <ele>401</ele>
        <time>2013-04-06T08:12:45.000Z</time>
      </trkpt>
      <trkpt lat="47.2523" lon="4.96678">
        <ele>401.5</ele>
        <time>2013-04-06T08:12:50.000Z</time>
      </trkpt>
      <trkpt lat="47.25229" lon="4.96679">
        <ele>401.3</ele>
        <time>2013-04-06T08:12:51.000Z</time>
      </trkpt>
      <trkpt lat="47.25227" lon="4.96685">
        <ele>402.2</ele>
        <time>2013-04-06T08:12:54.000Z</time>
      </trkpt>
      <trkpt lat="47.25226" lon="4.96687">
        <ele>402.2</ele>
        <time>2013-04-06T08:12:55.000Z</time>
      </trkpt>
      <trkpt lat="47.25224" lon="4.96691">
        <ele>402.3</ele>
        <time>2013-04-06T08:12:57.000Z</time>
      </trkpt>
      <trkpt lat="47.25223" lon="4.96694">
        <ele>402.1</ele>
        <time>2013-04-06T08:12:58.000Z</time>
      </trkpt>
      <trkpt lat="47.25219" lon="4.96698">
        <ele>402.2</ele>
        <time>2013-04-06T08:13:00.000Z</time>
      </trkpt>
      <trkpt lat="47.25218" lon="4.967">
        <ele>402.3</ele>
        <time>2013-04-06T08:13:01.000Z</time>
      </trkpt>
      <trkpt lat="47.25199" lon="4.96721">
        <ele>413.3</ele>
        <time>2013-04-06T08:13:08.000Z</time>
      </trkpt>
      <trkpt lat="47.25196" lon="4.96726">
        <ele>411.9</ele>
        <time>2013-04-06T08:13:10.000Z</time>
      </trkpt>
      <trkpt lat="47.25195" lon="4.96728">
        <ele>410.7</ele>
        <time>2013-04-06T08:13:11.000Z</time>
      </trkpt>
      <trkpt lat="47.25194" lon="4.96732">
        <ele>410.5</ele>
        <time>2013-04-06T08:13:13.000Z</time>
      </trkpt>
      <trkpt lat="47.25193" lon="4.96735">
        <ele>409.6</ele>
        <time>2013-04-06T08:13:14.000Z</time>
      </trkpt>
      <trkpt lat="47.25192" lon="4.96739">
        <ele>408.1</ele>
        <time>2013-04-06T08:13:16.000Z</time>
      </trkpt>
      <trkpt lat="47.25192" lon="4.96742">
        <ele>407.7</ele>
        <time>2013-04-06T08:13:17.000Z</time>
      </trkpt>
      <trkpt lat="47.2519" lon="4.96747">
        <ele>405.2</ele>
        <time>2013-04-06T08:13:19.000Z</time>
      </trkpt>
      <trkpt lat="47.2519" lon="4.96749">
        <ele>404.9</ele>
        <time>2013-04-06T08:13:20.000Z</time>
      </trkpt>
      <trkpt lat="47.2519" lon="4.96752">
        <ele>404.4</ele>
        <time>2013-04-06T08:13:21.000Z</time>
      </trkpt>
      <trkpt lat="47.25189" lon="4.96756">
        <ele>404</ele>
        <time>2013-04-06T08:13:22.000Z</time>
      </trkpt>
      <trkpt lat="47.25187" lon="4.96759">
        <ele>403.1</ele>
        <time>2013-04-06T08:13:23.000Z</time>
      </trkpt>
      <trkpt lat="47.25186" lon="4.96763">
        <ele>401.8</ele>
        <time>2013-04-06T08:13:24.000Z</time>
      </trkpt>
      <trkpt lat="47.25184" lon="4.96766">
        <ele>401.7</ele>
        <time>2013-04-06T08:13:25.000Z</time>
      </trkpt>
      <trkpt lat="47.25182" lon="4.9677">
        <ele>401.3</ele>
        <time>2013-04-06T08:13:26.000Z</time>
      </trkpt>
      <trkpt lat="47.2518" lon="4.96775">
        <ele>400</ele>
        <time>2013-04-06T08:13:28.000Z</time>
      </trkpt>
      <trkpt lat="47.25178" lon="4.96777">
        <ele>399.5</ele>
        <time>2013-04-06T08:13:29.000Z</time>
      </trkpt>
      <trkpt lat="47.25177" lon="4.96783">
        <ele>398</ele>
        <time>2013-04-06T08:13:31.000Z</time>
      </trkpt>
      <trkpt lat="47.25177" lon="4.96785">
        <ele>397.5</ele>
        <time>2013-04-06T08:13:32.000Z</time>
      </trkpt>
      <trkpt lat="47.25178" lon="4.96791">
        <ele>397.2</ele>
        <time>2013-04-06T08:13:34.000Z</time>
      </trkpt>
      <trkpt lat="47.25179" lon="4.96793">
        <ele>397</ele>
        <time>2013-04-06T08:13:35.000Z</time>
      </trkpt>
      <trkpt lat="47.25178" lon="4.96799">
        <ele>397.2</ele>
        <time>2013-04-06T08:13:37.000Z</time>
      </trkpt>
      <trkpt lat="47.25177" lon="4.96801">
        <ele>397.5</ele>
        <time>2013-04-06T08:13:38.000Z</time>
      </trkpt>
      <trkpt lat="47.25176" lon="4.96804">
        <ele>397.1</ele>
        <time>2013-04-06T08:13:39.000Z</time>
      </trkpt>
      <trkpt lat="47.25174" lon="4.96806">
        <ele>396.2</ele>
        <time>2013-04-06T08:13:40.000Z</time>
      </trkpt>
      <trkpt lat="47.25172" lon="4.96808">
        <ele>395.4</ele>
        <time>2013-04-06T08:13:41.000Z</time>
      </trkpt>
      <trkpt lat="47.2517" lon="4.9681">
        <ele>394.8</ele>
        <time>2013-04-06T08:13:42.000Z</time>
      </trkpt>
      <trkpt lat="47.25167" lon="4.96812">
        <ele>394.1</ele>
        <time>2013-04-06T08:13:44.000Z</time>
      </trkpt>
      <trkpt lat="47.25166" lon="4.96813">
        <ele>393.6</ele>
        <time>2013-04-06T08:13:45.000Z</time>
      </trkpt>
      <trkpt lat="47.25162" lon="4.96814">
        <ele>393.1</ele>
        <time>2013-04-06T08:13:49.000Z</time>
      </trkpt>
      <trkpt lat="47.25161" lon="4.96814">
        <ele>392.9</ele>
        <time>2013-04-06T08:13:50.000Z</time>
      </trkpt>
      <trkpt lat="47.25158" lon="4.96814">
        <ele>391.7</ele>
        <time>2013-04-06T08:14:01.000Z</time>
      </trkpt>
      <trkpt lat="47.25156" lon="4.96806">
        <ele>387</ele>
        <time>2013-04-06T08:14:08.000Z</time>
      </trkpt>
      <trkpt lat="47.25155" lon="4.96803">
        <ele>386.1</ele>
        <time>2013-04-06T08:14:26.000Z</time>
      </trkpt>
      <trkpt lat="47.25152" lon="4.96801">
        <ele>385.3</ele>
        <time>2013-04-06T08:14:27.000Z</time>
      </trkpt>
      <trkpt lat="47.25148" lon="4.96803">
        <ele>387.3</ele>
        <time>2013-04-06T08:14:32.000Z</time>
      </trkpt>
      <trkpt lat="47.25147" lon="4.96803">
        <ele>387.7</ele>
        <time>2013-04-06T08:14:33.000Z</time>
      </trkpt>
      <trkpt lat="47.25144" lon="4.96803">
        <ele>388.5</ele>
        <time>2013-04-06T08:14:37.000Z</time>
      </trkpt>
      <trkpt lat="47.25143" lon="4.96803">
        <ele>388.6</ele>
        <time>2013-04-06T08:14:38.000Z</time>
      </trkpt>
      <trkpt lat="47.25139" lon="4.96805">
        <ele>389.9</ele>
        <time>2013-04-06T08:14:42.000Z</time>
      </trkpt>
      <trkpt lat="47.25138" lon="4.96805">
        <ele>390.3</ele>
        <time>2013-04-06T08:14:43.000Z</time>
      </trkpt>
      <trkpt lat="47.25134" lon="4.96804">
        <ele>391.5</ele>
        <time>2013-04-06T08:14:47.000Z</time>
      </trkpt>
      <trkpt lat="47.25133" lon="4.96803">
        <ele>391.6</ele>
        <time>2013-04-06T08:14:48.000Z</time>
      </trkpt>
      <trkpt lat="47.25129" lon="4.96801">
        <ele>392.8</ele>
        <time>2013-04-06T08:14:53.000Z</time>
      </trkpt>
      <trkpt lat="47.25129" lon="4.96801">
        <ele>393</ele>
        <time>2013-04-06T08:14:54.000Z</time>
      </trkpt>
      <trkpt lat="47.25126" lon="4.96797">
        <ele>392.3</ele>
        <time>2013-04-06T08:14:57.000Z</time>
      </trkpt>
      <trkpt lat="47.25125" lon="4.96796">
        <ele>392</ele>
        <time>2013-04-06T08:14:58.000Z</time>
      </trkpt>
      <trkpt lat="47.25123" lon="4.96791">
        <ele>391.6</ele>
        <time>2013-04-06T08:15:02.000Z</time>
      </trkpt>
      <trkpt lat="47.25123" lon="4.9679">
        <ele>392</ele>
        <time>2013-04-06T08:15:03.000Z</time>
      </trkpt>
      <trkpt lat="47.25121" lon="4.96784">
        <ele>393.4</ele>
        <time>2013-04-06T08:15:07.000Z</time>
      </trkpt>
      <trkpt lat="47.25121" lon="4.96783">
        <ele>393.7</ele>
        <time>2013-04-06T08:15:08.000Z</time>
      </trkpt>
      <trkpt lat="47.25118" lon="4.96778">
        <ele>395.3</ele>
        <time>2013-04-06T08:15:12.000Z</time>
      </trkpt>
      <trkpt lat="47.25117" lon="4.96777">
        <ele>395.6</ele>
        <time>2013-04-06T08:15:13.000Z</time>
      </trkpt>
      <trkpt lat="47.25115" lon="4.96773">
        <ele>397.1</ele>
        <time>2013-04-06T08:15:17.000Z</time>
      </trkpt>
      <trkpt lat="47.25114" lon="4.96772">
        <ele>397.4</ele>
        <time>2013-04-06T08:15:18.000Z</time>
      </trkpt>
      <trkpt lat="47.25111" lon="4.96768">
        <ele>398.2</ele>
        <time>2013-04-06T08:15:21.000Z</time>
      </trkpt>
      <trkpt lat="47.2511" lon="4.96767">
        <ele>398.4</ele>
        <time>2013-04-06T08:15:22.000Z</time>
      </trkpt>
      <trkpt lat="47.25109" lon="4.96761">
        <ele>398.9</ele>
        <time>2013-04-06T08:15:26.000Z</time>
      </trkpt>
      <trkpt lat="47.25109" lon="4.9676">
        <ele>398.8</ele>
        <time>2013-04-06T08:15:27.000Z</time>
      </trkpt>
      <trkpt lat="47.25107" lon="4.96755">
        <ele>400.2</ele>
        <time>2013-04-06T08:15:45.000Z</time>
      </trkpt>
      <trkpt lat="47.25107" lon="4.96754">
        <ele>400.4</ele>
        <time>2013-04-06T08:15:46.000Z</time>
      </trkpt>
      <trkpt lat="47.25103" lon="4.96752">
        <ele>402</ele>
        <time>2013-04-06T08:15:50.000Z</time>
      </trkpt>
      <trkpt lat="47.25102" lon="4.96752">
        <ele>402.3</ele>
        <time>2013-04-06T08:15:51.000Z</time>
      </trkpt>
      <trkpt lat="47.25098" lon="4.96751">
        <ele>403.3</ele>
        <time>2013-04-06T08:15:54.000Z</time>
      </trkpt>
      <trkpt lat="47.25097" lon="4.96751">
        <ele>403.5</ele>
        <time>2013-04-06T08:15:55.000Z</time>
      </trkpt>
      <trkpt lat="47.25093" lon="4.9675">
        <ele>404.1</ele>
        <time>2013-04-06T08:15:58.000Z</time>
      </trkpt>
      <trkpt lat="47.25092" lon="4.96749">
        <ele>404.3</ele>
        <time>2013-04-06T08:15:59.000Z</time>
      </trkpt>
      <trkpt lat="47.2509" lon="4.96748">
        <ele>404.4</ele>
        <time>2013-04-06T08:16:01.000Z</time>
      </trkpt>
      <trkpt lat="47.25077" lon="4.96743">
        <ele>404.5</ele>
        <time>2013-04-06T08:16:08.000Z</time>
      </trkpt>
      <trkpt lat="47.25074" lon="4.96745">
        <ele>406.8</ele>
        <time>2013-04-06T08:16:10.000Z</time>
      </trkpt>
      <trkpt lat="47.25073" lon="4.96747">
        <ele>407.5</ele>
        <time>2013-04-06T08:16:11.000Z</time>
      </trkpt>
      <trkpt lat="47.25071" lon="4.96752">
        <ele>407.2</ele>
        <time>2013-04-06T08:16:14.000Z</time>
      </trkpt>
      <trkpt lat="47.2507" lon="4.96754">
        <ele>407.6</ele>
        <time>2013-04-06T08:16:15.000Z</time>
      </trkpt>
      <trkpt lat="47.25067" lon="4.96758">
        <ele>406.9</ele>
        <time>2013-04-06T08:16:18.000Z</time>
      </trkpt>
      <trkpt lat="47.25066" lon="4.9676">
        <ele>405.5</ele>
        <time>2013-04-06T08:16:19.000Z</time>
      </trkpt>
      <trkpt lat="47.25063" lon="4.96762">
        <ele>403.9</ele>
        <time>2013-04-06T08:16:21.000Z</time>
      </trkpt>
      <trkpt lat="47.2506" lon="4.96764">
        <ele>404.7</ele>
        <time>2013-04-06T08:16:22.000Z</time>
      </trkpt>
      <trkpt lat="47.25057" lon="4.96768">
        <ele>405.8</ele>
        <time>2013-04-06T08:16:25.000Z</time>
      </trkpt>
      <trkpt lat="47.25057" lon="4.96769">
        <ele>406.3</ele>
        <time>2013-04-06T08:16:26.000Z</time>
      </trkpt>
      <trkpt lat="47.25054" lon="4.96769">
        <ele>409.9</ele>
        <time>2013-04-06T08:16:30.000Z</time>
      </trkpt>
      <trkpt lat="47.25052" lon="4.96769">
        <ele>409.7</ele>
        <time>2013-04-06T08:16:31.000Z</time>
      </trkpt>
      <trkpt lat="47.25051" lon="4.96771">
        <ele>409.8</ele>
        <time>2013-04-06T08:16:32.000Z</time>
      </trkpt>
      <trkpt lat="47.25048" lon="4.96773">
        <ele>408</ele>
        <time>2013-04-06T08:16:33.000Z</time>
      </trkpt>
      <trkpt lat="47.25046" lon="4.96774">
        <ele>406.9</ele>
        <time>2013-04-06T08:16:34.000Z</time>
      </trkpt>
      <trkpt lat="47.25043" lon="4.96775">
        <ele>406.4</ele>
        <time>2013-04-06T08:16:35.000Z</time>
      </trkpt>
      <trkpt lat="47.25039" lon="4.96772">
        <ele>405.5</ele>
        <time>2013-04-06T08:16:38.000Z</time>
      </trkpt>
      <trkpt lat="47.25038" lon="4.96769">
        <ele>404.6</ele>
        <time>2013-04-06T08:16:39.000Z</time>
      </trkpt>
      <trkpt lat="47.25033" lon="4.9677">
        <ele>400.8</ele>
        <time>2013-04-06T08:16:46.000Z</time>
      </trkpt>
      <trkpt lat="47.25032" lon="4.96772">
        <ele>399.9</ele>
        <time>2013-04-06T08:16:47.000Z</time>
      </trkpt>
      <trkpt lat="47.2503" lon="4.96777">
        <ele>398.4</ele>
        <time>2013-04-06T08:16:58.000Z</time>
      </trkpt>
      <trkpt lat="47.25029" lon="4.96778">
        <ele>398.3</ele>
        <time>2013-04-06T08:16:59.000Z</time>
      </trkpt>
      <trkpt lat="47.25028" lon="4.9678">
        <ele>398.1</ele>
        <time>2013-04-06T08:17:01.000Z</time>
      </trkpt>
      <trkpt lat="47.25018" lon="4.96789">
        <ele>392.1</ele>
        <time>2013-04-06T08:17:08.000Z</time>
      </trkpt>
      <trkpt lat="47.25016" lon="4.96794">
        <ele>392.8</ele>
        <time>2013-04-06T08:17:14.000Z</time>
      </trkpt>
      <trkpt lat="47.25016" lon="4.96795">
        <ele>392.8</ele>
        <time>2013-04-06T08:17:15.000Z</time>
      </trkpt>
      <trkpt lat="47.25014" lon="4.968">
        <ele>392.6</ele>
        <time>2013-04-06T08:17:19.000Z</time>
      </trkpt>
      <trkpt lat="47.25014" lon="4.96802">
        <ele>392.1</ele>
        <time>2013-04-06T08:17:20.000Z</time>
      </trkpt>
      <trkpt lat="47.25013" lon="4.96807">
        <ele>390.3</ele>
        <time>2013-04-06T08:17:24.000Z</time>
      </trkpt>
      <trkpt lat="47.25013" lon="4.96808">
        <ele>390.4</ele>
        <time>2013-04-06T08:17:25.000Z</time>
      </trkpt>
      <trkpt lat="47.25013" lon="4.96815">
        <ele>389.9</ele>
        <time>2013-04-06T08:17:29.000Z</time>
      </trkpt>
      <trkpt lat="47.25013" lon="4.96816">
        <ele>389.7</ele>
        <time>2013-04-06T08:17:30.000Z</time>
      </trkpt>
      <trkpt lat="47.25014" lon="4.96822">
        <ele>389.8</ele>
        <time>2013-04-06T08:17:34.000Z</time>
      </trkpt>
      <trkpt lat="47.25014" lon="4.96823">
        <ele>389.5</ele>
        <time>2013-04-06T08:17:35.000Z</time>
      </trkpt>
      <trkpt lat="47.25013" lon="4.9683">
        <ele>387.3</ele>
        <time>2013-04-06T08:17:39.000Z</time>
      </trkpt>
      <trkpt lat="47.25013" lon="4.96831">
        <ele>386.6</ele>
        <time>2013-04-06T08:17:40.000Z</time>
      </trkpt>
      <trkpt lat="47.25011" lon="4.96836">
        <ele>384.8</ele>
        <time>2013-04-06T08:17:43.000Z</time>
      </trkpt>
      <trkpt lat="47.25011" lon="4.96838">
        <ele>384.5</ele>
        <time>2013-04-06T08:17:44.000Z</time>
      </trkpt>
      <trkpt lat="47.2501" lon="4.96843">
        <ele>383.5</ele>
        <time>2013-04-06T08:17:47.000Z</time>
      </trkpt>
      <trkpt lat="47.2501" lon="4.96845">
        <ele>383.3</ele>
        <time>2013-04-06T08:17:48.000Z</time>
      </trkpt>
      <trkpt lat="47.25009" lon="4.9685">
        <ele>383</ele>
        <time>2013-04-06T08:17:51.000Z</time>
      </trkpt>
      <trkpt lat="47.25008" lon="4.96852">
        <ele>382.7</ele>
        <time>2013-04-06T08:17:52.000Z</time>
      </trkpt>
      <trkpt lat="47.25007" lon="4.96856">
        <ele>382</ele>
        <time>2013-04-06T08:17:56.000Z</time>
      </trkpt>
      <trkpt lat="47.25006" lon="4.96857">
        <ele>381.8</ele>
        <time>2013-04-06T08:17:57.000Z</time>
      </trkpt>
      <trkpt lat="47.25004" lon="4.96862">
        <ele>381.6</ele>
        <time>2013-04-06T08:18:01.000Z</time>
      </trkpt>
      <trkpt lat="47.24998" lon="4.96876">
        <ele>379.7</ele>
        <time>2013-04-06T08:18:08.000Z</time>
      </trkpt>
      <trkpt lat="47.24996" lon="4.96882">
        <ele>377.8</ele>
        <time>2013-04-06T08:18:21.000Z</time>
      </trkpt>
      <trkpt lat="47.24996" lon="4.96882">
        <ele>378.1</ele>
        <time>2013-04-06T08:18:22.000Z</time>
      </trkpt>
      <trkpt lat="47.24996" lon="4.96885">
        <ele>379.1</ele>
        <time>2013-04-06T08:18:44.000Z</time>
      </trkpt>
    </trkseg>
  </trk>
</gpx>